<?xml version='1.0' encoding='UTF-8'?><gpx version="1.1" creator="JPX - https://github.com/jenetics/jpx" xmlns="http://www.topografix.com/GPX/1/1"><trk><trkseg><trkpt lat="44.74606" lon="8.062608"><ele>154.0</ele><time>2026-04-18T15:41:30.989Z</time></trkpt><trkpt lat="44.7460958" lon="8.0625347"><ele>154.0</ele><time>2026-04-18T15:41:36.989Z</time></trkpt><trkpt lat="44.7460228" lon="8.0624633"><ele>154.0</ele><time>2026-04-18T15:42:14.982Z</time></trkpt><trkpt lat="44.745944" lon="8.0623857"><ele>154.0</ele><time>2026-04-18T15:42:16.982Z</time></trkpt><trkpt lat="44.745827" lon="8.0623225"><ele>154.0</ele><time>2026-04-18T15:42:18.985Z</time></trkpt><trkpt lat="44.7456704" lon="8.0622918"><ele>154.4</ele><time>2026-04-18T15:42:21.937Z</time></trkpt><trkpt lat="44.7455709" lon="8.0622703"><ele>154.8</ele><time>2026-04-18T15:42:22.979Z</time></trkpt><trkpt lat="44.7454902" lon="8.0622713"><ele>155.2</ele><time>2026-04-18T15:42:24.716Z</time></trkpt><trkpt lat="44.7453803" lon="8.0622313"><ele>155.6</ele><time>2026-04-18T15:42:26.918Z</time></trkpt><trkpt lat="44.7453169" lon="8.0621659"><ele>156.0</ele><time>2026-04-18T15:42:28.915Z</time></trkpt><trkpt lat="44.74529" lon="8.0620377"><ele>156.0</ele><time>2026-04-18T15:43:30.972Z</time></trkpt><trkpt lat="44.7453009" lon="8.0619361"><ele>156.0</ele><time>2026-04-18T15:43:32.907Z</time></trkpt><trkpt lat="44.7453166" lon="8.0618186"><ele>156.0</ele><time>2026-04-18T15:43:34.088Z</time></trkpt><trkpt lat="44.7453508" lon="8.0615869"><ele>156.0</ele><time>2026-04-18T15:43:35.911Z</time></trkpt><trkpt lat="44.7453832" lon="8.061362"><ele>155.75</ele><time>2026-04-18T15:43:36.973Z</time></trkpt><trkpt lat="44.7453964" lon="8.0612118"><ele>155.5</ele><time>2026-04-18T15:43:37.98Z</time></trkpt><trkpt lat="44.7454304" lon="8.0609461"><ele>155.25</ele><time>2026-04-18T15:43:40.909Z</time></trkpt><trkpt lat="44.7454511" lon="8.0608309"><ele>155.0</ele><time>2026-04-18T15:43:41.97Z</time></trkpt><trkpt lat="44.7454888" lon="8.0606657"><ele>154.8</ele><time>2026-04-18T15:43:44.977Z</time></trkpt><trkpt lat="44.745564" lon="8.0605698"><ele>154.6</ele><time>2026-04-18T15:43:46.967Z</time></trkpt><trkpt lat="44.7456525" lon="8.0604182"><ele>154.4</ele><time>2026-04-18T15:43:50.231Z</time></trkpt><trkpt lat="44.7456169" lon="8.060298"><ele>154.2</ele><time>2026-04-18T15:43:50.965Z</time></trkpt><trkpt lat="44.7455856" lon="8.0602159"><ele>154.0</ele><time>2026-04-18T15:43:53.077Z</time></trkpt><trkpt lat="44.7454247" lon="8.0601071"><ele>154.0</ele><time>2026-04-18T15:43:55.932Z</time></trkpt><trkpt lat="44.7452917" lon="8.0600626"><ele>154.0</ele><time>2026-04-18T15:43:56.968Z</time></trkpt><trkpt lat="44.7452042" lon="8.0599882"><ele>154.0</ele><time>2026-04-18T15:43:57.986Z</time></trkpt><trkpt lat="44.745114" lon="8.0599074"><ele>154.0</ele><time>2026-04-18T15:43:58.975Z</time></trkpt><trkpt lat="44.7450215" lon="8.0598217"><ele>154.25</ele><time>2026-04-18T15:43:59.972Z</time></trkpt><trkpt lat="44.7449298" lon="8.0597331"><ele>154.5</ele><time>2026-04-18T15:44:00.971Z</time></trkpt><trkpt lat="44.7448378" lon="8.0596448"><ele>154.75</ele><time>2026-04-18T15:44:01.971Z</time></trkpt><trkpt lat="44.7447399" lon="8.0595561"><ele>155.0</ele><time>2026-04-18T15:44:02.972Z</time></trkpt><trkpt lat="44.7446381" lon="8.0594634"><ele>155.0</ele><time>2026-04-18T15:44:03.972Z</time></trkpt><trkpt lat="44.7445352" lon="8.0593691"><ele>155.0</ele><time>2026-04-18T15:44:04.972Z</time></trkpt><trkpt lat="44.7444317" lon="8.0592696"><ele>155.0</ele><time>2026-04-18T15:44:05.972Z</time></trkpt><trkpt lat="44.7443235" lon="8.0591689"><ele>155.0</ele><time>2026-04-18T15:44:06.971Z</time></trkpt><trkpt lat="44.7442111" lon="8.0590662"><ele>154.75</ele><time>2026-04-18T15:44:07.972Z</time></trkpt><trkpt lat="44.7440913" lon="8.0589598"><ele>154.5</ele><time>2026-04-18T15:44:08.971Z</time></trkpt><trkpt lat="44.7439715" lon="8.0588503"><ele>154.25</ele><time>2026-04-18T15:44:09.971Z</time></trkpt><trkpt lat="44.743854" lon="8.0587382"><ele>154.0</ele><time>2026-04-18T15:44:10.971Z</time></trkpt><trkpt lat="44.7437431" lon="8.0586332"><ele>154.0</ele><time>2026-04-18T15:44:11.971Z</time></trkpt><trkpt lat="44.7436297" lon="8.0585245"><ele>154.0</ele><time>2026-04-18T15:44:12.971Z</time></trkpt><trkpt lat="44.7435111" lon="8.0584145"><ele>154.0</ele><time>2026-04-18T15:44:13.972Z</time></trkpt><trkpt lat="44.7433871" lon="8.0583027"><ele>154.0</ele><time>2026-04-18T15:44:14.972Z</time></trkpt><trkpt lat="44.743252" lon="8.0581832"><ele>153.0</ele><time>2026-04-18T15:44:15.972Z</time></trkpt><trkpt lat="44.7431089" lon="8.0580513"><ele>152.0</ele><time>2026-04-18T15:44:16.971Z</time></trkpt><trkpt lat="44.742961" lon="8.0579175"><ele>151.0</ele><time>2026-04-18T15:44:17.972Z</time></trkpt><trkpt lat="44.742809" lon="8.0577765"><ele>151.33333333333334</ele><time>2026-04-18T15:44:18.971Z</time></trkpt><trkpt lat="44.7426491" lon="8.0576322"><ele>151.66666666666666</ele><time>2026-04-18T15:44:19.971Z</time></trkpt><trkpt lat="44.7424919" lon="8.0574834"><ele>152.0</ele><time>2026-04-18T15:44:20.972Z</time></trkpt><trkpt lat="44.7423308" lon="8.0573296"><ele>152.0</ele><time>2026-04-18T15:44:21.972Z</time></trkpt><trkpt lat="44.7421664" lon="8.0571747"><ele>152.0</ele><time>2026-04-18T15:44:22.972Z</time></trkpt><trkpt lat="44.7420005" lon="8.0570182"><ele>152.0</ele><time>2026-04-18T15:44:23.972Z</time></trkpt><trkpt lat="44.7418356" lon="8.0568624"><ele>152.33333333333331</ele><time>2026-04-18T15:44:24.972Z</time></trkpt><trkpt lat="44.741673" lon="8.0567134"><ele>152.66666666666666</ele><time>2026-04-18T15:44:25.972Z</time></trkpt><trkpt lat="44.7415183" lon="8.0565629"><ele>153.0</ele><time>2026-04-18T15:44:26.971Z</time></trkpt><trkpt lat="44.7413593" lon="8.0564153"><ele>153.33333333333334</ele><time>2026-04-18T15:44:27.972Z</time></trkpt><trkpt lat="44.7411978" lon="8.0562676"><ele>153.66666666666669</ele><time>2026-04-18T15:44:28.972Z</time></trkpt><trkpt lat="44.7410326" lon="8.056118"><ele>154.0</ele><time>2026-04-18T15:44:29.972Z</time></trkpt><trkpt lat="44.7408711" lon="8.0559682"><ele>154.33333333333334</ele><time>2026-04-18T15:44:30.972Z</time></trkpt><trkpt lat="44.7407087" lon="8.0558174"><ele>154.66666666666666</ele><time>2026-04-18T15:44:31.972Z</time></trkpt><trkpt lat="44.7405447" lon="8.0556666"><ele>155.0</ele><time>2026-04-18T15:44:32.971Z</time></trkpt><trkpt lat="44.7403811" lon="8.0555135"><ele>155.0</ele><time>2026-04-18T15:44:33.972Z</time></trkpt><trkpt lat="44.7402164" lon="8.0553583"><ele>155.0</ele><time>2026-04-18T15:44:34.972Z</time></trkpt><trkpt lat="44.740053" lon="8.0552067"><ele>155.0</ele><time>2026-04-18T15:44:35.971Z</time></trkpt><trkpt lat="44.7398866" lon="8.0550541"><ele>154.33333333333331</ele><time>2026-04-18T15:44:36.971Z</time></trkpt><trkpt lat="44.7397219" lon="8.0549007"><ele>153.66666666666666</ele><time>2026-04-18T15:44:37.972Z</time></trkpt><trkpt lat="44.7395576" lon="8.0547505"><ele>153.0</ele><time>2026-04-18T15:44:38.972Z</time></trkpt><trkpt lat="44.7393915" lon="8.0546033"><ele>152.66666666666666</ele><time>2026-04-18T15:44:39.971Z</time></trkpt><trkpt lat="44.7392302" lon="8.0544533"><ele>152.33333333333331</ele><time>2026-04-18T15:44:40.972Z</time></trkpt><trkpt lat="44.7390674" lon="8.0543049"><ele>152.0</ele><time>2026-04-18T15:44:41.972Z</time></trkpt><trkpt lat="44.7389094" lon="8.0541558"><ele>152.66666666666666</ele><time>2026-04-18T15:44:42.972Z</time></trkpt><trkpt lat="44.7387542" lon="8.0540154"><ele>153.33333333333334</ele><time>2026-04-18T15:44:43.972Z</time></trkpt><trkpt lat="44.738603" lon="8.0538744"><ele>154.0</ele><time>2026-04-18T15:44:44.972Z</time></trkpt><trkpt lat="44.7384556" lon="8.0537373"><ele>154.0</ele><time>2026-04-18T15:44:45.972Z</time></trkpt><trkpt lat="44.7383057" lon="8.0535971"><ele>154.0</ele><time>2026-04-18T15:44:46.972Z</time></trkpt><trkpt lat="44.7381575" lon="8.0534585"><ele>154.0</ele><time>2026-04-18T15:44:47.971Z</time></trkpt><trkpt lat="44.7380068" lon="8.0533241"><ele>153.66666666666669</ele><time>2026-04-18T15:44:48.971Z</time></trkpt><trkpt lat="44.7378571" lon="8.0531889"><ele>153.33333333333334</ele><time>2026-04-18T15:44:49.972Z</time></trkpt><trkpt lat="44.7377088" lon="8.0530552"><ele>153.0</ele><time>2026-04-18T15:44:50.972Z</time></trkpt><trkpt lat="44.7375624" lon="8.0529214"><ele>152.66666666666666</ele><time>2026-04-18T15:44:51.971Z</time></trkpt><trkpt lat="44.7374195" lon="8.0527883"><ele>152.33333333333331</ele><time>2026-04-18T15:44:52.972Z</time></trkpt><trkpt lat="44.7372778" lon="8.0526492"><ele>152.0</ele><time>2026-04-18T15:44:53.971Z</time></trkpt><trkpt lat="44.7371392" lon="8.0525195"><ele>152.0</ele><time>2026-04-18T15:44:54.971Z</time></trkpt><trkpt lat="44.7370072" lon="8.0523911"><ele>152.0</ele><time>2026-04-18T15:44:55.972Z</time></trkpt><trkpt lat="44.7368705" lon="8.0522635"><ele>152.0</ele><time>2026-04-18T15:44:56.972Z</time></trkpt><trkpt lat="44.736734" lon="8.0521377"><ele>152.0</ele><time>2026-04-18T15:44:57.971Z</time></trkpt><trkpt lat="44.7365969" lon="8.0520091"><ele>152.0</ele><time>2026-04-18T15:44:58.972Z</time></trkpt><trkpt lat="44.7364614" lon="8.051886"><ele>152.0</ele><time>2026-04-18T15:44:59.972Z</time></trkpt><trkpt lat="44.7363269" lon="8.0517624"><ele>152.0</ele><time>2026-04-18T15:45:00.971Z</time></trkpt><trkpt lat="44.7361902" lon="8.0516408"><ele>152.0</ele><time>2026-04-18T15:45:01.972Z</time></trkpt><trkpt lat="44.7360542" lon="8.0515217"><ele>152.0</ele><time>2026-04-18T15:45:02.971Z</time></trkpt><trkpt lat="44.7359245" lon="8.051398"><ele>153.0</ele><time>2026-04-18T15:45:03.971Z</time></trkpt><trkpt lat="44.7357902" lon="8.0512785"><ele>154.0</ele><time>2026-04-18T15:45:04.972Z</time></trkpt><trkpt lat="44.7356627" lon="8.0511605"><ele>155.0</ele><time>2026-04-18T15:45:05.972Z</time></trkpt><trkpt lat="44.7355341" lon="8.0510397"><ele>155.0</ele><time>2026-04-18T15:45:06.972Z</time></trkpt><trkpt lat="44.7354033" lon="8.0509192"><ele>155.0</ele><time>2026-04-18T15:45:07.972Z</time></trkpt><trkpt lat="44.7352761" lon="8.050801"><ele>155.0</ele><time>2026-04-18T15:45:08.972Z</time></trkpt><trkpt lat="44.7351531" lon="8.050688"><ele>155.25</ele><time>2026-04-18T15:45:09.971Z</time></trkpt><trkpt lat="44.7350373" lon="8.0505818"><ele>155.5</ele><time>2026-04-18T15:45:10.972Z</time></trkpt><trkpt lat="44.7349235" lon="8.0504737"><ele>155.75</ele><time>2026-04-18T15:45:11.972Z</time></trkpt><trkpt lat="44.7348081" lon="8.0503683"><ele>156.0</ele><time>2026-04-18T15:45:12.972Z</time></trkpt><trkpt lat="44.7346867" lon="8.0502595"><ele>156.0</ele><time>2026-04-18T15:45:13.972Z</time></trkpt><trkpt lat="44.7345734" lon="8.0501493"><ele>156.0</ele><time>2026-04-18T15:45:14.972Z</time></trkpt><trkpt lat="44.7344516" lon="8.0500347"><ele>156.0</ele><time>2026-04-18T15:45:15.972Z</time></trkpt><trkpt lat="44.7343318" lon="8.0499221"><ele>156.0</ele><time>2026-04-18T15:45:16.971Z</time></trkpt><trkpt lat="44.734216" lon="8.0498101"><ele>156.5</ele><time>2026-04-18T15:45:17.972Z</time></trkpt><trkpt lat="44.734107" lon="8.0497144"><ele>157.0</ele><time>2026-04-18T15:45:18.971Z</time></trkpt><trkpt lat="44.7340015" lon="8.0496294"><ele>157.5</ele><time>2026-04-18T15:45:19.972Z</time></trkpt><trkpt lat="44.7339052" lon="8.049559"><ele>158.0</ele><time>2026-04-18T15:45:20.971Z</time></trkpt><trkpt lat="44.7338183" lon="8.0494987"><ele>158.0</ele><time>2026-04-18T15:45:21.972Z</time></trkpt><trkpt lat="44.7337474" lon="8.0494381"><ele>158.0</ele><time>2026-04-18T15:45:22.971Z</time></trkpt><trkpt lat="44.7336903" lon="8.0493759"><ele>158.0</ele><time>2026-04-18T15:45:23.972Z</time></trkpt><trkpt lat="44.7336418" lon="8.0492962"><ele>158.0</ele><time>2026-04-18T15:45:24.971Z</time></trkpt><trkpt lat="44.7335654" lon="8.0492132"><ele>158.0</ele><time>2026-04-18T15:45:26.815Z</time></trkpt><trkpt lat="44.7334176" lon="8.0490851"><ele>158.0</ele><time>2026-04-18T15:45:28.937Z</time></trkpt><trkpt lat="44.7333082" lon="8.0489814"><ele>158.0</ele><time>2026-04-18T15:45:29.98Z</time></trkpt><trkpt lat="44.733236" lon="8.0489007"><ele>158.0</ele><time>2026-04-18T15:45:30.975Z</time></trkpt><trkpt lat="44.733158" lon="8.0488163"><ele>158.0</ele><time>2026-04-18T15:45:31.98Z</time></trkpt><trkpt lat="44.7330819" lon="8.0487317"><ele>158.0</ele><time>2026-04-18T15:45:32.98Z</time></trkpt><trkpt lat="44.7330059" lon="8.0486494"><ele>158.0</ele><time>2026-04-18T15:45:33.98Z</time></trkpt><trkpt lat="44.7329248" lon="8.0485797"><ele>158.0</ele><time>2026-04-18T15:45:34.98Z</time></trkpt><trkpt lat="44.7328664" lon="8.0485096"><ele>158.0</ele><time>2026-04-18T15:45:36.241Z</time></trkpt><trkpt lat="44.732744" lon="8.0483964"><ele>158.0</ele><time>2026-04-18T15:45:37.918Z</time></trkpt><trkpt lat="44.7326446" lon="8.0483063"><ele>158.0</ele><time>2026-04-18T15:45:38.975Z</time></trkpt><trkpt lat="44.732586" lon="8.04826"><ele>158.0</ele><time>2026-04-18T15:45:39.983Z</time></trkpt><trkpt lat="44.7324528" lon="8.0481921"><ele>158.0</ele><time>2026-04-18T15:45:42.918Z</time></trkpt><trkpt lat="44.7323714" lon="8.0482578"><ele>158.0</ele><time>2026-04-18T15:45:44.972Z</time></trkpt><trkpt lat="44.7324009" lon="8.0483616"><ele>158.0</ele><time>2026-04-18T15:45:48.975Z</time></trkpt><trkpt lat="44.732443" lon="8.0484595"><ele>158.0</ele><time>2026-04-18T15:45:52.922Z</time></trkpt><trkpt lat="44.7324894" lon="8.0485295"><ele>158.0</ele><time>2026-04-18T15:45:56.337Z</time></trkpt><trkpt lat="44.732585" lon="8.0485605"><ele>158.0</ele><time>2026-04-18T15:49:25.974Z</time></trkpt><trkpt lat="44.7326674" lon="8.0485604"><ele>158.0</ele><time>2026-04-18T15:49:27.972Z</time></trkpt><trkpt lat="44.7327357" lon="8.048548"><ele>158.0</ele><time>2026-04-18T15:49:33.917Z</time></trkpt><trkpt lat="44.7328156" lon="8.0485531"><ele>158.0</ele><time>2026-04-18T15:49:34.977Z</time></trkpt><trkpt lat="44.7328835" lon="8.0485821"><ele>158.0</ele><time>2026-04-18T15:49:35.98Z</time></trkpt><trkpt lat="44.7329649" lon="8.0486684"><ele>158.0</ele><time>2026-04-18T15:49:36.98Z</time></trkpt><trkpt lat="44.7330457" lon="8.0487479"><ele>158.0</ele><time>2026-04-18T15:49:37.978Z</time></trkpt><trkpt lat="44.7332662" lon="8.0489989"><ele>158.0</ele><time>2026-04-18T15:49:40.975Z</time></trkpt><trkpt lat="44.7333369" lon="8.049122"><ele>158.0</ele><time>2026-04-18T15:49:42.928Z</time></trkpt><trkpt lat="44.7333914" lon="8.0492541"><ele>158.0</ele><time>2026-04-18T15:49:43.963Z</time></trkpt><trkpt lat="44.7334631" lon="8.0493374"><ele>158.0</ele><time>2026-04-18T15:49:45.721Z</time></trkpt><trkpt lat="44.7335692" lon="8.0494147"><ele>158.0</ele><time>2026-04-18T15:49:46.962Z</time></trkpt><trkpt lat="44.7336421" lon="8.0494409"><ele>158.0</ele><time>2026-04-18T15:49:47.976Z</time></trkpt><trkpt lat="44.7337218" lon="8.0494822"><ele>158.0</ele><time>2026-04-18T15:49:48.981Z</time></trkpt><trkpt lat="44.7338073" lon="8.0495318"><ele>158.0</ele><time>2026-04-18T15:49:49.98Z</time></trkpt><trkpt lat="44.7338947" lon="8.0495897"><ele>158.0</ele><time>2026-04-18T15:49:50.978Z</time></trkpt><trkpt lat="44.7339848" lon="8.0496528"><ele>158.0</ele><time>2026-04-18T15:49:51.973Z</time></trkpt><trkpt lat="44.7340803" lon="8.0497211"><ele>158.0</ele><time>2026-04-18T15:49:52.98Z</time></trkpt><trkpt lat="44.7341756" lon="8.0497921"><ele>158.0</ele><time>2026-04-18T15:49:53.977Z</time></trkpt><trkpt lat="44.7342765" lon="8.0498799"><ele>158.0</ele><time>2026-04-18T15:49:54.98Z</time></trkpt><trkpt lat="44.7343779" lon="8.0499764"><ele>158.0</ele><time>2026-04-18T15:49:55.978Z</time></trkpt><trkpt lat="44.734479" lon="8.0500758"><ele>158.0</ele><time>2026-04-18T15:49:56.984Z</time></trkpt><trkpt lat="44.734586" lon="8.0501761"><ele>157.0</ele><time>2026-04-18T15:49:57.974Z</time></trkpt><trkpt lat="44.734867" lon="8.0504328"><ele>156.0</ele><time>2026-04-18T15:50:00.802Z</time></trkpt><trkpt lat="44.7351216" lon="8.0506536"><ele>155.66666666666666</ele><time>2026-04-18T15:50:01.979Z</time></trkpt><trkpt lat="44.7352874" lon="8.0508073"><ele>155.33333333333331</ele><time>2026-04-18T15:50:02.983Z</time></trkpt><trkpt lat="44.7354648" lon="8.050974"><ele>155.0</ele><time>2026-04-18T15:50:03.985Z</time></trkpt><trkpt lat="44.7356372" lon="8.0511436"><ele>155.0</ele><time>2026-04-18T15:50:04.992Z</time></trkpt><trkpt lat="44.7358167" lon="8.0513187"><ele>155.0</ele><time>2026-04-18T15:50:05.981Z</time></trkpt><trkpt lat="44.7360741" lon="8.051562"><ele>153.5</ele><time>2026-04-18T15:50:07.929Z</time></trkpt><trkpt lat="44.7364024" lon="8.0518595"><ele>152.0</ele><time>2026-04-18T15:50:09.796Z</time></trkpt><trkpt lat="44.7365998" lon="8.0520348"><ele>152.0</ele><time>2026-04-18T15:50:10.916Z</time></trkpt><trkpt lat="44.7368679" lon="8.0522918"><ele>152.0</ele><time>2026-04-18T15:50:11.978Z</time></trkpt><trkpt lat="44.737002" lon="8.0524376"><ele>152.0</ele><time>2026-04-18T15:50:13.249Z</time></trkpt><trkpt lat="44.7373612" lon="8.0527747"><ele>152.0</ele><time>2026-04-18T15:50:14.975Z</time></trkpt><trkpt lat="44.7375963" lon="8.0529779"><ele>152.33333333333331</ele><time>2026-04-18T15:50:16.913Z</time></trkpt><trkpt lat="44.737758" lon="8.053128"><ele>152.66666666666666</ele><time>2026-04-18T15:50:18.066Z</time></trkpt><trkpt lat="44.7379451" lon="8.0533121"><ele>153.0</ele><time>2026-04-18T15:50:18.977Z</time></trkpt><trkpt lat="44.7379964" lon="8.0533649"><ele>153.33333333333334</ele><time>2026-04-18T15:50:19.952Z</time></trkpt><trkpt lat="44.7382026" lon="8.0535532"><ele>153.66666666666669</ele><time>2026-04-18T15:50:20.968Z</time></trkpt><trkpt lat="44.7382604" lon="8.0536112"><ele>154.0</ele><time>2026-04-18T15:50:21.929Z</time></trkpt><trkpt lat="44.7384673" lon="8.0537993"><ele>154.0</ele><time>2026-04-18T15:50:22.965Z</time></trkpt><trkpt lat="44.7386048" lon="8.0539224"><ele>154.0</ele><time>2026-04-18T15:50:23.977Z</time></trkpt><trkpt lat="44.7387973" lon="8.0541158"><ele>154.0</ele><time>2026-04-18T15:50:25.935Z</time></trkpt><trkpt lat="44.7390217" lon="8.0543091"><ele>153.5</ele><time>2026-04-18T15:50:27.044Z</time></trkpt><trkpt lat="44.7391342" lon="8.0544131"><ele>153.0</ele><time>2026-04-18T15:50:28.265Z</time></trkpt><trkpt lat="44.7394461" lon="8.0546958"><ele>153.0</ele><time>2026-04-18T15:50:29.97Z</time></trkpt><trkpt lat="44.7395882" lon="8.0548227"><ele>153.0</ele><time>2026-04-18T15:50:30.974Z</time></trkpt><trkpt lat="44.7397248" lon="8.0549487"><ele>153.0</ele><time>2026-04-18T15:50:31.975Z</time></trkpt><trkpt lat="44.7398572" lon="8.0550663"><ele>153.66666666666666</ele><time>2026-04-18T15:50:32.98Z</time></trkpt><trkpt lat="44.7399134" lon="8.0551155"><ele>154.33333333333331</ele><time>2026-04-18T15:50:33.92Z</time></trkpt><trkpt lat="44.7401676" lon="8.0553521"><ele>155.0</ele><time>2026-04-18T15:50:35.921Z</time></trkpt><trkpt lat="44.7403711" lon="8.0555454"><ele>155.0</ele><time>2026-04-18T15:50:36.969Z</time></trkpt><trkpt lat="44.7404834" lon="8.055654"><ele>155.0</ele><time>2026-04-18T15:50:38.324Z</time></trkpt><trkpt lat="44.7407714" lon="8.0559241"><ele>155.0</ele><time>2026-04-18T15:50:39.976Z</time></trkpt><trkpt lat="44.7409085" lon="8.0560563"><ele>155.0</ele><time>2026-04-18T15:50:40.975Z</time></trkpt><trkpt lat="44.7410438" lon="8.0561789"><ele>155.0</ele><time>2026-04-18T15:50:41.973Z</time></trkpt><trkpt lat="44.7411833" lon="8.0563035"><ele>154.66666666666666</ele><time>2026-04-18T15:50:42.984Z</time></trkpt><trkpt lat="44.74132" lon="8.0564281"><ele>154.33333333333334</ele><time>2026-04-18T15:50:43.975Z</time></trkpt><trkpt lat="44.7415201" lon="8.056611"><ele>154.0</ele><time>2026-04-18T15:50:45.92Z</time></trkpt><trkpt lat="44.7417257" lon="8.0568077"><ele>153.66666666666669</ele><time>2026-04-18T15:50:46.966Z</time></trkpt><trkpt lat="44.7418275" lon="8.0569099"><ele>153.33333333333334</ele><time>2026-04-18T15:50:48.343Z</time></trkpt><trkpt lat="44.7420984" lon="8.0571583"><ele>153.0</ele><time>2026-04-18T15:50:49.97Z</time></trkpt><trkpt lat="44.7422263" lon="8.0572714"><ele>153.0</ele><time>2026-04-18T15:50:50.977Z</time></trkpt><trkpt lat="44.7423531" lon="8.057389"><ele>153.0</ele><time>2026-04-18T15:50:51.983Z</time></trkpt><trkpt lat="44.7424811" lon="8.0575065"><ele>153.0</ele><time>2026-04-18T15:50:52.982Z</time></trkpt><trkpt lat="44.7426104" lon="8.0576258"><ele>152.0</ele><time>2026-04-18T15:50:53.98Z</time></trkpt><trkpt lat="44.7427993" lon="8.0577976"><ele>151.0</ele><time>2026-04-18T15:50:55.925Z</time></trkpt><trkpt lat="44.7429991" lon="8.0579825"><ele>151.0</ele><time>2026-04-18T15:50:56.985Z</time></trkpt><trkpt lat="44.7431104" lon="8.0580841"><ele>151.0</ele><time>2026-04-18T15:50:58.416Z</time></trkpt><trkpt lat="44.7433447" lon="8.0582972"><ele>151.0</ele><time>2026-04-18T15:50:59.97Z</time></trkpt><trkpt lat="44.7434493" lon="8.0583969"><ele>151.75</ele><time>2026-04-18T15:51:00.982Z</time></trkpt><trkpt lat="44.7435485" lon="8.0584941"><ele>152.5</ele><time>2026-04-18T15:51:01.981Z</time></trkpt><trkpt lat="44.7436529" lon="8.0585885"><ele>153.25</ele><time>2026-04-18T15:51:02.981Z</time></trkpt><trkpt lat="44.743751" lon="8.0586766"><ele>154.0</ele><time>2026-04-18T15:51:03.973Z</time></trkpt><trkpt lat="44.7438913" lon="8.0588212"><ele>154.0</ele><time>2026-04-18T15:51:05.925Z</time></trkpt><trkpt lat="44.7440469" lon="8.0589654"><ele>154.0</ele><time>2026-04-18T15:51:06.965Z</time></trkpt><trkpt lat="44.744143" lon="8.0590594"><ele>154.0</ele><time>2026-04-18T15:51:08.463Z</time></trkpt><trkpt lat="44.7443469" lon="8.0592489"><ele>154.2</ele><time>2026-04-18T15:51:09.967Z</time></trkpt><trkpt lat="44.7444481" lon="8.0593338"><ele>154.4</ele><time>2026-04-18T15:51:10.983Z</time></trkpt><trkpt lat="44.7445418" lon="8.0594222"><ele>154.6</ele><time>2026-04-18T15:51:11.978Z</time></trkpt><trkpt lat="44.7446362" lon="8.0595131"><ele>154.8</ele><time>2026-04-18T15:51:12.982Z</time></trkpt><trkpt lat="44.7447217" lon="8.059589"><ele>155.0</ele><time>2026-04-18T15:51:13.976Z</time></trkpt><trkpt lat="44.7448395" lon="8.0597166"><ele>155.0</ele><time>2026-04-18T15:51:15.928Z</time></trkpt><trkpt lat="44.7449541" lon="8.0598198"><ele>155.0</ele><time>2026-04-18T15:51:16.976Z</time></trkpt><trkpt lat="44.7450196" lon="8.0598821"><ele>155.0</ele><time>2026-04-18T15:51:18.487Z</time></trkpt><trkpt lat="44.7451212" lon="8.0599928"><ele>155.0</ele><time>2026-04-18T15:51:19.978Z</time></trkpt><trkpt lat="44.7451826" lon="8.060067"><ele>155.0</ele><time>2026-04-18T15:51:21.978Z</time></trkpt><trkpt lat="44.7452316" lon="8.060131"><ele>154.8</ele><time>2026-04-18T15:51:25.107Z</time></trkpt><trkpt lat="44.7452564" lon="8.0602151"><ele>154.6</ele><time>2026-04-18T15:51:31.929Z</time></trkpt><trkpt lat="44.7452863" lon="8.0603467"><ele>154.4</ele><time>2026-04-18T15:51:33.927Z</time></trkpt><trkpt lat="44.7453026" lon="8.0604401"><ele>154.2</ele><time>2026-04-18T15:51:34.931Z</time></trkpt><trkpt lat="44.7453263" lon="8.0605541"><ele>154.0</ele><time>2026-04-18T15:51:35.933Z</time></trkpt><trkpt lat="44.7453546" lon="8.0607444"><ele>154.16666666666669</ele><time>2026-04-18T15:51:36.979Z</time></trkpt><trkpt lat="44.7453618" lon="8.0608731"><ele>154.33333333333334</ele><time>2026-04-18T15:51:37.974Z</time></trkpt><trkpt lat="44.7453574" lon="8.0609741"><ele>154.5</ele><time>2026-04-18T15:51:38.976Z</time></trkpt><trkpt lat="44.7453567" lon="8.0610751"><ele>154.66666666666666</ele><time>2026-04-18T15:51:40.929Z</time></trkpt><trkpt lat="44.7453549" lon="8.061175"><ele>154.83333333333331</ele><time>2026-04-18T15:51:41.977Z</time></trkpt><trkpt lat="44.7453226" lon="8.0613069"><ele>155.0</ele><time>2026-04-18T15:51:44.98Z</time></trkpt><trkpt lat="44.7453131" lon="8.06141"><ele>155.33333333333331</ele><time>2026-04-18T15:51:46.981Z</time></trkpt><trkpt lat="44.7452752" lon="8.0617242"><ele>155.66666666666666</ele><time>2026-04-18T15:51:50.918Z</time></trkpt><trkpt lat="44.7452504" lon="8.0619002"><ele>156.0</ele><time>2026-04-18T15:51:51.967Z</time></trkpt><trkpt lat="44.7452045" lon="8.0620472"><ele>155.5</ele><time>2026-04-18T15:51:53.626Z</time></trkpt><trkpt lat="44.7451715" lon="8.0622854"><ele>155.0</ele><time>2026-04-18T15:51:54.969Z</time></trkpt><trkpt lat="44.7451624" lon="8.0624183"><ele>154.5</ele><time>2026-04-18T15:51:56.012Z</time></trkpt><trkpt lat="44.7451504" lon="8.0625506"><ele>154.0</ele><time>2026-04-18T15:51:56.974Z</time></trkpt><trkpt lat="44.7451348" lon="8.0626891"><ele>154.0</ele><time>2026-04-18T15:51:57.981Z</time></trkpt><trkpt lat="44.745104" lon="8.0628814"><ele>154.0</ele><time>2026-04-18T15:51:59.919Z</time></trkpt><trkpt lat="44.7450734" lon="8.0630803"><ele>154.0</ele><time>2026-04-18T15:52:00.968Z</time></trkpt><trkpt lat="44.7450542" lon="8.0632074"><ele>154.0</ele><time>2026-04-18T15:52:01.966Z</time></trkpt><trkpt lat="44.7450359" lon="8.0633464"><ele>154.0</ele><time>2026-04-18T15:52:02.969Z</time></trkpt><trkpt lat="44.7450155" lon="8.0634966"><ele>154.0</ele><time>2026-04-18T15:52:03.969Z</time></trkpt><trkpt lat="44.7449957" lon="8.0636577"><ele>154.0</ele><time>2026-04-18T15:52:04.989Z</time></trkpt><trkpt lat="44.7449735" lon="8.0638222"><ele>154.0</ele><time>2026-04-18T15:52:05.985Z</time></trkpt><trkpt lat="44.7449477" lon="8.0639929"><ele>153.75</ele><time>2026-04-18T15:52:06.979Z</time></trkpt><trkpt lat="44.7449255" lon="8.0641644"><ele>153.5</ele><time>2026-04-18T15:52:07.975Z</time></trkpt><trkpt lat="44.7449034" lon="8.0643367"><ele>153.25</ele><time>2026-04-18T15:52:08.971Z</time></trkpt><trkpt lat="44.7448816" lon="8.0645001"><ele>153.0</ele><time>2026-04-18T15:52:09.974Z</time></trkpt><trkpt lat="44.744857" lon="8.0646671"><ele>153.0</ele><time>2026-04-18T15:52:10.978Z</time></trkpt><trkpt lat="44.7448304" lon="8.0648356"><ele>153.0</ele><time>2026-04-18T15:52:11.978Z</time></trkpt><trkpt lat="44.7448067" lon="8.0650047"><ele>153.0</ele><time>2026-04-18T15:52:12.982Z</time></trkpt><trkpt lat="44.7447858" lon="8.0651695"><ele>153.0</ele><time>2026-04-18T15:52:13.975Z</time></trkpt><trkpt lat="44.7447623" lon="8.0653347"><ele>153.0</ele><time>2026-04-18T15:52:14.979Z</time></trkpt><trkpt lat="44.7447365" lon="8.0654965"><ele>153.0</ele><time>2026-04-18T15:52:15.978Z</time></trkpt><trkpt lat="44.7447108" lon="8.0656518"><ele>153.0</ele><time>2026-04-18T15:52:16.974Z</time></trkpt><trkpt lat="44.7446895" lon="8.0658049"><ele>153.0</ele><time>2026-04-18T15:52:17.974Z</time></trkpt><trkpt lat="44.7446703" lon="8.065943"><ele>153.0</ele><time>2026-04-18T15:52:18.979Z</time></trkpt><trkpt lat="44.744651" lon="8.0660814"><ele>152.8</ele><time>2026-04-18T15:52:19.973Z</time></trkpt><trkpt lat="44.7446327" lon="8.0662178"><ele>152.60000000000002</ele><time>2026-04-18T15:52:20.972Z</time></trkpt><trkpt lat="44.7446152" lon="8.0663519"><ele>152.39999999999998</ele><time>2026-04-18T15:52:21.974Z</time></trkpt><trkpt lat="44.7445966" lon="8.0664796"><ele>152.2</ele><time>2026-04-18T15:52:22.979Z</time></trkpt><trkpt lat="44.7445757" lon="8.0666055"><ele>152.0</ele><time>2026-04-18T15:52:23.973Z</time></trkpt><trkpt lat="44.7445503" lon="8.066721"><ele>152.0</ele><time>2026-04-18T15:52:24.984Z</time></trkpt><trkpt lat="44.7445197" lon="8.0668284"><ele>152.0</ele><time>2026-04-18T15:52:25.972Z</time></trkpt><trkpt lat="44.7444779" lon="8.0669281"><ele>152.0</ele><time>2026-04-18T15:52:26.981Z</time></trkpt><trkpt lat="44.7444331" lon="8.0670279"><ele>152.0</ele><time>2026-04-18T15:52:27.975Z</time></trkpt><trkpt lat="44.7444048" lon="8.0671345"><ele>152.0</ele><time>2026-04-18T15:52:28.973Z</time></trkpt><trkpt lat="44.7444029" lon="8.0672569"><ele>152.0</ele><time>2026-04-18T15:52:29.98Z</time></trkpt><trkpt lat="44.7444176" lon="8.067387"><ele>151.79999999999998</ele><time>2026-04-18T15:52:30.975Z</time></trkpt><trkpt lat="44.7444225" lon="8.0675234"><ele>151.6</ele><time>2026-04-18T15:52:31.979Z</time></trkpt><trkpt lat="44.7444173" lon="8.06767"><ele>151.39999999999998</ele><time>2026-04-18T15:52:32.975Z</time></trkpt><trkpt lat="44.7444048" lon="8.0678243"><ele>151.2</ele><time>2026-04-18T15:52:33.979Z</time></trkpt><trkpt lat="44.7443844" lon="8.0679864"><ele>151.0</ele><time>2026-04-18T15:52:34.978Z</time></trkpt><trkpt lat="44.7443613" lon="8.0681537"><ele>150.75</ele><time>2026-04-18T15:52:35.978Z</time></trkpt><trkpt lat="44.7443376" lon="8.0683216"><ele>150.5</ele><time>2026-04-18T15:52:36.973Z</time></trkpt><trkpt lat="44.7443132" lon="8.0684942"><ele>150.25</ele><time>2026-04-18T15:52:37.978Z</time></trkpt><trkpt lat="44.7442872" lon="8.0686692"><ele>150.0</ele><time>2026-04-18T15:52:38.974Z</time></trkpt><trkpt lat="44.7442611" lon="8.0688432"><ele>150.0</ele><time>2026-04-18T15:52:39.973Z</time></trkpt><trkpt lat="44.7442338" lon="8.0690194"><ele>150.0</ele><time>2026-04-18T15:52:40.973Z</time></trkpt><trkpt lat="44.7442056" lon="8.0691974"><ele>150.0</ele><time>2026-04-18T15:52:41.971Z</time></trkpt><trkpt lat="44.7441799" lon="8.0693778"><ele>150.0</ele><time>2026-04-18T15:52:42.98Z</time></trkpt><trkpt lat="44.7441541" lon="8.0695631"><ele>150.5</ele><time>2026-04-18T15:52:43.973Z</time></trkpt><trkpt lat="44.7441274" lon="8.0697564"><ele>151.0</ele><time>2026-04-18T15:52:44.981Z</time></trkpt><trkpt lat="44.7440981" lon="8.069952"><ele>151.5</ele><time>2026-04-18T15:52:45.972Z</time></trkpt><trkpt lat="44.7440673" lon="8.070144"><ele>152.0</ele><time>2026-04-18T15:52:46.975Z</time></trkpt><trkpt lat="44.7440366" lon="8.0703329"><ele>152.0</ele><time>2026-04-18T15:52:47.973Z</time></trkpt><trkpt lat="44.7440119" lon="8.0705162"><ele>152.0</ele><time>2026-04-18T15:52:48.982Z</time></trkpt><trkpt lat="44.7439884" lon="8.0706913"><ele>152.0</ele><time>2026-04-18T15:52:49.974Z</time></trkpt><trkpt lat="44.7439665" lon="8.0708587"><ele>152.0</ele><time>2026-04-18T15:52:50.973Z</time></trkpt><trkpt lat="44.7439458" lon="8.0710309"><ele>152.0</ele><time>2026-04-18T15:52:51.974Z</time></trkpt><trkpt lat="44.7439198" lon="8.0711967"><ele>152.0</ele><time>2026-04-18T15:52:52.982Z</time></trkpt><trkpt lat="44.7439018" lon="8.0713362"><ele>152.0</ele><time>2026-04-18T15:52:53.973Z</time></trkpt><trkpt lat="44.743889" lon="8.0714587"><ele>152.0</ele><time>2026-04-18T15:52:54.977Z</time></trkpt><trkpt lat="44.7438766" lon="8.0715655"><ele>152.0</ele><time>2026-04-18T15:52:55.976Z</time></trkpt><trkpt lat="44.7438592" lon="8.0716692"><ele>151.83333333333331</ele><time>2026-04-18T15:52:56.971Z</time></trkpt><trkpt lat="44.7438461" lon="8.0717611"><ele>151.66666666666666</ele><time>2026-04-18T15:52:57.979Z</time></trkpt><trkpt lat="44.7438208" lon="8.0719028"><ele>151.5</ele><time>2026-04-18T15:52:59.972Z</time></trkpt><trkpt lat="44.7437714" lon="8.0720411"><ele>151.33333333333334</ele><time>2026-04-18T15:53:01.976Z</time></trkpt><trkpt lat="44.7437165" lon="8.0721088"><ele>151.16666666666669</ele><time>2026-04-18T15:53:02.98Z</time></trkpt><trkpt lat="44.7436376" lon="8.0721605"><ele>151.0</ele><time>2026-04-18T15:53:03.976Z</time></trkpt><trkpt lat="44.7435276" lon="8.0722353"><ele>150.5</ele><time>2026-04-18T15:53:04.972Z</time></trkpt><trkpt lat="44.7434262" lon="8.0723479"><ele>150.0</ele><time>2026-04-18T15:53:05.972Z</time></trkpt><trkpt lat="44.7433441" lon="8.0724732"><ele>149.5</ele><time>2026-04-18T15:53:06.98Z</time></trkpt><trkpt lat="44.7432654" lon="8.0726034"><ele>149.0</ele><time>2026-04-18T15:53:07.976Z</time></trkpt><trkpt lat="44.7432492" lon="8.0727889"><ele>149.0</ele><time>2026-04-18T15:53:08.974Z</time></trkpt><trkpt lat="44.7432292" lon="8.072964"><ele>149.0</ele><time>2026-04-18T15:53:09.975Z</time></trkpt><trkpt lat="44.7432259" lon="8.0731329"><ele>149.0</ele><time>2026-04-18T15:53:10.978Z</time></trkpt><trkpt lat="44.7432455" lon="8.0732837"><ele>149.0</ele><time>2026-04-18T15:53:11.974Z</time></trkpt><trkpt lat="44.7432769" lon="8.0734257"><ele>149.0</ele><time>2026-04-18T15:53:12.972Z</time></trkpt><trkpt lat="44.7433324" lon="8.0735283"><ele>149.0</ele><time>2026-04-18T15:53:13.973Z</time></trkpt><trkpt lat="44.7433926" lon="8.0736153"><ele>149.0</ele><time>2026-04-18T15:53:14.97Z</time></trkpt><trkpt lat="44.7434483" lon="8.0737151"><ele>149.0</ele><time>2026-04-18T15:53:15.974Z</time></trkpt><trkpt lat="44.7434929" lon="8.0738187"><ele>149.0</ele><time>2026-04-18T15:53:16.981Z</time></trkpt><trkpt lat="44.7435068" lon="8.0739527"><ele>149.0</ele><time>2026-04-18T15:53:17.975Z</time></trkpt><trkpt lat="44.7435052" lon="8.0741177"><ele>149.0</ele><time>2026-04-18T15:53:18.979Z</time></trkpt><trkpt lat="44.7434796" lon="8.0743274"><ele>149.0</ele><time>2026-04-18T15:53:19.972Z</time></trkpt><trkpt lat="44.7434441" lon="8.0745795"><ele>149.0</ele><time>2026-04-18T15:53:20.978Z</time></trkpt><trkpt lat="44.7433956" lon="8.0748736"><ele>149.0</ele><time>2026-04-18T15:53:21.975Z</time></trkpt><trkpt lat="44.7433436" lon="8.0751973"><ele>150.0</ele><time>2026-04-18T15:53:22.978Z</time></trkpt><trkpt lat="44.7432917" lon="8.0755385"><ele>151.0</ele><time>2026-04-18T15:53:23.973Z</time></trkpt><trkpt lat="44.7432407" lon="8.0758848"><ele>151.0</ele><time>2026-04-18T15:53:24.972Z</time></trkpt><trkpt lat="44.7431901" lon="8.0762401"><ele>151.0</ele><time>2026-04-18T15:53:25.977Z</time></trkpt><trkpt lat="44.7431426" lon="8.0766015"><ele>150.5</ele><time>2026-04-18T15:53:26.978Z</time></trkpt><trkpt lat="44.7430861" lon="8.0769722"><ele>150.0</ele><time>2026-04-18T15:53:27.981Z</time></trkpt><trkpt lat="44.7430275" lon="8.0773677"><ele>150.0</ele><time>2026-04-18T15:53:28.973Z</time></trkpt><trkpt lat="44.7429723" lon="8.0777616"><ele>150.0</ele><time>2026-04-18T15:53:29.969Z</time></trkpt><trkpt lat="44.7429202" lon="8.0781365"><ele>150.5</ele><time>2026-04-18T15:53:30.976Z</time></trkpt><trkpt lat="44.7428694" lon="8.0784976"><ele>151.0</ele><time>2026-04-18T15:53:31.975Z</time></trkpt><trkpt lat="44.7428218" lon="8.078841"><ele>151.0</ele><time>2026-04-18T15:53:32.973Z</time></trkpt><trkpt lat="44.7427738" lon="8.0791846"><ele>151.0</ele><time>2026-04-18T15:53:33.976Z</time></trkpt><trkpt lat="44.7427238" lon="8.0795271"><ele>151.0</ele><time>2026-04-18T15:53:34.972Z</time></trkpt><trkpt lat="44.7426741" lon="8.0798625"><ele>151.0</ele><time>2026-04-18T15:53:35.977Z</time></trkpt><trkpt lat="44.7426287" lon="8.0801983"><ele>151.0</ele><time>2026-04-18T15:53:37.047Z</time></trkpt><trkpt lat="44.7425814" lon="8.0805504"><ele>151.0</ele><time>2026-04-18T15:53:37.977Z</time></trkpt><trkpt lat="44.7425294" lon="8.0809132"><ele>150.0</ele><time>2026-04-18T15:53:38.974Z</time></trkpt><trkpt lat="44.7424695" lon="8.0812809"><ele>149.0</ele><time>2026-04-18T15:53:39.974Z</time></trkpt><trkpt lat="44.7424146" lon="8.0816513"><ele>148.0</ele><time>2026-04-18T15:53:40.984Z</time></trkpt><trkpt lat="44.7423639" lon="8.08202"><ele>147.0</ele><time>2026-04-18T15:53:41.975Z</time></trkpt><trkpt lat="44.7423128" lon="8.082388"><ele>148.0</ele><time>2026-04-18T15:53:42.979Z</time></trkpt><trkpt lat="44.742263" lon="8.08273"><ele>149.0</ele><time>2026-04-18T15:53:43.976Z</time></trkpt><trkpt lat="44.7422152" lon="8.0830585"><ele>150.0</ele><time>2026-04-18T15:53:44.982Z</time></trkpt><trkpt lat="44.7421701" lon="8.0833752"><ele>151.0</ele><time>2026-04-18T15:53:45.976Z</time></trkpt><trkpt lat="44.7421237" lon="8.0837039"><ele>151.0</ele><time>2026-04-18T15:53:46.981Z</time></trkpt><trkpt lat="44.7420807" lon="8.0840247"><ele>151.0</ele><time>2026-04-18T15:53:47.973Z</time></trkpt><trkpt lat="44.7420368" lon="8.0843445"><ele>150.66666666666669</ele><time>2026-04-18T15:53:48.981Z</time></trkpt><trkpt lat="44.7419939" lon="8.0846563"><ele>150.33333333333334</ele><time>2026-04-18T15:53:49.973Z</time></trkpt><trkpt lat="44.7419515" lon="8.0849558"><ele>150.0</ele><time>2026-04-18T15:53:50.981Z</time></trkpt><trkpt lat="44.7419099" lon="8.0852497"><ele>150.33333333333334</ele><time>2026-04-18T15:53:51.976Z</time></trkpt><trkpt lat="44.7418704" lon="8.0855295"><ele>150.66666666666669</ele><time>2026-04-18T15:53:52.979Z</time></trkpt><trkpt lat="44.7418331" lon="8.0858048"><ele>151.0</ele><time>2026-04-18T15:53:53.975Z</time></trkpt><trkpt lat="44.7417955" lon="8.0860683"><ele>151.0</ele><time>2026-04-18T15:53:54.978Z</time></trkpt><trkpt lat="44.741757" lon="8.0863337"><ele>151.0</ele><time>2026-04-18T15:53:55.975Z</time></trkpt><trkpt lat="44.7417189" lon="8.0866223"><ele>151.0</ele><time>2026-04-18T15:53:56.98Z</time></trkpt><trkpt lat="44.7416782" lon="8.0869048"><ele>150.33333333333334</ele><time>2026-04-18T15:53:57.975Z</time></trkpt><trkpt lat="44.7416371" lon="8.0871809"><ele>149.66666666666666</ele><time>2026-04-18T15:53:58.972Z</time></trkpt><trkpt lat="44.7415974" lon="8.0874452"><ele>149.0</ele><time>2026-04-18T15:53:59.971Z</time></trkpt><trkpt lat="44.7415582" lon="8.0877095"><ele>147.33333333333331</ele><time>2026-04-18T15:54:00.983Z</time></trkpt><trkpt lat="44.7415227" lon="8.0879777"><ele>145.66666666666666</ele><time>2026-04-18T15:54:01.978Z</time></trkpt><trkpt lat="44.7414849" lon="8.0882514"><ele>144.0</ele><time>2026-04-18T15:54:02.978Z</time></trkpt><trkpt lat="44.7414466" lon="8.0885322"><ele>143.33333333333334</ele><time>2026-04-18T15:54:03.977Z</time></trkpt><trkpt lat="44.7414061" lon="8.0888109"><ele>142.66666666666669</ele><time>2026-04-18T15:54:04.97Z</time></trkpt><trkpt lat="44.7413682" lon="8.0890843"><ele>142.0</ele><time>2026-04-18T15:54:05.974Z</time></trkpt><trkpt lat="44.7413313" lon="8.0893494"><ele>144.33333333333334</ele><time>2026-04-18T15:54:06.974Z</time></trkpt><trkpt lat="44.7412969" lon="8.0895977"><ele>146.66666666666666</ele><time>2026-04-18T15:54:07.974Z</time></trkpt><trkpt lat="44.7412649" lon="8.0898448"><ele>149.0</ele><time>2026-04-18T15:54:08.967Z</time></trkpt><trkpt lat="44.7412283" lon="8.0900922"><ele>150.33333333333331</ele><time>2026-04-18T15:54:09.976Z</time></trkpt><trkpt lat="44.741189" lon="8.090333"><ele>151.66666666666666</ele><time>2026-04-18T15:54:10.975Z</time></trkpt><trkpt lat="44.7411454" lon="8.0905593"><ele>153.0</ele><time>2026-04-18T15:54:11.974Z</time></trkpt><trkpt lat="44.7410915" lon="8.0907807"><ele>153.66666666666666</ele><time>2026-04-18T15:54:12.974Z</time></trkpt><trkpt lat="44.7410266" lon="8.0910064"><ele>154.33333333333331</ele><time>2026-04-18T15:54:13.967Z</time></trkpt><trkpt lat="44.7409431" lon="8.0912406"><ele>155.0</ele><time>2026-04-18T15:54:14.971Z</time></trkpt><trkpt lat="44.7408394" lon="8.0914659"><ele>154.66666666666666</ele><time>2026-04-18T15:54:15.973Z</time></trkpt><trkpt lat="44.740719" lon="8.091685"><ele>154.33333333333334</ele><time>2026-04-18T15:54:16.97Z</time></trkpt><trkpt lat="44.7405874" lon="8.0918911"><ele>154.0</ele><time>2026-04-18T15:54:17.975Z</time></trkpt><trkpt lat="44.7404385" lon="8.0920913"><ele>154.0</ele><time>2026-04-18T15:54:18.975Z</time></trkpt><trkpt lat="44.740277" lon="8.0922788"><ele>154.0</ele><time>2026-04-18T15:54:19.972Z</time></trkpt><trkpt lat="44.7401005" lon="8.09244"><ele>154.0</ele><time>2026-04-18T15:54:20.973Z</time></trkpt><trkpt lat="44.7399164" lon="8.0925895"><ele>154.33333333333334</ele><time>2026-04-18T15:54:21.975Z</time></trkpt><trkpt lat="44.7397283" lon="8.0927142"><ele>154.66666666666666</ele><time>2026-04-18T15:54:22.977Z</time></trkpt><trkpt lat="44.7395358" lon="8.0928348"><ele>155.0</ele><time>2026-04-18T15:54:23.976Z</time></trkpt><trkpt lat="44.7393423" lon="8.0929634"><ele>156.0</ele><time>2026-04-18T15:54:24.973Z</time></trkpt><trkpt lat="44.7391442" lon="8.0930921"><ele>157.0</ele><time>2026-04-18T15:54:25.982Z</time></trkpt><trkpt lat="44.7389468" lon="8.0932133"><ele>158.0</ele><time>2026-04-18T15:54:26.99Z</time></trkpt><trkpt lat="44.7387571" lon="8.0933354"><ele>158.33333333333331</ele><time>2026-04-18T15:54:27.976Z</time></trkpt><trkpt lat="44.7385748" lon="8.0934513"><ele>158.66666666666666</ele><time>2026-04-18T15:54:28.987Z</time></trkpt><trkpt lat="44.7383952" lon="8.0935558"><ele>159.0</ele><time>2026-04-18T15:54:29.981Z</time></trkpt><trkpt lat="44.738217" lon="8.0936351"><ele>159.66666666666666</ele><time>2026-04-18T15:54:30.977Z</time></trkpt><trkpt lat="44.7380414" lon="8.0936999"><ele>160.33333333333331</ele><time>2026-04-18T15:54:31.976Z</time></trkpt><trkpt lat="44.737859" lon="8.0937667"><ele>161.0</ele><time>2026-04-18T15:54:32.974Z</time></trkpt><trkpt lat="44.7376721" lon="8.093838"><ele>161.33333333333331</ele><time>2026-04-18T15:54:33.981Z</time></trkpt><trkpt lat="44.7374729" lon="8.0939181"><ele>161.66666666666666</ele><time>2026-04-18T15:54:34.98Z</time></trkpt><trkpt lat="44.7372503" lon="8.0939897"><ele>162.0</ele><time>2026-04-18T15:54:35.982Z</time></trkpt><trkpt lat="44.737016" lon="8.0940369"><ele>164.0</ele><time>2026-04-18T15:54:36.974Z</time></trkpt><trkpt lat="44.73677" lon="8.0940639"><ele>166.0</ele><time>2026-04-18T15:54:37.977Z</time></trkpt><trkpt lat="44.736529" lon="8.0940876"><ele>165.66666666666669</ele><time>2026-04-18T15:54:38.976Z</time></trkpt><trkpt lat="44.7363005" lon="8.0941207"><ele>165.33333333333334</ele><time>2026-04-18T15:54:39.974Z</time></trkpt><trkpt lat="44.736084" lon="8.0941668"><ele>165.0</ele><time>2026-04-18T15:54:40.981Z</time></trkpt><trkpt lat="44.7358807" lon="8.0942252"><ele>164.66666666666666</ele><time>2026-04-18T15:54:41.978Z</time></trkpt><trkpt lat="44.7356907" lon="8.0942852"><ele>164.33333333333331</ele><time>2026-04-18T15:54:42.981Z</time></trkpt><trkpt lat="44.7355085" lon="8.0943399"><ele>164.0</ele><time>2026-04-18T15:54:43.976Z</time></trkpt><trkpt lat="44.7353385" lon="8.0943928"><ele>163.33333333333331</ele><time>2026-04-18T15:54:44.979Z</time></trkpt><trkpt lat="44.7351675" lon="8.0944463"><ele>162.66666666666666</ele><time>2026-04-18T15:54:45.973Z</time></trkpt><trkpt lat="44.7349925" lon="8.0944928"><ele>162.0</ele><time>2026-04-18T15:54:46.977Z</time></trkpt><trkpt lat="44.7348156" lon="8.0945232"><ele>162.0</ele><time>2026-04-18T15:54:47.976Z</time></trkpt><trkpt lat="44.7346268" lon="8.094529"><ele>162.0</ele><time>2026-04-18T15:54:48.978Z</time></trkpt><trkpt lat="44.7344428" lon="8.094486"><ele>162.0</ele><time>2026-04-18T15:54:49.977Z</time></trkpt><trkpt lat="44.7342505" lon="8.0944253"><ele>162.0</ele><time>2026-04-18T15:54:50.978Z</time></trkpt><trkpt lat="44.734046" lon="8.0943534"><ele>162.0</ele><time>2026-04-18T15:54:51.975Z</time></trkpt><trkpt lat="44.7338457" lon="8.0942871"><ele>162.0</ele><time>2026-04-18T15:54:52.977Z</time></trkpt><trkpt lat="44.7336546" lon="8.0942189"><ele>162.66666666666666</ele><time>2026-04-18T15:54:53.976Z</time></trkpt><trkpt lat="44.7334647" lon="8.094161"><ele>163.33333333333331</ele><time>2026-04-18T15:54:54.976Z</time></trkpt><trkpt lat="44.7332855" lon="8.0941302"><ele>164.0</ele><time>2026-04-18T15:54:55.979Z</time></trkpt><trkpt lat="44.7330999" lon="8.0941205"><ele>164.0</ele><time>2026-04-18T15:54:56.976Z</time></trkpt><trkpt lat="44.7329101" lon="8.0941331"><ele>164.0</ele><time>2026-04-18T15:54:57.969Z</time></trkpt><trkpt lat="44.7327136" lon="8.0941458"><ele>164.0</ele><time>2026-04-18T15:54:58.98Z</time></trkpt><trkpt lat="44.7325126" lon="8.0941612"><ele>164.66666666666666</ele><time>2026-04-18T15:54:59.974Z</time></trkpt><trkpt lat="44.7323039" lon="8.0941811"><ele>165.33333333333334</ele><time>2026-04-18T15:55:00.978Z</time></trkpt><trkpt lat="44.7320893" lon="8.0942024"><ele>166.0</ele><time>2026-04-18T15:55:01.976Z</time></trkpt><trkpt lat="44.731875" lon="8.0942169"><ele>167.33333333333334</ele><time>2026-04-18T15:55:02.976Z</time></trkpt><trkpt lat="44.731661" lon="8.0942337"><ele>168.66666666666666</ele><time>2026-04-18T15:55:03.976Z</time></trkpt><trkpt lat="44.7314606" lon="8.0942514"><ele>170.0</ele><time>2026-04-18T15:55:04.978Z</time></trkpt><trkpt lat="44.731269" lon="8.0942671"><ele>170.0</ele><time>2026-04-18T15:55:05.972Z</time></trkpt><trkpt lat="44.731095" lon="8.0942807"><ele>170.0</ele><time>2026-04-18T15:55:06.974Z</time></trkpt><trkpt lat="44.7309387" lon="8.0942946"><ele>170.0</ele><time>2026-04-18T15:55:07.974Z</time></trkpt><trkpt lat="44.7308074" lon="8.0943106"><ele>169.8</ele><time>2026-04-18T15:55:08.977Z</time></trkpt><trkpt lat="44.7306942" lon="8.094318"><ele>169.6</ele><time>2026-04-18T15:55:09.974Z</time></trkpt><trkpt lat="44.7306028" lon="8.0943233"><ele>169.39999999999998</ele><time>2026-04-18T15:55:10.972Z</time></trkpt><trkpt lat="44.7305301" lon="8.0943212"><ele>169.2</ele><time>2026-04-18T15:55:11.978Z</time></trkpt><trkpt lat="44.7304155" lon="8.094228"><ele>169.0</ele><time>2026-04-18T15:55:13.975Z</time></trkpt><trkpt lat="44.7303816" lon="8.0941303"><ele>170.0</ele><time>2026-04-18T15:55:14.973Z</time></trkpt><trkpt lat="44.7303679" lon="8.0940085"><ele>171.0</ele><time>2026-04-18T15:55:15.975Z</time></trkpt><trkpt lat="44.7303707" lon="8.0938534"><ele>172.0</ele><time>2026-04-18T15:55:16.977Z</time></trkpt><trkpt lat="44.7303908" lon="8.0936726"><ele>173.0</ele><time>2026-04-18T15:55:17.974Z</time></trkpt><trkpt lat="44.7304015" lon="8.0934889"><ele>173.0</ele><time>2026-04-18T15:55:18.975Z</time></trkpt><trkpt lat="44.7304142" lon="8.093307"><ele>173.0</ele><time>2026-04-18T15:55:19.976Z</time></trkpt><trkpt lat="44.7304464" lon="8.0931553"><ele>173.0</ele><time>2026-04-18T15:55:20.976Z</time></trkpt><trkpt lat="44.7305282" lon="8.0930333"><ele>173.0</ele><time>2026-04-18T15:55:21.977Z</time></trkpt><trkpt lat="44.7306147" lon="8.092949"><ele>173.75</ele><time>2026-04-18T15:55:22.979Z</time></trkpt><trkpt lat="44.7307214" lon="8.0928956"><ele>174.5</ele><time>2026-04-18T15:55:23.976Z</time></trkpt><trkpt lat="44.7308484" lon="8.0928482"><ele>175.25</ele><time>2026-04-18T15:55:24.98Z</time></trkpt><trkpt lat="44.7309831" lon="8.0927594"><ele>176.0</ele><time>2026-04-18T15:55:25.976Z</time></trkpt><trkpt lat="44.7311219" lon="8.0926401"><ele>176.0</ele><time>2026-04-18T15:55:26.978Z</time></trkpt><trkpt lat="44.7312671" lon="8.0925011"><ele>176.0</ele><time>2026-04-18T15:55:27.974Z</time></trkpt><trkpt lat="44.7314128" lon="8.0923444"><ele>176.0</ele><time>2026-04-18T15:55:28.98Z</time></trkpt><trkpt lat="44.7315499" lon="8.0921902"><ele>180.66666666666666</ele><time>2026-04-18T15:55:29.976Z</time></trkpt><trkpt lat="44.7316827" lon="8.0920466"><ele>185.33333333333334</ele><time>2026-04-18T15:55:30.977Z</time></trkpt><trkpt lat="44.7318182" lon="8.0919303"><ele>190.0</ele><time>2026-04-18T15:55:31.976Z</time></trkpt><trkpt lat="44.7319599" lon="8.091858"><ele>191.0</ele><time>2026-04-18T15:55:32.972Z</time></trkpt><trkpt lat="44.7321154" lon="8.0918147"><ele>192.0</ele><time>2026-04-18T15:55:33.977Z</time></trkpt><trkpt lat="44.7322603" lon="8.0917756"><ele>193.0</ele><time>2026-04-18T15:55:34.974Z</time></trkpt><trkpt lat="44.7324025" lon="8.0917052"><ele>193.0</ele><time>2026-04-18T15:55:35.977Z</time></trkpt><trkpt lat="44.7325292" lon="8.0915994"><ele>193.0</ele><time>2026-04-18T15:55:36.973Z</time></trkpt><trkpt lat="44.7326445" lon="8.0914629"><ele>193.0</ele><time>2026-04-18T15:55:37.978Z</time></trkpt><trkpt lat="44.732748" lon="8.0913027"><ele>193.66666666666666</ele><time>2026-04-18T15:55:38.976Z</time></trkpt><trkpt lat="44.7328494" lon="8.0911292"><ele>194.33333333333331</ele><time>2026-04-18T15:55:39.972Z</time></trkpt><trkpt lat="44.7329685" lon="8.0909694"><ele>195.0</ele><time>2026-04-18T15:55:40.978Z</time></trkpt><trkpt lat="44.7330943" lon="8.0908039"><ele>200.66666666666669</ele><time>2026-04-18T15:55:41.973Z</time></trkpt><trkpt lat="44.7332295" lon="8.0906348"><ele>206.33333333333334</ele><time>2026-04-18T15:55:42.985Z</time></trkpt><trkpt lat="44.7333669" lon="8.0904731"><ele>212.0</ele><time>2026-04-18T15:55:43.978Z</time></trkpt><trkpt lat="44.7334878" lon="8.090323"><ele>211.75</ele><time>2026-04-18T15:55:44.974Z</time></trkpt><trkpt lat="44.7336096" lon="8.0901813"><ele>211.5</ele><time>2026-04-18T15:55:45.983Z</time></trkpt><trkpt lat="44.7337291" lon="8.0900574"><ele>211.25</ele><time>2026-04-18T15:55:46.982Z</time></trkpt><trkpt lat="44.7338494" lon="8.0899623"><ele>211.0</ele><time>2026-04-18T15:55:47.982Z</time></trkpt><trkpt lat="44.7339798" lon="8.089911"><ele>211.0</ele><time>2026-04-18T15:55:48.978Z</time></trkpt><trkpt lat="44.7341177" lon="8.0899167"><ele>211.0</ele><time>2026-04-18T15:55:49.973Z</time></trkpt><trkpt lat="44.7342546" lon="8.0899665"><ele>211.0</ele><time>2026-04-18T15:55:51.073Z</time></trkpt><trkpt lat="44.7343899" lon="8.090045"><ele>211.0</ele><time>2026-04-18T15:55:51.973Z</time></trkpt><trkpt lat="44.7345095" lon="8.0901037"><ele>211.75</ele><time>2026-04-18T15:55:52.985Z</time></trkpt><trkpt lat="44.7346291" lon="8.0901409"><ele>212.5</ele><time>2026-04-18T15:55:53.981Z</time></trkpt><trkpt lat="44.7347486" lon="8.0901297"><ele>213.25</ele><time>2026-04-18T15:55:54.984Z</time></trkpt><trkpt lat="44.7348607" lon="8.0900645"><ele>214.0</ele><time>2026-04-18T15:55:55.98Z</time></trkpt><trkpt lat="44.7349599" lon="8.0899469"><ele>215.75</ele><time>2026-04-18T15:55:56.975Z</time></trkpt><trkpt lat="44.7350489" lon="8.0897892"><ele>217.5</ele><time>2026-04-18T15:55:57.974Z</time></trkpt><trkpt lat="44.7351399" lon="8.0896236"><ele>219.25</ele><time>2026-04-18T15:55:58.971Z</time></trkpt><trkpt lat="44.7352555" lon="8.0894778"><ele>221.0</ele><time>2026-04-18T15:55:59.981Z</time></trkpt><trkpt lat="44.735393" lon="8.089366"><ele>221.0</ele><time>2026-04-18T15:56:00.98Z</time></trkpt><trkpt lat="44.7355348" lon="8.0892785"><ele>221.0</ele><time>2026-04-18T15:56:01.981Z</time></trkpt><trkpt lat="44.7356622" lon="8.0891969"><ele>221.0</ele><time>2026-04-18T15:56:02.978Z</time></trkpt><trkpt lat="44.7357755" lon="8.0891262"><ele>221.0</ele><time>2026-04-18T15:56:03.981Z</time></trkpt><trkpt lat="44.735871" lon="8.0890614"><ele>222.66666666666669</ele><time>2026-04-18T15:56:04.977Z</time></trkpt><trkpt lat="44.7359446" lon="8.0889881"><ele>224.33333333333334</ele><time>2026-04-18T15:56:05.967Z</time></trkpt><trkpt lat="44.7359968" lon="8.0889034"><ele>226.0</ele><time>2026-04-18T15:56:06.975Z</time></trkpt><trkpt lat="44.7360278" lon="8.0888071"><ele>227.66666666666669</ele><time>2026-04-18T15:56:07.974Z</time></trkpt><trkpt lat="44.736027" lon="8.0886984"><ele>229.33333333333334</ele><time>2026-04-18T15:56:08.981Z</time></trkpt><trkpt lat="44.7359895" lon="8.0885977"><ele>231.0</ele><time>2026-04-18T15:56:09.978Z</time></trkpt><trkpt lat="44.7359239" lon="8.0885273"><ele>231.0</ele><time>2026-04-18T15:56:10.979Z</time></trkpt><trkpt lat="44.7358341" lon="8.0885137"><ele>231.00000000000003</ele><time>2026-04-18T15:56:11.982Z</time></trkpt><trkpt lat="44.7357389" lon="8.088558"><ele>231.00000000000003</ele><time>2026-04-18T15:56:12.975Z</time></trkpt><trkpt lat="44.7356366" lon="8.0886352"><ele>231.0</ele><time>2026-04-18T15:56:13.972Z</time></trkpt><trkpt lat="44.7355165" lon="8.0886914"><ele>231.0</ele><time>2026-04-18T15:56:14.982Z</time></trkpt><trkpt lat="44.7353815" lon="8.0887095"><ele>231.0</ele><time>2026-04-18T15:56:15.983Z</time></trkpt><trkpt lat="44.7352347" lon="8.088689"><ele>231.0</ele><time>2026-04-18T15:56:16.975Z</time></trkpt><trkpt lat="44.7350681" lon="8.0886336"><ele>231.0</ele><time>2026-04-18T15:56:17.983Z</time></trkpt><trkpt lat="44.7348901" lon="8.0885577"><ele>234.0</ele><time>2026-04-18T15:56:18.981Z</time></trkpt><trkpt lat="44.7347107" lon="8.0884723"><ele>237.0</ele><time>2026-04-18T15:56:19.983Z</time></trkpt><trkpt lat="44.7345294" lon="8.0883873"><ele>240.0</ele><time>2026-04-18T15:56:20.974Z</time></trkpt><trkpt lat="44.7343437" lon="8.0882996"><ele>244.66666666666669</ele><time>2026-04-18T15:56:21.976Z</time></trkpt><trkpt lat="44.7341508" lon="8.0882136"><ele>249.33333333333334</ele><time>2026-04-18T15:56:22.981Z</time></trkpt><trkpt lat="44.7339574" lon="8.0881219"><ele>254.0</ele><time>2026-04-18T15:56:23.98Z</time></trkpt><trkpt lat="44.7337595" lon="8.0880252"><ele>254.66666666666669</ele><time>2026-04-18T15:56:24.976Z</time></trkpt><trkpt lat="44.7335553" lon="8.0879285"><ele>255.33333333333331</ele><time>2026-04-18T15:56:25.981Z</time></trkpt><trkpt lat="44.7333529" lon="8.0878351"><ele>256.0</ele><time>2026-04-18T15:56:26.985Z</time></trkpt><trkpt lat="44.7331496" lon="8.0877512"><ele>256.0</ele><time>2026-04-18T15:56:27.982Z</time></trkpt><trkpt lat="44.7329287" lon="8.0876899"><ele>256.0</ele><time>2026-04-18T15:56:28.976Z</time></trkpt><trkpt lat="44.7327011" lon="8.0876491"><ele>258.0</ele><time>2026-04-18T15:56:29.974Z</time></trkpt><trkpt lat="44.7324753" lon="8.0876242"><ele>260.0</ele><time>2026-04-18T15:56:30.983Z</time></trkpt><trkpt lat="44.7322594" lon="8.0876035"><ele>262.0</ele><time>2026-04-18T15:56:31.975Z</time></trkpt><trkpt lat="44.732062" lon="8.0875868"><ele>263.66666666666663</ele><time>2026-04-18T15:56:32.98Z</time></trkpt><trkpt lat="44.7318785" lon="8.0875553"><ele>265.3333333333333</ele><time>2026-04-18T15:56:33.984Z</time></trkpt><trkpt lat="44.7316995" lon="8.0875056"><ele>267.0</ele><time>2026-04-18T15:56:34.977Z</time></trkpt><trkpt lat="44.7315202" lon="8.0874296"><ele>269.6666666666667</ele><time>2026-04-18T15:56:35.981Z</time></trkpt><trkpt lat="44.731345" lon="8.0873313"><ele>272.33333333333337</ele><time>2026-04-18T15:56:36.978Z</time></trkpt><trkpt lat="44.7311753" lon="8.0872149"><ele>275.0</ele><time>2026-04-18T15:56:37.974Z</time></trkpt><trkpt lat="44.7310057" lon="8.0871024"><ele>275.0</ele><time>2026-04-18T15:56:38.983Z</time></trkpt><trkpt lat="44.7308378" lon="8.0869852"><ele>275.0</ele><time>2026-04-18T15:56:39.984Z</time></trkpt><trkpt lat="44.730673" lon="8.0868715"><ele>275.0</ele><time>2026-04-18T15:56:40.982Z</time></trkpt><trkpt lat="44.7305105" lon="8.0867711"><ele>275.0</ele><time>2026-04-18T15:56:41.974Z</time></trkpt><trkpt lat="44.7303459" lon="8.0866939"><ele>275.0</ele><time>2026-04-18T15:56:42.971Z</time></trkpt><trkpt lat="44.7301696" lon="8.0866364"><ele>275.0</ele><time>2026-04-18T15:56:43.983Z</time></trkpt><trkpt lat="44.7299876" lon="8.0865983"><ele>270.0</ele><time>2026-04-18T15:56:44.975Z</time></trkpt><trkpt lat="44.7297957" lon="8.0865594"><ele>265.0</ele><time>2026-04-18T15:56:45.97Z</time></trkpt><trkpt lat="44.7296002" lon="8.0865491"><ele>260.0</ele><time>2026-04-18T15:56:46.97Z</time></trkpt><trkpt lat="44.729405" lon="8.0865457"><ele>257.33333333333337</ele><time>2026-04-18T15:56:47.979Z</time></trkpt><trkpt lat="44.7292101" lon="8.0865333"><ele>254.66666666666669</ele><time>2026-04-18T15:56:48.973Z</time></trkpt><trkpt lat="44.7290235" lon="8.0864939"><ele>252.0</ele><time>2026-04-18T15:56:49.981Z</time></trkpt><trkpt lat="44.728848" lon="8.086422"><ele>252.0</ele><time>2026-04-18T15:56:50.981Z</time></trkpt><trkpt lat="44.7286774" lon="8.0863271"><ele>252.0</ele><time>2026-04-18T15:56:51.981Z</time></trkpt><trkpt lat="44.7285135" lon="8.0862213"><ele>252.0</ele><time>2026-04-18T15:56:52.973Z</time></trkpt><trkpt lat="44.7283633" lon="8.0861039"><ele>254.0</ele><time>2026-04-18T15:56:53.971Z</time></trkpt><trkpt lat="44.7282211" lon="8.0859906"><ele>256.0</ele><time>2026-04-18T15:56:54.972Z</time></trkpt><trkpt lat="44.7280846" lon="8.0858782"><ele>258.0</ele><time>2026-04-18T15:56:55.978Z</time></trkpt><trkpt lat="44.7279532" lon="8.0857852"><ele>258.25</ele><time>2026-04-18T15:56:56.973Z</time></trkpt><trkpt lat="44.7278187" lon="8.0857071"><ele>258.5</ele><time>2026-04-18T15:56:57.975Z</time></trkpt><trkpt lat="44.7276847" lon="8.0856354"><ele>258.75</ele><time>2026-04-18T15:56:58.972Z</time></trkpt><trkpt lat="44.7275537" lon="8.0855663"><ele>259.0</ele><time>2026-04-18T15:56:59.975Z</time></trkpt><trkpt lat="44.7274179" lon="8.0854976"><ele>259.0</ele><time>2026-04-18T15:57:00.972Z</time></trkpt><trkpt lat="44.7272816" lon="8.0854334"><ele>259.0</ele><time>2026-04-18T15:57:01.965Z</time></trkpt><trkpt lat="44.7271449" lon="8.0853663"><ele>259.0</ele><time>2026-04-18T15:57:02.971Z</time></trkpt><trkpt lat="44.7270133" lon="8.0853099"><ele>259.0</ele><time>2026-04-18T15:57:03.978Z</time></trkpt><trkpt lat="44.726885" lon="8.0852532"><ele>259.59999999999997</ele><time>2026-04-18T15:57:04.974Z</time></trkpt><trkpt lat="44.7267685" lon="8.0851966"><ele>260.2</ele><time>2026-04-18T15:57:05.971Z</time></trkpt><trkpt lat="44.7266583" lon="8.0851428"><ele>260.79999999999995</ele><time>2026-04-18T15:57:06.974Z</time></trkpt><trkpt lat="44.7265552" lon="8.0850934"><ele>261.4</ele><time>2026-04-18T15:57:07.971Z</time></trkpt><trkpt lat="44.7264608" lon="8.0850511"><ele>262.0</ele><time>2026-04-18T15:57:08.971Z</time></trkpt><trkpt lat="44.7263668" lon="8.0850106"><ele>262.0</ele><time>2026-04-18T15:57:09.971Z</time></trkpt><trkpt lat="44.7262786" lon="8.0849732"><ele>262.0</ele><time>2026-04-18T15:57:10.973Z</time></trkpt><trkpt lat="44.7261943" lon="8.0849405"><ele>262.0</ele><time>2026-04-18T15:57:11.982Z</time></trkpt><trkpt lat="44.726114" lon="8.0849123"><ele>262.0</ele><time>2026-04-18T15:57:12.981Z</time></trkpt><trkpt lat="44.7260427" lon="8.0848775"><ele>262.0</ele><time>2026-04-18T15:57:13.982Z</time></trkpt><trkpt lat="44.7259771" lon="8.08485"><ele>262.0</ele><time>2026-04-18T15:57:14.982Z</time></trkpt><trkpt lat="44.7259056" lon="8.0848264"><ele>262.0</ele><time>2026-04-18T15:57:15.972Z</time></trkpt><trkpt lat="44.7258343" lon="8.0847852"><ele>262.0</ele><time>2026-04-18T15:57:16.977Z</time></trkpt><trkpt lat="44.7257644" lon="8.0847379"><ele>262.0</ele><time>2026-04-18T15:57:17.966Z</time></trkpt><trkpt lat="44.7257043" lon="8.0846933"><ele>262.0</ele><time>2026-04-18T15:57:18.971Z</time></trkpt><trkpt lat="44.7256319" lon="8.0846533"><ele>262.0</ele><time>2026-04-18T15:57:19.97Z</time></trkpt><trkpt lat="44.725549" lon="8.0846138"><ele>262.0</ele><time>2026-04-18T15:57:20.979Z</time></trkpt><trkpt lat="44.7254587" lon="8.0845633"><ele>262.0</ele><time>2026-04-18T15:57:21.97Z</time></trkpt><trkpt lat="44.7253689" lon="8.0845168"><ele>262.0</ele><time>2026-04-18T15:57:22.973Z</time></trkpt><trkpt lat="44.7252642" lon="8.084476"><ele>262.0</ele><time>2026-04-18T15:57:23.98Z</time></trkpt><trkpt lat="44.7251512" lon="8.0844371"><ele>262.0</ele><time>2026-04-18T15:57:24.965Z</time></trkpt><trkpt lat="44.7250324" lon="8.0844"><ele>262.0</ele><time>2026-04-18T15:57:25.97Z</time></trkpt><trkpt lat="44.7249061" lon="8.0843621"><ele>263.25</ele><time>2026-04-18T15:57:27.042Z</time></trkpt><trkpt lat="44.7247726" lon="8.0843301"><ele>264.5</ele><time>2026-04-18T15:57:27.971Z</time></trkpt><trkpt lat="44.724647" lon="8.0842804"><ele>265.75</ele><time>2026-04-18T15:57:28.976Z</time></trkpt><trkpt lat="44.7245131" lon="8.0842211"><ele>267.0</ele><time>2026-04-18T15:57:29.98Z</time></trkpt><trkpt lat="44.7243829" lon="8.0841536"><ele>271.0</ele><time>2026-04-18T15:57:30.97Z</time></trkpt><trkpt lat="44.7242551" lon="8.0840837"><ele>275.0</ele><time>2026-04-18T15:57:31.982Z</time></trkpt><trkpt lat="44.7241288" lon="8.084013"><ele>279.0</ele><time>2026-04-18T15:57:32.976Z</time></trkpt><trkpt lat="44.7240061" lon="8.083938"><ele>283.0</ele><time>2026-04-18T15:57:33.973Z</time></trkpt><trkpt lat="44.7238828" lon="8.0838596"><ele>283.0</ele><time>2026-04-18T15:57:34.974Z</time></trkpt><trkpt lat="44.7237537" lon="8.0837771"><ele>283.0</ele><time>2026-04-18T15:57:35.979Z</time></trkpt><trkpt lat="44.7236296" lon="8.0837046"><ele>283.0</ele><time>2026-04-18T15:57:36.978Z</time></trkpt><trkpt lat="44.7235055" lon="8.0836432"><ele>283.0</ele><time>2026-04-18T15:57:37.971Z</time></trkpt><trkpt lat="44.7233872" lon="8.083578"><ele>278.75</ele><time>2026-04-18T15:57:38.969Z</time></trkpt><trkpt lat="44.7232712" lon="8.0835252"><ele>274.5</ele><time>2026-04-18T15:57:39.972Z</time></trkpt><trkpt lat="44.7231558" lon="8.0834961"><ele>270.25</ele><time>2026-04-18T15:57:40.969Z</time></trkpt><trkpt lat="44.7230415" lon="8.0834914"><ele>266.0</ele><time>2026-04-18T15:57:41.976Z</time></trkpt><trkpt lat="44.7229355" lon="8.0835046"><ele>266.0</ele><time>2026-04-18T15:57:42.972Z</time></trkpt><trkpt lat="44.722839" lon="8.0835333"><ele>266.0</ele><time>2026-04-18T15:57:43.971Z</time></trkpt><trkpt lat="44.7227485" lon="8.083574"><ele>266.0</ele><time>2026-04-18T15:57:44.979Z</time></trkpt><trkpt lat="44.7226713" lon="8.0836165"><ele>266.0</ele><time>2026-04-18T15:57:45.985Z</time></trkpt><trkpt lat="44.7225925" lon="8.0836607"><ele>266.0</ele><time>2026-04-18T15:57:46.982Z</time></trkpt><trkpt lat="44.7225146" lon="8.0837081"><ele>266.0</ele><time>2026-04-18T15:57:47.984Z</time></trkpt><trkpt lat="44.7224475" lon="8.0837466"><ele>264.6666666666667</ele><time>2026-04-18T15:57:48.981Z</time></trkpt><trkpt lat="44.7223828" lon="8.0837932"><ele>263.33333333333337</ele><time>2026-04-18T15:57:49.966Z</time></trkpt><trkpt lat="44.7223165" lon="8.0838312"><ele>262.0</ele><time>2026-04-18T15:57:50.975Z</time></trkpt><trkpt lat="44.7222544" lon="8.083857"><ele>260.6666666666667</ele><time>2026-04-18T15:57:51.971Z</time></trkpt><trkpt lat="44.7221652" lon="8.0838732"><ele>259.3333333333333</ele><time>2026-04-18T15:57:53.97Z</time></trkpt><trkpt lat="44.7220742" lon="8.0838776"><ele>258.0</ele><time>2026-04-18T15:57:55.981Z</time></trkpt><trkpt lat="44.7219661" lon="8.0838954"><ele>258.4</ele><time>2026-04-18T15:57:57.97Z</time></trkpt><trkpt lat="44.7218963" lon="8.0839285"><ele>258.8</ele><time>2026-04-18T15:57:58.977Z</time></trkpt><trkpt lat="44.7218103" lon="8.0839475"><ele>259.2</ele><time>2026-04-18T15:57:59.968Z</time></trkpt><trkpt lat="44.721713" lon="8.0839458"><ele>259.6</ele><time>2026-04-18T15:58:00.971Z</time></trkpt><trkpt lat="44.7216054" lon="8.0839231"><ele>260.0</ele><time>2026-04-18T15:58:01.974Z</time></trkpt><trkpt lat="44.7214932" lon="8.0838937"><ele>260.0</ele><time>2026-04-18T15:58:02.978Z</time></trkpt><trkpt lat="44.7213762" lon="8.0838655"><ele>260.0</ele><time>2026-04-18T15:58:03.978Z</time></trkpt><trkpt lat="44.7212565" lon="8.0838366"><ele>260.0</ele><time>2026-04-18T15:58:04.974Z</time></trkpt><trkpt lat="44.7211326" lon="8.0838077"><ele>260.0</ele><time>2026-04-18T15:58:05.975Z</time></trkpt><trkpt lat="44.7210073" lon="8.0837766"><ele>261.0</ele><time>2026-04-18T15:58:06.97Z</time></trkpt><trkpt lat="44.7208868" lon="8.0837506"><ele>262.0</ele><time>2026-04-18T15:58:07.973Z</time></trkpt><trkpt lat="44.7207696" lon="8.0837353"><ele>263.0</ele><time>2026-04-18T15:58:08.977Z</time></trkpt><trkpt lat="44.7206573" lon="8.083741"><ele>264.0</ele><time>2026-04-18T15:58:09.977Z</time></trkpt><trkpt lat="44.720552" lon="8.0837711"><ele>264.0</ele><time>2026-04-18T15:58:10.972Z</time></trkpt><trkpt lat="44.7204542" lon="8.0838438"><ele>264.0</ele><time>2026-04-18T15:58:11.979Z</time></trkpt><trkpt lat="44.7203648" lon="8.0839463"><ele>264.0</ele><time>2026-04-18T15:58:12.971Z</time></trkpt><trkpt lat="44.7202903" lon="8.0840719"><ele>264.0</ele><time>2026-04-18T15:58:13.981Z</time></trkpt><trkpt lat="44.7202065" lon="8.0841922"><ele>266.25</ele><time>2026-04-18T15:58:14.972Z</time></trkpt><trkpt lat="44.7200994" lon="8.0842964"><ele>268.5</ele><time>2026-04-18T15:58:15.978Z</time></trkpt><trkpt lat="44.7199799" lon="8.0843922"><ele>270.75</ele><time>2026-04-18T15:58:16.968Z</time></trkpt><trkpt lat="44.7198514" lon="8.0844734"><ele>273.0</ele><time>2026-04-18T15:58:17.978Z</time></trkpt><trkpt lat="44.7197159" lon="8.0845407"><ele>273.0</ele><time>2026-04-18T15:58:18.974Z</time></trkpt><trkpt lat="44.7195686" lon="8.0845911"><ele>273.0</ele><time>2026-04-18T15:58:19.98Z</time></trkpt><trkpt lat="44.7194131" lon="8.0846325"><ele>273.0</ele><time>2026-04-18T15:58:20.974Z</time></trkpt><trkpt lat="44.7192536" lon="8.0846677"><ele>272.6666666666667</ele><time>2026-04-18T15:58:21.975Z</time></trkpt><trkpt lat="44.7190879" lon="8.0846987"><ele>272.33333333333337</ele><time>2026-04-18T15:58:22.974Z</time></trkpt><trkpt lat="44.7189286" lon="8.0847208"><ele>272.0</ele><time>2026-04-18T15:58:23.972Z</time></trkpt><trkpt lat="44.7187597" lon="8.0847434"><ele>272.0</ele><time>2026-04-18T15:58:24.973Z</time></trkpt><trkpt lat="44.7185799" lon="8.0847591"><ele>272.0</ele><time>2026-04-18T15:58:25.973Z</time></trkpt><trkpt lat="44.7183974" lon="8.0847756"><ele>272.0</ele><time>2026-04-18T15:58:26.982Z</time></trkpt><trkpt lat="44.7182101" lon="8.0847889"><ele>274.33333333333337</ele><time>2026-04-18T15:58:27.969Z</time></trkpt><trkpt lat="44.7180209" lon="8.0847972"><ele>276.6666666666667</ele><time>2026-04-18T15:58:28.97Z</time></trkpt><trkpt lat="44.7178383" lon="8.0848081"><ele>279.0</ele><time>2026-04-18T15:58:29.966Z</time></trkpt><trkpt lat="44.7176655" lon="8.0848311"><ele>280.3333333333333</ele><time>2026-04-18T15:58:30.981Z</time></trkpt><trkpt lat="44.7174891" lon="8.0848752"><ele>281.66666666666663</ele><time>2026-04-18T15:58:31.974Z</time></trkpt><trkpt lat="44.7173231" lon="8.0849368"><ele>283.0</ele><time>2026-04-18T15:58:32.981Z</time></trkpt><trkpt lat="44.7171668" lon="8.0849977"><ele>283.0</ele><time>2026-04-18T15:58:33.973Z</time></trkpt><trkpt lat="44.7170217" lon="8.0850512"><ele>283.0</ele><time>2026-04-18T15:58:34.98Z</time></trkpt><trkpt lat="44.7168811" lon="8.0850678"><ele>283.0</ele><time>2026-04-18T15:58:35.978Z</time></trkpt><trkpt lat="44.7167446" lon="8.0850666"><ele>283.0</ele><time>2026-04-18T15:58:36.973Z</time></trkpt><trkpt lat="44.7166143" lon="8.0850395"><ele>285.25</ele><time>2026-04-18T15:58:37.975Z</time></trkpt><trkpt lat="44.7164896" lon="8.0849838"><ele>287.5</ele><time>2026-04-18T15:58:38.982Z</time></trkpt><trkpt lat="44.7163698" lon="8.0849168"><ele>289.75</ele><time>2026-04-18T15:58:39.982Z</time></trkpt><trkpt lat="44.7162479" lon="8.0848487"><ele>292.0</ele><time>2026-04-18T15:58:40.973Z</time></trkpt><trkpt lat="44.7161317" lon="8.0847674"><ele>292.0</ele><time>2026-04-18T15:58:41.971Z</time></trkpt><trkpt lat="44.7160204" lon="8.0846935"><ele>292.0</ele><time>2026-04-18T15:58:42.979Z</time></trkpt><trkpt lat="44.7159036" lon="8.084627"><ele>292.0</ele><time>2026-04-18T15:58:43.978Z</time></trkpt><trkpt lat="44.7157865" lon="8.0845771"><ele>292.0</ele><time>2026-04-18T15:58:44.984Z</time></trkpt><trkpt lat="44.7156679" lon="8.0846052"><ele>292.0</ele><time>2026-04-18T15:58:45.975Z</time></trkpt><trkpt lat="44.7155506" lon="8.0846528"><ele>292.0</ele><time>2026-04-18T15:58:46.971Z</time></trkpt><trkpt lat="44.715437" lon="8.0847238"><ele>292.0</ele><time>2026-04-18T15:58:47.972Z</time></trkpt><trkpt lat="44.715342" lon="8.0848511"><ele>292.0</ele><time>2026-04-18T15:58:48.971Z</time></trkpt><trkpt lat="44.7152364" lon="8.084972"><ele>293.75</ele><time>2026-04-18T15:58:49.974Z</time></trkpt><trkpt lat="44.7151281" lon="8.0850603"><ele>295.5</ele><time>2026-04-18T15:58:50.978Z</time></trkpt><trkpt lat="44.7150218" lon="8.0851241"><ele>297.25</ele><time>2026-04-18T15:58:51.969Z</time></trkpt><trkpt lat="44.7149114" lon="8.0851714"><ele>299.0</ele><time>2026-04-18T15:58:52.979Z</time></trkpt><trkpt lat="44.7148052" lon="8.0852151"><ele>299.0</ele><time>2026-04-18T15:58:53.97Z</time></trkpt><trkpt lat="44.7146926" lon="8.0852691"><ele>299.0</ele><time>2026-04-18T15:58:54.974Z</time></trkpt><trkpt lat="44.7145837" lon="8.0853412"><ele>299.0</ele><time>2026-04-18T15:58:55.973Z</time></trkpt><trkpt lat="44.71448" lon="8.0854453"><ele>299.0</ele><time>2026-04-18T15:58:56.975Z</time></trkpt><trkpt lat="44.7143765" lon="8.0855679"><ele>297.25</ele><time>2026-04-18T15:58:57.97Z</time></trkpt><trkpt lat="44.7142764" lon="8.0857085"><ele>295.5</ele><time>2026-04-18T15:58:58.982Z</time></trkpt><trkpt lat="44.7141858" lon="8.0858708"><ele>293.75</ele><time>2026-04-18T15:58:59.971Z</time></trkpt><trkpt lat="44.7140973" lon="8.0860454"><ele>292.0</ele><time>2026-04-18T15:59:00.981Z</time></trkpt><trkpt lat="44.7140195" lon="8.0862296"><ele>292.0</ele><time>2026-04-18T15:59:01.975Z</time></trkpt><trkpt lat="44.7139443" lon="8.0864143"><ele>292.0</ele><time>2026-04-18T15:59:02.974Z</time></trkpt><trkpt lat="44.7138712" lon="8.0865873"><ele>292.0</ele><time>2026-04-18T15:59:03.983Z</time></trkpt><trkpt lat="44.713791" lon="8.0867445"><ele>292.0</ele><time>2026-04-18T15:59:04.975Z</time></trkpt><trkpt lat="44.7137152" lon="8.0868939"><ele>291.25</ele><time>2026-04-18T15:59:05.98Z</time></trkpt><trkpt lat="44.7136466" lon="8.0870336"><ele>290.5</ele><time>2026-04-18T15:59:06.973Z</time></trkpt><trkpt lat="44.7135892" lon="8.0871852"><ele>289.75</ele><time>2026-04-18T15:59:07.97Z</time></trkpt><trkpt lat="44.7135381" lon="8.0873451"><ele>289.0</ele><time>2026-04-18T15:59:08.974Z</time></trkpt><trkpt lat="44.713483" lon="8.0875081"><ele>289.0</ele><time>2026-04-18T15:59:09.97Z</time></trkpt><trkpt lat="44.713423" lon="8.0876806"><ele>289.0</ele><time>2026-04-18T15:59:10.971Z</time></trkpt><trkpt lat="44.7133647" lon="8.0878635"><ele>289.0</ele><time>2026-04-18T15:59:11.972Z</time></trkpt><trkpt lat="44.7133009" lon="8.0880492"><ele>289.0</ele><time>2026-04-18T15:59:12.971Z</time></trkpt><trkpt lat="44.7132334" lon="8.0882453"><ele>290.3333333333333</ele><time>2026-04-18T15:59:13.975Z</time></trkpt><trkpt lat="44.7131575" lon="8.0884484"><ele>291.6666666666667</ele><time>2026-04-18T15:59:14.979Z</time></trkpt><trkpt lat="44.7130674" lon="8.0886458"><ele>293.0</ele><time>2026-04-18T15:59:15.981Z</time></trkpt><trkpt lat="44.7129613" lon="8.0888393"><ele>293.0</ele><time>2026-04-18T15:59:16.977Z</time></trkpt><trkpt lat="44.7128431" lon="8.0890316"><ele>293.0</ele><time>2026-04-18T15:59:17.971Z</time></trkpt><trkpt lat="44.7127213" lon="8.0892174"><ele>293.0</ele><time>2026-04-18T15:59:18.97Z</time></trkpt><trkpt lat="44.7125983" lon="8.0893966"><ele>295.33333333333337</ele><time>2026-04-18T15:59:19.97Z</time></trkpt><trkpt lat="44.7124754" lon="8.0895704"><ele>297.6666666666667</ele><time>2026-04-18T15:59:20.97Z</time></trkpt><trkpt lat="44.712358" lon="8.0897449"><ele>300.0</ele><time>2026-04-18T15:59:21.973Z</time></trkpt><trkpt lat="44.7122483" lon="8.0899248"><ele>301.6666666666667</ele><time>2026-04-18T15:59:22.971Z</time></trkpt><trkpt lat="44.7121448" lon="8.090106"><ele>303.33333333333337</ele><time>2026-04-18T15:59:23.979Z</time></trkpt><trkpt lat="44.7120515" lon="8.0902951"><ele>305.0</ele><time>2026-04-18T15:59:24.976Z</time></trkpt><trkpt lat="44.7119591" lon="8.0904796"><ele>305.6666666666667</ele><time>2026-04-18T15:59:25.978Z</time></trkpt><trkpt lat="44.7118641" lon="8.0906491"><ele>306.3333333333333</ele><time>2026-04-18T15:59:26.979Z</time></trkpt><trkpt lat="44.7117559" lon="8.0908099"><ele>307.0</ele><time>2026-04-18T15:59:27.972Z</time></trkpt><trkpt lat="44.7116363" lon="8.0909557"><ele>307.0</ele><time>2026-04-18T15:59:28.977Z</time></trkpt><trkpt lat="44.7115076" lon="8.0910869"><ele>307.0</ele><time>2026-04-18T15:59:29.985Z</time></trkpt><trkpt lat="44.7113722" lon="8.0911968"><ele>307.0</ele><time>2026-04-18T15:59:30.98Z</time></trkpt><trkpt lat="44.711226" lon="8.0912788"><ele>307.0</ele><time>2026-04-18T15:59:31.98Z</time></trkpt><trkpt lat="44.7110754" lon="8.0913314"><ele>307.0</ele><time>2026-04-18T15:59:32.973Z</time></trkpt><trkpt lat="44.7109209" lon="8.0913499"><ele>307.0</ele><time>2026-04-18T15:59:33.969Z</time></trkpt><trkpt lat="44.7107704" lon="8.0913222"><ele>306.0</ele><time>2026-04-18T15:59:34.972Z</time></trkpt><trkpt lat="44.7106232" lon="8.0912619"><ele>305.0</ele><time>2026-04-18T15:59:35.971Z</time></trkpt><trkpt lat="44.7104841" lon="8.0911857"><ele>304.0</ele><time>2026-04-18T15:59:36.985Z</time></trkpt><trkpt lat="44.7103495" lon="8.0910967"><ele>303.75</ele><time>2026-04-18T15:59:37.971Z</time></trkpt><trkpt lat="44.7102236" lon="8.0910071"><ele>303.5</ele><time>2026-04-18T15:59:38.98Z</time></trkpt><trkpt lat="44.7101092" lon="8.0909132"><ele>303.25</ele><time>2026-04-18T15:59:39.972Z</time></trkpt><trkpt lat="44.7100007" lon="8.0908245"><ele>303.0</ele><time>2026-04-18T15:59:40.971Z</time></trkpt><trkpt lat="44.7099003" lon="8.0907477"><ele>303.0</ele><time>2026-04-18T15:59:41.97Z</time></trkpt><trkpt lat="44.7098104" lon="8.0906989"><ele>303.0</ele><time>2026-04-18T15:59:42.972Z</time></trkpt><trkpt lat="44.7097314" lon="8.0906703"><ele>303.0</ele><time>2026-04-18T15:59:43.979Z</time></trkpt><trkpt lat="44.7096623" lon="8.0906531"><ele>303.0</ele><time>2026-04-18T15:59:44.972Z</time></trkpt><trkpt lat="44.7095391" lon="8.0906501"><ele>303.0</ele><time>2026-04-18T15:59:46.983Z</time></trkpt><trkpt lat="44.709425" lon="8.0906318"><ele>306.4</ele><time>2026-04-18T15:59:48.972Z</time></trkpt><trkpt lat="44.7092935" lon="8.0905992"><ele>309.8</ele><time>2026-04-18T15:59:50.982Z</time></trkpt><trkpt lat="44.7092132" lon="8.0905681"><ele>313.2</ele><time>2026-04-18T15:59:51.97Z</time></trkpt><trkpt lat="44.7091226" lon="8.090521"><ele>316.6</ele><time>2026-04-18T15:59:52.975Z</time></trkpt><trkpt lat="44.7090233" lon="8.0904667"><ele>320.0</ele><time>2026-04-18T15:59:53.979Z</time></trkpt><trkpt lat="44.7089163" lon="8.0904129"><ele>320.0</ele><time>2026-04-18T15:59:54.97Z</time></trkpt><trkpt lat="44.7088048" lon="8.0903508"><ele>320.0</ele><time>2026-04-18T15:59:55.982Z</time></trkpt><trkpt lat="44.7086942" lon="8.090275"><ele>320.0</ele><time>2026-04-18T15:59:56.972Z</time></trkpt><trkpt lat="44.7085902" lon="8.0901635"><ele>320.0</ele><time>2026-04-18T15:59:57.972Z</time></trkpt><trkpt lat="44.7084956" lon="8.0900321"><ele>321.5</ele><time>2026-04-18T15:59:58.982Z</time></trkpt><trkpt lat="44.7084063" lon="8.0898902"><ele>323.0</ele><time>2026-04-18T15:59:59.974Z</time></trkpt><trkpt lat="44.7083076" lon="8.0897699"><ele>324.5</ele><time>2026-04-18T16:00:00.982Z</time></trkpt><trkpt lat="44.7081936" lon="8.0896731"><ele>326.0</ele><time>2026-04-18T16:00:01.982Z</time></trkpt><trkpt lat="44.7080769" lon="8.0895865"><ele>326.0</ele><time>2026-04-18T16:00:02.971Z</time></trkpt><trkpt lat="44.7079606" lon="8.0895116"><ele>326.0</ele><time>2026-04-18T16:00:03.971Z</time></trkpt><trkpt lat="44.7078547" lon="8.0894499"><ele>326.0</ele><time>2026-04-18T16:00:04.971Z</time></trkpt><trkpt lat="44.707759" lon="8.0893839"><ele>326.0</ele><time>2026-04-18T16:00:05.972Z</time></trkpt><trkpt lat="44.7076697" lon="8.0893146"><ele>325.5</ele><time>2026-04-18T16:00:06.978Z</time></trkpt><trkpt lat="44.7076067" lon="8.0892177"><ele>325.0</ele><time>2026-04-18T16:00:07.979Z</time></trkpt><trkpt lat="44.7075458" lon="8.0891288"><ele>324.5</ele><time>2026-04-18T16:00:08.968Z</time></trkpt><trkpt lat="44.707494" lon="8.0890423"><ele>324.0</ele><time>2026-04-18T16:00:09.986Z</time></trkpt><trkpt lat="44.7074486" lon="8.088958"><ele>323.5</ele><time>2026-04-18T16:00:10.97Z</time></trkpt><trkpt lat="44.707409" lon="8.0888801"><ele>323.0</ele><time>2026-04-18T16:00:11.972Z</time></trkpt><trkpt lat="44.7073711" lon="8.0888088"><ele>323.0</ele><time>2026-04-18T16:00:12.975Z</time></trkpt><trkpt lat="44.7073327" lon="8.0887386"><ele>323.0</ele><time>2026-04-18T16:00:13.985Z</time></trkpt><trkpt lat="44.7072513" lon="8.0885851"><ele>323.0</ele><time>2026-04-18T16:00:15.979Z</time></trkpt><trkpt lat="44.7071987" lon="8.0884966"><ele>323.0</ele><time>2026-04-18T16:00:16.974Z</time></trkpt><trkpt lat="44.707151" lon="8.0883882"><ele>323.0</ele><time>2026-04-18T16:00:17.97Z</time></trkpt><trkpt lat="44.7071122" lon="8.0882719"><ele>322.5</ele><time>2026-04-18T16:00:18.97Z</time></trkpt><trkpt lat="44.7070918" lon="8.0881397"><ele>322.0</ele><time>2026-04-18T16:00:19.976Z</time></trkpt><trkpt lat="44.7070917" lon="8.0880189"><ele>321.5</ele><time>2026-04-18T16:00:20.973Z</time></trkpt><trkpt lat="44.7071052" lon="8.0879088"><ele>321.0</ele><time>2026-04-18T16:00:21.972Z</time></trkpt><trkpt lat="44.7071278" lon="8.0878063"><ele>320.5</ele><time>2026-04-18T16:00:22.971Z</time></trkpt><trkpt lat="44.7071611" lon="8.0877115"><ele>320.0</ele><time>2026-04-18T16:00:23.976Z</time></trkpt><trkpt lat="44.7071972" lon="8.087622"><ele>320.0</ele><time>2026-04-18T16:00:24.975Z</time></trkpt><trkpt lat="44.7072383" lon="8.087537"><ele>320.0</ele><time>2026-04-18T16:00:25.97Z</time></trkpt><trkpt lat="44.7072767" lon="8.0874484"><ele>320.0</ele><time>2026-04-18T16:00:26.97Z</time></trkpt><trkpt lat="44.7073153" lon="8.0873562"><ele>320.0</ele><time>2026-04-18T16:00:27.968Z</time></trkpt><trkpt lat="44.7073488" lon="8.0872619"><ele>320.0</ele><time>2026-04-18T16:00:28.97Z</time></trkpt><trkpt lat="44.7073851" lon="8.0871265"><ele>320.0</ele><time>2026-04-18T16:00:30.971Z</time></trkpt><trkpt lat="44.7073791" lon="8.0870027"><ele>319.4</ele><time>2026-04-18T16:00:32.982Z</time></trkpt><trkpt lat="44.7073257" lon="8.0868474"><ele>318.8</ele><time>2026-04-18T16:00:34.967Z</time></trkpt><trkpt lat="44.7072754" lon="8.0867588"><ele>318.2</ele><time>2026-04-18T16:00:35.973Z</time></trkpt><trkpt lat="44.7072145" lon="8.0866633"><ele>317.6</ele><time>2026-04-18T16:00:36.966Z</time></trkpt><trkpt lat="44.707142" lon="8.0865614"><ele>317.0</ele><time>2026-04-18T16:00:37.973Z</time></trkpt><trkpt lat="44.7070567" lon="8.086451"><ele>317.25</ele><time>2026-04-18T16:00:38.97Z</time></trkpt><trkpt lat="44.7069683" lon="8.0863348"><ele>317.5</ele><time>2026-04-18T16:00:39.973Z</time></trkpt><trkpt lat="44.7068673" lon="8.0861938"><ele>317.75</ele><time>2026-04-18T16:00:40.968Z</time></trkpt><trkpt lat="44.70676" lon="8.0860444"><ele>318.0</ele><time>2026-04-18T16:00:41.972Z</time></trkpt><trkpt lat="44.7066529" lon="8.0858882"><ele>315.75</ele><time>2026-04-18T16:00:43.054Z</time></trkpt><trkpt lat="44.7065575" lon="8.0857228"><ele>313.5</ele><time>2026-04-18T16:00:43.972Z</time></trkpt><trkpt lat="44.7064789" lon="8.0855528"><ele>311.25</ele><time>2026-04-18T16:00:44.969Z</time></trkpt><trkpt lat="44.7064124" lon="8.0853862"><ele>309.0</ele><time>2026-04-18T16:00:45.97Z</time></trkpt><trkpt lat="44.7063577" lon="8.0852223"><ele>309.0</ele><time>2026-04-18T16:00:46.971Z</time></trkpt><trkpt lat="44.706299" lon="8.0850527"><ele>309.0</ele><time>2026-04-18T16:00:47.98Z</time></trkpt><trkpt lat="44.70624" lon="8.0848903"><ele>309.0</ele><time>2026-04-18T16:00:48.983Z</time></trkpt><trkpt lat="44.7061826" lon="8.0847388"><ele>309.0</ele><time>2026-04-18T16:00:49.973Z</time></trkpt><trkpt lat="44.7061253" lon="8.0845898"><ele>311.0</ele><time>2026-04-18T16:00:50.98Z</time></trkpt><trkpt lat="44.70607" lon="8.0844344"><ele>313.0</ele><time>2026-04-18T16:00:51.981Z</time></trkpt><trkpt lat="44.7060138" lon="8.0842794"><ele>315.0</ele><time>2026-04-18T16:00:52.981Z</time></trkpt><trkpt lat="44.7059624" lon="8.0841212"><ele>317.0</ele><time>2026-04-18T16:00:53.981Z</time></trkpt><trkpt lat="44.7059094" lon="8.0839704"><ele>317.0</ele><time>2026-04-18T16:00:54.971Z</time></trkpt><trkpt lat="44.7058606" lon="8.083834"><ele>317.0</ele><time>2026-04-18T16:00:55.971Z</time></trkpt><trkpt lat="44.7058187" lon="8.08371"><ele>317.0</ele><time>2026-04-18T16:00:56.974Z</time></trkpt><trkpt lat="44.7057808" lon="8.0836163"><ele>317.0</ele><time>2026-04-18T16:00:57.971Z</time></trkpt><trkpt lat="44.7057322" lon="8.0835225"><ele>317.0</ele><time>2026-04-18T16:00:58.983Z</time></trkpt><trkpt lat="44.7056708" lon="8.0834206"><ele>317.0</ele><time>2026-04-18T16:00:59.969Z</time></trkpt><trkpt lat="44.7056088" lon="8.0832908"><ele>317.0</ele><time>2026-04-18T16:01:00.969Z</time></trkpt><trkpt lat="44.7055343" lon="8.0831475"><ele>317.0</ele><time>2026-04-18T16:01:01.971Z</time></trkpt><trkpt lat="44.7054525" lon="8.0830002"><ele>317.0</ele><time>2026-04-18T16:01:02.978Z</time></trkpt><trkpt lat="44.7053667" lon="8.0828554"><ele>318.0</ele><time>2026-04-18T16:01:03.971Z</time></trkpt><trkpt lat="44.7052828" lon="8.0827124"><ele>319.0</ele><time>2026-04-18T16:01:04.974Z</time></trkpt><trkpt lat="44.7052039" lon="8.0825809"><ele>320.0</ele><time>2026-04-18T16:01:05.969Z</time></trkpt><trkpt lat="44.7051321" lon="8.0824593"><ele>321.0</ele><time>2026-04-18T16:01:06.982Z</time></trkpt><trkpt lat="44.7050652" lon="8.0823488"><ele>318.8333333333333</ele><time>2026-04-18T16:01:07.975Z</time></trkpt><trkpt lat="44.7050042" lon="8.0822533"><ele>316.6666666666667</ele><time>2026-04-18T16:01:08.977Z</time></trkpt><trkpt lat="44.7049437" lon="8.0821716"><ele>314.5</ele><time>2026-04-18T16:01:09.97Z</time></trkpt><trkpt lat="44.7048786" lon="8.0821068"><ele>312.33333333333337</ele><time>2026-04-18T16:01:10.972Z</time></trkpt><trkpt lat="44.7048093" lon="8.0820725"><ele>310.1666666666667</ele><time>2026-04-18T16:01:11.97Z</time></trkpt><trkpt lat="44.7047422" lon="8.0820684"><ele>308.0</ele><time>2026-04-18T16:01:12.984Z</time></trkpt><trkpt lat="44.7046241" lon="8.0820238"><ele>308.0</ele><time>2026-04-18T16:01:14.983Z</time></trkpt><trkpt lat="44.7045394" lon="8.081941"><ele>308.0</ele><time>2026-04-18T16:01:16.971Z</time></trkpt><trkpt lat="44.7044436" lon="8.0818292"><ele>308.0</ele><time>2026-04-18T16:01:18.971Z</time></trkpt><trkpt lat="44.7043847" lon="8.0817581"><ele>308.0</ele><time>2026-04-18T16:01:19.968Z</time></trkpt><trkpt lat="44.7043233" lon="8.0816813"><ele>308.0</ele><time>2026-04-18T16:01:20.973Z</time></trkpt><trkpt lat="44.7042552" lon="8.0815951"><ele>310.2</ele><time>2026-04-18T16:01:21.972Z</time></trkpt><trkpt lat="44.7041831" lon="8.0815043"><ele>312.4</ele><time>2026-04-18T16:01:22.98Z</time></trkpt><trkpt lat="44.7041107" lon="8.0814045"><ele>314.59999999999997</ele><time>2026-04-18T16:01:23.981Z</time></trkpt><trkpt lat="44.7040423" lon="8.0813054"><ele>316.8</ele><time>2026-04-18T16:01:24.973Z</time></trkpt><trkpt lat="44.7039766" lon="8.0812009"><ele>319.0</ele><time>2026-04-18T16:01:25.973Z</time></trkpt><trkpt lat="44.7039154" lon="8.0810966"><ele>319.0</ele><time>2026-04-18T16:01:26.974Z</time></trkpt><trkpt lat="44.7038677" lon="8.080981"><ele>319.0</ele><time>2026-04-18T16:01:27.974Z</time></trkpt><trkpt lat="44.7038304" lon="8.0808584"><ele>319.0</ele><time>2026-04-18T16:01:28.971Z</time></trkpt><trkpt lat="44.7038075" lon="8.0807251"><ele>319.0</ele><time>2026-04-18T16:01:29.974Z</time></trkpt><trkpt lat="44.70379" lon="8.0805877"><ele>319.0</ele><time>2026-04-18T16:01:30.978Z</time></trkpt><trkpt lat="44.7037797" lon="8.0804438"><ele>318.59999999999997</ele><time>2026-04-18T16:01:31.975Z</time></trkpt><trkpt lat="44.7037813" lon="8.0803037"><ele>318.2</ele><time>2026-04-18T16:01:32.974Z</time></trkpt><trkpt lat="44.7037797" lon="8.0801668"><ele>317.79999999999995</ele><time>2026-04-18T16:01:33.976Z</time></trkpt><trkpt lat="44.7037724" lon="8.0800317"><ele>317.4</ele><time>2026-04-18T16:01:34.979Z</time></trkpt><trkpt lat="44.7037502" lon="8.0798992"><ele>317.0</ele><time>2026-04-18T16:01:35.975Z</time></trkpt><trkpt lat="44.703707" lon="8.0797759"><ele>317.0</ele><time>2026-04-18T16:01:36.972Z</time></trkpt><trkpt lat="44.703647" lon="8.0796691"><ele>317.0</ele><time>2026-04-18T16:01:37.972Z</time></trkpt><trkpt lat="44.7035737" lon="8.0795781"><ele>317.0</ele><time>2026-04-18T16:01:38.97Z</time></trkpt><trkpt lat="44.7034884" lon="8.0795078"><ele>317.0</ele><time>2026-04-18T16:01:39.971Z</time></trkpt><trkpt lat="44.7033907" lon="8.0794596"><ele>317.0</ele><time>2026-04-18T16:01:40.971Z</time></trkpt><trkpt lat="44.7032811" lon="8.0794318"><ele>319.25</ele><time>2026-04-18T16:01:41.974Z</time></trkpt><trkpt lat="44.7031676" lon="8.079444"><ele>321.5</ele><time>2026-04-18T16:01:42.974Z</time></trkpt><trkpt lat="44.7030565" lon="8.0794916"><ele>323.75</ele><time>2026-04-18T16:01:43.97Z</time></trkpt><trkpt lat="44.7029641" lon="8.0795718"><ele>326.0</ele><time>2026-04-18T16:01:44.971Z</time></trkpt><trkpt lat="44.7028815" lon="8.0796765"><ele>326.0</ele><time>2026-04-18T16:01:45.978Z</time></trkpt><trkpt lat="44.7028127" lon="8.0798021"><ele>326.0</ele><time>2026-04-18T16:01:46.974Z</time></trkpt><trkpt lat="44.7027513" lon="8.0799388"><ele>326.0</ele><time>2026-04-18T16:01:47.971Z</time></trkpt><trkpt lat="44.7026952" lon="8.0800829"><ele>326.0</ele><time>2026-04-18T16:01:48.969Z</time></trkpt><trkpt lat="44.7026444" lon="8.0802327"><ele>326.75</ele><time>2026-04-18T16:01:49.975Z</time></trkpt><trkpt lat="44.7025845" lon="8.0803741"><ele>327.5</ele><time>2026-04-18T16:01:50.973Z</time></trkpt><trkpt lat="44.7025124" lon="8.0805124"><ele>328.25</ele><time>2026-04-18T16:01:51.969Z</time></trkpt><trkpt lat="44.7024287" lon="8.0806493"><ele>329.0</ele><time>2026-04-18T16:01:52.976Z</time></trkpt><trkpt lat="44.7023346" lon="8.0807808"><ele>328.25</ele><time>2026-04-18T16:01:53.972Z</time></trkpt><trkpt lat="44.7022304" lon="8.0809146"><ele>327.5</ele><time>2026-04-18T16:01:54.976Z</time></trkpt><trkpt lat="44.7021204" lon="8.0810547"><ele>326.75</ele><time>2026-04-18T16:01:55.972Z</time></trkpt><trkpt lat="44.7020082" lon="8.0811986"><ele>326.0</ele><time>2026-04-18T16:01:56.974Z</time></trkpt><trkpt lat="44.701891" lon="8.081349"><ele>326.0</ele><time>2026-04-18T16:01:57.972Z</time></trkpt><trkpt lat="44.7017772" lon="8.0814896"><ele>326.0</ele><time>2026-04-18T16:01:58.979Z</time></trkpt><trkpt lat="44.7016686" lon="8.0816379"><ele>326.0</ele><time>2026-04-18T16:01:59.973Z</time></trkpt><trkpt lat="44.7015659" lon="8.0817929"><ele>330.5</ele><time>2026-04-18T16:02:00.974Z</time></trkpt><trkpt lat="44.7014794" lon="8.081955"><ele>335.0</ele><time>2026-04-18T16:02:01.981Z</time></trkpt><trkpt lat="44.7014065" lon="8.0821286"><ele>339.5</ele><time>2026-04-18T16:02:02.98Z</time></trkpt><trkpt lat="44.7013392" lon="8.0823024"><ele>344.0</ele><time>2026-04-18T16:02:03.98Z</time></trkpt><trkpt lat="44.7012773" lon="8.0824786"><ele>341.25</ele><time>2026-04-18T16:02:04.98Z</time></trkpt><trkpt lat="44.7012162" lon="8.0826571"><ele>338.5</ele><time>2026-04-18T16:02:05.982Z</time></trkpt><trkpt lat="44.7011532" lon="8.0828409"><ele>335.75</ele><time>2026-04-18T16:02:06.982Z</time></trkpt><trkpt lat="44.7010861" lon="8.0830298"><ele>333.0</ele><time>2026-04-18T16:02:07.979Z</time></trkpt><trkpt lat="44.7010164" lon="8.0832133"><ele>337.0</ele><time>2026-04-18T16:02:08.982Z</time></trkpt><trkpt lat="44.7009463" lon="8.0833944"><ele>341.0</ele><time>2026-04-18T16:02:09.971Z</time></trkpt><trkpt lat="44.7008801" lon="8.0835759"><ele>345.0</ele><time>2026-04-18T16:02:10.98Z</time></trkpt><trkpt lat="44.7008176" lon="8.0837519"><ele>349.0</ele><time>2026-04-18T16:02:11.98Z</time></trkpt><trkpt lat="44.7007619" lon="8.0839244"><ele>349.0</ele><time>2026-04-18T16:02:12.967Z</time></trkpt><trkpt lat="44.7007074" lon="8.0840874"><ele>349.0</ele><time>2026-04-18T16:02:13.97Z</time></trkpt><trkpt lat="44.7006547" lon="8.084239"><ele>349.0</ele><time>2026-04-18T16:02:14.967Z</time></trkpt><trkpt lat="44.7006035" lon="8.0843875"><ele>349.0</ele><time>2026-04-18T16:02:15.974Z</time></trkpt><trkpt lat="44.700548" lon="8.0845272"><ele>352.75</ele><time>2026-04-18T16:02:16.976Z</time></trkpt><trkpt lat="44.7004931" lon="8.0846708"><ele>356.5</ele><time>2026-04-18T16:02:17.971Z</time></trkpt><trkpt lat="44.7004242" lon="8.0848018"><ele>360.25</ele><time>2026-04-18T16:02:18.979Z</time></trkpt><trkpt lat="44.7003464" lon="8.0849268"><ele>364.0</ele><time>2026-04-18T16:02:19.967Z</time></trkpt><trkpt lat="44.7002542" lon="8.0850336"><ele>363.3333333333333</ele><time>2026-04-18T16:02:20.969Z</time></trkpt><trkpt lat="44.7001344" lon="8.0851141"><ele>362.6666666666667</ele><time>2026-04-18T16:02:21.967Z</time></trkpt><trkpt lat="44.699993" lon="8.0851858"><ele>362.0</ele><time>2026-04-18T16:02:22.97Z</time></trkpt><trkpt lat="44.6998274" lon="8.0852409"><ele>362.0</ele><time>2026-04-18T16:02:23.972Z</time></trkpt><trkpt lat="44.6996387" lon="8.0853085"><ele>362.0</ele><time>2026-04-18T16:02:24.97Z</time></trkpt><trkpt lat="44.699433" lon="8.0853773"><ele>362.0</ele><time>2026-04-18T16:02:25.97Z</time></trkpt><trkpt lat="44.6992073" lon="8.0854315"><ele>362.5</ele><time>2026-04-18T16:02:27.064Z</time></trkpt><trkpt lat="44.6989613" lon="8.0854943"><ele>363.0</ele><time>2026-04-18T16:02:27.973Z</time></trkpt><trkpt lat="44.6987184" lon="8.0855627"><ele>366.0</ele><time>2026-04-18T16:02:28.974Z</time></trkpt><trkpt lat="44.6984803" lon="8.0856324"><ele>369.0</ele><time>2026-04-18T16:02:29.979Z</time></trkpt><trkpt lat="44.6982461" lon="8.0857079"><ele>367.0</ele><time>2026-04-18T16:02:30.97Z</time></trkpt><trkpt lat="44.6980245" lon="8.0857835"><ele>365.0</ele><time>2026-04-18T16:02:31.973Z</time></trkpt><trkpt lat="44.6978073" lon="8.0858726"><ele>368.6666666666667</ele><time>2026-04-18T16:02:32.979Z</time></trkpt><trkpt lat="44.6975939" lon="8.0859739"><ele>372.3333333333333</ele><time>2026-04-18T16:02:33.971Z</time></trkpt><trkpt lat="44.6973844" lon="8.0860813"><ele>376.0</ele><time>2026-04-18T16:02:34.985Z</time></trkpt><trkpt lat="44.6971784" lon="8.0861909"><ele>376.0</ele><time>2026-04-18T16:02:35.97Z</time></trkpt><trkpt lat="44.6969788" lon="8.0863247"><ele>376.0</ele><time>2026-04-18T16:02:36.968Z</time></trkpt><trkpt lat="44.696782" lon="8.08647"><ele>376.0</ele><time>2026-04-18T16:02:37.973Z</time></trkpt><trkpt lat="44.6965935" lon="8.0866232"><ele>374.3333333333333</ele><time>2026-04-18T16:02:38.964Z</time></trkpt><trkpt lat="44.6964072" lon="8.0867864"><ele>372.6666666666667</ele><time>2026-04-18T16:02:39.972Z</time></trkpt><trkpt lat="44.69622" lon="8.0869614"><ele>371.0</ele><time>2026-04-18T16:02:40.972Z</time></trkpt><trkpt lat="44.6960343" lon="8.0871518"><ele>372.0</ele><time>2026-04-18T16:02:41.976Z</time></trkpt><trkpt lat="44.6958488" lon="8.0873419"><ele>373.0</ele><time>2026-04-18T16:02:42.977Z</time></trkpt><trkpt lat="44.6956637" lon="8.0875285"><ele>373.0</ele><time>2026-04-18T16:02:43.971Z</time></trkpt><trkpt lat="44.6954802" lon="8.0877086"><ele>373.0</ele><time>2026-04-18T16:02:44.975Z</time></trkpt><trkpt lat="44.6953097" lon="8.0878865"><ele>373.0</ele><time>2026-04-18T16:02:45.971Z</time></trkpt><trkpt lat="44.6951438" lon="8.0880511"><ele>375.66666666666663</ele><time>2026-04-18T16:02:46.964Z</time></trkpt><trkpt lat="44.6950075" lon="8.0882086"><ele>378.3333333333333</ele><time>2026-04-18T16:02:47.971Z</time></trkpt><trkpt lat="44.6948782" lon="8.0883709"><ele>381.0</ele><time>2026-04-18T16:02:48.971Z</time></trkpt><trkpt lat="44.6947606" lon="8.0885364"><ele>381.3333333333333</ele><time>2026-04-18T16:02:49.98Z</time></trkpt><trkpt lat="44.6946503" lon="8.0887193"><ele>381.66666666666663</ele><time>2026-04-18T16:02:50.98Z</time></trkpt><trkpt lat="44.6945513" lon="8.0889163"><ele>382.0</ele><time>2026-04-18T16:02:51.98Z</time></trkpt><trkpt lat="44.6944575" lon="8.0891222"><ele>386.66666666666663</ele><time>2026-04-18T16:02:52.979Z</time></trkpt><trkpt lat="44.6943633" lon="8.089329"><ele>391.3333333333333</ele><time>2026-04-18T16:02:53.981Z</time></trkpt><trkpt lat="44.6942742" lon="8.0895318"><ele>396.0</ele><time>2026-04-18T16:02:54.971Z</time></trkpt><trkpt lat="44.6942015" lon="8.089726"><ele>396.0</ele><time>2026-04-18T16:02:55.971Z</time></trkpt><trkpt lat="44.6941528" lon="8.0899058"><ele>396.0</ele><time>2026-04-18T16:02:56.975Z</time></trkpt><trkpt lat="44.6941238" lon="8.0900768"><ele>396.0</ele><time>2026-04-18T16:02:57.973Z</time></trkpt><trkpt lat="44.6941181" lon="8.09024"><ele>396.0</ele><time>2026-04-18T16:02:58.971Z</time></trkpt><trkpt lat="44.6941331" lon="8.0903989"><ele>396.20000000000005</ele><time>2026-04-18T16:02:59.972Z</time></trkpt><trkpt lat="44.694158" lon="8.0905322"><ele>396.40000000000003</ele><time>2026-04-18T16:03:00.978Z</time></trkpt><trkpt lat="44.6941735" lon="8.0906413"><ele>396.6</ele><time>2026-04-18T16:03:01.978Z</time></trkpt><trkpt lat="44.694182" lon="8.0907386"><ele>396.8</ele><time>2026-04-18T16:03:02.972Z</time></trkpt><trkpt lat="44.6941216" lon="8.0908759"><ele>397.0</ele><time>2026-04-18T16:03:04.971Z</time></trkpt><trkpt lat="44.6940008" lon="8.0908515"><ele>397.0</ele><time>2026-04-18T16:03:06.967Z</time></trkpt><trkpt lat="44.6939436" lon="8.0907648"><ele>397.0</ele><time>2026-04-18T16:03:07.972Z</time></trkpt><trkpt lat="44.6938882" lon="8.0906503"><ele>397.0</ele><time>2026-04-18T16:03:08.976Z</time></trkpt><trkpt lat="44.6938221" lon="8.0905251"><ele>397.0</ele><time>2026-04-18T16:03:09.972Z</time></trkpt><trkpt lat="44.6937471" lon="8.0903838"><ele>397.0</ele><time>2026-04-18T16:03:10.977Z</time></trkpt><trkpt lat="44.6936673" lon="8.0902328"><ele>397.75</ele><time>2026-04-18T16:03:11.981Z</time></trkpt><trkpt lat="44.6935877" lon="8.0900804"><ele>398.5</ele><time>2026-04-18T16:03:12.972Z</time></trkpt><trkpt lat="44.6934964" lon="8.0899531"><ele>399.25</ele><time>2026-04-18T16:03:13.981Z</time></trkpt><trkpt lat="44.6933856" lon="8.0898559"><ele>400.0</ele><time>2026-04-18T16:03:14.972Z</time></trkpt><trkpt lat="44.6932612" lon="8.089781"><ele>400.0</ele><time>2026-04-18T16:03:15.97Z</time></trkpt><trkpt lat="44.693131" lon="8.0897465"><ele>400.0</ele><time>2026-04-18T16:03:16.978Z</time></trkpt><trkpt lat="44.6929937" lon="8.0897538"><ele>400.0</ele><time>2026-04-18T16:03:17.974Z</time></trkpt><trkpt lat="44.6928461" lon="8.0897877"><ele>400.0</ele><time>2026-04-18T16:03:18.965Z</time></trkpt><trkpt lat="44.6926911" lon="8.0898351"><ele>399.33333333333337</ele><time>2026-04-18T16:03:19.97Z</time></trkpt><trkpt lat="44.692529" lon="8.089887"><ele>398.66666666666663</ele><time>2026-04-18T16:03:20.969Z</time></trkpt><trkpt lat="44.6923587" lon="8.0899416"><ele>398.0</ele><time>2026-04-18T16:03:21.969Z</time></trkpt><trkpt lat="44.6921852" lon="8.0900042"><ele>403.3333333333333</ele><time>2026-04-18T16:03:22.969Z</time></trkpt><trkpt lat="44.6920064" lon="8.090065"><ele>408.66666666666663</ele><time>2026-04-18T16:03:23.965Z</time></trkpt><trkpt lat="44.6918159" lon="8.0901024"><ele>414.0</ele><time>2026-04-18T16:03:24.968Z</time></trkpt><trkpt lat="44.6916246" lon="8.0901255"><ele>414.0</ele><time>2026-04-18T16:03:25.971Z</time></trkpt><trkpt lat="44.6914269" lon="8.0901136"><ele>414.0</ele><time>2026-04-18T16:03:26.97Z</time></trkpt><trkpt lat="44.6912337" lon="8.0900844"><ele>414.0</ele><time>2026-04-18T16:03:27.969Z</time></trkpt><trkpt lat="44.6910408" lon="8.0900443"><ele>415.33333333333337</ele><time>2026-04-18T16:03:28.971Z</time></trkpt><trkpt lat="44.6908641" lon="8.090008"><ele>416.6666666666667</ele><time>2026-04-18T16:03:29.974Z</time></trkpt><trkpt lat="44.6906992" lon="8.0899718"><ele>418.0</ele><time>2026-04-18T16:03:30.97Z</time></trkpt><trkpt lat="44.6905528" lon="8.0899341"><ele>418.25</ele><time>2026-04-18T16:03:31.972Z</time></trkpt><trkpt lat="44.6904082" lon="8.0898939"><ele>418.5</ele><time>2026-04-18T16:03:32.977Z</time></trkpt><trkpt lat="44.6902754" lon="8.0898427"><ele>418.75</ele><time>2026-04-18T16:03:33.969Z</time></trkpt><trkpt lat="44.6901624" lon="8.0897809"><ele>419.0</ele><time>2026-04-18T16:03:34.974Z</time></trkpt><trkpt lat="44.6900679" lon="8.0897089"><ele>419.0</ele><time>2026-04-18T16:03:35.968Z</time></trkpt><trkpt lat="44.6899917" lon="8.0896317"><ele>419.0</ele><time>2026-04-18T16:03:36.967Z</time></trkpt><trkpt lat="44.6899282" lon="8.08956"><ele>419.0</ele><time>2026-04-18T16:03:37.97Z</time></trkpt><trkpt lat="44.6898857" lon="8.0894904"><ele>419.0</ele><time>2026-04-18T16:03:38.97Z</time></trkpt><trkpt lat="44.6898064" lon="8.0894158"><ele>419.0</ele><time>2026-04-18T16:03:40.969Z</time></trkpt><trkpt lat="44.6897012" lon="8.0894841"><ele>419.0</ele><time>2026-04-18T16:03:42.968Z</time></trkpt><trkpt lat="44.6896424" lon="8.0895539"><ele>419.0</ele><time>2026-04-18T16:03:43.969Z</time></trkpt><trkpt lat="44.6895645" lon="8.0896194"><ele>419.0</ele><time>2026-04-18T16:03:44.966Z</time></trkpt><trkpt lat="44.6894886" lon="8.0896749"><ele>419.0</ele><time>2026-04-18T16:03:45.971Z</time></trkpt><trkpt lat="44.6893675" lon="8.0897228"><ele>419.0</ele><time>2026-04-18T16:03:46.976Z</time></trkpt><trkpt lat="44.6892462" lon="8.0897749"><ele>423.0</ele><time>2026-04-18T16:03:47.978Z</time></trkpt><trkpt lat="44.6891103" lon="8.0898291"><ele>427.0</ele><time>2026-04-18T16:03:48.975Z</time></trkpt><trkpt lat="44.688964" lon="8.089891"><ele>431.0</ele><time>2026-04-18T16:03:49.969Z</time></trkpt><trkpt lat="44.6888103" lon="8.0899597"><ele>431.3333333333333</ele><time>2026-04-18T16:03:50.967Z</time></trkpt><trkpt lat="44.6886528" lon="8.0900272"><ele>431.66666666666663</ele><time>2026-04-18T16:03:51.972Z</time></trkpt><trkpt lat="44.6884894" lon="8.090098"><ele>432.0</ele><time>2026-04-18T16:03:52.979Z</time></trkpt><trkpt lat="44.6883252" lon="8.090204"><ele>432.0</ele><time>2026-04-18T16:03:53.971Z</time></trkpt><trkpt lat="44.6881694" lon="8.0903317"><ele>432.0</ele><time>2026-04-18T16:03:54.971Z</time></trkpt><trkpt lat="44.6880235" lon="8.0904733"><ele>432.0</ele><time>2026-04-18T16:03:55.971Z</time></trkpt><trkpt lat="44.6878836" lon="8.0906088"><ele>433.0</ele><time>2026-04-18T16:03:56.97Z</time></trkpt><trkpt lat="44.6877518" lon="8.0907374"><ele>434.0</ele><time>2026-04-18T16:03:57.97Z</time></trkpt><trkpt lat="44.6876244" lon="8.0908475"><ele>435.0</ele><time>2026-04-18T16:03:59.023Z</time></trkpt><trkpt lat="44.6875001" lon="8.0909372"><ele>435.0</ele><time>2026-04-18T16:03:59.968Z</time></trkpt><trkpt lat="44.6873703" lon="8.0909928"><ele>435.0</ele><time>2026-04-18T16:04:00.966Z</time></trkpt><trkpt lat="44.6872382" lon="8.0910087"><ele>435.0</ele><time>2026-04-18T16:04:01.972Z</time></trkpt><trkpt lat="44.6870934" lon="8.0909862"><ele>435.0</ele><time>2026-04-18T16:04:02.968Z</time></trkpt><trkpt lat="44.6869344" lon="8.0909544"><ele>435.33333333333337</ele><time>2026-04-18T16:04:03.974Z</time></trkpt><trkpt lat="44.6867697" lon="8.0909228"><ele>435.6666666666667</ele><time>2026-04-18T16:04:04.985Z</time></trkpt><trkpt lat="44.6865943" lon="8.090885"><ele>436.0</ele><time>2026-04-18T16:04:05.97Z</time></trkpt><trkpt lat="44.6864144" lon="8.0908479"><ele>436.0</ele><time>2026-04-18T16:04:06.973Z</time></trkpt><trkpt lat="44.6862369" lon="8.0907992"><ele>436.0</ele><time>2026-04-18T16:04:07.973Z</time></trkpt><trkpt lat="44.6860732" lon="8.0907356"><ele>436.0</ele><time>2026-04-18T16:04:09.428Z</time></trkpt><trkpt lat="44.6857276" lon="8.0905649"><ele>434.6666666666667</ele><time>2026-04-18T16:04:11.649Z</time></trkpt><trkpt lat="44.6854527" lon="8.090573"><ele>433.33333333333337</ele><time>2026-04-18T16:04:12.969Z</time></trkpt><trkpt lat="44.6853013" lon="8.0906233"><ele>432.0</ele><time>2026-04-18T16:04:13.967Z</time></trkpt><trkpt lat="44.6851457" lon="8.0906557"><ele>432.0</ele><time>2026-04-18T16:04:14.965Z</time></trkpt><trkpt lat="44.6849807" lon="8.0906549"><ele>432.0</ele><time>2026-04-18T16:04:15.966Z</time></trkpt><trkpt lat="44.6848166" lon="8.0906271"><ele>432.0</ele><time>2026-04-18T16:04:16.972Z</time></trkpt><trkpt lat="44.684652" lon="8.090566"><ele>432.0</ele><time>2026-04-18T16:04:17.976Z</time></trkpt><trkpt lat="44.6844795" lon="8.0904919"><ele>432.0</ele><time>2026-04-18T16:04:18.968Z</time></trkpt><trkpt lat="44.6843043" lon="8.0904178"><ele>432.0</ele><time>2026-04-18T16:04:19.965Z</time></trkpt><trkpt lat="44.6841226" lon="8.0903332"><ele>433.0</ele><time>2026-04-18T16:04:20.965Z</time></trkpt><trkpt lat="44.6839364" lon="8.0902465"><ele>434.0</ele><time>2026-04-18T16:04:21.971Z</time></trkpt><trkpt lat="44.683745" lon="8.0901589"><ele>435.0</ele><time>2026-04-18T16:04:22.968Z</time></trkpt><trkpt lat="44.6835575" lon="8.0900791"><ele>438.0</ele><time>2026-04-18T16:04:23.969Z</time></trkpt><trkpt lat="44.6833646" lon="8.0900057"><ele>441.0</ele><time>2026-04-18T16:04:24.972Z</time></trkpt><trkpt lat="44.6831546" lon="8.0899277"><ele>444.0</ele><time>2026-04-18T16:04:26.545Z</time></trkpt><trkpt lat="44.6826852" lon="8.089892"><ele>447.0</ele><time>2026-04-18T16:04:28.913Z</time></trkpt><trkpt lat="44.682382" lon="8.0899553"><ele>450.0</ele><time>2026-04-18T16:04:29.96Z</time></trkpt><trkpt lat="44.682185" lon="8.0900184"><ele>450.0</ele><time>2026-04-18T16:04:30.971Z</time></trkpt><trkpt lat="44.6820285" lon="8.0901609"><ele>450.0</ele><time>2026-04-18T16:04:31.97Z</time></trkpt><trkpt lat="44.6818847" lon="8.0903132"><ele>450.0</ele><time>2026-04-18T16:04:32.967Z</time></trkpt><trkpt lat="44.6817395" lon="8.0904846"><ele>450.0</ele><time>2026-04-18T16:04:33.968Z</time></trkpt><trkpt lat="44.681596" lon="8.0906573"><ele>450.0</ele><time>2026-04-18T16:04:34.97Z</time></trkpt><trkpt lat="44.6814536" lon="8.0908424"><ele>450.0</ele><time>2026-04-18T16:04:35.969Z</time></trkpt><trkpt lat="44.6813104" lon="8.0910218"><ele>449.33333333333337</ele><time>2026-04-18T16:04:36.972Z</time></trkpt><trkpt lat="44.681157" lon="8.0911835"><ele>448.6666666666667</ele><time>2026-04-18T16:04:37.967Z</time></trkpt><trkpt lat="44.6809875" lon="8.0913171"><ele>448.0</ele><time>2026-04-18T16:04:38.97Z</time></trkpt><trkpt lat="44.680808" lon="8.0914304"><ele>448.0</ele><time>2026-04-18T16:04:39.971Z</time></trkpt><trkpt lat="44.6806206" lon="8.0915236"><ele>448.0</ele><time>2026-04-18T16:04:40.976Z</time></trkpt><trkpt lat="44.6804396" lon="8.0916064"><ele>448.0</ele><time>2026-04-18T16:04:41.971Z</time></trkpt><trkpt lat="44.6802677" lon="8.091692"><ele>452.0</ele><time>2026-04-18T16:04:42.969Z</time></trkpt><trkpt lat="44.680035" lon="8.0918842"><ele>456.0</ele><time>2026-04-18T16:04:44.988Z</time></trkpt><trkpt lat="44.6798395" lon="8.0921164"><ele>456.0</ele><time>2026-04-18T16:04:45.958Z</time></trkpt><trkpt lat="44.6796238" lon="8.0922964"><ele>456.0</ele><time>2026-04-18T16:04:47.909Z</time></trkpt><trkpt lat="44.6793699" lon="8.0924778"><ele>456.66666666666663</ele><time>2026-04-18T16:04:48.97Z</time></trkpt><trkpt lat="44.6792064" lon="8.0925909"><ele>457.3333333333333</ele><time>2026-04-18T16:04:49.971Z</time></trkpt><trkpt lat="44.6790508" lon="8.0927022"><ele>458.0</ele><time>2026-04-18T16:04:50.974Z</time></trkpt><trkpt lat="44.6789031" lon="8.0927955"><ele>458.0</ele><time>2026-04-18T16:04:51.971Z</time></trkpt><trkpt lat="44.6787635" lon="8.0928635"><ele>458.0</ele><time>2026-04-18T16:04:52.976Z</time></trkpt><trkpt lat="44.6786266" lon="8.0929037"><ele>458.0</ele><time>2026-04-18T16:04:53.974Z</time></trkpt><trkpt lat="44.6784966" lon="8.092913"><ele>458.0</ele><time>2026-04-18T16:04:54.971Z</time></trkpt><trkpt lat="44.6783668" lon="8.0928915"><ele>456.75</ele><time>2026-04-18T16:04:55.969Z</time></trkpt><trkpt lat="44.6782441" lon="8.0928055"><ele>455.5</ele><time>2026-04-18T16:04:56.97Z</time></trkpt><trkpt lat="44.6781155" lon="8.0927134"><ele>454.25</ele><time>2026-04-18T16:04:57.974Z</time></trkpt><trkpt lat="44.6779861" lon="8.0926118"><ele>453.0</ele><time>2026-04-18T16:04:58.973Z</time></trkpt><trkpt lat="44.6778633" lon="8.0925074"><ele>453.0</ele><time>2026-04-18T16:04:59.972Z</time></trkpt><trkpt lat="44.6777447" lon="8.092416"><ele>453.0</ele><time>2026-04-18T16:05:00.969Z</time></trkpt><trkpt lat="44.6776301" lon="8.0923247"><ele>453.0</ele><time>2026-04-18T16:05:01.969Z</time></trkpt><trkpt lat="44.6775208" lon="8.0922476"><ele>453.0</ele><time>2026-04-18T16:05:02.969Z</time></trkpt><trkpt lat="44.6774147" lon="8.0921949"><ele>453.0</ele><time>2026-04-18T16:05:03.969Z</time></trkpt><trkpt lat="44.677297" lon="8.0921826"><ele>453.0</ele><time>2026-04-18T16:05:04.968Z</time></trkpt><trkpt lat="44.6771853" lon="8.0922204"><ele>453.0</ele><time>2026-04-18T16:05:05.969Z</time></trkpt><trkpt lat="44.6770909" lon="8.0923079"><ele>453.0</ele><time>2026-04-18T16:05:06.969Z</time></trkpt><trkpt lat="44.6770088" lon="8.0924407"><ele>452.25</ele><time>2026-04-18T16:05:07.977Z</time></trkpt><trkpt lat="44.6769366" lon="8.0926036"><ele>451.5</ele><time>2026-04-18T16:05:08.974Z</time></trkpt><trkpt lat="44.6768481" lon="8.0927691"><ele>450.75</ele><time>2026-04-18T16:05:09.967Z</time></trkpt><trkpt lat="44.6767461" lon="8.0929369"><ele>450.0</ele><time>2026-04-18T16:05:10.976Z</time></trkpt><trkpt lat="44.6766329" lon="8.0931029"><ele>455.0</ele><time>2026-04-18T16:05:11.98Z</time></trkpt><trkpt lat="44.6765177" lon="8.0932652"><ele>460.0</ele><time>2026-04-18T16:05:12.97Z</time></trkpt><trkpt lat="44.6763979" lon="8.0934284"><ele>465.0</ele><time>2026-04-18T16:05:13.968Z</time></trkpt><trkpt lat="44.6762707" lon="8.0935815"><ele>465.0</ele><time>2026-04-18T16:05:14.967Z</time></trkpt><trkpt lat="44.6761259" lon="8.0937178"><ele>465.0</ele><time>2026-04-18T16:05:15.968Z</time></trkpt><trkpt lat="44.675967" lon="8.0938312"><ele>465.0</ele><time>2026-04-18T16:05:16.968Z</time></trkpt><trkpt lat="44.6757968" lon="8.0939215"><ele>464.0</ele><time>2026-04-18T16:05:17.968Z</time></trkpt><trkpt lat="44.6756211" lon="8.0940102"><ele>463.0</ele><time>2026-04-18T16:05:18.968Z</time></trkpt><trkpt lat="44.6754317" lon="8.0940733"><ele>462.0</ele><time>2026-04-18T16:05:19.967Z</time></trkpt><trkpt lat="44.6752382" lon="8.0941049"><ele>462.0</ele><time>2026-04-18T16:05:20.968Z</time></trkpt><trkpt lat="44.6750439" lon="8.094129"><ele>462.0</ele><time>2026-04-18T16:05:21.967Z</time></trkpt><trkpt lat="44.6748483" lon="8.0941616"><ele>462.0</ele><time>2026-04-18T16:05:22.968Z</time></trkpt><trkpt lat="44.6746526" lon="8.0942048"><ele>462.0</ele><time>2026-04-18T16:05:23.968Z</time></trkpt><trkpt lat="44.6744616" lon="8.094266"><ele>462.0</ele><time>2026-04-18T16:05:24.968Z</time></trkpt><trkpt lat="44.6742699" lon="8.0943405"><ele>462.0</ele><time>2026-04-18T16:05:25.968Z</time></trkpt><trkpt lat="44.6740784" lon="8.0944137"><ele>460.66666666666663</ele><time>2026-04-18T16:05:26.968Z</time></trkpt><trkpt lat="44.6738915" lon="8.0944865"><ele>459.3333333333333</ele><time>2026-04-18T16:05:27.968Z</time></trkpt><trkpt lat="44.673703" lon="8.0945491"><ele>458.0</ele><time>2026-04-18T16:05:28.967Z</time></trkpt><trkpt lat="44.673515" lon="8.0945948"><ele>456.3333333333333</ele><time>2026-04-18T16:05:29.968Z</time></trkpt><trkpt lat="44.6733286" lon="8.0946186"><ele>454.66666666666663</ele><time>2026-04-18T16:05:30.968Z</time></trkpt><trkpt lat="44.6731415" lon="8.0946153"><ele>453.0</ele><time>2026-04-18T16:05:31.968Z</time></trkpt><trkpt lat="44.6729512" lon="8.0945886"><ele>455.0</ele><time>2026-04-18T16:05:32.967Z</time></trkpt><trkpt lat="44.6727636" lon="8.09454"><ele>457.0</ele><time>2026-04-18T16:05:33.967Z</time></trkpt><trkpt lat="44.6725759" lon="8.0944582"><ele>459.0</ele><time>2026-04-18T16:05:34.967Z</time></trkpt><trkpt lat="44.6724019" lon="8.0943391"><ele>459.0</ele><time>2026-04-18T16:05:35.967Z</time></trkpt><trkpt lat="44.6722443" lon="8.0942036"><ele>459.0</ele><time>2026-04-18T16:05:36.968Z</time></trkpt><trkpt lat="44.6720978" lon="8.0940702"><ele>459.0</ele><time>2026-04-18T16:05:37.968Z</time></trkpt><trkpt lat="44.671954" lon="8.0939573"><ele>456.5</ele><time>2026-04-18T16:05:38.967Z</time></trkpt><trkpt lat="44.6718057" lon="8.093895"><ele>454.0</ele><time>2026-04-18T16:05:39.968Z</time></trkpt><trkpt lat="44.6716578" lon="8.0938699"><ele>451.5</ele><time>2026-04-18T16:05:40.967Z</time></trkpt><trkpt lat="44.671517" lon="8.0939021"><ele>449.0</ele><time>2026-04-18T16:05:41.968Z</time></trkpt><trkpt lat="44.6713845" lon="8.0939899"><ele>449.3333333333333</ele><time>2026-04-18T16:05:42.968Z</time></trkpt><trkpt lat="44.6712662" lon="8.0941239"><ele>449.66666666666663</ele><time>2026-04-18T16:05:43.968Z</time></trkpt><trkpt lat="44.6711631" lon="8.0942925"><ele>450.0</ele><time>2026-04-18T16:05:44.968Z</time></trkpt><trkpt lat="44.6710779" lon="8.0944882"><ele>450.0</ele><time>2026-04-18T16:05:45.968Z</time></trkpt><trkpt lat="44.6709993" lon="8.094706"><ele>450.0</ele><time>2026-04-18T16:05:46.967Z</time></trkpt><trkpt lat="44.6709162" lon="8.0949216"><ele>450.0</ele><time>2026-04-18T16:05:47.968Z</time></trkpt><trkpt lat="44.6708153" lon="8.0951394"><ele>453.66666666666663</ele><time>2026-04-18T16:05:48.967Z</time></trkpt><trkpt lat="44.6706985" lon="8.0953486"><ele>457.3333333333333</ele><time>2026-04-18T16:05:49.967Z</time></trkpt><trkpt lat="44.6705827" lon="8.095557"><ele>461.0</ele><time>2026-04-18T16:05:50.967Z</time></trkpt><trkpt lat="44.6704534" lon="8.0957518"><ele>460.3333333333333</ele><time>2026-04-18T16:05:51.967Z</time></trkpt><trkpt lat="44.670313" lon="8.0959305"><ele>459.66666666666663</ele><time>2026-04-18T16:05:52.968Z</time></trkpt><trkpt lat="44.6701601" lon="8.096097"><ele>459.0</ele><time>2026-04-18T16:05:53.968Z</time></trkpt><trkpt lat="44.6700004" lon="8.0962177"><ele>459.0</ele><time>2026-04-18T16:05:54.967Z</time></trkpt><trkpt lat="44.6698307" lon="8.0962852"><ele>459.0</ele><time>2026-04-18T16:05:55.968Z</time></trkpt><trkpt lat="44.6696563" lon="8.0963181"><ele>459.0</ele><time>2026-04-18T16:05:56.967Z</time></trkpt><trkpt lat="44.6694774" lon="8.0963534"><ele>457.0</ele><time>2026-04-18T16:05:57.968Z</time></trkpt><trkpt lat="44.669294" lon="8.0963892"><ele>455.0</ele><time>2026-04-18T16:05:58.968Z</time></trkpt><trkpt lat="44.6691175" lon="8.096447"><ele>453.0</ele><time>2026-04-18T16:05:59.968Z</time></trkpt><trkpt lat="44.6689447" lon="8.0965378"><ele>455.66666666666663</ele><time>2026-04-18T16:06:00.968Z</time></trkpt><trkpt lat="44.6687779" lon="8.0966727"><ele>458.3333333333333</ele><time>2026-04-18T16:06:01.968Z</time></trkpt><trkpt lat="44.668617" lon="8.0968132"><ele>461.0</ele><time>2026-04-18T16:06:02.967Z</time></trkpt><trkpt lat="44.6684514" lon="8.0969524"><ele>461.0</ele><time>2026-04-18T16:06:03.967Z</time></trkpt><trkpt lat="44.668284" lon="8.0970895"><ele>461.0</ele><time>2026-04-18T16:06:04.967Z</time></trkpt><trkpt lat="44.6681124" lon="8.0972239"><ele>461.0</ele><time>2026-04-18T16:06:05.968Z</time></trkpt><trkpt lat="44.6679281" lon="8.0973216"><ele>458.0</ele><time>2026-04-18T16:06:06.967Z</time></trkpt><trkpt lat="44.6677398" lon="8.0973981"><ele>455.0</ele><time>2026-04-18T16:06:07.968Z</time></trkpt><trkpt lat="44.667544" lon="8.0974668"><ele>452.0</ele><time>2026-04-18T16:06:08.968Z</time></trkpt><trkpt lat="44.6673466" lon="8.0975168"><ele>460.3333333333333</ele><time>2026-04-18T16:06:09.967Z</time></trkpt><trkpt lat="44.6671461" lon="8.097541"><ele>468.66666666666663</ele><time>2026-04-18T16:06:10.968Z</time></trkpt><trkpt lat="44.6669462" lon="8.0975316"><ele>477.0</ele><time>2026-04-18T16:06:11.968Z</time></trkpt><trkpt lat="44.6667484" lon="8.0975202"><ele>477.0</ele><time>2026-04-18T16:06:12.967Z</time></trkpt><trkpt lat="44.6665713" lon="8.097501"><ele>477.0</ele><time>2026-04-18T16:06:13.968Z</time></trkpt><trkpt lat="44.6664094" lon="8.0974842"><ele>477.0</ele><time>2026-04-18T16:06:14.968Z</time></trkpt><trkpt lat="44.6662566" lon="8.0974911"><ele>477.0</ele><time>2026-04-18T16:06:15.967Z</time></trkpt><trkpt lat="44.6661171" lon="8.0975219"><ele>477.0</ele><time>2026-04-18T16:06:16.967Z</time></trkpt><trkpt lat="44.665988" lon="8.0975739"><ele>477.0</ele><time>2026-04-18T16:06:17.968Z</time></trkpt><trkpt lat="44.6658722" lon="8.0976927"><ele>477.0</ele><time>2026-04-18T16:06:18.967Z</time></trkpt><trkpt lat="44.6657708" lon="8.0978371"><ele>475.5</ele><time>2026-04-18T16:06:19.968Z</time></trkpt><trkpt lat="44.6656712" lon="8.0979722"><ele>474.0</ele><time>2026-04-18T16:06:20.968Z</time></trkpt><trkpt lat="44.66554" lon="8.0980582"><ele>472.5</ele><time>2026-04-18T16:06:21.968Z</time></trkpt><trkpt lat="44.6654023" lon="8.0981185"><ele>471.0</ele><time>2026-04-18T16:06:22.967Z</time></trkpt><trkpt lat="44.6652585" lon="8.0981581"><ele>467.66666666666663</ele><time>2026-04-18T16:06:23.968Z</time></trkpt><trkpt lat="44.6651247" lon="8.0982128"><ele>464.3333333333333</ele><time>2026-04-18T16:06:24.967Z</time></trkpt><trkpt lat="44.6649916" lon="8.098309"><ele>461.0</ele><time>2026-04-18T16:06:25.968Z</time></trkpt><trkpt lat="44.6648669" lon="8.098454"><ele>468.3333333333333</ele><time>2026-04-18T16:06:26.967Z</time></trkpt><trkpt lat="44.6647357" lon="8.0985937"><ele>475.66666666666663</ele><time>2026-04-18T16:06:27.968Z</time></trkpt><trkpt lat="44.6645971" lon="8.0987243"><ele>483.0</ele><time>2026-04-18T16:06:28.968Z</time></trkpt><trkpt lat="44.6644587" lon="8.0988594"><ele>483.33333333333337</ele><time>2026-04-18T16:06:29.968Z</time></trkpt><trkpt lat="44.6643289" lon="8.0990087"><ele>483.6666666666667</ele><time>2026-04-18T16:06:30.969Z</time></trkpt><trkpt lat="44.6642127" lon="8.099176"><ele>484.0</ele><time>2026-04-18T16:06:31.973Z</time></trkpt><trkpt lat="44.6641119" lon="8.0993642"><ele>484.0</ele><time>2026-04-18T16:06:32.974Z</time></trkpt><trkpt lat="44.6640202" lon="8.099548"><ele>484.0</ele><time>2026-04-18T16:06:33.969Z</time></trkpt><trkpt lat="44.6639381" lon="8.0997256"><ele>484.0</ele><time>2026-04-18T16:06:34.977Z</time></trkpt><trkpt lat="44.6638637" lon="8.0998911"><ele>484.5</ele><time>2026-04-18T16:06:35.973Z</time></trkpt><trkpt lat="44.6637914" lon="8.1000484"><ele>485.0</ele><time>2026-04-18T16:06:36.972Z</time></trkpt><trkpt lat="44.6637017" lon="8.1001828"><ele>485.5</ele><time>2026-04-18T16:06:37.972Z</time></trkpt><trkpt lat="44.6635908" lon="8.1002785"><ele>486.0</ele><time>2026-04-18T16:06:38.972Z</time></trkpt><trkpt lat="44.6634599" lon="8.1003253"><ele>486.0</ele><time>2026-04-18T16:06:39.972Z</time></trkpt><trkpt lat="44.6633122" lon="8.1003394"><ele>486.0</ele><time>2026-04-18T16:06:40.971Z</time></trkpt><trkpt lat="44.6631543" lon="8.1003244"><ele>486.0</ele><time>2026-04-18T16:06:41.972Z</time></trkpt><trkpt lat="44.6629861" lon="8.1002868"><ele>486.0</ele><time>2026-04-18T16:06:42.972Z</time></trkpt><trkpt lat="44.6628161" lon="8.100248"><ele>486.0</ele><time>2026-04-18T16:06:43.971Z</time></trkpt><trkpt lat="44.6626365" lon="8.1002114"><ele>486.0</ele><time>2026-04-18T16:06:44.972Z</time></trkpt><trkpt lat="44.6624513" lon="8.1001823"><ele>486.66666666666663</ele><time>2026-04-18T16:06:45.969Z</time></trkpt><trkpt lat="44.6622596" lon="8.1001518"><ele>487.3333333333333</ele><time>2026-04-18T16:06:46.977Z</time></trkpt><trkpt lat="44.6620645" lon="8.1001292"><ele>488.0</ele><time>2026-04-18T16:06:47.968Z</time></trkpt><trkpt lat="44.6618721" lon="8.100097"><ele>486.66666666666663</ele><time>2026-04-18T16:06:48.961Z</time></trkpt><trkpt lat="44.6616893" lon="8.1000443"><ele>485.33333333333337</ele><time>2026-04-18T16:06:49.966Z</time></trkpt><trkpt lat="44.6615049" lon="8.0999647"><ele>484.0</ele><time>2026-04-18T16:06:50.967Z</time></trkpt><trkpt lat="44.6613149" lon="8.0998571"><ele>484.0</ele><time>2026-04-18T16:06:51.966Z</time></trkpt><trkpt lat="44.6611296" lon="8.0997485"><ele>484.0</ele><time>2026-04-18T16:06:52.966Z</time></trkpt><trkpt lat="44.6609433" lon="8.0996375"><ele>484.0</ele><time>2026-04-18T16:06:53.967Z</time></trkpt><trkpt lat="44.660774" lon="8.0995286"><ele>485.6666666666667</ele><time>2026-04-18T16:06:54.967Z</time></trkpt><trkpt lat="44.6606013" lon="8.0994227"><ele>487.33333333333337</ele><time>2026-04-18T16:06:55.967Z</time></trkpt><trkpt lat="44.6604241" lon="8.0993327"><ele>489.0</ele><time>2026-04-18T16:06:56.967Z</time></trkpt><trkpt lat="44.6602463" lon="8.0992615"><ele>489.5</ele><time>2026-04-18T16:06:57.966Z</time></trkpt><trkpt lat="44.6599981" lon="8.099198"><ele>490.0</ele><time>2026-04-18T16:06:59.841Z</time></trkpt><trkpt lat="44.6596161" lon="8.0991298"><ele>490.0</ele><time>2026-04-18T16:07:01.899Z</time></trkpt><trkpt lat="44.6590839" lon="8.0991014"><ele>490.0</ele><time>2026-04-18T16:07:04.716Z</time></trkpt><trkpt lat="44.6587199" lon="8.0991153"><ele>490.0</ele><time>2026-04-18T16:07:06.927Z</time></trkpt><trkpt lat="44.6584776" lon="8.0990846"><ele>488.2</ele><time>2026-04-18T16:07:07.975Z</time></trkpt><trkpt lat="44.6583617" lon="8.0990098"><ele>486.4</ele><time>2026-04-18T16:07:08.967Z</time></trkpt><trkpt lat="44.6582627" lon="8.0989289"><ele>484.6</ele><time>2026-04-18T16:07:09.967Z</time></trkpt><trkpt lat="44.6581804" lon="8.0988382"><ele>482.8</ele><time>2026-04-18T16:07:10.968Z</time></trkpt><trkpt lat="44.658116" lon="8.0987612"><ele>481.0</ele><time>2026-04-18T16:07:11.969Z</time></trkpt><trkpt lat="44.6580666" lon="8.0986945"><ele>481.0</ele><time>2026-04-18T16:07:12.97Z</time></trkpt><trkpt lat="44.6580068" lon="8.0985986"><ele>481.0</ele><time>2026-04-18T16:07:14.972Z</time></trkpt><trkpt lat="44.6579607" lon="8.0985202"><ele>481.0</ele><time>2026-04-18T16:08:22.978Z</time></trkpt><trkpt lat="44.6578729" lon="8.0985241"><ele>481.0</ele><time>2026-04-18T16:08:24.979Z</time></trkpt><trkpt lat="44.6577855" lon="8.0986675"><ele>481.0</ele><time>2026-04-18T16:08:26.978Z</time></trkpt><trkpt lat="44.6577242" lon="8.0987662"><ele>483.20000000000005</ele><time>2026-04-18T16:08:27.979Z</time></trkpt><trkpt lat="44.6576621" lon="8.0988611"><ele>485.40000000000003</ele><time>2026-04-18T16:08:28.979Z</time></trkpt><trkpt lat="44.6575914" lon="8.0989652"><ele>487.6</ele><time>2026-04-18T16:08:29.978Z</time></trkpt><trkpt lat="44.6575097" lon="8.0990637"><ele>489.8</ele><time>2026-04-18T16:08:30.979Z</time></trkpt><trkpt lat="44.6574168" lon="8.0991666"><ele>492.0</ele><time>2026-04-18T16:08:31.979Z</time></trkpt><trkpt lat="44.6573119" lon="8.0992717"><ele>490.75</ele><time>2026-04-18T16:08:32.978Z</time></trkpt><trkpt lat="44.657203" lon="8.0993895"><ele>489.5</ele><time>2026-04-18T16:08:33.979Z</time></trkpt><trkpt lat="44.657091" lon="8.0995143"><ele>488.25</ele><time>2026-04-18T16:08:34.979Z</time></trkpt><trkpt lat="44.6569717" lon="8.0996419"><ele>487.0</ele><time>2026-04-18T16:08:35.979Z</time></trkpt><trkpt lat="44.6568482" lon="8.0997623"><ele>487.0</ele><time>2026-04-18T16:08:36.979Z</time></trkpt><trkpt lat="44.6567238" lon="8.0998927"><ele>487.0</ele><time>2026-04-18T16:08:37.979Z</time></trkpt><trkpt lat="44.6565989" lon="8.0999966"><ele>487.0</ele><time>2026-04-18T16:08:38.979Z</time></trkpt><trkpt lat="44.6564769" lon="8.1000774"><ele>487.0</ele><time>2026-04-18T16:08:39.978Z</time></trkpt><trkpt lat="44.6563571" lon="8.1001388"><ele>488.0</ele><time>2026-04-18T16:08:40.979Z</time></trkpt><trkpt lat="44.656245" lon="8.1001777"><ele>489.00000000000006</ele><time>2026-04-18T16:08:41.979Z</time></trkpt><trkpt lat="44.6561407" lon="8.1002195"><ele>490.00000000000006</ele><time>2026-04-18T16:08:42.979Z</time></trkpt><trkpt lat="44.6560538" lon="8.1002809"><ele>491.0</ele><time>2026-04-18T16:08:43.979Z</time></trkpt><trkpt lat="44.6559801" lon="8.1003781"><ele>492.0</ele><time>2026-04-18T16:08:44.979Z</time></trkpt><trkpt lat="44.6559335" lon="8.1005085"><ele>492.0</ele><time>2026-04-18T16:08:45.979Z</time></trkpt><trkpt lat="44.6559165" lon="8.1006696"><ele>492.0</ele><time>2026-04-18T16:08:46.978Z</time></trkpt><trkpt lat="44.6559157" lon="8.1008468"><ele>492.0</ele><time>2026-04-18T16:08:47.979Z</time></trkpt><trkpt lat="44.6559004" lon="8.1010348"><ele>492.0</ele><time>2026-04-18T16:08:48.979Z</time></trkpt><trkpt lat="44.6558748" lon="8.1012417"><ele>496.0</ele><time>2026-04-18T16:08:49.979Z</time></trkpt><trkpt lat="44.6558441" lon="8.1014506"><ele>500.0</ele><time>2026-04-18T16:08:50.978Z</time></trkpt><trkpt lat="44.6558073" lon="8.1016684"><ele>504.0</ele><time>2026-04-18T16:08:51.972Z</time></trkpt><trkpt lat="44.6557609" lon="8.1018847"><ele>508.0</ele><time>2026-04-18T16:08:52.968Z</time></trkpt><trkpt lat="44.6556996" lon="8.1020907"><ele>512.0</ele><time>2026-04-18T16:08:53.964Z</time></trkpt><trkpt lat="44.6556211" lon="8.102281"><ele>516.0</ele><time>2026-04-18T16:08:54.969Z</time></trkpt><trkpt lat="44.6555337" lon="8.1024406"><ele>518.5</ele><time>2026-04-18T16:08:55.975Z</time></trkpt><trkpt lat="44.6554418" lon="8.1025823"><ele>521.0</ele><time>2026-04-18T16:08:57.061Z</time></trkpt><trkpt lat="44.6553593" lon="8.1027292"><ele>523.5</ele><time>2026-04-18T16:08:57.964Z</time></trkpt><trkpt lat="44.6552942" lon="8.1028958"><ele>526.0</ele><time>2026-04-18T16:08:58.965Z</time></trkpt><trkpt lat="44.6552561" lon="8.1030753"><ele>523.5</ele><time>2026-04-18T16:08:59.965Z</time></trkpt><trkpt lat="44.655237" lon="8.103269"><ele>521.0</ele><time>2026-04-18T16:09:00.965Z</time></trkpt><trkpt lat="44.6552219" lon="8.1034647"><ele>518.5</ele><time>2026-04-18T16:09:01.965Z</time></trkpt><trkpt lat="44.6552181" lon="8.1036645"><ele>516.0</ele><time>2026-04-18T16:09:02.965Z</time></trkpt><trkpt lat="44.6552263" lon="8.1038666"><ele>516.0</ele><time>2026-04-18T16:09:03.965Z</time></trkpt><trkpt lat="44.6552532" lon="8.1040671"><ele>516.0</ele><time>2026-04-18T16:09:04.964Z</time></trkpt><trkpt lat="44.655289" lon="8.104247"><ele>516.0</ele><time>2026-04-18T16:09:05.965Z</time></trkpt><trkpt lat="44.6553151" lon="8.1044394"><ele>516.0</ele><time>2026-04-18T16:09:06.965Z</time></trkpt><trkpt lat="44.6553182" lon="8.1046337"><ele>519.75</ele><time>2026-04-18T16:09:07.965Z</time></trkpt><trkpt lat="44.6552977" lon="8.1048337"><ele>523.5</ele><time>2026-04-18T16:09:08.965Z</time></trkpt><trkpt lat="44.6552593" lon="8.1050364"><ele>527.25</ele><time>2026-04-18T16:09:09.965Z</time></trkpt><trkpt lat="44.6552136" lon="8.1052453"><ele>531.0</ele><time>2026-04-18T16:09:10.965Z</time></trkpt><trkpt lat="44.6551687" lon="8.1054563"><ele>531.0</ele><time>2026-04-18T16:09:11.965Z</time></trkpt><trkpt lat="44.6551092" lon="8.1056587"><ele>531.0</ele><time>2026-04-18T16:09:12.965Z</time></trkpt><trkpt lat="44.6550266" lon="8.1058505"><ele>531.0</ele><time>2026-04-18T16:09:13.965Z</time></trkpt><trkpt lat="44.6549342" lon="8.1060345"><ele>533.25</ele><time>2026-04-18T16:09:14.964Z</time></trkpt><trkpt lat="44.654829" lon="8.1061987"><ele>535.5</ele><time>2026-04-18T16:09:15.965Z</time></trkpt><trkpt lat="44.6547189" lon="8.1063362"><ele>537.75</ele><time>2026-04-18T16:09:16.964Z</time></trkpt><trkpt lat="44.6546076" lon="8.1064557"><ele>540.0</ele><time>2026-04-18T16:09:17.965Z</time></trkpt><trkpt lat="44.6545012" lon="8.1065577"><ele>540.8333333333334</ele><time>2026-04-18T16:09:18.964Z</time></trkpt><trkpt lat="44.6544017" lon="8.1066437"><ele>541.6666666666666</ele><time>2026-04-18T16:09:19.974Z</time></trkpt><trkpt lat="44.6543191" lon="8.1067213"><ele>542.5</ele><time>2026-04-18T16:09:20.975Z</time></trkpt><trkpt lat="44.6542604" lon="8.1067985"><ele>543.3333333333333</ele><time>2026-04-18T16:09:21.978Z</time></trkpt><trkpt lat="44.6542288" lon="8.1068924"><ele>544.1666666666666</ele><time>2026-04-18T16:09:22.978Z</time></trkpt><trkpt lat="44.6542268" lon="8.1069969"><ele>545.0</ele><time>2026-04-18T16:09:23.972Z</time></trkpt><trkpt lat="44.6542596" lon="8.1071023"><ele>545.0</ele><time>2026-04-18T16:09:24.973Z</time></trkpt><trkpt lat="44.6543263" lon="8.1071746"><ele>545.0</ele><time>2026-04-18T16:09:25.97Z</time></trkpt><trkpt lat="44.6544209" lon="8.1072096"><ele>545.0</ele><time>2026-04-18T16:09:26.969Z</time></trkpt><trkpt lat="44.6545286" lon="8.1072197"><ele>545.0</ele><time>2026-04-18T16:09:27.969Z</time></trkpt><trkpt lat="44.654653" lon="8.1072294"><ele>545.0</ele><time>2026-04-18T16:09:28.97Z</time></trkpt><trkpt lat="44.6547825" lon="8.1072229"><ele>546.0</ele><time>2026-04-18T16:09:29.969Z</time></trkpt><trkpt lat="44.6549194" lon="8.1072065"><ele>547.0</ele><time>2026-04-18T16:09:30.969Z</time></trkpt><trkpt lat="44.6550553" lon="8.1071595"><ele>548.0</ele><time>2026-04-18T16:09:31.97Z</time></trkpt><trkpt lat="44.6551951" lon="8.1071014"><ele>549.0</ele><time>2026-04-18T16:09:32.969Z</time></trkpt><trkpt lat="44.6553301" lon="8.1070316"><ele>550.75</ele><time>2026-04-18T16:09:33.969Z</time></trkpt><trkpt lat="44.6554601" lon="8.106945"><ele>552.5</ele><time>2026-04-18T16:09:34.97Z</time></trkpt><trkpt lat="44.6555671" lon="8.1068562"><ele>554.25</ele><time>2026-04-18T16:09:35.97Z</time></trkpt><trkpt lat="44.655653" lon="8.1067711"><ele>556.0</ele><time>2026-04-18T16:09:36.97Z</time></trkpt><trkpt lat="44.6557275" lon="8.1067049"><ele>556.0</ele><time>2026-04-18T16:09:37.969Z</time></trkpt><trkpt lat="44.6557989" lon="8.1066661"><ele>556.0</ele><time>2026-04-18T16:09:38.969Z</time></trkpt><trkpt lat="44.6558677" lon="8.1066716"><ele>556.0</ele><time>2026-04-18T16:09:39.97Z</time></trkpt><trkpt lat="44.6559214" lon="8.1067267"><ele>556.0</ele><time>2026-04-18T16:09:40.969Z</time></trkpt><trkpt lat="44.6559502" lon="8.1068188"><ele>556.0</ele><time>2026-04-18T16:09:41.969Z</time></trkpt><trkpt lat="44.6559409" lon="8.106926"><ele>556.0</ele><time>2026-04-18T16:09:42.97Z</time></trkpt><trkpt lat="44.655897" lon="8.1070321"><ele>556.0</ele><time>2026-04-18T16:09:43.97Z</time></trkpt><trkpt lat="44.6558382" lon="8.1071485"><ele>556.0</ele><time>2026-04-18T16:09:44.97Z</time></trkpt><trkpt lat="44.6557669" lon="8.10728"><ele>556.0</ele><time>2026-04-18T16:09:45.97Z</time></trkpt><trkpt lat="44.6556854" lon="8.1074095"><ele>556.0</ele><time>2026-04-18T16:09:46.97Z</time></trkpt><trkpt lat="44.6555766" lon="8.1075333"><ele>556.0</ele><time>2026-04-18T16:09:47.97Z</time></trkpt><trkpt lat="44.6554559" lon="8.1076399"><ele>556.75</ele><time>2026-04-18T16:09:48.97Z</time></trkpt><trkpt lat="44.6553321" lon="8.1077221"><ele>557.5</ele><time>2026-04-18T16:09:49.97Z</time></trkpt><trkpt lat="44.6552024" lon="8.1078198"><ele>558.25</ele><time>2026-04-18T16:09:50.969Z</time></trkpt><trkpt lat="44.6550743" lon="8.1079194"><ele>559.0</ele><time>2026-04-18T16:09:51.97Z</time></trkpt><trkpt lat="44.6549607" lon="8.1080392"><ele>559.0</ele><time>2026-04-18T16:09:52.97Z</time></trkpt><trkpt lat="44.6548643" lon="8.1081903"><ele>559.0</ele><time>2026-04-18T16:09:53.969Z</time></trkpt><trkpt lat="44.6547811" lon="8.1083742"><ele>559.0</ele><time>2026-04-18T16:09:54.969Z</time></trkpt><trkpt lat="44.6547025" lon="8.1085779"><ele>563.3333333333334</ele><time>2026-04-18T16:09:55.97Z</time></trkpt><trkpt lat="44.6546222" lon="8.1087855"><ele>567.6666666666666</ele><time>2026-04-18T16:09:56.97Z</time></trkpt><trkpt lat="44.6545436" lon="8.108987"><ele>572.0</ele><time>2026-04-18T16:09:57.969Z</time></trkpt><trkpt lat="44.6544593" lon="8.1091524"><ele>572.75</ele><time>2026-04-18T16:09:58.97Z</time></trkpt><trkpt lat="44.6543596" lon="8.1092879"><ele>573.5</ele><time>2026-04-18T16:09:59.959Z</time></trkpt><trkpt lat="44.6542585" lon="8.1093929"><ele>574.25</ele><time>2026-04-18T16:10:00.973Z</time></trkpt><trkpt lat="44.6541748" lon="8.1095003"><ele>575.0</ele><time>2026-04-18T16:10:01.966Z</time></trkpt><trkpt lat="44.6541193" lon="8.1096315"><ele>575.0</ele><time>2026-04-18T16:10:02.966Z</time></trkpt><trkpt lat="44.6541065" lon="8.1097936"><ele>575.0</ele><time>2026-04-18T16:10:03.974Z</time></trkpt><trkpt lat="44.6541184" lon="8.1099738"><ele>575.0</ele><time>2026-04-18T16:10:04.975Z</time></trkpt><trkpt lat="44.6541307" lon="8.1101673"><ele>575.0</ele><time>2026-04-18T16:10:05.967Z</time></trkpt><trkpt lat="44.6541479" lon="8.1103812"><ele>578.0</ele><time>2026-04-18T16:10:06.967Z</time></trkpt><trkpt lat="44.6541612" lon="8.1106125"><ele>581.0</ele><time>2026-04-18T16:10:07.967Z</time></trkpt><trkpt lat="44.6541584" lon="8.1108631"><ele>584.0</ele><time>2026-04-18T16:10:08.966Z</time></trkpt><trkpt lat="44.6541395" lon="8.1111003"><ele>586.3333333333333</ele><time>2026-04-18T16:10:09.966Z</time></trkpt><trkpt lat="44.6541001" lon="8.111334"><ele>588.6666666666666</ele><time>2026-04-18T16:10:10.966Z</time></trkpt><trkpt lat="44.6540427" lon="8.1115634"><ele>591.0</ele><time>2026-04-18T16:10:11.966Z</time></trkpt><trkpt lat="44.6539688" lon="8.1117886"><ele>594.0</ele><time>2026-04-18T16:10:12.966Z</time></trkpt><trkpt lat="44.6538816" lon="8.1120089"><ele>597.0</ele><time>2026-04-18T16:10:13.967Z</time></trkpt><trkpt lat="44.6537838" lon="8.1122258"><ele>600.0</ele><time>2026-04-18T16:10:14.967Z</time></trkpt><trkpt lat="44.6536832" lon="8.1124418"><ele>597.6666666666666</ele><time>2026-04-18T16:10:15.966Z</time></trkpt><trkpt lat="44.6535844" lon="8.1126578"><ele>595.3333333333333</ele><time>2026-04-18T16:10:16.967Z</time></trkpt><trkpt lat="44.6534918" lon="8.1128617"><ele>593.0</ele><time>2026-04-18T16:10:17.966Z</time></trkpt><trkpt lat="44.6533995" lon="8.1130537"><ele>593.0</ele><time>2026-04-18T16:10:18.967Z</time></trkpt><trkpt lat="44.653293" lon="8.1132326"><ele>593.0</ele><time>2026-04-18T16:10:19.967Z</time></trkpt><trkpt lat="44.6531708" lon="8.1133859"><ele>593.0</ele><time>2026-04-18T16:10:20.967Z</time></trkpt><trkpt lat="44.6530491" lon="8.1135136"><ele>591.5</ele><time>2026-04-18T16:10:21.966Z</time></trkpt><trkpt lat="44.6529334" lon="8.1136189"><ele>590.0</ele><time>2026-04-18T16:10:22.967Z</time></trkpt><trkpt lat="44.6528257" lon="8.1137272"><ele>588.5</ele><time>2026-04-18T16:10:23.966Z</time></trkpt><trkpt lat="44.652735" lon="8.1138658"><ele>587.0</ele><time>2026-04-18T16:10:24.967Z</time></trkpt><trkpt lat="44.6526628" lon="8.1140334"><ele>591.5</ele><time>2026-04-18T16:10:25.966Z</time></trkpt><trkpt lat="44.6526036" lon="8.1142218"><ele>596.0</ele><time>2026-04-18T16:10:26.967Z</time></trkpt><trkpt lat="44.6525419" lon="8.1144175"><ele>600.5</ele><time>2026-04-18T16:10:27.967Z</time></trkpt><trkpt lat="44.6524599" lon="8.1145951"><ele>605.0</ele><time>2026-04-18T16:10:28.967Z</time></trkpt><trkpt lat="44.6523504" lon="8.1147498"><ele>605.0</ele><time>2026-04-18T16:10:29.967Z</time></trkpt><trkpt lat="44.6522263" lon="8.1148873"><ele>605.0</ele><time>2026-04-18T16:10:30.967Z</time></trkpt><trkpt lat="44.6520849" lon="8.1149995"><ele>605.0</ele><time>2026-04-18T16:10:31.967Z</time></trkpt><trkpt lat="44.6519198" lon="8.1150978"><ele>607.3333333333333</ele><time>2026-04-18T16:10:32.967Z</time></trkpt><trkpt lat="44.651757" lon="8.1152016"><ele>609.6666666666666</ele><time>2026-04-18T16:10:33.967Z</time></trkpt><trkpt lat="44.6515862" lon="8.1153022"><ele>612.0</ele><time>2026-04-18T16:10:34.967Z</time></trkpt><trkpt lat="44.651417" lon="8.1154047"><ele>612.0</ele><time>2026-04-18T16:10:35.967Z</time></trkpt><trkpt lat="44.651245" lon="8.1155057"><ele>612.0</ele><time>2026-04-18T16:10:36.967Z</time></trkpt><trkpt lat="44.6510742" lon="8.1156088"><ele>612.0</ele><time>2026-04-18T16:10:37.966Z</time></trkpt><trkpt lat="44.6508984" lon="8.1157107"><ele>615.6666666666666</ele><time>2026-04-18T16:10:38.967Z</time></trkpt><trkpt lat="44.6507162" lon="8.1158011"><ele>619.3333333333333</ele><time>2026-04-18T16:10:39.966Z</time></trkpt><trkpt lat="44.6505293" lon="8.1158661"><ele>623.0</ele><time>2026-04-18T16:10:40.966Z</time></trkpt><trkpt lat="44.6503546" lon="8.1159112"><ele>622.25</ele><time>2026-04-18T16:10:41.966Z</time></trkpt><trkpt lat="44.6501969" lon="8.1159478"><ele>621.5</ele><time>2026-04-18T16:10:42.967Z</time></trkpt><trkpt lat="44.6500645" lon="8.1159909"><ele>620.75</ele><time>2026-04-18T16:10:43.967Z</time></trkpt><trkpt lat="44.6499548" lon="8.1160589"><ele>620.0</ele><time>2026-04-18T16:10:44.966Z</time></trkpt><trkpt lat="44.6498649" lon="8.1161671"><ele>620.0</ele><time>2026-04-18T16:10:45.967Z</time></trkpt><trkpt lat="44.6498026" lon="8.1163135"><ele>620.0</ele><time>2026-04-18T16:10:46.967Z</time></trkpt><trkpt lat="44.6497614" lon="8.116495"><ele>620.0</ele><time>2026-04-18T16:10:47.967Z</time></trkpt><trkpt lat="44.6497152" lon="8.1166987"><ele>620.0</ele><time>2026-04-18T16:10:48.966Z</time></trkpt><trkpt lat="44.649668" lon="8.1169172"><ele>625.0</ele><time>2026-04-18T16:10:49.967Z</time></trkpt><trkpt lat="44.6496229" lon="8.1171449"><ele>630.0</ele><time>2026-04-18T16:10:50.967Z</time></trkpt><trkpt lat="44.6495721" lon="8.1173811"><ele>635.0</ele><time>2026-04-18T16:10:51.966Z</time></trkpt><trkpt lat="44.6495119" lon="8.1176307"><ele>635.3333333333333</ele><time>2026-04-18T16:10:52.966Z</time></trkpt><trkpt lat="44.6494465" lon="8.1178826"><ele>635.6666666666666</ele><time>2026-04-18T16:10:53.967Z</time></trkpt><trkpt lat="44.649377" lon="8.1181337"><ele>636.0</ele><time>2026-04-18T16:10:54.967Z</time></trkpt><trkpt lat="44.6493067" lon="8.1183961"><ele>636.0</ele><time>2026-04-18T16:10:55.966Z</time></trkpt><trkpt lat="44.649235" lon="8.1186581"><ele>636.0</ele><time>2026-04-18T16:10:56.967Z</time></trkpt><trkpt lat="44.6491663" lon="8.1189085"><ele>636.0</ele><time>2026-04-18T16:10:57.967Z</time></trkpt><trkpt lat="44.6491028" lon="8.1191341"><ele>639.6666666666666</ele><time>2026-04-18T16:10:58.966Z</time></trkpt><trkpt lat="44.6490394" lon="8.1193314"><ele>643.3333333333333</ele><time>2026-04-18T16:10:59.967Z</time></trkpt><trkpt lat="44.6489671" lon="8.1195137"><ele>647.0</ele><time>2026-04-18T16:11:00.966Z</time></trkpt><trkpt lat="44.648864" lon="8.1196659"><ele>647.0</ele><time>2026-04-18T16:11:01.967Z</time></trkpt><trkpt lat="44.6487334" lon="8.1197939"><ele>647.0</ele><time>2026-04-18T16:11:02.967Z</time></trkpt><trkpt lat="44.6485861" lon="8.1199093"><ele>647.0</ele><time>2026-04-18T16:11:03.967Z</time></trkpt><trkpt lat="44.6484379" lon="8.1200373"><ele>645.6666666666666</ele><time>2026-04-18T16:11:04.966Z</time></trkpt><trkpt lat="44.6482937" lon="8.1201381"><ele>644.3333333333334</ele><time>2026-04-18T16:11:05.966Z</time></trkpt><trkpt lat="44.6481398" lon="8.1202062"><ele>643.0</ele><time>2026-04-18T16:11:06.967Z</time></trkpt><trkpt lat="44.6479832" lon="8.1202449"><ele>643.0</ele><time>2026-04-18T16:11:07.966Z</time></trkpt><trkpt lat="44.6478215" lon="8.1202414"><ele>643.0</ele><time>2026-04-18T16:11:08.967Z</time></trkpt><trkpt lat="44.6476558" lon="8.1201957"><ele>643.0</ele><time>2026-04-18T16:11:09.966Z</time></trkpt><trkpt lat="44.6474812" lon="8.1201312"><ele>642.3333333333334</ele><time>2026-04-18T16:11:10.967Z</time></trkpt><trkpt lat="44.6472981" lon="8.1200591"><ele>641.6666666666666</ele><time>2026-04-18T16:11:11.966Z</time></trkpt><trkpt lat="44.6471136" lon="8.1199816"><ele>641.0</ele><time>2026-04-18T16:11:12.966Z</time></trkpt><trkpt lat="44.6469343" lon="8.1198871"><ele>641.0</ele><time>2026-04-18T16:11:13.967Z</time></trkpt><trkpt lat="44.646754" lon="8.1197898"><ele>641.0</ele><time>2026-04-18T16:11:14.967Z</time></trkpt><trkpt lat="44.6465732" lon="8.1196835"><ele>641.0</ele><time>2026-04-18T16:11:15.967Z</time></trkpt><trkpt lat="44.6464068" lon="8.1195716"><ele>641.0</ele><time>2026-04-18T16:11:16.966Z</time></trkpt><trkpt lat="44.6462538" lon="8.1194715"><ele>641.0</ele><time>2026-04-18T16:11:17.975Z</time></trkpt><trkpt lat="44.64611" lon="8.1193902"><ele>641.0</ele><time>2026-04-18T16:11:18.964Z</time></trkpt><trkpt lat="44.6459593" lon="8.119341"><ele>643.6666666666666</ele><time>2026-04-18T16:11:19.964Z</time></trkpt><trkpt lat="44.6458009" lon="8.1193356"><ele>646.3333333333334</ele><time>2026-04-18T16:11:20.963Z</time></trkpt><trkpt lat="44.6456321" lon="8.1193464"><ele>649.0</ele><time>2026-04-18T16:11:21.974Z</time></trkpt><trkpt lat="44.6454564" lon="8.1193483"><ele>650.3333333333334</ele><time>2026-04-18T16:11:22.958Z</time></trkpt><trkpt lat="44.6452774" lon="8.1192948"><ele>651.6666666666666</ele><time>2026-04-18T16:11:23.976Z</time></trkpt><trkpt lat="44.6451075" lon="8.1192107"><ele>653.0</ele><time>2026-04-18T16:11:24.975Z</time></trkpt><trkpt lat="44.6449468" lon="8.1190759"><ele>648.6666666666666</ele><time>2026-04-18T16:11:25.975Z</time></trkpt><trkpt lat="44.6447937" lon="8.1189023"><ele>644.3333333333334</ele><time>2026-04-18T16:11:26.975Z</time></trkpt><trkpt lat="44.6446443" lon="8.1187187"><ele>640.0</ele><time>2026-04-18T16:11:27.976Z</time></trkpt><trkpt lat="44.644494" lon="8.1185187"><ele>641.3333333333334</ele><time>2026-04-18T16:11:28.976Z</time></trkpt><trkpt lat="44.6443428" lon="8.1183107"><ele>642.6666666666666</ele><time>2026-04-18T16:11:29.976Z</time></trkpt><trkpt lat="44.64419" lon="8.1181022"><ele>644.0</ele><time>2026-04-18T16:11:30.976Z</time></trkpt><trkpt lat="44.6440385" lon="8.1178869"><ele>644.0</ele><time>2026-04-18T16:11:31.975Z</time></trkpt><trkpt lat="44.6438922" lon="8.1176627"><ele>644.0</ele><time>2026-04-18T16:11:32.976Z</time></trkpt><trkpt lat="44.6437493" lon="8.1174362"><ele>644.0</ele><time>2026-04-18T16:11:33.976Z</time></trkpt><trkpt lat="44.6436102" lon="8.1172114"><ele>644.6666666666666</ele><time>2026-04-18T16:11:34.975Z</time></trkpt><trkpt lat="44.6434708" lon="8.1169905"><ele>645.3333333333334</ele><time>2026-04-18T16:11:35.976Z</time></trkpt><trkpt lat="44.6433296" lon="8.1167747"><ele>646.0</ele><time>2026-04-18T16:11:36.976Z</time></trkpt><trkpt lat="44.6431813" lon="8.1165664"><ele>646.3333333333334</ele><time>2026-04-18T16:11:37.976Z</time></trkpt><trkpt lat="44.6430249" lon="8.1163605"><ele>646.6666666666666</ele><time>2026-04-18T16:11:38.975Z</time></trkpt><trkpt lat="44.6428733" lon="8.1161761"><ele>647.0</ele><time>2026-04-18T16:11:39.975Z</time></trkpt><trkpt lat="44.6427224" lon="8.116004"><ele>647.0</ele><time>2026-04-18T16:11:40.976Z</time></trkpt><trkpt lat="44.6425809" lon="8.1158382"><ele>647.0</ele><time>2026-04-18T16:11:41.976Z</time></trkpt><trkpt lat="44.6424508" lon="8.1156796"><ele>647.0</ele><time>2026-04-18T16:11:42.976Z</time></trkpt><trkpt lat="44.6423404" lon="8.1155097"><ele>645.0</ele><time>2026-04-18T16:11:43.976Z</time></trkpt><trkpt lat="44.6422603" lon="8.115311"><ele>643.0</ele><time>2026-04-18T16:11:44.975Z</time></trkpt><trkpt lat="44.6422103" lon="8.1150878"><ele>641.0</ele><time>2026-04-18T16:11:45.976Z</time></trkpt><trkpt lat="44.6421852" lon="8.1148522"><ele>641.0</ele><time>2026-04-18T16:11:46.975Z</time></trkpt><trkpt lat="44.6421607" lon="8.1146292"><ele>641.0</ele><time>2026-04-18T16:11:47.976Z</time></trkpt><trkpt lat="44.6421235" lon="8.1144185"><ele>641.0</ele><time>2026-04-18T16:11:48.975Z</time></trkpt><trkpt lat="44.6420681" lon="8.1142142"><ele>642.0</ele><time>2026-04-18T16:11:49.976Z</time></trkpt><trkpt lat="44.6419918" lon="8.1140204"><ele>643.0</ele><time>2026-04-18T16:11:50.976Z</time></trkpt><trkpt lat="44.641893" lon="8.113832"><ele>644.0</ele><time>2026-04-18T16:11:51.976Z</time></trkpt><trkpt lat="44.6417689" lon="8.1136634"><ele>644.0</ele><time>2026-04-18T16:11:52.975Z</time></trkpt><trkpt lat="44.6416219" lon="8.1135241"><ele>644.0</ele><time>2026-04-18T16:11:53.975Z</time></trkpt><trkpt lat="44.6414595" lon="8.1134043"><ele>644.0</ele><time>2026-04-18T16:11:54.976Z</time></trkpt><trkpt lat="44.6412934" lon="8.1132868"><ele>641.6666666666666</ele><time>2026-04-18T16:11:55.976Z</time></trkpt><trkpt lat="44.6411202" lon="8.1131628"><ele>639.3333333333334</ele><time>2026-04-18T16:11:56.975Z</time></trkpt><trkpt lat="44.6409447" lon="8.1130483"><ele>637.0</ele><time>2026-04-18T16:11:57.976Z</time></trkpt><trkpt lat="44.6407739" lon="8.112936"><ele>637.0</ele><time>2026-04-18T16:11:58.976Z</time></trkpt><trkpt lat="44.6406096" lon="8.1128343"><ele>637.0</ele><time>2026-04-18T16:11:59.975Z</time></trkpt><trkpt lat="44.6404417" lon="8.1127535"><ele>637.0</ele><time>2026-04-18T16:12:00.976Z</time></trkpt><trkpt lat="44.6402645" lon="8.1126989"><ele>633.3333333333334</ele><time>2026-04-18T16:12:01.975Z</time></trkpt><trkpt lat="44.6400803" lon="8.1126603"><ele>629.6666666666666</ele><time>2026-04-18T16:12:02.975Z</time></trkpt><trkpt lat="44.6398942" lon="8.1126321"><ele>626.0</ele><time>2026-04-18T16:12:03.976Z</time></trkpt><trkpt lat="44.6397219" lon="8.1126047"><ele>626.0</ele><time>2026-04-18T16:12:04.976Z</time></trkpt><trkpt lat="44.6395582" lon="8.112586"><ele>626.0</ele><time>2026-04-18T16:12:05.975Z</time></trkpt><trkpt lat="44.6394009" lon="8.11259"><ele>626.0</ele><time>2026-04-18T16:12:06.976Z</time></trkpt><trkpt lat="44.6392586" lon="8.1126023"><ele>624.25</ele><time>2026-04-18T16:12:07.976Z</time></trkpt><trkpt lat="44.6391282" lon="8.1126246"><ele>622.5</ele><time>2026-04-18T16:12:08.976Z</time></trkpt><trkpt lat="44.6389999" lon="8.1126225"><ele>620.75</ele><time>2026-04-18T16:12:09.975Z</time></trkpt><trkpt lat="44.6388684" lon="8.1125881"><ele>619.0</ele><time>2026-04-18T16:12:10.975Z</time></trkpt><trkpt lat="44.6387423" lon="8.1125168"><ele>619.5</ele><time>2026-04-18T16:12:11.976Z</time></trkpt><trkpt lat="44.6386166" lon="8.1124354"><ele>620.0</ele><time>2026-04-18T16:12:12.976Z</time></trkpt><trkpt lat="44.6384847" lon="8.1123692"><ele>620.5</ele><time>2026-04-18T16:12:13.976Z</time></trkpt><trkpt lat="44.6383508" lon="8.1123265"><ele>621.0</ele><time>2026-04-18T16:12:14.976Z</time></trkpt><trkpt lat="44.6382204" lon="8.1123051"><ele>621.0</ele><time>2026-04-18T16:12:15.975Z</time></trkpt><trkpt lat="44.6380893" lon="8.1123239"><ele>621.0</ele><time>2026-04-18T16:12:16.976Z</time></trkpt><trkpt lat="44.6379631" lon="8.1123858"><ele>621.0</ele><time>2026-04-18T16:12:17.976Z</time></trkpt><trkpt lat="44.6378436" lon="8.1124785"><ele>621.0</ele><time>2026-04-18T16:12:18.975Z</time></trkpt><trkpt lat="44.6377332" lon="8.1126094"><ele>619.0</ele><time>2026-04-18T16:12:19.975Z</time></trkpt><trkpt lat="44.6376318" lon="8.112755"><ele>617.0</ele><time>2026-04-18T16:12:20.975Z</time></trkpt><trkpt lat="44.6375141" lon="8.1128791"><ele>615.0</ele><time>2026-04-18T16:12:21.976Z</time></trkpt><trkpt lat="44.6373807" lon="8.112973"><ele>613.0</ele><time>2026-04-18T16:12:22.975Z</time></trkpt><trkpt lat="44.6372309" lon="8.1130282"><ele>613.0</ele><time>2026-04-18T16:12:23.976Z</time></trkpt><trkpt lat="44.6370745" lon="8.1130631"><ele>613.0</ele><time>2026-04-18T16:12:24.976Z</time></trkpt><trkpt lat="44.6369127" lon="8.1130947"><ele>613.0</ele><time>2026-04-18T16:12:25.976Z</time></trkpt><trkpt lat="44.6367607" lon="8.1131515"><ele>610.75</ele><time>2026-04-18T16:12:26.975Z</time></trkpt><trkpt lat="44.6366225" lon="8.1132008"><ele>608.5</ele><time>2026-04-18T16:12:27.976Z</time></trkpt><trkpt lat="44.636493" lon="8.1132316"><ele>606.25</ele><time>2026-04-18T16:12:28.975Z</time></trkpt><trkpt lat="44.6363587" lon="8.1132069"><ele>604.0</ele><time>2026-04-18T16:12:29.976Z</time></trkpt><trkpt lat="44.6362287" lon="8.1131202"><ele>604.0</ele><time>2026-04-18T16:12:30.976Z</time></trkpt><trkpt lat="44.6360903" lon="8.1130051"><ele>604.0</ele><time>2026-04-18T16:12:31.976Z</time></trkpt><trkpt lat="44.6359524" lon="8.1128972"><ele>604.0</ele><time>2026-04-18T16:12:32.976Z</time></trkpt><trkpt lat="44.635818" lon="8.1127896"><ele>604.0</ele><time>2026-04-18T16:12:33.975Z</time></trkpt><trkpt lat="44.6356859" lon="8.1126923"><ele>604.0</ele><time>2026-04-18T16:12:34.976Z</time></trkpt><trkpt lat="44.6355562" lon="8.1126051"><ele>604.0</ele><time>2026-04-18T16:12:35.976Z</time></trkpt><trkpt lat="44.6354236" lon="8.1125514"><ele>604.0</ele><time>2026-04-18T16:12:36.975Z</time></trkpt><trkpt lat="44.6352834" lon="8.1125386"><ele>605.0</ele><time>2026-04-18T16:12:37.976Z</time></trkpt><trkpt lat="44.6351362" lon="8.1125433"><ele>606.0</ele><time>2026-04-18T16:12:38.975Z</time></trkpt><trkpt lat="44.6349825" lon="8.1125293"><ele>607.0</ele><time>2026-04-18T16:12:39.975Z</time></trkpt><trkpt lat="44.634829" lon="8.1124985"><ele>607.0</ele><time>2026-04-18T16:12:40.976Z</time></trkpt><trkpt lat="44.634683" lon="8.1124461"><ele>607.0</ele><time>2026-04-18T16:12:41.976Z</time></trkpt><trkpt lat="44.6345469" lon="8.1123712"><ele>607.0</ele><time>2026-04-18T16:12:42.976Z</time></trkpt><trkpt lat="44.6344178" lon="8.1122933"><ele>607.0</ele><time>2026-04-18T16:12:43.976Z</time></trkpt><trkpt lat="44.6342973" lon="8.1122111"><ele>605.75</ele><time>2026-04-18T16:12:44.975Z</time></trkpt><trkpt lat="44.6341877" lon="8.1121135"><ele>604.5</ele><time>2026-04-18T16:12:45.976Z</time></trkpt><trkpt lat="44.6340885" lon="8.1119973"><ele>603.25</ele><time>2026-04-18T16:12:46.975Z</time></trkpt><trkpt lat="44.6339982" lon="8.1118735"><ele>602.0</ele><time>2026-04-18T16:12:47.976Z</time></trkpt><trkpt lat="44.6339175" lon="8.1117448"><ele>602.0</ele><time>2026-04-18T16:12:48.975Z</time></trkpt><trkpt lat="44.6338451" lon="8.1116209"><ele>602.0</ele><time>2026-04-18T16:12:49.976Z</time></trkpt><trkpt lat="44.6337879" lon="8.1115107"><ele>602.0</ele><time>2026-04-18T16:12:50.975Z</time></trkpt><trkpt lat="44.6337358" lon="8.1114218"><ele>602.0</ele><time>2026-04-18T16:12:51.976Z</time></trkpt><trkpt lat="44.6336918" lon="8.1113426"><ele>602.0</ele><time>2026-04-18T16:12:52.976Z</time></trkpt><trkpt lat="44.6336424" lon="8.1112327"><ele>601.3333333333333</ele><time>2026-04-18T16:12:54.964Z</time></trkpt><trkpt lat="44.633635" lon="8.111142"><ele>600.6666666666666</ele><time>2026-04-18T16:12:59.976Z</time></trkpt><trkpt lat="44.6336052" lon="8.1110594"><ele>600.0</ele><time>2026-04-18T16:13:01.976Z</time></trkpt><trkpt lat="44.6334941" lon="8.1109461"><ele>599.3333333333334</ele><time>2026-04-18T16:13:03.976Z</time></trkpt><trkpt lat="44.6334195" lon="8.1108874"><ele>598.6666666666667</ele><time>2026-04-18T16:13:04.975Z</time></trkpt><trkpt lat="44.6333407" lon="8.1108252"><ele>598.0</ele><time>2026-04-18T16:13:05.976Z</time></trkpt><trkpt lat="44.6332516" lon="8.1107566"><ele>597.25</ele><time>2026-04-18T16:13:06.975Z</time></trkpt><trkpt lat="44.6331559" lon="8.1106761"><ele>596.5</ele><time>2026-04-18T16:13:07.975Z</time></trkpt><trkpt lat="44.6330632" lon="8.1105765"><ele>595.75</ele><time>2026-04-18T16:13:08.976Z</time></trkpt><trkpt lat="44.6329711" lon="8.1104482"><ele>595.0</ele><time>2026-04-18T16:13:09.976Z</time></trkpt><trkpt lat="44.6328893" lon="8.1102918"><ele>595.0</ele><time>2026-04-18T16:13:10.976Z</time></trkpt><trkpt lat="44.6328154" lon="8.1101051"><ele>595.0</ele><time>2026-04-18T16:13:11.975Z</time></trkpt><trkpt lat="44.6327425" lon="8.1098998"><ele>595.0</ele><time>2026-04-18T16:13:12.975Z</time></trkpt><trkpt lat="44.6326739" lon="8.1096867"><ele>594.0</ele><time>2026-04-18T16:13:13.975Z</time></trkpt><trkpt lat="44.6325985" lon="8.1094633"><ele>593.0</ele><time>2026-04-18T16:13:14.976Z</time></trkpt><trkpt lat="44.6325315" lon="8.1092386"><ele>592.0</ele><time>2026-04-18T16:13:15.975Z</time></trkpt><trkpt lat="44.6324611" lon="8.1090145"><ele>591.6666666666667</ele><time>2026-04-18T16:13:16.976Z</time></trkpt><trkpt lat="44.6323941" lon="8.1088027"><ele>591.3333333333334</ele><time>2026-04-18T16:13:17.975Z</time></trkpt><trkpt lat="44.6323286" lon="8.108608"><ele>591.0</ele><time>2026-04-18T16:13:18.976Z</time></trkpt><trkpt lat="44.6322693" lon="8.1084341"><ele>591.0</ele><time>2026-04-18T16:13:19.975Z</time></trkpt><trkpt lat="44.6322069" lon="8.1082802"><ele>591.0</ele><time>2026-04-18T16:13:20.976Z</time></trkpt><trkpt lat="44.6321199" lon="8.1081473"><ele>591.0</ele><time>2026-04-18T16:13:21.976Z</time></trkpt><trkpt lat="44.6320141" lon="8.1080312"><ele>591.0</ele><time>2026-04-18T16:13:22.976Z</time></trkpt><trkpt lat="44.6318866" lon="8.107945"><ele>596.6666666666666</ele><time>2026-04-18T16:13:23.976Z</time></trkpt><trkpt lat="44.6317423" lon="8.1078873"><ele>602.3333333333333</ele><time>2026-04-18T16:13:24.975Z</time></trkpt><trkpt lat="44.6315913" lon="8.1078337"><ele>608.0</ele><time>2026-04-18T16:13:25.975Z</time></trkpt><trkpt lat="44.631435" lon="8.1077704"><ele>608.0</ele><time>2026-04-18T16:13:26.976Z</time></trkpt><trkpt lat="44.6312757" lon="8.1077056"><ele>608.0</ele><time>2026-04-18T16:13:27.976Z</time></trkpt><trkpt lat="44.6311146" lon="8.107639"><ele>608.0</ele><time>2026-04-18T16:13:28.976Z</time></trkpt><trkpt lat="44.6309468" lon="8.1075605"><ele>609.0</ele><time>2026-04-18T16:13:29.975Z</time></trkpt><trkpt lat="44.6307885" lon="8.1074872"><ele>610.0</ele><time>2026-04-18T16:13:30.975Z</time></trkpt><trkpt lat="44.6306399" lon="8.1074214"><ele>611.0</ele><time>2026-04-18T16:13:31.976Z</time></trkpt><trkpt lat="44.6304944" lon="8.1073606"><ele>616.25</ele><time>2026-04-18T16:13:32.976Z</time></trkpt><trkpt lat="44.6303626" lon="8.1073013"><ele>621.5</ele><time>2026-04-18T16:13:33.976Z</time></trkpt><trkpt lat="44.6302415" lon="8.1072535"><ele>626.75</ele><time>2026-04-18T16:13:34.975Z</time></trkpt><trkpt lat="44.630131" lon="8.1072128"><ele>632.0</ele><time>2026-04-18T16:13:35.975Z</time></trkpt><trkpt lat="44.630049" lon="8.1071649"><ele>632.2</ele><time>2026-04-18T16:13:36.975Z</time></trkpt><trkpt lat="44.6299769" lon="8.1071319"><ele>632.4000000000001</ele><time>2026-04-18T16:13:37.976Z</time></trkpt><trkpt lat="44.6299006" lon="8.1070344"><ele>632.5999999999999</ele><time>2026-04-18T16:13:39.975Z</time></trkpt><trkpt lat="44.6299499" lon="8.1069327"><ele>632.8</ele><time>2026-04-18T16:13:41.975Z</time></trkpt><trkpt lat="44.6300718" lon="8.1069877"><ele>633.0</ele><time>2026-04-18T16:13:43.976Z</time></trkpt><trkpt lat="44.6301597" lon="8.1070412"><ele>633.0</ele><time>2026-04-18T16:13:44.976Z</time></trkpt><trkpt lat="44.6302717" lon="8.107093"><ele>633.0</ele><time>2026-04-18T16:13:45.975Z</time></trkpt><trkpt lat="44.6303987" lon="8.1071295"><ele>633.0</ele><time>2026-04-18T16:13:46.976Z</time></trkpt><trkpt lat="44.6305405" lon="8.107143"><ele>633.0</ele><time>2026-04-18T16:13:47.976Z</time></trkpt><trkpt lat="44.6306853" lon="8.1071463"><ele>632.75</ele><time>2026-04-18T16:13:48.964Z</time></trkpt><trkpt lat="44.6308371" lon="8.1071578"><ele>632.5</ele><time>2026-04-18T16:13:49.959Z</time></trkpt><trkpt lat="44.6309856" lon="8.1071695"><ele>632.25</ele><time>2026-04-18T16:13:50.966Z</time></trkpt><trkpt lat="44.6311285" lon="8.1071652"><ele>632.0</ele><time>2026-04-18T16:13:51.973Z</time></trkpt><trkpt lat="44.631259" lon="8.1071425"><ele>628.5</ele><time>2026-04-18T16:13:52.973Z</time></trkpt><trkpt lat="44.6313766" lon="8.1070969"><ele>625.0</ele><time>2026-04-18T16:13:53.972Z</time></trkpt><trkpt lat="44.6314701" lon="8.1070116"><ele>621.5</ele><time>2026-04-18T16:13:54.972Z</time></trkpt><trkpt lat="44.6315374" lon="8.106876"><ele>618.0</ele><time>2026-04-18T16:13:55.972Z</time></trkpt><trkpt lat="44.6315782" lon="8.1067082"><ele>617.75</ele><time>2026-04-18T16:13:56.971Z</time></trkpt><trkpt lat="44.6315914" lon="8.1065286"><ele>617.5</ele><time>2026-04-18T16:13:57.957Z</time></trkpt><trkpt lat="44.6315774" lon="8.1063419"><ele>617.25</ele><time>2026-04-18T16:13:58.965Z</time></trkpt><trkpt lat="44.6315292" lon="8.106158"><ele>617.0</ele><time>2026-04-18T16:13:59.968Z</time></trkpt><trkpt lat="44.6314564" lon="8.1059792"><ele>617.0</ele><time>2026-04-18T16:14:00.967Z</time></trkpt><trkpt lat="44.6313879" lon="8.1057796"><ele>617.0</ele><time>2026-04-18T16:14:01.968Z</time></trkpt><trkpt lat="44.6313477" lon="8.1055539"><ele>617.0</ele><time>2026-04-18T16:14:02.968Z</time></trkpt><trkpt lat="44.6313241" lon="8.1053188"><ele>616.6666666666666</ele><time>2026-04-18T16:14:03.968Z</time></trkpt><trkpt lat="44.6313141" lon="8.1050735"><ele>616.3333333333334</ele><time>2026-04-18T16:14:04.967Z</time></trkpt><trkpt lat="44.6313086" lon="8.1048235"><ele>616.0</ele><time>2026-04-18T16:14:05.968Z</time></trkpt><trkpt lat="44.631299" lon="8.104574"><ele>616.6666666666667</ele><time>2026-04-18T16:14:06.967Z</time></trkpt><trkpt lat="44.6312906" lon="8.1043215"><ele>617.3333333333334</ele><time>2026-04-18T16:14:07.968Z</time></trkpt><trkpt lat="44.6312827" lon="8.1040724"><ele>618.0</ele><time>2026-04-18T16:14:08.967Z</time></trkpt><trkpt lat="44.631279" lon="8.1038252"><ele>620.0</ele><time>2026-04-18T16:14:09.967Z</time></trkpt><trkpt lat="44.6312773" lon="8.1035842"><ele>622.0</ele><time>2026-04-18T16:14:10.967Z</time></trkpt><trkpt lat="44.6312791" lon="8.1033505"><ele>624.0</ele><time>2026-04-18T16:14:11.967Z</time></trkpt><trkpt lat="44.6312989" lon="8.1031238"><ele>625.0</ele><time>2026-04-18T16:14:12.967Z</time></trkpt><trkpt lat="44.6313428" lon="8.1028958"><ele>626.0</ele><time>2026-04-18T16:14:13.968Z</time></trkpt><trkpt lat="44.6314187" lon="8.1026806"><ele>627.0</ele><time>2026-04-18T16:14:14.968Z</time></trkpt><trkpt lat="44.6315198" lon="8.1024841"><ele>624.3333333333334</ele><time>2026-04-18T16:14:15.968Z</time></trkpt><trkpt lat="44.6316305" lon="8.1022954"><ele>621.6666666666667</ele><time>2026-04-18T16:14:16.968Z</time></trkpt><trkpt lat="44.6317609" lon="8.1021187"><ele>619.0</ele><time>2026-04-18T16:14:17.967Z</time></trkpt><trkpt lat="44.6318943" lon="8.101949"><ele>619.3333333333334</ele><time>2026-04-18T16:14:18.968Z</time></trkpt><trkpt lat="44.6320235" lon="8.1017716"><ele>619.6666666666666</ele><time>2026-04-18T16:14:19.968Z</time></trkpt><trkpt lat="44.6321515" lon="8.1015964"><ele>620.0</ele><time>2026-04-18T16:14:20.967Z</time></trkpt><trkpt lat="44.6322756" lon="8.1014061"><ele>620.0</ele><time>2026-04-18T16:14:21.968Z</time></trkpt><trkpt lat="44.6323855" lon="8.101201"><ele>620.0</ele><time>2026-04-18T16:14:22.968Z</time></trkpt><trkpt lat="44.6324777" lon="8.1009831"><ele>620.0</ele><time>2026-04-18T16:14:23.968Z</time></trkpt><trkpt lat="44.6325511" lon="8.1007524"><ele>619.0</ele><time>2026-04-18T16:14:24.968Z</time></trkpt><trkpt lat="44.6326018" lon="8.1005078"><ele>618.0</ele><time>2026-04-18T16:14:25.968Z</time></trkpt><trkpt lat="44.6326386" lon="8.1002534"><ele>617.0</ele><time>2026-04-18T16:14:26.967Z</time></trkpt><trkpt lat="44.6326625" lon="8.0999934"><ele>616.0</ele><time>2026-04-18T16:14:27.968Z</time></trkpt><trkpt lat="44.6326717" lon="8.0997319"><ele>615.0</ele><time>2026-04-18T16:14:28.967Z</time></trkpt><trkpt lat="44.6326815" lon="8.0994675"><ele>614.0</ele><time>2026-04-18T16:14:29.967Z</time></trkpt><trkpt lat="44.6326878" lon="8.099209"><ele>613.3333333333333</ele><time>2026-04-18T16:14:30.967Z</time></trkpt><trkpt lat="44.6326963" lon="8.0989638"><ele>612.6666666666666</ele><time>2026-04-18T16:14:31.968Z</time></trkpt><trkpt lat="44.632704" lon="8.098735"><ele>612.0</ele><time>2026-04-18T16:14:32.968Z</time></trkpt><trkpt lat="44.6327113" lon="8.0985129"><ele>612.0</ele><time>2026-04-18T16:14:33.967Z</time></trkpt><trkpt lat="44.6327117" lon="8.0983008"><ele>612.0</ele><time>2026-04-18T16:14:34.968Z</time></trkpt><trkpt lat="44.6327044" lon="8.0981016"><ele>612.0</ele><time>2026-04-18T16:14:35.967Z</time></trkpt><trkpt lat="44.6326855" lon="8.0979076"><ele>612.0</ele><time>2026-04-18T16:14:36.967Z</time></trkpt><trkpt lat="44.6326428" lon="8.0977118"><ele>613.0</ele><time>2026-04-18T16:14:37.968Z</time></trkpt><trkpt lat="44.6325797" lon="8.0975227"><ele>614.0</ele><time>2026-04-18T16:14:38.968Z</time></trkpt><trkpt lat="44.6324968" lon="8.097344"><ele>615.0</ele><time>2026-04-18T16:14:39.968Z</time></trkpt><trkpt lat="44.6324032" lon="8.0971679"><ele>616.0</ele><time>2026-04-18T16:14:40.967Z</time></trkpt><trkpt lat="44.6323026" lon="8.0969926"><ele>617.0</ele><time>2026-04-18T16:14:41.968Z</time></trkpt><trkpt lat="44.6322008" lon="8.0968148"><ele>618.0</ele><time>2026-04-18T16:14:42.968Z</time></trkpt><trkpt lat="44.6320962" lon="8.0966376"><ele>618.0</ele><time>2026-04-18T16:14:43.968Z</time></trkpt><trkpt lat="44.6319867" lon="8.0964694"><ele>618.0</ele><time>2026-04-18T16:14:44.968Z</time></trkpt><trkpt lat="44.6318676" lon="8.0963139"><ele>618.0</ele><time>2026-04-18T16:14:45.968Z</time></trkpt><trkpt lat="44.6317513" lon="8.096166"><ele>618.0</ele><time>2026-04-18T16:14:46.967Z</time></trkpt><trkpt lat="44.6316375" lon="8.0960202"><ele>618.0</ele><time>2026-04-18T16:14:47.968Z</time></trkpt><trkpt lat="44.6315259" lon="8.0958657"><ele>618.0</ele><time>2026-04-18T16:14:48.967Z</time></trkpt><trkpt lat="44.6314248" lon="8.0957029"><ele>615.0</ele><time>2026-04-18T16:14:49.967Z</time></trkpt><trkpt lat="44.6313257" lon="8.0955319"><ele>612.0</ele><time>2026-04-18T16:14:50.968Z</time></trkpt><trkpt lat="44.631235" lon="8.0953514"><ele>609.0</ele><time>2026-04-18T16:14:51.967Z</time></trkpt><trkpt lat="44.6311573" lon="8.0951583"><ele>611.6666666666666</ele><time>2026-04-18T16:14:52.967Z</time></trkpt><trkpt lat="44.6310818" lon="8.0949651"><ele>614.3333333333333</ele><time>2026-04-18T16:14:53.967Z</time></trkpt><trkpt lat="44.631012" lon="8.0947723"><ele>617.0</ele><time>2026-04-18T16:14:54.967Z</time></trkpt><trkpt lat="44.6309466" lon="8.0945828"><ele>618.25</ele><time>2026-04-18T16:14:55.968Z</time></trkpt><trkpt lat="44.630887" lon="8.0944012"><ele>619.5</ele><time>2026-04-18T16:14:56.968Z</time></trkpt><trkpt lat="44.6308302" lon="8.0942364"><ele>620.75</ele><time>2026-04-18T16:14:57.968Z</time></trkpt><trkpt lat="44.6307859" lon="8.0940981"><ele>622.0</ele><time>2026-04-18T16:14:58.968Z</time></trkpt><trkpt lat="44.6307486" lon="8.0939868"><ele>622.2</ele><time>2026-04-18T16:14:59.968Z</time></trkpt><trkpt lat="44.6307192" lon="8.0938887"><ele>622.4000000000001</ele><time>2026-04-18T16:15:00.968Z</time></trkpt><trkpt lat="44.6307071" lon="8.0937814"><ele>622.5999999999999</ele><time>2026-04-18T16:15:01.967Z</time></trkpt><trkpt lat="44.6307129" lon="8.0936587"><ele>622.8</ele><time>2026-04-18T16:15:02.967Z</time></trkpt><trkpt lat="44.6307258" lon="8.0935187"><ele>623.0</ele><time>2026-04-18T16:15:03.968Z</time></trkpt><trkpt lat="44.6307588" lon="8.093371"><ele>623.75</ele><time>2026-04-18T16:15:04.967Z</time></trkpt><trkpt lat="44.6307967" lon="8.0932103"><ele>624.5</ele><time>2026-04-18T16:15:05.968Z</time></trkpt><trkpt lat="44.6308271" lon="8.0930467"><ele>625.25</ele><time>2026-04-18T16:15:06.967Z</time></trkpt><trkpt lat="44.6308409" lon="8.0928752"><ele>626.0</ele><time>2026-04-18T16:15:07.967Z</time></trkpt><trkpt lat="44.6308344" lon="8.092701"><ele>626.0</ele><time>2026-04-18T16:15:08.968Z</time></trkpt><trkpt lat="44.6308099" lon="8.0925211"><ele>626.0</ele><time>2026-04-18T16:15:09.968Z</time></trkpt><trkpt lat="44.6307622" lon="8.0923312"><ele>626.0</ele><time>2026-04-18T16:15:10.968Z</time></trkpt><trkpt lat="44.6307042" lon="8.0921307"><ele>626.0</ele><time>2026-04-18T16:15:11.968Z</time></trkpt><trkpt lat="44.630641" lon="8.0919213"><ele>624.0</ele><time>2026-04-18T16:15:12.968Z</time></trkpt><trkpt lat="44.6305741" lon="8.0917032"><ele>622.0</ele><time>2026-04-18T16:15:13.967Z</time></trkpt><trkpt lat="44.6305067" lon="8.091479"><ele>620.0</ele><time>2026-04-18T16:15:14.967Z</time></trkpt><trkpt lat="44.6304343" lon="8.0912495"><ele>618.6666666666666</ele><time>2026-04-18T16:15:15.968Z</time></trkpt><trkpt lat="44.6303614" lon="8.0910182"><ele>617.3333333333334</ele><time>2026-04-18T16:15:16.968Z</time></trkpt><trkpt lat="44.6302938" lon="8.0907913"><ele>616.0</ele><time>2026-04-18T16:15:17.968Z</time></trkpt><trkpt lat="44.6302296" lon="8.0905796"><ele>619.0</ele><time>2026-04-18T16:15:18.968Z</time></trkpt><trkpt lat="44.630153" lon="8.0903666"><ele>622.0</ele><time>2026-04-18T16:15:19.968Z</time></trkpt><trkpt lat="44.6300545" lon="8.0901703"><ele>625.0</ele><time>2026-04-18T16:15:20.968Z</time></trkpt><trkpt lat="44.6299394" lon="8.0900069"><ele>623.0</ele><time>2026-04-18T16:15:21.967Z</time></trkpt><trkpt lat="44.6298163" lon="8.0898772"><ele>621.0</ele><time>2026-04-18T16:15:22.968Z</time></trkpt><trkpt lat="44.629702" lon="8.0897335"><ele>619.0</ele><time>2026-04-18T16:15:23.968Z</time></trkpt><trkpt lat="44.6296032" lon="8.089555"><ele>619.0</ele><time>2026-04-18T16:15:24.967Z</time></trkpt><trkpt lat="44.6295256" lon="8.0893442"><ele>619.0</ele><time>2026-04-18T16:15:25.968Z</time></trkpt><trkpt lat="44.6294607" lon="8.0891179"><ele>619.0</ele><time>2026-04-18T16:15:26.967Z</time></trkpt><trkpt lat="44.6294" lon="8.0888817"><ele>622.3333333333334</ele><time>2026-04-18T16:15:27.968Z</time></trkpt><trkpt lat="44.6293405" lon="8.0886368"><ele>625.6666666666666</ele><time>2026-04-18T16:15:28.967Z</time></trkpt><trkpt lat="44.6292806" lon="8.0883861"><ele>629.0</ele><time>2026-04-18T16:15:29.967Z</time></trkpt><trkpt lat="44.6292191" lon="8.0881265"><ele>629.0</ele><time>2026-04-18T16:15:30.968Z</time></trkpt><trkpt lat="44.6291548" lon="8.0878683"><ele>629.0</ele><time>2026-04-18T16:15:31.968Z</time></trkpt><trkpt lat="44.6290832" lon="8.0876082"><ele>629.0</ele><time>2026-04-18T16:15:32.968Z</time></trkpt><trkpt lat="44.6290097" lon="8.0873475"><ele>627.0</ele><time>2026-04-18T16:15:33.967Z</time></trkpt><trkpt lat="44.6289308" lon="8.0870957"><ele>625.0</ele><time>2026-04-18T16:15:34.968Z</time></trkpt><trkpt lat="44.6288583" lon="8.086855"><ele>623.0</ele><time>2026-04-18T16:15:35.967Z</time></trkpt><trkpt lat="44.6287942" lon="8.0866227"><ele>621.3333333333333</ele><time>2026-04-18T16:15:36.968Z</time></trkpt><trkpt lat="44.6287241" lon="8.0864097"><ele>619.6666666666666</ele><time>2026-04-18T16:15:37.967Z</time></trkpt><trkpt lat="44.6286451" lon="8.0862098"><ele>618.0</ele><time>2026-04-18T16:15:38.968Z</time></trkpt><trkpt lat="44.6285504" lon="8.0860307"><ele>616.6666666666666</ele><time>2026-04-18T16:15:39.967Z</time></trkpt><trkpt lat="44.6284358" lon="8.085864"><ele>615.3333333333333</ele><time>2026-04-18T16:15:40.967Z</time></trkpt><trkpt lat="44.6283042" lon="8.0857199"><ele>614.0</ele><time>2026-04-18T16:15:41.967Z</time></trkpt><trkpt lat="44.6281512" lon="8.0856053"><ele>614.0</ele><time>2026-04-18T16:15:42.968Z</time></trkpt><trkpt lat="44.6279828" lon="8.0855242"><ele>614.0</ele><time>2026-04-18T16:15:43.968Z</time></trkpt><trkpt lat="44.6278109" lon="8.0854744"><ele>614.0</ele><time>2026-04-18T16:15:44.967Z</time></trkpt><trkpt lat="44.6276339" lon="8.0854689"><ele>615.0</ele><time>2026-04-18T16:15:45.968Z</time></trkpt><trkpt lat="44.6274562" lon="8.0854955"><ele>616.0</ele><time>2026-04-18T16:15:46.968Z</time></trkpt><trkpt lat="44.6272854" lon="8.0855499"><ele>617.0</ele><time>2026-04-18T16:15:47.967Z</time></trkpt><trkpt lat="44.6271222" lon="8.0856157"><ele>617.6666666666666</ele><time>2026-04-18T16:15:48.967Z</time></trkpt><trkpt lat="44.6269614" lon="8.0856812"><ele>618.3333333333334</ele><time>2026-04-18T16:15:49.967Z</time></trkpt><trkpt lat="44.6268008" lon="8.0857539"><ele>619.0</ele><time>2026-04-18T16:15:50.968Z</time></trkpt><trkpt lat="44.6266319" lon="8.085794"><ele>619.6666666666667</ele><time>2026-04-18T16:15:51.968Z</time></trkpt><trkpt lat="44.6264581" lon="8.0857977"><ele>620.3333333333334</ele><time>2026-04-18T16:15:52.968Z</time></trkpt><trkpt lat="44.6262817" lon="8.0857638"><ele>621.0</ele><time>2026-04-18T16:15:53.967Z</time></trkpt><trkpt lat="44.6261031" lon="8.0857082"><ele>621.0</ele><time>2026-04-18T16:15:54.968Z</time></trkpt><trkpt lat="44.6259205" lon="8.0856634"><ele>621.0</ele><time>2026-04-18T16:15:55.968Z</time></trkpt><trkpt lat="44.6257399" lon="8.0856252"><ele>621.0</ele><time>2026-04-18T16:15:56.968Z</time></trkpt><trkpt lat="44.625555" lon="8.0855993"><ele>621.0</ele><time>2026-04-18T16:15:57.967Z</time></trkpt><trkpt lat="44.625371" lon="8.085553"><ele>621.0</ele><time>2026-04-18T16:15:58.967Z</time></trkpt><trkpt lat="44.625195" lon="8.0854916"><ele>621.0</ele><time>2026-04-18T16:15:59.972Z</time></trkpt><trkpt lat="44.6250333" lon="8.0854271"><ele>623.3333333333334</ele><time>2026-04-18T16:16:00.967Z</time></trkpt><trkpt lat="44.6248778" lon="8.0853731"><ele>625.6666666666667</ele><time>2026-04-18T16:16:01.968Z</time></trkpt><trkpt lat="44.6247267" lon="8.0853297"><ele>628.0</ele><time>2026-04-18T16:16:02.973Z</time></trkpt><trkpt lat="44.6245744" lon="8.0852938"><ele>627.75</ele><time>2026-04-18T16:16:03.975Z</time></trkpt><trkpt lat="44.624432" lon="8.0852647"><ele>627.5</ele><time>2026-04-18T16:16:04.966Z</time></trkpt><trkpt lat="44.6242934" lon="8.085255"><ele>627.25</ele><time>2026-04-18T16:16:05.959Z</time></trkpt><trkpt lat="44.6241631" lon="8.085284"><ele>627.0</ele><time>2026-04-18T16:16:06.959Z</time></trkpt><trkpt lat="44.6240389" lon="8.0853564"><ele>627.0</ele><time>2026-04-18T16:16:07.958Z</time></trkpt><trkpt lat="44.6239258" lon="8.0854727"><ele>627.0</ele><time>2026-04-18T16:16:08.959Z</time></trkpt><trkpt lat="44.6238177" lon="8.0856171"><ele>627.0</ele><time>2026-04-18T16:16:09.959Z</time></trkpt><trkpt lat="44.6237087" lon="8.0857716"><ele>627.0</ele><time>2026-04-18T16:16:10.959Z</time></trkpt><trkpt lat="44.6235967" lon="8.0859359"><ele>627.0</ele><time>2026-04-18T16:16:11.959Z</time></trkpt><trkpt lat="44.6234816" lon="8.0861047"><ele>627.0</ele><time>2026-04-18T16:16:12.959Z</time></trkpt><trkpt lat="44.6233709" lon="8.0862739"><ele>627.0</ele><time>2026-04-18T16:16:13.959Z</time></trkpt><trkpt lat="44.6232621" lon="8.0864276"><ele>627.0</ele><time>2026-04-18T16:16:14.968Z</time></trkpt><trkpt lat="44.623143" lon="8.0865639"><ele>627.0</ele><time>2026-04-18T16:16:15.978Z</time></trkpt><trkpt lat="44.6229973" lon="8.0866578"><ele>627.0</ele><time>2026-04-18T16:16:16.968Z</time></trkpt><trkpt lat="44.6228434" lon="8.0867222"><ele>628.3333333333334</ele><time>2026-04-18T16:16:17.969Z</time></trkpt><trkpt lat="44.6226836" lon="8.086747"><ele>629.6666666666667</ele><time>2026-04-18T16:16:18.971Z</time></trkpt><trkpt lat="44.622515" lon="8.0867623"><ele>631.0</ele><time>2026-04-18T16:16:19.978Z</time></trkpt><trkpt lat="44.6223454" lon="8.086778"><ele>631.0</ele><time>2026-04-18T16:16:20.968Z</time></trkpt><trkpt lat="44.6221767" lon="8.0867859"><ele>631.0</ele><time>2026-04-18T16:16:21.968Z</time></trkpt><trkpt lat="44.6220094" lon="8.0867975"><ele>631.0</ele><time>2026-04-18T16:16:22.968Z</time></trkpt><trkpt lat="44.6218403" lon="8.0868079"><ele>631.3333333333334</ele><time>2026-04-18T16:16:23.967Z</time></trkpt><trkpt lat="44.6216741" lon="8.0867967"><ele>631.6666666666666</ele><time>2026-04-18T16:16:24.967Z</time></trkpt><trkpt lat="44.6215123" lon="8.0867569"><ele>632.0</ele><time>2026-04-18T16:16:25.967Z</time></trkpt><trkpt lat="44.6213516" lon="8.0866837"><ele>629.0</ele><time>2026-04-18T16:16:26.968Z</time></trkpt><trkpt lat="44.6211946" lon="8.0865831"><ele>626.0</ele><time>2026-04-18T16:16:27.968Z</time></trkpt><trkpt lat="44.621039" lon="8.0864793"><ele>623.0</ele><time>2026-04-18T16:16:28.968Z</time></trkpt><trkpt lat="44.6208785" lon="8.0863724"><ele>623.0</ele><time>2026-04-18T16:16:29.967Z</time></trkpt><trkpt lat="44.6207193" lon="8.0862601"><ele>623.0</ele><time>2026-04-18T16:16:30.965Z</time></trkpt><trkpt lat="44.6205584" lon="8.0861457"><ele>623.0</ele><time>2026-04-18T16:16:31.967Z</time></trkpt><trkpt lat="44.6203932" lon="8.086031"><ele>622.0</ele><time>2026-04-18T16:16:32.974Z</time></trkpt><trkpt lat="44.6202303" lon="8.0859173"><ele>621.0</ele><time>2026-04-18T16:16:33.967Z</time></trkpt><trkpt lat="44.6200675" lon="8.0858042"><ele>620.0</ele><time>2026-04-18T16:16:34.969Z</time></trkpt><trkpt lat="44.6199102" lon="8.0856834"><ele>620.0</ele><time>2026-04-18T16:16:35.961Z</time></trkpt><trkpt lat="44.6197671" lon="8.0855402"><ele>620.0</ele><time>2026-04-18T16:16:36.963Z</time></trkpt><trkpt lat="44.6196332" lon="8.0853639"><ele>620.0</ele><time>2026-04-18T16:16:37.96Z</time></trkpt><trkpt lat="44.6195063" lon="8.0851775"><ele>621.0</ele><time>2026-04-18T16:16:38.971Z</time></trkpt><trkpt lat="44.6193812" lon="8.0849835"><ele>622.0</ele><time>2026-04-18T16:16:39.967Z</time></trkpt><trkpt lat="44.6192573" lon="8.0847802"><ele>623.0</ele><time>2026-04-18T16:16:40.963Z</time></trkpt><trkpt lat="44.6191315" lon="8.084572"><ele>623.0</ele><time>2026-04-18T16:16:41.964Z</time></trkpt><trkpt lat="44.619004" lon="8.0843629"><ele>623.0</ele><time>2026-04-18T16:16:42.974Z</time></trkpt><trkpt lat="44.6188747" lon="8.0841546"><ele>623.0</ele><time>2026-04-18T16:16:43.973Z</time></trkpt><trkpt lat="44.618745" lon="8.0839389"><ele>621.6666666666666</ele><time>2026-04-18T16:16:44.967Z</time></trkpt><trkpt lat="44.6186212" lon="8.0837184"><ele>620.3333333333334</ele><time>2026-04-18T16:16:45.964Z</time></trkpt><trkpt lat="44.6185007" lon="8.0834924"><ele>619.0</ele><time>2026-04-18T16:16:46.973Z</time></trkpt><trkpt lat="44.6183852" lon="8.0832574"><ele>619.0</ele><time>2026-04-18T16:16:47.969Z</time></trkpt><trkpt lat="44.6182673" lon="8.0830158"><ele>619.0</ele><time>2026-04-18T16:16:48.974Z</time></trkpt><trkpt lat="44.6181502" lon="8.0827778"><ele>619.0</ele><time>2026-04-18T16:16:49.964Z</time></trkpt><trkpt lat="44.618034" lon="8.0825397"><ele>619.3333333333334</ele><time>2026-04-18T16:16:50.976Z</time></trkpt><trkpt lat="44.617918" lon="8.082299"><ele>619.6666666666666</ele><time>2026-04-18T16:16:51.965Z</time></trkpt><trkpt lat="44.6178008" lon="8.0820664"><ele>620.0</ele><time>2026-04-18T16:16:52.969Z</time></trkpt><trkpt lat="44.6176851" lon="8.0818354"><ele>620.3333333333333</ele><time>2026-04-18T16:16:53.961Z</time></trkpt><trkpt lat="44.6175731" lon="8.0816098"><ele>620.6666666666666</ele><time>2026-04-18T16:16:54.962Z</time></trkpt><trkpt lat="44.6174577" lon="8.0813832"><ele>621.0</ele><time>2026-04-18T16:16:55.965Z</time></trkpt><trkpt lat="44.6173346" lon="8.0811754"><ele>625.0</ele><time>2026-04-18T16:16:56.966Z</time></trkpt><trkpt lat="44.6172017" lon="8.0809801"><ele>629.0</ele><time>2026-04-18T16:16:57.971Z</time></trkpt><trkpt lat="44.6170596" lon="8.0807981"><ele>633.0</ele><time>2026-04-18T16:16:58.963Z</time></trkpt><trkpt lat="44.6169098" lon="8.0806286"><ele>634.0</ele><time>2026-04-18T16:16:59.972Z</time></trkpt><trkpt lat="44.6167573" lon="8.0804671"><ele>635.0</ele><time>2026-04-18T16:17:00.966Z</time></trkpt><trkpt lat="44.6165946" lon="8.080318"><ele>636.0</ele><time>2026-04-18T16:17:01.962Z</time></trkpt><trkpt lat="44.6164253" lon="8.0801815"><ele>636.0</ele><time>2026-04-18T16:17:02.967Z</time></trkpt><trkpt lat="44.6162516" lon="8.0800628"><ele>636.0</ele><time>2026-04-18T16:17:03.97Z</time></trkpt><trkpt lat="44.6160711" lon="8.0799657"><ele>636.0</ele><time>2026-04-18T16:17:04.964Z</time></trkpt><trkpt lat="44.6158856" lon="8.0798964"><ele>637.0</ele><time>2026-04-18T16:17:05.964Z</time></trkpt><trkpt lat="44.6156974" lon="8.0798382"><ele>638.0</ele><time>2026-04-18T16:17:07.071Z</time></trkpt><trkpt lat="44.6153595" lon="8.0797299"><ele>635.25</ele><time>2026-04-18T16:17:08.968Z</time></trkpt><trkpt lat="44.6152155" lon="8.0796841"><ele>632.5</ele><time>2026-04-18T16:17:09.961Z</time></trkpt><trkpt lat="44.6150848" lon="8.0796497"><ele>629.75</ele><time>2026-04-18T16:17:10.967Z</time></trkpt><trkpt lat="44.6149576" lon="8.079641"><ele>627.0</ele><time>2026-04-18T16:17:11.965Z</time></trkpt><trkpt lat="44.6148295" lon="8.0796689"><ele>627.0</ele><time>2026-04-18T16:17:12.963Z</time></trkpt><trkpt lat="44.6147066" lon="8.0797412"><ele>627.0</ele><time>2026-04-18T16:17:13.965Z</time></trkpt><trkpt lat="44.6145832" lon="8.0798398"><ele>627.0</ele><time>2026-04-18T16:17:14.968Z</time></trkpt><trkpt lat="44.6144577" lon="8.0799511"><ele>627.0</ele><time>2026-04-18T16:17:15.973Z</time></trkpt><trkpt lat="44.6143284" lon="8.080062"><ele>628.75</ele><time>2026-04-18T16:17:16.97Z</time></trkpt><trkpt lat="44.6142106" lon="8.0801611"><ele>630.5</ele><time>2026-04-18T16:17:17.962Z</time></trkpt><trkpt lat="44.6140917" lon="8.0802779"><ele>632.25</ele><time>2026-04-18T16:17:18.964Z</time></trkpt><trkpt lat="44.6139926" lon="8.0804219"><ele>634.0</ele><time>2026-04-18T16:17:19.96Z</time></trkpt><trkpt lat="44.6139029" lon="8.0805837"><ele>633.6666666666667</ele><time>2026-04-18T16:17:20.972Z</time></trkpt><trkpt lat="44.6138384" lon="8.0807707"><ele>633.3333333333334</ele><time>2026-04-18T16:17:21.957Z</time></trkpt><trkpt lat="44.6137967" lon="8.0809778"><ele>633.0</ele><time>2026-04-18T16:17:22.97Z</time></trkpt><trkpt lat="44.6137735" lon="8.0811933"><ele>633.0</ele><time>2026-04-18T16:17:23.977Z</time></trkpt><trkpt lat="44.6137639" lon="8.0814159"><ele>633.0</ele><time>2026-04-18T16:17:24.961Z</time></trkpt><trkpt lat="44.6137604" lon="8.0816477"><ele>633.0</ele><time>2026-04-18T16:17:25.956Z</time></trkpt><trkpt lat="44.6137544" lon="8.0818779"><ele>633.0</ele><time>2026-04-18T16:17:26.973Z</time></trkpt><trkpt lat="44.6137466" lon="8.0821069"><ele>633.0</ele><time>2026-04-18T16:17:27.972Z</time></trkpt><trkpt lat="44.6137352" lon="8.0823332"><ele>633.0</ele><time>2026-04-18T16:17:28.972Z</time></trkpt><trkpt lat="44.613729" lon="8.0825538"><ele>633.0</ele><time>2026-04-18T16:17:29.972Z</time></trkpt><trkpt lat="44.6137215" lon="8.0827549"><ele>633.0</ele><time>2026-04-18T16:17:30.971Z</time></trkpt><trkpt lat="44.6137144" lon="8.082934"><ele>633.0</ele><time>2026-04-18T16:17:31.961Z</time></trkpt><trkpt lat="44.6136975" lon="8.0830973"><ele>633.0</ele><time>2026-04-18T16:17:32.968Z</time></trkpt><trkpt lat="44.6136593" lon="8.0832492"><ele>638.0</ele><time>2026-04-18T16:17:33.962Z</time></trkpt><trkpt lat="44.61359" lon="8.0833862"><ele>643.0</ele><time>2026-04-18T16:17:34.957Z</time></trkpt><trkpt lat="44.6135047" lon="8.0835054"><ele>648.0</ele><time>2026-04-18T16:17:35.958Z</time></trkpt><trkpt lat="44.613419" lon="8.0835904"><ele>653.0</ele><time>2026-04-18T16:17:36.967Z</time></trkpt><trkpt lat="44.6132874" lon="8.0836016"><ele>653.0</ele><time>2026-04-18T16:17:37.966Z</time></trkpt><trkpt lat="44.6131582" lon="8.0835771"><ele>653.0</ele><time>2026-04-18T16:17:38.966Z</time></trkpt><trkpt lat="44.6130247" lon="8.0835496"><ele>653.0</ele><time>2026-04-18T16:17:39.967Z</time></trkpt><trkpt lat="44.6128813" lon="8.0835714"><ele>653.0</ele><time>2026-04-18T16:17:40.965Z</time></trkpt><trkpt lat="44.6127521" lon="8.0836283"><ele>657.0</ele><time>2026-04-18T16:17:41.961Z</time></trkpt><trkpt lat="44.6126292" lon="8.0836733"><ele>661.0</ele><time>2026-04-18T16:17:42.962Z</time></trkpt><trkpt lat="44.6125012" lon="8.083683"><ele>665.0</ele><time>2026-04-18T16:17:43.958Z</time></trkpt><trkpt lat="44.6123667" lon="8.083667"><ele>669.0</ele><time>2026-04-18T16:17:44.963Z</time></trkpt><trkpt lat="44.6122336" lon="8.0836034"><ele>669.0</ele><time>2026-04-18T16:17:45.96Z</time></trkpt><trkpt lat="44.612096" lon="8.0835206"><ele>669.0</ele><time>2026-04-18T16:17:46.968Z</time></trkpt><trkpt lat="44.6119494" lon="8.0834789"><ele>669.0</ele><time>2026-04-18T16:17:47.965Z</time></trkpt><trkpt lat="44.611788" lon="8.0834753"><ele>670.3333333333334</ele><time>2026-04-18T16:17:48.957Z</time></trkpt><trkpt lat="44.6116242" lon="8.0834797"><ele>671.6666666666667</ele><time>2026-04-18T16:17:49.966Z</time></trkpt><trkpt lat="44.6114676" lon="8.0835029"><ele>673.0</ele><time>2026-04-18T16:17:50.963Z</time></trkpt><trkpt lat="44.6113334" lon="8.0835581"><ele>673.0</ele><time>2026-04-18T16:17:51.971Z</time></trkpt><trkpt lat="44.6112158" lon="8.0836249"><ele>673.0</ele><time>2026-04-18T16:17:52.965Z</time></trkpt><trkpt lat="44.6111103" lon="8.0836806"><ele>673.0</ele><time>2026-04-18T16:17:53.961Z</time></trkpt><trkpt lat="44.6110068" lon="8.0836818"><ele>673.0</ele><time>2026-04-18T16:17:54.96Z</time></trkpt><trkpt lat="44.6109074" lon="8.0836389"><ele>673.0</ele><time>2026-04-18T16:17:55.97Z</time></trkpt><trkpt lat="44.610812" lon="8.0835329"><ele>673.0</ele><time>2026-04-18T16:17:56.966Z</time></trkpt><trkpt lat="44.6107272" lon="8.0834094"><ele>673.0</ele><time>2026-04-18T16:17:57.968Z</time></trkpt><trkpt lat="44.6106338" lon="8.0832683"><ele>673.0</ele><time>2026-04-18T16:17:58.962Z</time></trkpt><trkpt lat="44.610532" lon="8.0831338"><ele>673.0</ele><time>2026-04-18T16:17:59.963Z</time></trkpt><trkpt lat="44.6104008" lon="8.083035"><ele>678.3333333333334</ele><time>2026-04-18T16:18:00.963Z</time></trkpt><trkpt lat="44.6102641" lon="8.0829614"><ele>683.6666666666666</ele><time>2026-04-18T16:18:01.962Z</time></trkpt><trkpt lat="44.6101096" lon="8.0829144"><ele>689.0</ele><time>2026-04-18T16:18:02.969Z</time></trkpt><trkpt lat="44.6099487" lon="8.0828859"><ele>689.0</ele><time>2026-04-18T16:18:03.963Z</time></trkpt><trkpt lat="44.6097932" lon="8.0828515"><ele>689.0</ele><time>2026-04-18T16:18:04.964Z</time></trkpt><trkpt lat="44.6096602" lon="8.0828255"><ele>689.0</ele><time>2026-04-18T16:18:05.964Z</time></trkpt><trkpt lat="44.6095378" lon="8.0827999"><ele>689.0</ele><time>2026-04-18T16:18:06.965Z</time></trkpt><trkpt lat="44.6094328" lon="8.0827645"><ele>687.0</ele><time>2026-04-18T16:18:07.966Z</time></trkpt><trkpt lat="44.6093415" lon="8.0827157"><ele>685.0</ele><time>2026-04-18T16:18:08.964Z</time></trkpt><trkpt lat="44.6092631" lon="8.0826424"><ele>683.0</ele><time>2026-04-18T16:18:09.961Z</time></trkpt><trkpt lat="44.609211" lon="8.0825202"><ele>681.0</ele><time>2026-04-18T16:18:10.971Z</time></trkpt><trkpt lat="44.6091854" lon="8.0823671"><ele>679.0</ele><time>2026-04-18T16:18:11.971Z</time></trkpt><trkpt lat="44.6091778" lon="8.0821928"><ele>679.0</ele><time>2026-04-18T16:18:12.969Z</time></trkpt><trkpt lat="44.6091744" lon="8.0820245"><ele>679.0</ele><time>2026-04-18T16:18:13.974Z</time></trkpt><trkpt lat="44.6091591" lon="8.0818691"><ele>679.0</ele><time>2026-04-18T16:18:14.963Z</time></trkpt><trkpt lat="44.6091194" lon="8.0817423"><ele>679.0</ele><time>2026-04-18T16:18:15.966Z</time></trkpt><trkpt lat="44.6090504" lon="8.0816296"><ele>679.0</ele><time>2026-04-18T16:18:16.966Z</time></trkpt><trkpt lat="44.608954" lon="8.0815491"><ele>680.5</ele><time>2026-04-18T16:18:17.973Z</time></trkpt><trkpt lat="44.6088375" lon="8.0814924"><ele>682.0</ele><time>2026-04-18T16:18:18.97Z</time></trkpt><trkpt lat="44.6087202" lon="8.0814373"><ele>683.5</ele><time>2026-04-18T16:18:19.96Z</time></trkpt><trkpt lat="44.6086141" lon="8.0813682"><ele>685.0</ele><time>2026-04-18T16:18:20.969Z</time></trkpt><trkpt lat="44.608516" lon="8.0812633"><ele>685.0</ele><time>2026-04-18T16:18:21.965Z</time></trkpt><trkpt lat="44.6084463" lon="8.0811233"><ele>685.0</ele><time>2026-04-18T16:18:22.964Z</time></trkpt><trkpt lat="44.6083874" lon="8.0809852"><ele>685.0</ele><time>2026-04-18T16:18:23.977Z</time></trkpt><trkpt lat="44.6083168" lon="8.0808817"><ele>685.0</ele><time>2026-04-18T16:18:24.966Z</time></trkpt><trkpt lat="44.6082224" lon="8.0808093"><ele>685.0</ele><time>2026-04-18T16:18:25.974Z</time></trkpt><trkpt lat="44.6081173" lon="8.0807602"><ele>685.0</ele><time>2026-04-18T16:18:26.974Z</time></trkpt><trkpt lat="44.607984" lon="8.0807773"><ele>685.0</ele><time>2026-04-18T16:18:27.969Z</time></trkpt><trkpt lat="44.6078559" lon="8.0807702"><ele>685.0</ele><time>2026-04-18T16:18:28.968Z</time></trkpt><trkpt lat="44.6077194" lon="8.0807461"><ele>685.0</ele><time>2026-04-18T16:18:29.965Z</time></trkpt><trkpt lat="44.6075906" lon="8.0805978"><ele>692.6666666666667</ele><time>2026-04-18T16:18:30.964Z</time></trkpt><trkpt lat="44.6074607" lon="8.0804826"><ele>700.3333333333334</ele><time>2026-04-18T16:18:31.964Z</time></trkpt><trkpt lat="44.6073265" lon="8.0803615"><ele>708.0</ele><time>2026-04-18T16:18:32.965Z</time></trkpt><trkpt lat="44.6071947" lon="8.080275"><ele>708.0</ele><time>2026-04-18T16:18:33.971Z</time></trkpt><trkpt lat="44.6070553" lon="8.0802328"><ele>708.0</ele><time>2026-04-18T16:18:34.973Z</time></trkpt><trkpt lat="44.6069202" lon="8.0802718"><ele>708.0</ele><time>2026-04-18T16:18:35.962Z</time></trkpt><trkpt lat="44.6067957" lon="8.0803458"><ele>708.0</ele><time>2026-04-18T16:18:36.967Z</time></trkpt><trkpt lat="44.6066886" lon="8.0804305"><ele>706.25</ele><time>2026-04-18T16:18:37.964Z</time></trkpt><trkpt lat="44.6065773" lon="8.0804664"><ele>704.5</ele><time>2026-04-18T16:18:38.956Z</time></trkpt><trkpt lat="44.606479" lon="8.0804647"><ele>702.75</ele><time>2026-04-18T16:18:39.965Z</time></trkpt><trkpt lat="44.6063542" lon="8.0803704"><ele>701.0</ele><time>2026-04-18T16:18:40.963Z</time></trkpt><trkpt lat="44.6062556" lon="8.080262"><ele>699.25</ele><time>2026-04-18T16:18:41.961Z</time></trkpt><trkpt lat="44.6061407" lon="8.0801571"><ele>697.5</ele><time>2026-04-18T16:18:42.956Z</time></trkpt><trkpt lat="44.6060054" lon="8.0800751"><ele>695.75</ele><time>2026-04-18T16:18:43.962Z</time></trkpt><trkpt lat="44.6058489" lon="8.0800307"><ele>694.0</ele><time>2026-04-18T16:18:44.966Z</time></trkpt><trkpt lat="44.6056829" lon="8.0800012"><ele>694.0</ele><time>2026-04-18T16:18:45.964Z</time></trkpt><trkpt lat="44.6055192" lon="8.0799978"><ele>694.0</ele><time>2026-04-18T16:18:46.975Z</time></trkpt><trkpt lat="44.6053599" lon="8.0800098"><ele>694.0</ele><time>2026-04-18T16:18:47.964Z</time></trkpt><trkpt lat="44.6051992" lon="8.0800616"><ele>697.3333333333334</ele><time>2026-04-18T16:18:48.967Z</time></trkpt><trkpt lat="44.6050497" lon="8.0801558"><ele>700.6666666666666</ele><time>2026-04-18T16:18:49.962Z</time></trkpt><trkpt lat="44.6049114" lon="8.0802628"><ele>704.0</ele><time>2026-04-18T16:18:50.963Z</time></trkpt><trkpt lat="44.6047943" lon="8.0803731"><ele>704.0</ele><time>2026-04-18T16:18:51.967Z</time></trkpt><trkpt lat="44.6046968" lon="8.0804872"><ele>704.0</ele><time>2026-04-18T16:18:52.967Z</time></trkpt><trkpt lat="44.6045979" lon="8.0805634"><ele>704.0</ele><time>2026-04-18T16:18:53.966Z</time></trkpt><trkpt lat="44.6045026" lon="8.0806241"><ele>704.0</ele><time>2026-04-18T16:18:54.969Z</time></trkpt><trkpt lat="44.6043902" lon="8.0805937"><ele>705.25</ele><time>2026-04-18T16:18:55.956Z</time></trkpt><trkpt lat="44.6042784" lon="8.0805292"><ele>706.5</ele><time>2026-04-18T16:18:56.973Z</time></trkpt><trkpt lat="44.6041624" lon="8.0804422"><ele>707.75</ele><time>2026-04-18T16:18:57.972Z</time></trkpt><trkpt lat="44.6040327" lon="8.0803412"><ele>709.0</ele><time>2026-04-18T16:18:58.968Z</time></trkpt><trkpt lat="44.6038902" lon="8.0802847"><ele>709.0</ele><time>2026-04-18T16:18:59.974Z</time></trkpt><trkpt lat="44.6037447" lon="8.0802604"><ele>709.0</ele><time>2026-04-18T16:19:00.967Z</time></trkpt><trkpt lat="44.603609" lon="8.0802712"><ele>709.0</ele><time>2026-04-18T16:19:01.965Z</time></trkpt><trkpt lat="44.6034898" lon="8.0802763"><ele>709.0</ele><time>2026-04-18T16:19:02.965Z</time></trkpt><trkpt lat="44.6033858" lon="8.0802677"><ele>708.0</ele><time>2026-04-18T16:19:03.97Z</time></trkpt><trkpt lat="44.603315" lon="8.0802472"><ele>707.0</ele><time>2026-04-18T16:19:04.965Z</time></trkpt><trkpt lat="44.6032542" lon="8.0802158"><ele>706.0</ele><time>2026-04-18T16:19:05.963Z</time></trkpt><trkpt lat="44.6031978" lon="8.0801586"><ele>705.0</ele><time>2026-04-18T16:19:07.969Z</time></trkpt><trkpt lat="44.6031222" lon="8.0801228"><ele>704.0</ele><time>2026-04-18T16:19:09.962Z</time></trkpt><trkpt lat="44.602989" lon="8.0801594"><ele>703.0</ele><time>2026-04-18T16:19:11.965Z</time></trkpt><trkpt lat="44.6029081" lon="8.0801898"><ele>701.4</ele><time>2026-04-18T16:19:12.964Z</time></trkpt><trkpt lat="44.6028219" lon="8.0802221"><ele>699.8</ele><time>2026-04-18T16:19:13.965Z</time></trkpt><trkpt lat="44.6027277" lon="8.0802582"><ele>698.2</ele><time>2026-04-18T16:19:14.964Z</time></trkpt><trkpt lat="44.6026195" lon="8.080316"><ele>696.6</ele><time>2026-04-18T16:19:15.974Z</time></trkpt><trkpt lat="44.6025034" lon="8.0804004"><ele>695.0</ele><time>2026-04-18T16:19:16.968Z</time></trkpt><trkpt lat="44.6023875" lon="8.0805223"><ele>695.0</ele><time>2026-04-18T16:19:17.963Z</time></trkpt><trkpt lat="44.6022831" lon="8.0806688"><ele>695.0</ele><time>2026-04-18T16:19:18.965Z</time></trkpt><trkpt lat="44.6021833" lon="8.080844"><ele>695.0</ele><time>2026-04-18T16:19:19.961Z</time></trkpt><trkpt lat="44.6020806" lon="8.0810337"><ele>693.0</ele><time>2026-04-18T16:19:20.966Z</time></trkpt><trkpt lat="44.6019738" lon="8.0812345"><ele>691.0</ele><time>2026-04-18T16:19:21.961Z</time></trkpt><trkpt lat="44.6018669" lon="8.0814441"><ele>689.0</ele><time>2026-04-18T16:19:22.965Z</time></trkpt><trkpt lat="44.6017552" lon="8.0816512"><ele>693.6666666666666</ele><time>2026-04-18T16:19:23.973Z</time></trkpt><trkpt lat="44.6016308" lon="8.0818449"><ele>698.3333333333334</ele><time>2026-04-18T16:19:24.959Z</time></trkpt><trkpt lat="44.60149" lon="8.0820168"><ele>703.0</ele><time>2026-04-18T16:19:25.959Z</time></trkpt><trkpt lat="44.6013336" lon="8.0821837"><ele>704.0</ele><time>2026-04-18T16:19:26.962Z</time></trkpt><trkpt lat="44.6011653" lon="8.0823274"><ele>705.0</ele><time>2026-04-18T16:19:27.965Z</time></trkpt><trkpt lat="44.6009964" lon="8.0824747"><ele>706.0</ele><time>2026-04-18T16:19:28.968Z</time></trkpt><trkpt lat="44.6008263" lon="8.082623"><ele>706.0</ele><time>2026-04-18T16:19:29.958Z</time></trkpt><trkpt lat="44.6006649" lon="8.0827634"><ele>706.0</ele><time>2026-04-18T16:19:30.972Z</time></trkpt><trkpt lat="44.6005004" lon="8.082899"><ele>706.0</ele><time>2026-04-18T16:19:31.963Z</time></trkpt><trkpt lat="44.60033" lon="8.0829973"><ele>703.0</ele><time>2026-04-18T16:19:32.972Z</time></trkpt><trkpt lat="44.6001558" lon="8.083069"><ele>700.0</ele><time>2026-04-18T16:19:33.973Z</time></trkpt><trkpt lat="44.5999704" lon="8.083119"><ele>697.0</ele><time>2026-04-18T16:19:34.973Z</time></trkpt><trkpt lat="44.5996523" lon="8.0831975"><ele>713.0</ele><time>2026-04-18T16:19:37.183Z</time></trkpt><trkpt lat="44.5991818" lon="8.0833106"><ele>713.0</ele><time>2026-04-18T16:19:39.92Z</time></trkpt><trkpt lat="44.5989608" lon="8.083356"><ele>713.0</ele><time>2026-04-18T16:19:40.962Z</time></trkpt><trkpt lat="44.5988388" lon="8.0833771"><ele>713.0</ele><time>2026-04-18T16:19:41.964Z</time></trkpt><trkpt lat="44.5987281" lon="8.0834009"><ele>712.75</ele><time>2026-04-18T16:19:42.969Z</time></trkpt><trkpt lat="44.5986171" lon="8.0834276"><ele>712.5</ele><time>2026-04-18T16:19:43.964Z</time></trkpt><trkpt lat="44.5985007" lon="8.0834412"><ele>712.25</ele><time>2026-04-18T16:19:44.97Z</time></trkpt><trkpt lat="44.5983904" lon="8.0834643"><ele>712.0</ele><time>2026-04-18T16:19:45.967Z</time></trkpt><trkpt lat="44.5982813" lon="8.0834809"><ele>712.0</ele><time>2026-04-18T16:19:46.974Z</time></trkpt><trkpt lat="44.5981906" lon="8.0835024"><ele>712.0</ele><time>2026-04-18T16:19:47.971Z</time></trkpt><trkpt lat="44.5981134" lon="8.0835168"><ele>712.0</ele><time>2026-04-18T16:19:48.973Z</time></trkpt><trkpt lat="44.5980297" lon="8.0835339"><ele>712.0</ele><time>2026-04-18T16:19:50.972Z</time></trkpt><trkpt lat="44.5979373" lon="8.0835557"><ele>712.0</ele><time>2026-04-18T16:19:58.964Z</time></trkpt><trkpt lat="44.5978375" lon="8.0835783"><ele>712.0</ele><time>2026-04-18T16:20:00.975Z</time></trkpt><trkpt lat="44.5977195" lon="8.0835588"><ele>711.9999999999999</ele><time>2026-04-18T16:20:02.965Z</time></trkpt><trkpt lat="44.5976468" lon="8.0835507"><ele>712.0</ele><time>2026-04-18T16:20:03.964Z</time></trkpt><trkpt lat="44.5975719" lon="8.083544"><ele>712.0</ele><time>2026-04-18T16:20:04.969Z</time></trkpt><trkpt lat="44.5974941" lon="8.0835233"><ele>712.0</ele><time>2026-04-18T16:20:05.963Z</time></trkpt><trkpt lat="44.5974226" lon="8.0834976"><ele>712.0</ele><time>2026-04-18T16:20:06.974Z</time></trkpt><trkpt lat="44.5973528" lon="8.0834713"><ele>711.9999999999999</ele><time>2026-04-18T16:20:07.969Z</time></trkpt><trkpt lat="44.5972841" lon="8.0834456"><ele>712.0</ele><time>2026-04-18T16:20:08.969Z</time></trkpt><trkpt lat="44.5972143" lon="8.0834143"><ele>712.0</ele><time>2026-04-18T16:20:09.963Z</time></trkpt><trkpt lat="44.5971444" lon="8.0833847"><ele>712.0</ele><time>2026-04-18T16:20:10.974Z</time></trkpt><trkpt lat="44.5970737" lon="8.0833498"><ele>712.0</ele><time>2026-04-18T16:20:11.975Z</time></trkpt><trkpt lat="44.5969988" lon="8.0833143"><ele>712.0</ele><time>2026-04-18T16:20:12.968Z</time></trkpt><trkpt lat="44.5969202" lon="8.0832806"><ele>712.0</ele><time>2026-04-18T16:20:13.963Z</time></trkpt><trkpt lat="44.5968354" lon="8.0832338"><ele>712.0</ele><time>2026-04-18T16:20:14.971Z</time></trkpt><trkpt lat="44.5967475" lon="8.0831935"><ele>711.0</ele><time>2026-04-18T16:20:15.965Z</time></trkpt><trkpt lat="44.5966569" lon="8.083154"><ele>710.0</ele><time>2026-04-18T16:20:16.966Z</time></trkpt><trkpt lat="44.5965695" lon="8.0831109"><ele>709.0</ele><time>2026-04-18T16:20:17.962Z</time></trkpt><trkpt lat="44.5964636" lon="8.083058"><ele>708.0</ele><time>2026-04-18T16:20:18.974Z</time></trkpt><trkpt lat="44.5963599" lon="8.0830059"><ele>707.0</ele><time>2026-04-18T16:20:19.98Z</time></trkpt><trkpt lat="44.5962544" lon="8.082952"><ele>707.25</ele><time>2026-04-18T16:20:20.955Z</time></trkpt><trkpt lat="44.5961472" lon="8.0828968"><ele>707.5</ele><time>2026-04-18T16:20:21.961Z</time></trkpt><trkpt lat="44.5960393" lon="8.0828338"><ele>707.75</ele><time>2026-04-18T16:20:22.966Z</time></trkpt><trkpt lat="44.5959287" lon="8.0827807"><ele>708.0</ele><time>2026-04-18T16:20:23.967Z</time></trkpt><trkpt lat="44.5958255" lon="8.0827313"><ele>708.0</ele><time>2026-04-18T16:20:24.965Z</time></trkpt><trkpt lat="44.5957273" lon="8.0826853"><ele>708.0</ele><time>2026-04-18T16:20:25.967Z</time></trkpt><trkpt lat="44.5956296" lon="8.0826341"><ele>708.0</ele><time>2026-04-18T16:20:26.974Z</time></trkpt><trkpt lat="44.595541" lon="8.0825854"><ele>708.0</ele><time>2026-04-18T16:20:27.974Z</time></trkpt><trkpt lat="44.595454" lon="8.0825359"><ele>708.0</ele><time>2026-04-18T16:20:28.969Z</time></trkpt><trkpt lat="44.5953785" lon="8.0824872"><ele>706.2</ele><time>2026-04-18T16:20:29.965Z</time></trkpt><trkpt lat="44.5953041" lon="8.0824249"><ele>704.4</ele><time>2026-04-18T16:20:30.976Z</time></trkpt><trkpt lat="44.5952263" lon="8.0823566"><ele>702.6</ele><time>2026-04-18T16:20:31.968Z</time></trkpt><trkpt lat="44.5951394" lon="8.08229"><ele>700.8000000000001</ele><time>2026-04-18T16:20:32.967Z</time></trkpt><trkpt lat="44.5950474" lon="8.0822126"><ele>699.0</ele><time>2026-04-18T16:20:33.966Z</time></trkpt><trkpt lat="44.5949528" lon="8.0821305"><ele>699.0</ele><time>2026-04-18T16:20:34.974Z</time></trkpt><trkpt lat="44.5948572" lon="8.0820442"><ele>699.0</ele><time>2026-04-18T16:20:35.975Z</time></trkpt><trkpt lat="44.5947624" lon="8.0819574"><ele>699.0</ele><time>2026-04-18T16:20:36.97Z</time></trkpt><trkpt lat="44.5946706" lon="8.0818695"><ele>699.0</ele><time>2026-04-18T16:20:37.965Z</time></trkpt><trkpt lat="44.5945775" lon="8.0817761"><ele>699.0</ele><time>2026-04-18T16:20:38.974Z</time></trkpt><trkpt lat="44.5944821" lon="8.0816779"><ele>699.0</ele><time>2026-04-18T16:20:39.968Z</time></trkpt><trkpt lat="44.5943855" lon="8.0815823"><ele>699.0</ele><time>2026-04-18T16:20:40.973Z</time></trkpt><trkpt lat="44.5942886" lon="8.0814857"><ele>699.0</ele><time>2026-04-18T16:20:41.974Z</time></trkpt><trkpt lat="44.5941934" lon="8.0813922"><ele>699.0</ele><time>2026-04-18T16:20:42.974Z</time></trkpt><trkpt lat="44.5941018" lon="8.0813018"><ele>699.0</ele><time>2026-04-18T16:20:43.975Z</time></trkpt><trkpt lat="44.5940109" lon="8.0812197"><ele>699.0</ele><time>2026-04-18T16:20:44.967Z</time></trkpt><trkpt lat="44.593927" lon="8.0811336"><ele>699.0</ele><time>2026-04-18T16:20:45.967Z</time></trkpt><trkpt lat="44.5938461" lon="8.0810545"><ele>699.0</ele><time>2026-04-18T16:20:46.971Z</time></trkpt><trkpt lat="44.5937625" lon="8.0809763"><ele>699.0</ele><time>2026-04-18T16:20:47.967Z</time></trkpt><trkpt lat="44.5936782" lon="8.0809008"><ele>699.0</ele><time>2026-04-18T16:20:48.965Z</time></trkpt><trkpt lat="44.5935947" lon="8.0808238"><ele>699.0</ele><time>2026-04-18T16:20:49.968Z</time></trkpt><trkpt lat="44.5935062" lon="8.0807446"><ele>699.0</ele><time>2026-04-18T16:20:50.97Z</time></trkpt><trkpt lat="44.5934163" lon="8.0806589"><ele>699.0</ele><time>2026-04-18T16:20:51.972Z</time></trkpt><trkpt lat="44.5933193" lon="8.0805681"><ele>698.25</ele><time>2026-04-18T16:20:52.967Z</time></trkpt><trkpt lat="44.5932189" lon="8.0804743"><ele>697.5</ele><time>2026-04-18T16:20:53.965Z</time></trkpt><trkpt lat="44.5931137" lon="8.0803665"><ele>696.75</ele><time>2026-04-18T16:20:54.965Z</time></trkpt><trkpt lat="44.5930001" lon="8.0802542"><ele>696.0</ele><time>2026-04-18T16:20:55.969Z</time></trkpt><trkpt lat="44.5928732" lon="8.0801356"><ele>696.6666666666666</ele><time>2026-04-18T16:20:56.973Z</time></trkpt><trkpt lat="44.592745" lon="8.0800159"><ele>697.3333333333333</ele><time>2026-04-18T16:20:57.969Z</time></trkpt><trkpt lat="44.5926151" lon="8.0798877"><ele>698.0</ele><time>2026-04-18T16:20:58.974Z</time></trkpt><trkpt lat="44.5924881" lon="8.0797612"><ele>693.6666666666666</ele><time>2026-04-18T16:20:59.974Z</time></trkpt><trkpt lat="44.5923554" lon="8.0796308"><ele>689.3333333333334</ele><time>2026-04-18T16:21:00.966Z</time></trkpt><trkpt lat="44.5922217" lon="8.0795021"><ele>685.0</ele><time>2026-04-18T16:21:01.964Z</time></trkpt><trkpt lat="44.5920912" lon="8.0793816"><ele>685.25</ele><time>2026-04-18T16:21:02.973Z</time></trkpt><trkpt lat="44.5919637" lon="8.0792684"><ele>685.5</ele><time>2026-04-18T16:21:03.964Z</time></trkpt><trkpt lat="44.5918386" lon="8.0791698"><ele>685.75</ele><time>2026-04-18T16:21:04.971Z</time></trkpt><trkpt lat="44.5917129" lon="8.0790824"><ele>686.0</ele><time>2026-04-18T16:21:05.976Z</time></trkpt><trkpt lat="44.5915842" lon="8.0790077"><ele>686.0</ele><time>2026-04-18T16:21:06.972Z</time></trkpt><trkpt lat="44.5914555" lon="8.0789341"><ele>686.0</ele><time>2026-04-18T16:21:07.976Z</time></trkpt><trkpt lat="44.5913262" lon="8.078862"><ele>686.0</ele><time>2026-04-18T16:21:08.964Z</time></trkpt><trkpt lat="44.5912008" lon="8.0787858"><ele>686.0</ele><time>2026-04-18T16:21:09.965Z</time></trkpt><trkpt lat="44.5910873" lon="8.0786991"><ele>687.0</ele><time>2026-04-18T16:21:10.964Z</time></trkpt><trkpt lat="44.5909917" lon="8.0785967"><ele>688.0</ele><time>2026-04-18T16:21:11.967Z</time></trkpt><trkpt lat="44.5909146" lon="8.0784778"><ele>689.0</ele><time>2026-04-18T16:21:12.964Z</time></trkpt><trkpt lat="44.5908653" lon="8.0783421"><ele>690.0</ele><time>2026-04-18T16:21:13.974Z</time></trkpt><trkpt lat="44.5908329" lon="8.0781938"><ele>690.0</ele><time>2026-04-18T16:21:14.977Z</time></trkpt><trkpt lat="44.59082" lon="8.0780465"><ele>690.0</ele><time>2026-04-18T16:21:15.975Z</time></trkpt><trkpt lat="44.5908247" lon="8.0778915"><ele>690.0</ele><time>2026-04-18T16:21:16.961Z</time></trkpt><trkpt lat="44.5908311" lon="8.0777396"><ele>690.0</ele><time>2026-04-18T16:21:17.971Z</time></trkpt><trkpt lat="44.5908375" lon="8.0775719"><ele>690.0</ele><time>2026-04-18T16:21:18.974Z</time></trkpt><trkpt lat="44.590826" lon="8.0774011"><ele>689.75</ele><time>2026-04-18T16:21:19.967Z</time></trkpt><trkpt lat="44.5908051" lon="8.0772239"><ele>689.5</ele><time>2026-04-18T16:21:20.975Z</time></trkpt><trkpt lat="44.5907654" lon="8.077047"><ele>689.25</ele><time>2026-04-18T16:21:21.971Z</time></trkpt><trkpt lat="44.5907028" lon="8.076876"><ele>689.0</ele><time>2026-04-18T16:21:22.976Z</time></trkpt><trkpt lat="44.5906238" lon="8.0767268"><ele>689.0</ele><time>2026-04-18T16:21:23.971Z</time></trkpt><trkpt lat="44.5905334" lon="8.0766059"><ele>689.0</ele><time>2026-04-18T16:21:24.97Z</time></trkpt><trkpt lat="44.5904331" lon="8.076513"><ele>689.0</ele><time>2026-04-18T16:21:25.965Z</time></trkpt><trkpt lat="44.5903265" lon="8.0764485"><ele>689.0</ele><time>2026-04-18T16:21:26.965Z</time></trkpt><trkpt lat="44.5902125" lon="8.0764123"><ele>694.0</ele><time>2026-04-18T16:21:27.969Z</time></trkpt><trkpt lat="44.5900927" lon="8.076403"><ele>699.0</ele><time>2026-04-18T16:21:28.972Z</time></trkpt><trkpt lat="44.5899703" lon="8.0764036"><ele>704.0</ele><time>2026-04-18T16:21:29.968Z</time></trkpt><trkpt lat="44.5898465" lon="8.0764054"><ele>709.0</ele><time>2026-04-18T16:21:30.976Z</time></trkpt><trkpt lat="44.5897195" lon="8.076413"><ele>709.0</ele><time>2026-04-18T16:21:31.983Z</time></trkpt><trkpt lat="44.5895926" lon="8.0764031"><ele>709.0</ele><time>2026-04-18T16:21:32.967Z</time></trkpt><trkpt lat="44.5894668" lon="8.076372"><ele>709.0</ele><time>2026-04-18T16:21:33.967Z</time></trkpt><trkpt lat="44.5893395" lon="8.0763376"><ele>709.0</ele><time>2026-04-18T16:21:34.965Z</time></trkpt><trkpt lat="44.589223" lon="8.0762867"><ele>706.5</ele><time>2026-04-18T16:21:35.969Z</time></trkpt><trkpt lat="44.5891097" lon="8.0762072"><ele>704.0</ele><time>2026-04-18T16:21:36.966Z</time></trkpt><trkpt lat="44.5890147" lon="8.0761021"><ele>701.5</ele><time>2026-04-18T16:21:37.972Z</time></trkpt><trkpt lat="44.5889402" lon="8.0759692"><ele>699.0</ele><time>2026-04-18T16:21:38.972Z</time></trkpt><trkpt lat="44.588874" lon="8.075819"><ele>701.5</ele><time>2026-04-18T16:21:39.974Z</time></trkpt><trkpt lat="44.5888107" lon="8.0756673"><ele>704.0</ele><time>2026-04-18T16:21:40.968Z</time></trkpt><trkpt lat="44.5887526" lon="8.0755212"><ele>706.5</ele><time>2026-04-18T16:21:41.96Z</time></trkpt><trkpt lat="44.5886938" lon="8.0753792"><ele>709.0</ele><time>2026-04-18T16:21:42.972Z</time></trkpt><trkpt lat="44.5886326" lon="8.0752423"><ele>706.0</ele><time>2026-04-18T16:21:43.967Z</time></trkpt><trkpt lat="44.5885576" lon="8.0751125"><ele>703.0</ele><time>2026-04-18T16:21:44.966Z</time></trkpt><trkpt lat="44.5884652" lon="8.0750171"><ele>700.0</ele><time>2026-04-18T16:21:45.969Z</time></trkpt><trkpt lat="44.5883537" lon="8.0749544"><ele>697.0</ele><time>2026-04-18T16:21:46.972Z</time></trkpt><trkpt lat="44.5882386" lon="8.0749202"><ele>697.0</ele><time>2026-04-18T16:21:47.977Z</time></trkpt><trkpt lat="44.5881282" lon="8.0749106"><ele>697.0</ele><time>2026-04-18T16:21:48.969Z</time></trkpt><trkpt lat="44.5880239" lon="8.0749047"><ele>697.0</ele><time>2026-04-18T16:21:49.962Z</time></trkpt><trkpt lat="44.5879287" lon="8.0749036"><ele>697.0</ele><time>2026-04-18T16:21:50.976Z</time></trkpt><trkpt lat="44.5878465" lon="8.0748993"><ele>697.0</ele><time>2026-04-18T16:21:51.965Z</time></trkpt><trkpt lat="44.5877665" lon="8.0748803"><ele>694.4000000000001</ele><time>2026-04-18T16:21:52.966Z</time></trkpt><trkpt lat="44.5876887" lon="8.0748833"><ele>691.8000000000001</ele><time>2026-04-18T16:21:53.973Z</time></trkpt><trkpt lat="44.5876039" lon="8.0749094"><ele>689.2</ele><time>2026-04-18T16:21:54.966Z</time></trkpt><trkpt lat="44.5875099" lon="8.0749351"><ele>686.6</ele><time>2026-04-18T16:21:55.974Z</time></trkpt><trkpt lat="44.5874103" lon="8.0749488"><ele>684.0</ele><time>2026-04-18T16:21:56.966Z</time></trkpt><trkpt lat="44.5872835" lon="8.07494"><ele>682.75</ele><time>2026-04-18T16:21:57.961Z</time></trkpt><trkpt lat="44.5871574" lon="8.0749273"><ele>681.5</ele><time>2026-04-18T16:21:58.963Z</time></trkpt><trkpt lat="44.5870257" lon="8.0749023"><ele>680.25</ele><time>2026-04-18T16:21:59.966Z</time></trkpt><trkpt lat="44.5868898" lon="8.0748627"><ele>679.0</ele><time>2026-04-18T16:22:00.969Z</time></trkpt><trkpt lat="44.586746" lon="8.0748229"><ele>677.0</ele><time>2026-04-18T16:22:01.976Z</time></trkpt><trkpt lat="44.586602" lon="8.07478"><ele>675.0</ele><time>2026-04-18T16:22:02.972Z</time></trkpt><trkpt lat="44.5864528" lon="8.074735"><ele>673.0</ele><time>2026-04-18T16:22:03.971Z</time></trkpt><trkpt lat="44.5863038" lon="8.0746862"><ele>673.0</ele><time>2026-04-18T16:22:04.964Z</time></trkpt><trkpt lat="44.586157" lon="8.074644"><ele>673.0</ele><time>2026-04-18T16:22:05.961Z</time></trkpt><trkpt lat="44.5860251" lon="8.0746071"><ele>673.0</ele><time>2026-04-18T16:22:07.33Z</time></trkpt><trkpt lat="44.5856709" lon="8.0745329"><ele>673.0</ele><time>2026-04-18T16:22:09.89Z</time></trkpt><trkpt lat="44.5854583" lon="8.0745222"><ele>673.0</ele><time>2026-04-18T16:22:10.955Z</time></trkpt><trkpt lat="44.585316" lon="8.0745467"><ele>673.0</ele><time>2026-04-18T16:22:11.969Z</time></trkpt><trkpt lat="44.5851759" lon="8.0746005"><ele>673.0</ele><time>2026-04-18T16:22:12.967Z</time></trkpt><trkpt lat="44.585038" lon="8.0746651"><ele>673.0</ele><time>2026-04-18T16:22:13.961Z</time></trkpt><trkpt lat="44.5848973" lon="8.074734"><ele>673.0</ele><time>2026-04-18T16:22:14.977Z</time></trkpt><trkpt lat="44.5847642" lon="8.0748043"><ele>673.0</ele><time>2026-04-18T16:22:15.966Z</time></trkpt><trkpt lat="44.5846322" lon="8.0748713"><ele>676.0</ele><time>2026-04-18T16:22:16.966Z</time></trkpt><trkpt lat="44.5845056" lon="8.0749396"><ele>679.0</ele><time>2026-04-18T16:22:17.966Z</time></trkpt><trkpt lat="44.5843453" lon="8.0750336"><ele>682.0</ele><time>2026-04-18T16:22:19.772Z</time></trkpt><trkpt lat="44.584092" lon="8.0751465"><ele>682.0</ele><time>2026-04-18T16:22:21.911Z</time></trkpt><trkpt lat="44.583872" lon="8.07513"><ele>682.0</ele><time>2026-04-18T16:22:22.969Z</time></trkpt><trkpt lat="44.5837351" lon="8.0751001"><ele>682.0</ele><time>2026-04-18T16:22:23.964Z</time></trkpt><trkpt lat="44.5836004" lon="8.0750366"><ele>681.5</ele><time>2026-04-18T16:22:24.972Z</time></trkpt><trkpt lat="44.5834713" lon="8.0749832"><ele>681.0</ele><time>2026-04-18T16:22:25.976Z</time></trkpt><trkpt lat="44.5833352" lon="8.074914"><ele>680.5</ele><time>2026-04-18T16:22:26.971Z</time></trkpt><trkpt lat="44.5831945" lon="8.0748369"><ele>680.0</ele><time>2026-04-18T16:22:27.97Z</time></trkpt><trkpt lat="44.5830501" lon="8.0747562"><ele>680.0</ele><time>2026-04-18T16:22:28.964Z</time></trkpt><trkpt lat="44.5829088" lon="8.0746748"><ele>680.0</ele><time>2026-04-18T16:22:29.957Z</time></trkpt><trkpt lat="44.5827616" lon="8.0745954"><ele>680.0</ele><time>2026-04-18T16:22:30.972Z</time></trkpt><trkpt lat="44.5826117" lon="8.0745074"><ele>681.3333333333333</ele><time>2026-04-18T16:22:31.965Z</time></trkpt><trkpt lat="44.5824695" lon="8.074433"><ele>682.6666666666666</ele><time>2026-04-18T16:22:32.963Z</time></trkpt><trkpt lat="44.5823197" lon="8.0743709"><ele>684.0</ele><time>2026-04-18T16:22:33.965Z</time></trkpt><trkpt lat="44.5821607" lon="8.0743285"><ele>686.0</ele><time>2026-04-18T16:22:34.97Z</time></trkpt><trkpt lat="44.5819973" lon="8.0743059"><ele>688.0</ele><time>2026-04-18T16:22:35.969Z</time></trkpt><trkpt lat="44.5818291" lon="8.0743135"><ele>690.0</ele><time>2026-04-18T16:22:36.965Z</time></trkpt><trkpt lat="44.581658" lon="8.0743507"><ele>690.0</ele><time>2026-04-18T16:22:37.961Z</time></trkpt><trkpt lat="44.5814804" lon="8.0744116"><ele>690.0</ele><time>2026-04-18T16:22:38.965Z</time></trkpt><trkpt lat="44.5813085" lon="8.0744853"><ele>690.0</ele><time>2026-04-18T16:22:39.966Z</time></trkpt><trkpt lat="44.5811482" lon="8.0745566"><ele>690.3333333333334</ele><time>2026-04-18T16:22:40.964Z</time></trkpt><trkpt lat="44.5810009" lon="8.0746255"><ele>690.6666666666667</ele><time>2026-04-18T16:22:41.966Z</time></trkpt><trkpt lat="44.5808556" lon="8.0746909"><ele>691.0</ele><time>2026-04-18T16:22:42.972Z</time></trkpt><trkpt lat="44.5807137" lon="8.0747536"><ele>691.0</ele><time>2026-04-18T16:22:43.973Z</time></trkpt><trkpt lat="44.5805685" lon="8.0748139"><ele>691.0</ele><time>2026-04-18T16:22:44.964Z</time></trkpt><trkpt lat="44.5804217" lon="8.0748631"><ele>691.0</ele><time>2026-04-18T16:22:45.961Z</time></trkpt><trkpt lat="44.5802758" lon="8.0748902"><ele>691.0</ele><time>2026-04-18T16:22:46.972Z</time></trkpt><trkpt lat="44.580132" lon="8.0748832"><ele>692.5</ele><time>2026-04-18T16:22:47.962Z</time></trkpt><trkpt lat="44.5799941" lon="8.0748387"><ele>694.0</ele><time>2026-04-18T16:22:48.964Z</time></trkpt><trkpt lat="44.5798543" lon="8.0747667"><ele>695.5</ele><time>2026-04-18T16:22:49.965Z</time></trkpt><trkpt lat="44.5797152" lon="8.0746585"><ele>697.0</ele><time>2026-04-18T16:22:50.966Z</time></trkpt><trkpt lat="44.5795727" lon="8.0745248"><ele>697.6666666666667</ele><time>2026-04-18T16:22:51.973Z</time></trkpt><trkpt lat="44.5794144" lon="8.0743878"><ele>698.3333333333334</ele><time>2026-04-18T16:22:52.964Z</time></trkpt><trkpt lat="44.5792462" lon="8.0742442"><ele>699.0</ele><time>2026-04-18T16:22:53.961Z</time></trkpt><trkpt lat="44.5790918" lon="8.0740865"><ele>699.0</ele><time>2026-04-18T16:22:54.961Z</time></trkpt><trkpt lat="44.5789356" lon="8.0739362"><ele>699.0</ele><time>2026-04-18T16:22:55.968Z</time></trkpt><trkpt lat="44.5787763" lon="8.0738023"><ele>699.0</ele><time>2026-04-18T16:22:56.964Z</time></trkpt><trkpt lat="44.5786223" lon="8.0736686"><ele>702.0</ele><time>2026-04-18T16:22:57.961Z</time></trkpt><trkpt lat="44.5784781" lon="8.0735385"><ele>705.0</ele><time>2026-04-18T16:22:58.961Z</time></trkpt><trkpt lat="44.5783438" lon="8.0734076"><ele>708.0</ele><time>2026-04-18T16:22:59.962Z</time></trkpt><trkpt lat="44.578224" lon="8.0732708"><ele>708.0</ele><time>2026-04-18T16:23:00.964Z</time></trkpt><trkpt lat="44.5781185" lon="8.0731258"><ele>708.0</ele><time>2026-04-18T16:23:01.96Z</time></trkpt><trkpt lat="44.5780196" lon="8.0729909"><ele>708.0</ele><time>2026-04-18T16:23:02.969Z</time></trkpt><trkpt lat="44.5779228" lon="8.0728576"><ele>708.0</ele><time>2026-04-18T16:23:03.964Z</time></trkpt><trkpt lat="44.5778298" lon="8.0727264"><ele>710.5</ele><time>2026-04-18T16:23:04.97Z</time></trkpt><trkpt lat="44.5777402" lon="8.0726024"><ele>713.0</ele><time>2026-04-18T16:23:05.968Z</time></trkpt><trkpt lat="44.5776504" lon="8.0724797"><ele>715.5</ele><time>2026-04-18T16:23:06.971Z</time></trkpt><trkpt lat="44.577563" lon="8.0723608"><ele>718.0</ele><time>2026-04-18T16:23:07.969Z</time></trkpt><trkpt lat="44.5774716" lon="8.0722499"><ele>718.0</ele><time>2026-04-18T16:23:08.966Z</time></trkpt><trkpt lat="44.5773831" lon="8.0721408"><ele>718.0</ele><time>2026-04-18T16:23:09.967Z</time></trkpt><trkpt lat="44.5772898" lon="8.0720447"><ele>718.0</ele><time>2026-04-18T16:23:10.973Z</time></trkpt><trkpt lat="44.5771954" lon="8.0719525"><ele>718.0</ele><time>2026-04-18T16:23:11.971Z</time></trkpt><trkpt lat="44.5770976" lon="8.0718641"><ele>718.75</ele><time>2026-04-18T16:23:12.963Z</time></trkpt><trkpt lat="44.5769958" lon="8.0717748"><ele>719.5</ele><time>2026-04-18T16:23:13.962Z</time></trkpt><trkpt lat="44.5768964" lon="8.0716862"><ele>720.25</ele><time>2026-04-18T16:23:14.962Z</time></trkpt><trkpt lat="44.5767981" lon="8.0715927"><ele>721.0</ele><time>2026-04-18T16:23:15.971Z</time></trkpt><trkpt lat="44.5766974" lon="8.0714919"><ele>721.0</ele><time>2026-04-18T16:23:16.962Z</time></trkpt><trkpt lat="44.5765891" lon="8.0713944"><ele>721.0</ele><time>2026-04-18T16:23:17.962Z</time></trkpt><trkpt lat="44.5764768" lon="8.071298"><ele>721.0</ele><time>2026-04-18T16:23:18.972Z</time></trkpt><trkpt lat="44.5763625" lon="8.0712058"><ele>721.0</ele><time>2026-04-18T16:23:19.971Z</time></trkpt><trkpt lat="44.5762538" lon="8.0711076"><ele>722.0</ele><time>2026-04-18T16:23:20.961Z</time></trkpt><trkpt lat="44.5761447" lon="8.0710079"><ele>723.0</ele><time>2026-04-18T16:23:21.967Z</time></trkpt><trkpt lat="44.5760379" lon="8.0709046"><ele>724.0</ele><time>2026-04-18T16:23:22.961Z</time></trkpt><trkpt lat="44.5759289" lon="8.0708059"><ele>725.0</ele><time>2026-04-18T16:23:23.971Z</time></trkpt><trkpt lat="44.5758217" lon="8.0707087"><ele>725.5</ele><time>2026-04-18T16:23:24.964Z</time></trkpt><trkpt lat="44.5757107" lon="8.0706097"><ele>726.0</ele><time>2026-04-18T16:23:25.964Z</time></trkpt><trkpt lat="44.5755982" lon="8.0705028"><ele>726.5</ele><time>2026-04-18T16:23:26.97Z</time></trkpt><trkpt lat="44.5754798" lon="8.0704"><ele>727.0</ele><time>2026-04-18T16:23:27.97Z</time></trkpt><trkpt lat="44.5753605" lon="8.0702963"><ele>728.0</ele><time>2026-04-18T16:23:28.961Z</time></trkpt><trkpt lat="44.5752532" lon="8.0701836"><ele>729.0</ele><time>2026-04-18T16:23:29.966Z</time></trkpt><trkpt lat="44.5751631" lon="8.0700555"><ele>730.0</ele><time>2026-04-18T16:23:30.97Z</time></trkpt><trkpt lat="44.5750826" lon="8.0699131"><ele>731.0</ele><time>2026-04-18T16:23:31.968Z</time></trkpt><trkpt lat="44.5750116" lon="8.0697584"><ele>731.0</ele><time>2026-04-18T16:23:32.963Z</time></trkpt><trkpt lat="44.5749494" lon="8.0695817"><ele>731.0</ele><time>2026-04-18T16:23:33.959Z</time></trkpt><trkpt lat="44.5748973" lon="8.0693959"><ele>731.0</ele><time>2026-04-18T16:23:34.971Z</time></trkpt><trkpt lat="44.5748503" lon="8.0692102"><ele>731.0</ele><time>2026-04-18T16:23:35.962Z</time></trkpt><trkpt lat="44.5747834" lon="8.0690425"><ele>732.0</ele><time>2026-04-18T16:23:36.971Z</time></trkpt><trkpt lat="44.5746954" lon="8.0688861"><ele>733.0</ele><time>2026-04-18T16:23:37.973Z</time></trkpt><trkpt lat="44.5745944" lon="8.068757"><ele>734.0</ele><time>2026-04-18T16:23:38.969Z</time></trkpt><trkpt lat="44.5744745" lon="8.0686473"><ele>735.0</ele><time>2026-04-18T16:23:39.965Z</time></trkpt><trkpt lat="44.5743495" lon="8.0685524"><ele>735.0</ele><time>2026-04-18T16:23:40.966Z</time></trkpt><trkpt lat="44.574219" lon="8.0684813"><ele>735.0</ele><time>2026-04-18T16:23:41.961Z</time></trkpt><trkpt lat="44.5740851" lon="8.0684393"><ele>735.0</ele><time>2026-04-18T16:23:42.97Z</time></trkpt><trkpt lat="44.5739499" lon="8.0684157"><ele>735.0</ele><time>2026-04-18T16:23:43.969Z</time></trkpt><trkpt lat="44.5738165" lon="8.0684067"><ele>735.0</ele><time>2026-04-18T16:23:44.971Z</time></trkpt><trkpt lat="44.5736922" lon="8.068406"><ele>735.0</ele><time>2026-04-18T16:23:45.964Z</time></trkpt><trkpt lat="44.5735713" lon="8.0683934"><ele>735.0</ele><time>2026-04-18T16:23:46.971Z</time></trkpt><trkpt lat="44.5734602" lon="8.0683553"><ele>735.0</ele><time>2026-04-18T16:23:47.969Z</time></trkpt><trkpt lat="44.573358" lon="8.0682742"><ele>735.5</ele><time>2026-04-18T16:23:48.966Z</time></trkpt><trkpt lat="44.5732795" lon="8.0681573"><ele>736.0</ele><time>2026-04-18T16:23:49.964Z</time></trkpt><trkpt lat="44.5732205" lon="8.0680105"><ele>736.5</ele><time>2026-04-18T16:23:50.971Z</time></trkpt><trkpt lat="44.5731775" lon="8.067847"><ele>737.0</ele><time>2026-04-18T16:23:51.971Z</time></trkpt><trkpt lat="44.5731309" lon="8.0676862"><ele>737.0</ele><time>2026-04-18T16:23:52.962Z</time></trkpt><trkpt lat="44.5730784" lon="8.067526"><ele>737.0</ele><time>2026-04-18T16:23:53.973Z</time></trkpt><trkpt lat="44.5730105" lon="8.0673805"><ele>737.0</ele><time>2026-04-18T16:23:54.962Z</time></trkpt><trkpt lat="44.5729315" lon="8.0672436"><ele>737.0</ele><time>2026-04-18T16:23:55.971Z</time></trkpt><trkpt lat="44.5728386" lon="8.0671218"><ele>736.25</ele><time>2026-04-18T16:23:56.965Z</time></trkpt><trkpt lat="44.5727322" lon="8.0670165"><ele>735.5</ele><time>2026-04-18T16:23:57.958Z</time></trkpt><trkpt lat="44.5726086" lon="8.0669373"><ele>734.75</ele><time>2026-04-18T16:23:58.962Z</time></trkpt><trkpt lat="44.5724772" lon="8.0668869"><ele>734.0</ele><time>2026-04-18T16:23:59.962Z</time></trkpt><trkpt lat="44.5723436" lon="8.0668529"><ele>734.0</ele><time>2026-04-18T16:24:00.955Z</time></trkpt><trkpt lat="44.5722145" lon="8.0668255"><ele>734.0</ele><time>2026-04-18T16:24:01.966Z</time></trkpt><trkpt lat="44.5720911" lon="8.0667966"><ele>734.0</ele><time>2026-04-18T16:24:02.959Z</time></trkpt><trkpt lat="44.5719719" lon="8.066778"><ele>734.0</ele><time>2026-04-18T16:24:03.971Z</time></trkpt><trkpt lat="44.5718575" lon="8.0667615"><ele>733.75</ele><time>2026-04-18T16:24:04.963Z</time></trkpt><trkpt lat="44.5717524" lon="8.06673"><ele>733.5</ele><time>2026-04-18T16:24:05.965Z</time></trkpt><trkpt lat="44.5716526" lon="8.0666624"><ele>733.25</ele><time>2026-04-18T16:24:06.973Z</time></trkpt><trkpt lat="44.5715583" lon="8.0665602"><ele>733.0</ele><time>2026-04-18T16:24:07.97Z</time></trkpt><trkpt lat="44.5714744" lon="8.0664222"><ele>733.0</ele><time>2026-04-18T16:24:08.963Z</time></trkpt><trkpt lat="44.5714134" lon="8.0662418"><ele>733.0</ele><time>2026-04-18T16:24:09.962Z</time></trkpt><trkpt lat="44.5713646" lon="8.0660376"><ele>733.0</ele><time>2026-04-18T16:24:10.969Z</time></trkpt><trkpt lat="44.5713175" lon="8.0658239"><ele>732.0</ele><time>2026-04-18T16:24:11.968Z</time></trkpt><trkpt lat="44.5712547" lon="8.0656147"><ele>731.0</ele><time>2026-04-18T16:24:12.964Z</time></trkpt><trkpt lat="44.5711571" lon="8.0654013"><ele>730.0</ele><time>2026-04-18T16:24:13.964Z</time></trkpt><trkpt lat="44.5710314" lon="8.0651823"><ele>726.6666666666667</ele><time>2026-04-18T16:24:14.96Z</time></trkpt><trkpt lat="44.5709041" lon="8.0649398"><ele>723.3333333333334</ele><time>2026-04-18T16:24:15.969Z</time></trkpt><trkpt lat="44.5707739" lon="8.0646683"><ele>720.0</ele><time>2026-04-18T16:24:16.968Z</time></trkpt><trkpt lat="44.5706484" lon="8.0643932"><ele>718.5</ele><time>2026-04-18T16:24:17.966Z</time></trkpt><trkpt lat="44.5705084" lon="8.064105"><ele>717.0</ele><time>2026-04-18T16:24:18.97Z</time></trkpt><trkpt lat="44.5703542" lon="8.0638137"><ele>717.0</ele><time>2026-04-18T16:24:19.967Z</time></trkpt><trkpt lat="44.5701965" lon="8.0635208"><ele>717.0</ele><time>2026-04-18T16:24:20.961Z</time></trkpt><trkpt lat="44.5700491" lon="8.0632414"><ele>715.0</ele><time>2026-04-18T16:24:21.962Z</time></trkpt><trkpt lat="44.5699069" lon="8.0629709"><ele>713.0</ele><time>2026-04-18T16:24:22.969Z</time></trkpt><trkpt lat="44.5697708" lon="8.0627125"><ele>713.0</ele><time>2026-04-18T16:24:23.963Z</time></trkpt><trkpt lat="44.5696448" lon="8.062474"><ele>713.0</ele><time>2026-04-18T16:24:24.962Z</time></trkpt><trkpt lat="44.5695303" lon="8.0622607"><ele>713.0</ele><time>2026-04-18T16:24:25.972Z</time></trkpt><trkpt lat="44.569413" lon="8.0620932"><ele>711.6666666666666</ele><time>2026-04-18T16:24:26.969Z</time></trkpt><trkpt lat="44.5692787" lon="8.0619702"><ele>710.3333333333334</ele><time>2026-04-18T16:24:27.971Z</time></trkpt><trkpt lat="44.5691194" lon="8.0618971"><ele>709.0</ele><time>2026-04-18T16:24:28.965Z</time></trkpt><trkpt lat="44.5689388" lon="8.0618759"><ele>709.0</ele><time>2026-04-18T16:24:29.964Z</time></trkpt><trkpt lat="44.568745" lon="8.0618963"><ele>709.0</ele><time>2026-04-18T16:24:30.971Z</time></trkpt><trkpt lat="44.5685396" lon="8.0619128"><ele>709.0</ele><time>2026-04-18T16:24:31.963Z</time></trkpt><trkpt lat="44.5683324" lon="8.0619228"><ele>708.6666666666667</ele><time>2026-04-18T16:24:32.964Z</time></trkpt><trkpt lat="44.5681406" lon="8.0619442"><ele>708.3333333333334</ele><time>2026-04-18T16:24:33.962Z</time></trkpt><trkpt lat="44.5679592" lon="8.0619915"><ele>708.0</ele><time>2026-04-18T16:24:34.962Z</time></trkpt><trkpt lat="44.5677819" lon="8.0620863"><ele>705.3333333333334</ele><time>2026-04-18T16:24:35.956Z</time></trkpt><trkpt lat="44.567609" lon="8.0622197"><ele>702.6666666666667</ele><time>2026-04-18T16:24:36.964Z</time></trkpt><trkpt lat="44.567443" lon="8.0623899"><ele>700.0</ele><time>2026-04-18T16:24:37.963Z</time></trkpt><trkpt lat="44.567259" lon="8.0625473"><ele>702.0</ele><time>2026-04-18T16:24:38.969Z</time></trkpt><trkpt lat="44.5670628" lon="8.0626855"><ele>704.0</ele><time>2026-04-18T16:24:39.966Z</time></trkpt><trkpt lat="44.5668691" lon="8.0628203"><ele>706.0</ele><time>2026-04-18T16:24:40.961Z</time></trkpt><trkpt lat="44.5666856" lon="8.0629503"><ele>706.0</ele><time>2026-04-18T16:24:41.974Z</time></trkpt><trkpt lat="44.5665089" lon="8.0630672"><ele>706.0</ele><time>2026-04-18T16:24:42.97Z</time></trkpt><trkpt lat="44.5663258" lon="8.0631415"><ele>706.0</ele><time>2026-04-18T16:24:43.97Z</time></trkpt><trkpt lat="44.5661359" lon="8.0631618"><ele>707.0</ele><time>2026-04-18T16:24:44.965Z</time></trkpt><trkpt lat="44.56594" lon="8.0631565"><ele>708.0</ele><time>2026-04-18T16:24:45.965Z</time></trkpt><trkpt lat="44.5657478" lon="8.0631301"><ele>709.0</ele><time>2026-04-18T16:24:46.967Z</time></trkpt><trkpt lat="44.5655648" lon="8.0630518"><ele>709.0</ele><time>2026-04-18T16:24:47.96Z</time></trkpt><trkpt lat="44.565388" lon="8.0629308"><ele>709.0</ele><time>2026-04-18T16:24:48.966Z</time></trkpt><trkpt lat="44.5652156" lon="8.0627704"><ele>709.0</ele><time>2026-04-18T16:24:49.969Z</time></trkpt><trkpt lat="44.5650453" lon="8.0626063"><ele>708.3333333333334</ele><time>2026-04-18T16:24:50.969Z</time></trkpt><trkpt lat="44.564876" lon="8.0624415"><ele>707.6666666666666</ele><time>2026-04-18T16:24:51.97Z</time></trkpt><trkpt lat="44.5647113" lon="8.0622781"><ele>707.0</ele><time>2026-04-18T16:24:52.964Z</time></trkpt><trkpt lat="44.5645521" lon="8.0621239"><ele>710.3333333333333</ele><time>2026-04-18T16:24:53.963Z</time></trkpt><trkpt lat="44.5643958" lon="8.0619718"><ele>713.6666666666666</ele><time>2026-04-18T16:24:54.965Z</time></trkpt><trkpt lat="44.5642441" lon="8.0618213"><ele>717.0</ele><time>2026-04-18T16:24:55.959Z</time></trkpt><trkpt lat="44.5641009" lon="8.0616765"><ele>714.0</ele><time>2026-04-18T16:24:56.96Z</time></trkpt><trkpt lat="44.5639657" lon="8.0615436"><ele>711.0</ele><time>2026-04-18T16:24:57.967Z</time></trkpt><trkpt lat="44.5638388" lon="8.0614178"><ele>708.0</ele><time>2026-04-18T16:24:58.961Z</time></trkpt><trkpt lat="44.5637182" lon="8.0613026"><ele>710.0</ele><time>2026-04-18T16:24:59.962Z</time></trkpt><trkpt lat="44.5636093" lon="8.0611922"><ele>712.0</ele><time>2026-04-18T16:25:00.964Z</time></trkpt><trkpt lat="44.5635073" lon="8.0610928"><ele>714.0</ele><time>2026-04-18T16:25:01.965Z</time></trkpt><trkpt lat="44.5634094" lon="8.0609951"><ele>716.0</ele><time>2026-04-18T16:25:02.97Z</time></trkpt><trkpt lat="44.5633114" lon="8.0608973"><ele>716.0</ele><time>2026-04-18T16:25:03.966Z</time></trkpt><trkpt lat="44.5632163" lon="8.0607946"><ele>716.0</ele><time>2026-04-18T16:25:04.958Z</time></trkpt><trkpt lat="44.5631157" lon="8.0606936"><ele>716.0</ele><time>2026-04-18T16:25:05.969Z</time></trkpt><trkpt lat="44.5630113" lon="8.0605919"><ele>716.0</ele><time>2026-04-18T16:25:06.97Z</time></trkpt><trkpt lat="44.5629073" lon="8.0604942"><ele>717.75</ele><time>2026-04-18T16:25:07.97Z</time></trkpt><trkpt lat="44.5627995" lon="8.0603968"><ele>719.5</ele><time>2026-04-18T16:25:08.967Z</time></trkpt><trkpt lat="44.5626851" lon="8.0603096"><ele>721.25</ele><time>2026-04-18T16:25:09.96Z</time></trkpt><trkpt lat="44.5625656" lon="8.0602388"><ele>723.0</ele><time>2026-04-18T16:25:10.969Z</time></trkpt><trkpt lat="44.5624369" lon="8.0601912"><ele>723.0</ele><time>2026-04-18T16:25:11.96Z</time></trkpt><trkpt lat="44.5623085" lon="8.0601596"><ele>723.0</ele><time>2026-04-18T16:25:12.971Z</time></trkpt><trkpt lat="44.5621763" lon="8.0601357"><ele>723.0</ele><time>2026-04-18T16:25:13.97Z</time></trkpt><trkpt lat="44.5620512" lon="8.060103"><ele>723.0</ele><time>2026-04-18T16:25:14.966Z</time></trkpt><trkpt lat="44.5619361" lon="8.0600439"><ele>726.5</ele><time>2026-04-18T16:25:15.969Z</time></trkpt><trkpt lat="44.5618318" lon="8.0599424"><ele>730.0</ele><time>2026-04-18T16:25:16.962Z</time></trkpt><trkpt lat="44.5617496" lon="8.0598095"><ele>733.5</ele><time>2026-04-18T16:25:17.962Z</time></trkpt><trkpt lat="44.5616806" lon="8.0596574"><ele>737.0</ele><time>2026-04-18T16:25:18.969Z</time></trkpt><trkpt lat="44.5616202" lon="8.0595061"><ele>737.0</ele><time>2026-04-18T16:25:19.974Z</time></trkpt><trkpt lat="44.5615308" lon="8.0593724"><ele>737.0</ele><time>2026-04-18T16:25:20.959Z</time></trkpt><trkpt lat="44.5614277" lon="8.0592454"><ele>737.0</ele><time>2026-04-18T16:25:21.964Z</time></trkpt><trkpt lat="44.5613146" lon="8.0591423"><ele>737.0</ele><time>2026-04-18T16:25:22.967Z</time></trkpt><trkpt lat="44.5611897" lon="8.0590518"><ele>743.3333333333333</ele><time>2026-04-18T16:25:23.962Z</time></trkpt><trkpt lat="44.5610531" lon="8.0590072"><ele>749.6666666666666</ele><time>2026-04-18T16:25:24.961Z</time></trkpt><trkpt lat="44.5609032" lon="8.0589913"><ele>756.0</ele><time>2026-04-18T16:25:25.966Z</time></trkpt><trkpt lat="44.5607392" lon="8.0590012"><ele>756.0</ele><time>2026-04-18T16:25:26.96Z</time></trkpt><trkpt lat="44.5605674" lon="8.0590292"><ele>756.0</ele><time>2026-04-18T16:25:27.969Z</time></trkpt><trkpt lat="44.5603924" lon="8.0590623"><ele>756.0</ele><time>2026-04-18T16:25:28.962Z</time></trkpt><trkpt lat="44.5602166" lon="8.0590885"><ele>750.0</ele><time>2026-04-18T16:25:29.97Z</time></trkpt><trkpt lat="44.560031" lon="8.0591243"><ele>744.0</ele><time>2026-04-18T16:25:30.97Z</time></trkpt><trkpt lat="44.559832" lon="8.0591862"><ele>738.0</ele><time>2026-04-18T16:25:31.964Z</time></trkpt><trkpt lat="44.5596361" lon="8.0592599"><ele>739.0</ele><time>2026-04-18T16:25:32.963Z</time></trkpt><trkpt lat="44.5594598" lon="8.059335"><ele>740.0</ele><time>2026-04-18T16:25:33.959Z</time></trkpt><trkpt lat="44.5592895" lon="8.0594091"><ele>741.0</ele><time>2026-04-18T16:25:34.974Z</time></trkpt><trkpt lat="44.5591321" lon="8.0594755"><ele>741.0</ele><time>2026-04-18T16:25:35.97Z</time></trkpt><trkpt lat="44.5589804" lon="8.0595365"><ele>741.0</ele><time>2026-04-18T16:25:36.962Z</time></trkpt><trkpt lat="44.5588357" lon="8.0595952"><ele>741.0</ele><time>2026-04-18T16:25:37.971Z</time></trkpt><trkpt lat="44.5586974" lon="8.0596366"><ele>739.25</ele><time>2026-04-18T16:25:38.97Z</time></trkpt><trkpt lat="44.5585719" lon="8.0596543"><ele>737.5</ele><time>2026-04-18T16:25:39.974Z</time></trkpt><trkpt lat="44.5584442" lon="8.0596388"><ele>735.75</ele><time>2026-04-18T16:25:40.965Z</time></trkpt><trkpt lat="44.5583142" lon="8.0595944"><ele>734.0</ele><time>2026-04-18T16:25:41.96Z</time></trkpt><trkpt lat="44.5581912" lon="8.0595678"><ele>734.0</ele><time>2026-04-18T16:25:42.961Z</time></trkpt><trkpt lat="44.5580727" lon="8.0595483"><ele>734.0</ele><time>2026-04-18T16:25:43.969Z</time></trkpt><trkpt lat="44.5579614" lon="8.0595429"><ele>734.0</ele><time>2026-04-18T16:25:44.969Z</time></trkpt><trkpt lat="44.5578467" lon="8.059563"><ele>734.0</ele><time>2026-04-18T16:25:45.966Z</time></trkpt><trkpt lat="44.557731" lon="8.0596048"><ele>731.25</ele><time>2026-04-18T16:25:46.967Z</time></trkpt><trkpt lat="44.557617" lon="8.0596615"><ele>728.5</ele><time>2026-04-18T16:25:47.965Z</time></trkpt><trkpt lat="44.5575062" lon="8.0597289"><ele>725.75</ele><time>2026-04-18T16:25:48.964Z</time></trkpt><trkpt lat="44.5574021" lon="8.0597911"><ele>723.0</ele><time>2026-04-18T16:25:49.965Z</time></trkpt><trkpt lat="44.5573007" lon="8.0598479"><ele>723.0</ele><time>2026-04-18T16:25:50.96Z</time></trkpt><trkpt lat="44.5571953" lon="8.0599042"><ele>723.0</ele><time>2026-04-18T16:25:51.96Z</time></trkpt><trkpt lat="44.557094" lon="8.0599674"><ele>723.0</ele><time>2026-04-18T16:25:52.962Z</time></trkpt><trkpt lat="44.5569826" lon="8.0600258"><ele>723.0</ele><time>2026-04-18T16:25:53.961Z</time></trkpt><trkpt lat="44.5568707" lon="8.0600855"><ele>722.0</ele><time>2026-04-18T16:25:54.97Z</time></trkpt><trkpt lat="44.5567331" lon="8.0601316"><ele>721.0</ele><time>2026-04-18T16:25:56.568Z</time></trkpt><trkpt lat="44.5565125" lon="8.0602183"><ele>720.0</ele><time>2026-04-18T16:25:58.318Z</time></trkpt><trkpt lat="44.5561911" lon="8.0603644"><ele>720.0</ele><time>2026-04-18T16:26:00.922Z</time></trkpt><trkpt lat="44.5560082" lon="8.0604874"><ele>720.0</ele><time>2026-04-18T16:26:01.961Z</time></trkpt><trkpt lat="44.5559005" lon="8.0606009"><ele>720.0</ele><time>2026-04-18T16:26:02.973Z</time></trkpt><trkpt lat="44.5558157" lon="8.060755"><ele>724.5</ele><time>2026-04-18T16:26:03.968Z</time></trkpt><trkpt lat="44.5557383" lon="8.0609222"><ele>729.0</ele><time>2026-04-18T16:26:04.968Z</time></trkpt><trkpt lat="44.5556638" lon="8.0610871"><ele>733.5</ele><time>2026-04-18T16:26:05.972Z</time></trkpt><trkpt lat="44.5555929" lon="8.061255"><ele>738.0</ele><time>2026-04-18T16:26:06.974Z</time></trkpt><trkpt lat="44.555491" lon="8.0614916"><ele>740.6666666666666</ele><time>2026-04-18T16:26:08.958Z</time></trkpt><trkpt lat="44.5554298" lon="8.0616559"><ele>743.3333333333333</ele><time>2026-04-18T16:26:09.903Z</time></trkpt><trkpt lat="44.5552884" lon="8.0619907"><ele>746.0</ele><time>2026-04-18T16:26:11.906Z</time></trkpt><trkpt lat="44.5551516" lon="8.0622199"><ele>742.0</ele><time>2026-04-18T16:26:12.98Z</time></trkpt><trkpt lat="44.5550421" lon="8.0623399"><ele>738.0</ele><time>2026-04-18T16:26:13.969Z</time></trkpt><trkpt lat="44.5549286" lon="8.0624364"><ele>734.0</ele><time>2026-04-18T16:26:14.978Z</time></trkpt><trkpt lat="44.5547596" lon="8.06252"><ele>734.0</ele><time>2026-04-18T16:26:16.839Z</time></trkpt><trkpt lat="44.5546157" lon="8.062537"><ele>734.0</ele><time>2026-04-18T16:26:17.894Z</time></trkpt><trkpt lat="44.5543391" lon="8.0625396"><ele>734.0</ele><time>2026-04-18T16:26:19.914Z</time></trkpt><trkpt lat="44.5541444" lon="8.0624895"><ele>733.5</ele><time>2026-04-18T16:26:20.958Z</time></trkpt><trkpt lat="44.5540199" lon="8.0624638"><ele>733.0</ele><time>2026-04-18T16:26:21.971Z</time></trkpt><trkpt lat="44.5539024" lon="8.0624683"><ele>732.5</ele><time>2026-04-18T16:26:22.972Z</time></trkpt><trkpt lat="44.5537735" lon="8.062507"><ele>732.0</ele><time>2026-04-18T16:26:23.972Z</time></trkpt><trkpt lat="44.5536447" lon="8.0625611"><ele>732.0</ele><time>2026-04-18T16:26:24.972Z</time></trkpt><trkpt lat="44.5534988" lon="8.0626512"><ele>732.0</ele><time>2026-04-18T16:26:25.971Z</time></trkpt><trkpt lat="44.5533405" lon="8.0627604"><ele>732.0</ele><time>2026-04-18T16:26:26.972Z</time></trkpt><trkpt lat="44.5531585" lon="8.0628679"><ele>732.0</ele><time>2026-04-18T16:26:27.969Z</time></trkpt><trkpt lat="44.5529134" lon="8.0629687"><ele>732.0</ele><time>2026-04-18T16:26:29.908Z</time></trkpt><trkpt lat="44.5527415" lon="8.0630148"><ele>732.0</ele><time>2026-04-18T16:26:30.907Z</time></trkpt><trkpt lat="44.5524142" lon="8.0629666"><ele>731.3333333333334</ele><time>2026-04-18T16:26:32.913Z</time></trkpt><trkpt lat="44.5522155" lon="8.0628068"><ele>730.6666666666667</ele><time>2026-04-18T16:26:33.97Z</time></trkpt><trkpt lat="44.5520775" lon="8.0626394"><ele>730.0</ele><time>2026-04-18T16:26:34.971Z</time></trkpt><trkpt lat="44.5519302" lon="8.0624742"><ele>728.3333333333334</ele><time>2026-04-18T16:26:35.97Z</time></trkpt><trkpt lat="44.5517809" lon="8.0623093"><ele>726.6666666666666</ele><time>2026-04-18T16:26:36.963Z</time></trkpt><trkpt lat="44.5516307" lon="8.0621449"><ele>725.0</ele><time>2026-04-18T16:26:37.967Z</time></trkpt><trkpt lat="44.5514857" lon="8.0619967"><ele>725.0</ele><time>2026-04-18T16:26:38.974Z</time></trkpt><trkpt lat="44.5513241" lon="8.061872"><ele>725.0</ele><time>2026-04-18T16:26:39.963Z</time></trkpt><trkpt lat="44.5511448" lon="8.0617828"><ele>725.0</ele><time>2026-04-18T16:26:40.965Z</time></trkpt><trkpt lat="44.5509484" lon="8.0617248"><ele>726.6666666666666</ele><time>2026-04-18T16:26:41.96Z</time></trkpt><trkpt lat="44.5507458" lon="8.0616834"><ele>728.3333333333334</ele><time>2026-04-18T16:26:42.975Z</time></trkpt><trkpt lat="44.5505563" lon="8.0616309"><ele>730.0</ele><time>2026-04-18T16:26:43.97Z</time></trkpt><trkpt lat="44.5503762" lon="8.0615689"><ele>728.3333333333334</ele><time>2026-04-18T16:26:44.966Z</time></trkpt><trkpt lat="44.5502126" lon="8.0614784"><ele>726.6666666666666</ele><time>2026-04-18T16:26:45.967Z</time></trkpt><trkpt lat="44.5500649" lon="8.061331"><ele>725.0</ele><time>2026-04-18T16:26:46.963Z</time></trkpt><trkpt lat="44.5499381" lon="8.0611488"><ele>725.0</ele><time>2026-04-18T16:26:47.972Z</time></trkpt><trkpt lat="44.5498137" lon="8.0609499"><ele>725.0</ele><time>2026-04-18T16:26:48.972Z</time></trkpt><trkpt lat="44.5496899" lon="8.0607744"><ele>725.0</ele><time>2026-04-18T16:26:49.972Z</time></trkpt><trkpt lat="44.5495627" lon="8.0606388"><ele>725.6666666666666</ele><time>2026-04-18T16:26:50.972Z</time></trkpt><trkpt lat="44.5494214" lon="8.0605547"><ele>726.3333333333334</ele><time>2026-04-18T16:26:51.972Z</time></trkpt><trkpt lat="44.5492667" lon="8.0605039"><ele>727.0</ele><time>2026-04-18T16:26:52.972Z</time></trkpt><trkpt lat="44.549107" lon="8.0604993"><ele>727.0</ele><time>2026-04-18T16:26:53.972Z</time></trkpt><trkpt lat="44.5489584" lon="8.0604974"><ele>727.0</ele><time>2026-04-18T16:26:54.972Z</time></trkpt><trkpt lat="44.5488123" lon="8.0604548"><ele>727.0</ele><time>2026-04-18T16:26:55.971Z</time></trkpt><trkpt lat="44.5486711" lon="8.0603693"><ele>728.0</ele><time>2026-04-18T16:26:56.959Z</time></trkpt><trkpt lat="44.5485279" lon="8.0602572"><ele>729.0</ele><time>2026-04-18T16:26:57.972Z</time></trkpt><trkpt lat="44.5483929" lon="8.0601143"><ele>730.0</ele><time>2026-04-18T16:26:58.96Z</time></trkpt><trkpt lat="44.5482514" lon="8.0599518"><ele>730.6666666666667</ele><time>2026-04-18T16:26:59.972Z</time></trkpt><trkpt lat="44.5480935" lon="8.0597964"><ele>731.3333333333334</ele><time>2026-04-18T16:27:00.973Z</time></trkpt><trkpt lat="44.5479322" lon="8.0596412"><ele>732.0</ele><time>2026-04-18T16:27:01.961Z</time></trkpt><trkpt lat="44.547769" lon="8.0594987"><ele>732.0</ele><time>2026-04-18T16:27:02.96Z</time></trkpt><trkpt lat="44.5475991" lon="8.0593916"><ele>732.0</ele><time>2026-04-18T16:27:03.96Z</time></trkpt><trkpt lat="44.5474292" lon="8.0593144"><ele>732.0</ele><time>2026-04-18T16:27:04.959Z</time></trkpt><trkpt lat="44.5472502" lon="8.0592812"><ele>732.0</ele><time>2026-04-18T16:27:05.962Z</time></trkpt><trkpt lat="44.547072" lon="8.0592857"><ele>732.0</ele><time>2026-04-18T16:27:06.969Z</time></trkpt><trkpt lat="44.5469052" lon="8.0592929"><ele>732.0</ele><time>2026-04-18T16:27:07.971Z</time></trkpt><trkpt lat="44.5467453" lon="8.0592692"><ele>732.3333333333334</ele><time>2026-04-18T16:27:08.964Z</time></trkpt><trkpt lat="44.5465868" lon="8.0591967"><ele>732.6666666666667</ele><time>2026-04-18T16:27:09.962Z</time></trkpt><trkpt lat="44.546434" lon="8.0590958"><ele>733.0</ele><time>2026-04-18T16:27:10.967Z</time></trkpt><trkpt lat="44.5462923" lon="8.0589534"><ele>731.0</ele><time>2026-04-18T16:27:11.959Z</time></trkpt><trkpt lat="44.5461458" lon="8.0588044"><ele>729.0</ele><time>2026-04-18T16:27:12.961Z</time></trkpt><trkpt lat="44.5459931" lon="8.0586567"><ele>727.0</ele><time>2026-04-18T16:27:13.974Z</time></trkpt><trkpt lat="44.5458458" lon="8.0585118"><ele>727.0</ele><time>2026-04-18T16:27:14.97Z</time></trkpt><trkpt lat="44.5456965" lon="8.0583653"><ele>727.0</ele><time>2026-04-18T16:27:15.97Z</time></trkpt><trkpt lat="44.545541" lon="8.0582273"><ele>727.0</ele><time>2026-04-18T16:27:16.967Z</time></trkpt><trkpt lat="44.5453769" lon="8.0581029"><ele>725.6666666666667</ele><time>2026-04-18T16:27:17.961Z</time></trkpt><trkpt lat="44.5452039" lon="8.0579989"><ele>724.3333333333334</ele><time>2026-04-18T16:27:18.972Z</time></trkpt><trkpt lat="44.5450236" lon="8.0579182"><ele>723.0</ele><time>2026-04-18T16:27:19.963Z</time></trkpt><trkpt lat="44.5448472" lon="8.0578286"><ele>723.0</ele><time>2026-04-18T16:27:20.97Z</time></trkpt><trkpt lat="44.5446883" lon="8.0576969"><ele>723.0</ele><time>2026-04-18T16:27:21.973Z</time></trkpt><trkpt lat="44.5445439" lon="8.0575508"><ele>723.0</ele><time>2026-04-18T16:27:22.971Z</time></trkpt><trkpt lat="44.5444037" lon="8.0574109"><ele>722.3333333333334</ele><time>2026-04-18T16:27:23.973Z</time></trkpt><trkpt lat="44.5442488" lon="8.0572997"><ele>721.6666666666667</ele><time>2026-04-18T16:27:24.968Z</time></trkpt><trkpt lat="44.544083" lon="8.0572356"><ele>721.0</ele><time>2026-04-18T16:27:25.957Z</time></trkpt><trkpt lat="44.543905" lon="8.0572133"><ele>721.0</ele><time>2026-04-18T16:27:26.962Z</time></trkpt><trkpt lat="44.5437223" lon="8.0572246"><ele>721.0</ele><time>2026-04-18T16:27:27.959Z</time></trkpt><trkpt lat="44.5435314" lon="8.0572277"><ele>721.0</ele><time>2026-04-18T16:27:28.974Z</time></trkpt><trkpt lat="44.5433346" lon="8.0572253"><ele>721.0</ele><time>2026-04-18T16:27:29.965Z</time></trkpt><trkpt lat="44.5431319" lon="8.0572056"><ele>721.0</ele><time>2026-04-18T16:27:30.964Z</time></trkpt><trkpt lat="44.5429223" lon="8.0571516"><ele>721.0</ele><time>2026-04-18T16:27:31.974Z</time></trkpt><trkpt lat="44.5427066" lon="8.0570716"><ele>724.5</ele><time>2026-04-18T16:27:32.975Z</time></trkpt><trkpt lat="44.5424857" lon="8.0569485"><ele>728.0</ele><time>2026-04-18T16:27:33.973Z</time></trkpt><trkpt lat="44.5422663" lon="8.0567879"><ele>727.0</ele><time>2026-04-18T16:27:34.963Z</time></trkpt><trkpt lat="44.5420571" lon="8.0565943"><ele>726.0</ele><time>2026-04-18T16:27:35.971Z</time></trkpt><trkpt lat="44.5418642" lon="8.0563896"><ele>726.0</ele><time>2026-04-18T16:27:36.969Z</time></trkpt><trkpt lat="44.541683" lon="8.0561812"><ele>726.0</ele><time>2026-04-18T16:27:37.969Z</time></trkpt><trkpt lat="44.541525" lon="8.0559381"><ele>721.5</ele><time>2026-04-18T16:27:38.964Z</time></trkpt><trkpt lat="44.5413823" lon="8.0556702"><ele>717.0</ele><time>2026-04-18T16:27:39.96Z</time></trkpt><trkpt lat="44.5412502" lon="8.0553915"><ele>718.0</ele><time>2026-04-18T16:27:40.966Z</time></trkpt><trkpt lat="44.5411268" lon="8.0551288"><ele>719.0</ele><time>2026-04-18T16:27:41.961Z</time></trkpt><trkpt lat="44.541004" lon="8.0548779"><ele>720.0</ele><time>2026-04-18T16:27:42.964Z</time></trkpt><trkpt lat="44.5408796" lon="8.0546465"><ele>720.0</ele><time>2026-04-18T16:27:43.966Z</time></trkpt><trkpt lat="44.5407441" lon="8.0544382"><ele>720.0</ele><time>2026-04-18T16:27:44.973Z</time></trkpt><trkpt lat="44.5405861" lon="8.0542498"><ele>720.0</ele><time>2026-04-18T16:27:45.971Z</time></trkpt><trkpt lat="44.5404176" lon="8.0540923"><ele>721.3333333333334</ele><time>2026-04-18T16:27:46.97Z</time></trkpt><trkpt lat="44.5402566" lon="8.053942"><ele>722.6666666666667</ele><time>2026-04-18T16:27:47.959Z</time></trkpt><trkpt lat="44.5401065" lon="8.0537882"><ele>724.0</ele><time>2026-04-18T16:27:48.961Z</time></trkpt><trkpt lat="44.5399822" lon="8.0536082"><ele>724.0</ele><time>2026-04-18T16:27:49.959Z</time></trkpt><trkpt lat="44.5398846" lon="8.0534037"><ele>724.0</ele><time>2026-04-18T16:27:50.962Z</time></trkpt><trkpt lat="44.5398173" lon="8.053175"><ele>724.0</ele><time>2026-04-18T16:27:51.955Z</time></trkpt><trkpt lat="44.5397805" lon="8.0529274"><ele>723.6666666666667</ele><time>2026-04-18T16:27:52.961Z</time></trkpt><trkpt lat="44.5397853" lon="8.0526707"><ele>723.3333333333334</ele><time>2026-04-18T16:27:53.961Z</time></trkpt><trkpt lat="44.5398364" lon="8.0524209"><ele>723.0</ele><time>2026-04-18T16:27:54.962Z</time></trkpt><trkpt lat="44.5399085" lon="8.0521721"><ele>725.0</ele><time>2026-04-18T16:27:55.961Z</time></trkpt><trkpt lat="44.5400055" lon="8.0519113"><ele>727.0</ele><time>2026-04-18T16:27:56.966Z</time></trkpt><trkpt lat="44.5401051" lon="8.0516407"><ele>729.0</ele><time>2026-04-18T16:27:57.96Z</time></trkpt><trkpt lat="44.5402086" lon="8.0513647"><ele>726.3333333333334</ele><time>2026-04-18T16:27:58.97Z</time></trkpt><trkpt lat="44.5403116" lon="8.0510894"><ele>723.6666666666667</ele><time>2026-04-18T16:27:59.963Z</time></trkpt><trkpt lat="44.5404138" lon="8.0508088"><ele>721.0</ele><time>2026-04-18T16:28:00.971Z</time></trkpt><trkpt lat="44.5405093" lon="8.0505179"><ele>721.0</ele><time>2026-04-18T16:28:01.962Z</time></trkpt><trkpt lat="44.5405866" lon="8.0502173"><ele>721.0</ele><time>2026-04-18T16:28:02.97Z</time></trkpt><trkpt lat="44.5406473" lon="8.0499033"><ele>725.0</ele><time>2026-04-18T16:28:03.963Z</time></trkpt><trkpt lat="44.5407053" lon="8.0495896"><ele>729.0</ele><time>2026-04-18T16:28:04.967Z</time></trkpt><trkpt lat="44.5407709" lon="8.0492905"><ele>728.6666666666666</ele><time>2026-04-18T16:28:05.96Z</time></trkpt><trkpt lat="44.5408395" lon="8.0490206"><ele>728.3333333333333</ele><time>2026-04-18T16:28:06.962Z</time></trkpt><trkpt lat="44.5409019" lon="8.0487769"><ele>728.0</ele><time>2026-04-18T16:28:07.963Z</time></trkpt><trkpt lat="44.5409626" lon="8.0485647"><ele>728.0</ele><time>2026-04-18T16:28:08.962Z</time></trkpt><trkpt lat="44.5410141" lon="8.048358"><ele>728.0</ele><time>2026-04-18T16:28:09.96Z</time></trkpt><trkpt lat="44.5410396" lon="8.0481705"><ele>728.0</ele><time>2026-04-18T16:28:10.962Z</time></trkpt><trkpt lat="44.541034" lon="8.047987"><ele>728.0</ele><time>2026-04-18T16:28:11.971Z</time></trkpt><trkpt lat="44.5409873" lon="8.0478258"><ele>725.5</ele><time>2026-04-18T16:28:12.966Z</time></trkpt><trkpt lat="44.5409049" lon="8.0477039"><ele>723.0</ele><time>2026-04-18T16:28:13.965Z</time></trkpt><trkpt lat="44.5407859" lon="8.0476228"><ele>720.5</ele><time>2026-04-18T16:28:14.96Z</time></trkpt><trkpt lat="44.5406424" lon="8.0475794"><ele>718.0</ele><time>2026-04-18T16:28:15.966Z</time></trkpt><trkpt lat="44.5404772" lon="8.0475411"><ele>719.3333333333334</ele><time>2026-04-18T16:28:16.958Z</time></trkpt><trkpt lat="44.5403095" lon="8.0474838"><ele>720.6666666666666</ele><time>2026-04-18T16:28:17.958Z</time></trkpt><trkpt lat="44.5401185" lon="8.0474195"><ele>722.0</ele><time>2026-04-18T16:28:18.959Z</time></trkpt><trkpt lat="44.5399297" lon="8.0473587"><ele>720.3333333333333</ele><time>2026-04-18T16:28:19.966Z</time></trkpt><trkpt lat="44.539754" lon="8.0472929"><ele>718.6666666666666</ele><time>2026-04-18T16:28:20.961Z</time></trkpt><trkpt lat="44.539579" lon="8.0471906"><ele>717.0</ele><time>2026-04-18T16:28:21.96Z</time></trkpt><trkpt lat="44.5394102" lon="8.0470619"><ele>717.0</ele><time>2026-04-18T16:28:22.959Z</time></trkpt><trkpt lat="44.5392439" lon="8.0469088"><ele>717.0</ele><time>2026-04-18T16:28:23.962Z</time></trkpt><trkpt lat="44.5390785" lon="8.0467434"><ele>717.0</ele><time>2026-04-18T16:28:24.96Z</time></trkpt><trkpt lat="44.5389118" lon="8.0465778"><ele>714.6666666666666</ele><time>2026-04-18T16:28:25.959Z</time></trkpt><trkpt lat="44.5387458" lon="8.0464147"><ele>712.3333333333333</ele><time>2026-04-18T16:28:26.963Z</time></trkpt><trkpt lat="44.5385769" lon="8.0462489"><ele>710.0</ele><time>2026-04-18T16:28:27.962Z</time></trkpt><trkpt lat="44.5384043" lon="8.0460816"><ele>710.0</ele><time>2026-04-18T16:28:28.969Z</time></trkpt><trkpt lat="44.5382198" lon="8.0459307"><ele>710.0</ele><time>2026-04-18T16:28:29.968Z</time></trkpt><trkpt lat="44.5380311" lon="8.0457856"><ele>710.0</ele><time>2026-04-18T16:28:30.967Z</time></trkpt><trkpt lat="44.5378386" lon="8.0456518"><ele>709.0</ele><time>2026-04-18T16:28:31.967Z</time></trkpt><trkpt lat="44.5374133" lon="8.045377"><ele>716.0</ele><time>2026-04-18T16:28:34.563Z</time></trkpt><trkpt lat="44.5369451" lon="8.0452144"><ele>716.0</ele><time>2026-04-18T16:28:36.779Z</time></trkpt><trkpt lat="44.5364618" lon="8.0451627"><ele>721.0</ele><time>2026-04-18T16:28:38.899Z</time></trkpt><trkpt lat="44.5361189" lon="8.0451713"><ele>726.0</ele><time>2026-04-18T16:28:39.95Z</time></trkpt><trkpt lat="44.535916" lon="8.0451739"><ele>726.0</ele><time>2026-04-18T16:28:40.965Z</time></trkpt><trkpt lat="44.5357185" lon="8.0451919"><ele>726.0</ele><time>2026-04-18T16:28:41.968Z</time></trkpt><trkpt lat="44.5355163" lon="8.0452414"><ele>726.0</ele><time>2026-04-18T16:28:42.967Z</time></trkpt><trkpt lat="44.5353226" lon="8.0453149"><ele>729.6666666666666</ele><time>2026-04-18T16:28:43.967Z</time></trkpt><trkpt lat="44.5351307" lon="8.0454022"><ele>733.3333333333333</ele><time>2026-04-18T16:28:44.967Z</time></trkpt><trkpt lat="44.5349431" lon="8.0454982"><ele>737.0</ele><time>2026-04-18T16:28:45.967Z</time></trkpt><trkpt lat="44.5347541" lon="8.045584"><ele>737.0</ele><time>2026-04-18T16:28:46.967Z</time></trkpt><trkpt lat="44.534574" lon="8.0456714"><ele>737.0</ele><time>2026-04-18T16:28:47.967Z</time></trkpt><trkpt lat="44.5343928" lon="8.0457602"><ele>737.0</ele><time>2026-04-18T16:28:48.967Z</time></trkpt><trkpt lat="44.5342092" lon="8.0458359"><ele>737.0</ele><time>2026-04-18T16:28:49.967Z</time></trkpt><trkpt lat="44.5340288" lon="8.0459263"><ele>737.0</ele><time>2026-04-18T16:28:50.967Z</time></trkpt><trkpt lat="44.5338486" lon="8.0460165"><ele>737.0</ele><time>2026-04-18T16:28:51.967Z</time></trkpt><trkpt lat="44.5336857" lon="8.0460982"><ele>737.0</ele><time>2026-04-18T16:28:52.967Z</time></trkpt><trkpt lat="44.533529" lon="8.0461696"><ele>737.0</ele><time>2026-04-18T16:28:53.966Z</time></trkpt><trkpt lat="44.5333819" lon="8.046245"><ele>737.0</ele><time>2026-04-18T16:28:54.967Z</time></trkpt><trkpt lat="44.5332478" lon="8.0463058"><ele>737.0</ele><time>2026-04-18T16:28:55.966Z</time></trkpt><trkpt lat="44.5331258" lon="8.0463625"><ele>737.0</ele><time>2026-04-18T16:28:56.966Z</time></trkpt><trkpt lat="44.5330149" lon="8.046409"><ele>737.0</ele><time>2026-04-18T16:28:57.967Z</time></trkpt><trkpt lat="44.5329069" lon="8.0464462"><ele>737.0</ele><time>2026-04-18T16:28:58.966Z</time></trkpt><trkpt lat="44.5328191" lon="8.0464877"><ele>737.0</ele><time>2026-04-18T16:28:59.966Z</time></trkpt><trkpt lat="44.532735" lon="8.0465106"><ele>735.3333333333333</ele><time>2026-04-18T16:29:00.966Z</time></trkpt><trkpt lat="44.5326302" lon="8.0464945"><ele>733.6666666666666</ele><time>2026-04-18T16:29:02.967Z</time></trkpt><trkpt lat="44.532571" lon="8.0464511"><ele>732.0</ele><time>2026-04-18T16:29:05.967Z</time></trkpt><trkpt lat="44.5324882" lon="8.0463893"><ele>730.3333333333334</ele><time>2026-04-18T16:29:11.967Z</time></trkpt><trkpt lat="44.5324258" lon="8.0463685"><ele>728.6666666666667</ele><time>2026-04-18T16:29:45.97Z</time></trkpt><trkpt lat="44.5323642" lon="8.0464188"><ele>727.0</ele><time>2026-04-18T16:29:47.971Z</time></trkpt><trkpt lat="44.5322899" lon="8.0465514"><ele>727.6</ele><time>2026-04-18T16:29:49.971Z</time></trkpt><trkpt lat="44.532252" lon="8.0467031"><ele>728.2</ele><time>2026-04-18T16:29:51.971Z</time></trkpt><trkpt lat="44.5322872" lon="8.0468348"><ele>728.8</ele><time>2026-04-18T16:29:53.97Z</time></trkpt><trkpt lat="44.5323912" lon="8.0468621"><ele>729.4</ele><time>2026-04-18T16:29:55.97Z</time></trkpt><trkpt lat="44.5324503" lon="8.0468269"><ele>730.0</ele><time>2026-04-18T16:29:56.971Z</time></trkpt><trkpt lat="44.5325156" lon="8.0467773"><ele>730.0</ele><time>2026-04-18T16:29:57.971Z</time></trkpt><trkpt lat="44.5325829" lon="8.0467175"><ele>730.0</ele><time>2026-04-18T16:29:58.971Z</time></trkpt><trkpt lat="44.5326623" lon="8.0466611"><ele>730.0</ele><time>2026-04-18T16:29:59.97Z</time></trkpt><trkpt lat="44.5327462" lon="8.0466074"><ele>730.0</ele><time>2026-04-18T16:30:00.97Z</time></trkpt><trkpt lat="44.5328387" lon="8.0465602"><ele>730.0</ele><time>2026-04-18T16:30:01.97Z</time></trkpt><trkpt lat="44.5329409" lon="8.0465148"><ele>731.75</ele><time>2026-04-18T16:30:02.97Z</time></trkpt><trkpt lat="44.5330604" lon="8.0464655"><ele>733.5</ele><time>2026-04-18T16:30:03.971Z</time></trkpt><trkpt lat="44.5331821" lon="8.0464087"><ele>735.25</ele><time>2026-04-18T16:30:04.971Z</time></trkpt><trkpt lat="44.5333102" lon="8.0463428"><ele>737.0</ele><time>2026-04-18T16:30:05.971Z</time></trkpt><trkpt lat="44.5334429" lon="8.0462754"><ele>737.0</ele><time>2026-04-18T16:30:06.97Z</time></trkpt><trkpt lat="44.5335852" lon="8.0462097"><ele>737.0</ele><time>2026-04-18T16:30:07.971Z</time></trkpt><trkpt lat="44.5337299" lon="8.0461418"><ele>737.0</ele><time>2026-04-18T16:30:08.971Z</time></trkpt><trkpt lat="44.5338794" lon="8.0460661"><ele>734.3333333333333</ele><time>2026-04-18T16:30:09.971Z</time></trkpt><trkpt lat="44.5340326" lon="8.0459893"><ele>731.6666666666666</ele><time>2026-04-18T16:30:10.971Z</time></trkpt><trkpt lat="44.5341893" lon="8.0459122"><ele>729.0</ele><time>2026-04-18T16:30:11.971Z</time></trkpt><trkpt lat="44.5343512" lon="8.0458341"><ele>731.6666666666666</ele><time>2026-04-18T16:30:12.97Z</time></trkpt><trkpt lat="44.5345219" lon="8.045748"><ele>734.3333333333333</ele><time>2026-04-18T16:30:14.504Z</time></trkpt><trkpt lat="44.5347458" lon="8.0456379"><ele>737.0</ele><time>2026-04-18T16:30:15.914Z</time></trkpt><trkpt lat="44.5349902" lon="8.0455175"><ele>737.0</ele><time>2026-04-18T16:30:16.958Z</time></trkpt><trkpt lat="44.5351447" lon="8.0454442"><ele>737.0</ele><time>2026-04-18T16:30:17.954Z</time></trkpt><trkpt lat="44.5353541" lon="8.0453503"><ele>737.0</ele><time>2026-04-18T16:30:19.712Z</time></trkpt><trkpt lat="44.5355432" lon="8.0452742"><ele>733.3333333333333</ele><time>2026-04-18T16:30:20.927Z</time></trkpt><trkpt lat="44.535812" lon="8.0452223"><ele>729.6666666666666</ele><time>2026-04-18T16:30:21.966Z</time></trkpt><trkpt lat="44.535985" lon="8.0451997"><ele>726.0</ele><time>2026-04-18T16:30:22.972Z</time></trkpt><trkpt lat="44.5362088" lon="8.0451854"><ele>721.0</ele><time>2026-04-18T16:30:24.759Z</time></trkpt><trkpt lat="44.5364052" lon="8.0451784"><ele>716.0</ele><time>2026-04-18T16:30:25.906Z</time></trkpt><trkpt lat="44.5366949" lon="8.0451736"><ele>716.0</ele><time>2026-04-18T16:30:26.973Z</time></trkpt><trkpt lat="44.5368851" lon="8.0452008"><ele>716.0</ele><time>2026-04-18T16:30:27.96Z</time></trkpt><trkpt lat="44.5371344" lon="8.0452846"><ele>716.0</ele><time>2026-04-18T16:30:29.761Z</time></trkpt><trkpt lat="44.537347" lon="8.0453668"><ele>712.5</ele><time>2026-04-18T16:30:30.921Z</time></trkpt><trkpt lat="44.5376346" lon="8.0455375"><ele>709.0</ele><time>2026-04-18T16:30:31.953Z</time></trkpt><trkpt lat="44.5378146" lon="8.0456592"><ele>709.5</ele><time>2026-04-18T16:30:32.948Z</time></trkpt><trkpt lat="44.5380499" lon="8.0458553"><ele>710.0</ele><time>2026-04-18T16:30:34.825Z</time></trkpt><trkpt lat="44.5383981" lon="8.0461394"><ele>710.0</ele><time>2026-04-18T16:30:36.914Z</time></trkpt><trkpt lat="44.5386601" lon="8.0463959"><ele>710.0</ele><time>2026-04-18T16:30:37.967Z</time></trkpt><trkpt lat="44.5388751" lon="8.046617"><ele>713.5</ele><time>2026-04-18T16:30:39.853Z</time></trkpt><trkpt lat="44.5392082" lon="8.0469535"><ele>717.0</ele><time>2026-04-18T16:30:41.91Z</time></trkpt><trkpt lat="44.5394577" lon="8.0471802"><ele>719.5</ele><time>2026-04-18T16:30:42.964Z</time></trkpt><trkpt lat="44.5396954" lon="8.0473156"><ele>722.0</ele><time>2026-04-18T16:30:44.845Z</time></trkpt><trkpt lat="44.5400775" lon="8.0474642"><ele>722.0</ele><time>2026-04-18T16:30:46.904Z</time></trkpt><trkpt lat="44.5403634" lon="8.0475502"><ele>722.0</ele><time>2026-04-18T16:30:47.962Z</time></trkpt><trkpt lat="44.5405936" lon="8.0476345"><ele>720.0</ele><time>2026-04-18T16:30:49.917Z</time></trkpt><trkpt lat="44.5408766" lon="8.0477859"><ele>718.0</ele><time>2026-04-18T16:30:51.922Z</time></trkpt><trkpt lat="44.5410267" lon="8.0479147"><ele>718.0</ele><time>2026-04-18T16:30:52.963Z</time></trkpt><trkpt lat="44.541028" lon="8.048243"><ele>718.0</ele><time>2026-04-18T16:30:54.936Z</time></trkpt><trkpt lat="44.5409671" lon="8.0486434"><ele>723.0</ele><time>2026-04-18T16:30:56.914Z</time></trkpt><trkpt lat="44.5408933" lon="8.0489547"><ele>728.0</ele><time>2026-04-18T16:30:57.96Z</time></trkpt><trkpt lat="44.5408032" lon="8.0493082"><ele>728.5</ele><time>2026-04-18T16:30:59.973Z</time></trkpt><trkpt lat="44.5407019" lon="8.0497671"><ele>729.0</ele><time>2026-04-18T16:31:01.91Z</time></trkpt><trkpt lat="44.5406215" lon="8.0501401"><ele>725.0</ele><time>2026-04-18T16:31:02.967Z</time></trkpt><trkpt lat="44.5404713" lon="8.0505393"><ele>721.0</ele><time>2026-04-18T16:31:04.979Z</time></trkpt><trkpt lat="44.5403012" lon="8.051026"><ele>725.0</ele><time>2026-04-18T16:31:06.918Z</time></trkpt><trkpt lat="44.5401803" lon="8.0514083"><ele>729.0</ele><time>2026-04-18T16:31:07.97Z</time></trkpt><trkpt lat="44.5400303" lon="8.05177"><ele>729.0</ele><time>2026-04-18T16:31:10.044Z</time></trkpt><trkpt lat="44.5398857" lon="8.0521547"><ele>729.0</ele><time>2026-04-18T16:31:11.921Z</time></trkpt><trkpt lat="44.5397911" lon="8.0524461"><ele>727.3333333333334</ele><time>2026-04-18T16:31:12.973Z</time></trkpt><trkpt lat="44.5397549" lon="8.0526759"><ele>725.6666666666667</ele><time>2026-04-18T16:31:14.574Z</time></trkpt><trkpt lat="44.5397547" lon="8.0529597"><ele>724.0</ele><time>2026-04-18T16:31:15.923Z</time></trkpt><trkpt lat="44.5398269" lon="8.0532983"><ele>724.0</ele><time>2026-04-18T16:31:16.963Z</time></trkpt><trkpt lat="44.5399085" lon="8.0535075"><ele>724.0</ele><time>2026-04-18T16:31:17.959Z</time></trkpt><trkpt lat="44.5400216" lon="8.0536878"><ele>724.0</ele><time>2026-04-18T16:31:19.486Z</time></trkpt><trkpt lat="44.5402262" lon="8.0539309"><ele>722.0</ele><time>2026-04-18T16:31:20.911Z</time></trkpt><trkpt lat="44.5404704" lon="8.0541564"><ele>720.0</ele><time>2026-04-18T16:31:21.953Z</time></trkpt><trkpt lat="44.5406224" lon="8.0543096"><ele>720.0</ele><time>2026-04-18T16:31:22.954Z</time></trkpt><trkpt lat="44.5407605" lon="8.0544968"><ele>720.0</ele><time>2026-04-18T16:31:23.969Z</time></trkpt><trkpt lat="44.540863" lon="8.0546278"><ele>720.0</ele><time>2026-04-18T16:31:25.128Z</time></trkpt><trkpt lat="44.5410702" lon="8.0550431"><ele>718.5</ele><time>2026-04-18T16:31:26.921Z</time></trkpt><trkpt lat="44.5412556" lon="8.0554024"><ele>717.0</ele><time>2026-04-18T16:31:28.228Z</time></trkpt><trkpt lat="44.5414737" lon="8.055885"><ele>721.5</ele><time>2026-04-18T16:31:30.191Z</time></trkpt><trkpt lat="44.541651" lon="8.0561741"><ele>726.0</ele><time>2026-04-18T16:31:31.594Z</time></trkpt><trkpt lat="44.5419532" lon="8.0565342"><ele>727.0</ele><time>2026-04-18T16:31:32.963Z</time></trkpt><trkpt lat="44.5421632" lon="8.0567438"><ele>728.0</ele><time>2026-04-18T16:31:34.7Z</time></trkpt><trkpt lat="44.5423793" lon="8.0569252"><ele>728.0</ele><time>2026-04-18T16:31:35.908Z</time></trkpt><trkpt lat="44.5426368" lon="8.0570937"><ele>728.0</ele><time>2026-04-18T16:31:36.966Z</time></trkpt><trkpt lat="44.5428081" lon="8.0571709"><ele>725.6666666666666</ele><time>2026-04-18T16:31:37.965Z</time></trkpt><trkpt lat="44.5429854" lon="8.0572295"><ele>723.3333333333334</ele><time>2026-04-18T16:31:38.973Z</time></trkpt><trkpt lat="44.5431245" lon="8.0572571"><ele>721.0</ele><time>2026-04-18T16:31:40.266Z</time></trkpt><trkpt lat="44.5434446" lon="8.0572632"><ele>721.0</ele><time>2026-04-18T16:31:41.924Z</time></trkpt><trkpt lat="44.5437404" lon="8.0572336"><ele>721.0</ele><time>2026-04-18T16:31:42.975Z</time></trkpt><trkpt lat="44.5439198" lon="8.0572405"><ele>721.0</ele><time>2026-04-18T16:31:43.969Z</time></trkpt><trkpt lat="44.5440679" lon="8.0572764"><ele>721.0</ele><time>2026-04-18T16:31:45.319Z</time></trkpt><trkpt lat="44.5443392" lon="8.0573828"><ele>721.0</ele><time>2026-04-18T16:31:46.914Z</time></trkpt><trkpt lat="44.544568" lon="8.0576333"><ele>721.6666666666667</ele><time>2026-04-18T16:31:47.971Z</time></trkpt><trkpt lat="44.5447236" lon="8.0577785"><ele>722.3333333333334</ele><time>2026-04-18T16:31:48.969Z</time></trkpt><trkpt lat="44.5448711" lon="8.0578649"><ele>723.0</ele><time>2026-04-18T16:31:50.337Z</time></trkpt><trkpt lat="44.5451635" lon="8.0580146"><ele>721.0</ele><time>2026-04-18T16:31:51.903Z</time></trkpt><trkpt lat="44.5454575" lon="8.0582123"><ele>719.0</ele><time>2026-04-18T16:31:52.964Z</time></trkpt><trkpt lat="44.5456378" lon="8.0583728"><ele>723.0</ele><time>2026-04-18T16:31:53.968Z</time></trkpt><trkpt lat="44.5458086" lon="8.0585249"><ele>727.0</ele><time>2026-04-18T16:31:55.361Z</time></trkpt><trkpt lat="44.5460741" lon="8.0587903"><ele>728.5</ele><time>2026-04-18T16:31:56.906Z</time></trkpt><trkpt lat="44.5463239" lon="8.0590413"><ele>730.0</ele><time>2026-04-18T16:31:57.964Z</time></trkpt><trkpt lat="44.5464656" lon="8.0591801"><ele>730.0</ele><time>2026-04-18T16:31:58.962Z</time></trkpt><trkpt lat="44.546612" lon="8.059258"><ele>730.0</ele><time>2026-04-18T16:32:00.429Z</time></trkpt><trkpt lat="44.5468499" lon="8.0592985"><ele>730.0</ele><time>2026-04-18T16:32:01.925Z</time></trkpt><trkpt lat="44.5471103" lon="8.0592837"><ele>730.6666666666667</ele><time>2026-04-18T16:32:02.971Z</time></trkpt><trkpt lat="44.547287" lon="8.0593008"><ele>731.3333333333334</ele><time>2026-04-18T16:32:03.964Z</time></trkpt><trkpt lat="44.5474567" lon="8.0593481"><ele>732.0</ele><time>2026-04-18T16:32:05.457Z</time></trkpt><trkpt lat="44.5477081" lon="8.0594884"><ele>732.0</ele><time>2026-04-18T16:32:06.913Z</time></trkpt><trkpt lat="44.5479519" lon="8.0596964"><ele>732.0</ele><time>2026-04-18T16:32:07.961Z</time></trkpt><trkpt lat="44.5481034" lon="8.0598434"><ele>731.3333333333334</ele><time>2026-04-18T16:32:08.97Z</time></trkpt><trkpt lat="44.5482511" lon="8.0600058"><ele>730.6666666666667</ele><time>2026-04-18T16:32:10.492Z</time></trkpt><trkpt lat="44.5484015" lon="8.0601702"><ele>730.0</ele><time>2026-04-18T16:32:11.635Z</time></trkpt><trkpt lat="44.5486362" lon="8.0604034"><ele>729.0</ele><time>2026-04-18T16:32:12.969Z</time></trkpt><trkpt lat="44.5487778" lon="8.0604841"><ele>728.0</ele><time>2026-04-18T16:32:13.959Z</time></trkpt><trkpt lat="44.5489418" lon="8.0605218"><ele>727.0</ele><time>2026-04-18T16:32:15.519Z</time></trkpt><trkpt lat="44.54916" lon="8.0605181"><ele>727.0</ele><time>2026-04-18T16:32:16.9Z</time></trkpt><trkpt lat="44.5493937" lon="8.0605632"><ele>727.0</ele><time>2026-04-18T16:32:17.956Z</time></trkpt><trkpt lat="44.5495225" lon="8.0606506"><ele>727.0</ele><time>2026-04-18T16:32:18.957Z</time></trkpt><trkpt lat="44.5496686" lon="8.0607639"><ele>726.3333333333334</ele><time>2026-04-18T16:32:20.549Z</time></trkpt><trkpt lat="44.5497994" lon="8.0609848"><ele>725.6666666666666</ele><time>2026-04-18T16:32:21.911Z</time></trkpt><trkpt lat="44.5499613" lon="8.0612383"><ele>725.0</ele><time>2026-04-18T16:32:22.954Z</time></trkpt><trkpt lat="44.5500692" lon="8.0613835"><ele>725.0</ele><time>2026-04-18T16:32:23.955Z</time></trkpt><trkpt lat="44.5502052" lon="8.0615026"><ele>725.0</ele><time>2026-04-18T16:32:25.558Z</time></trkpt><trkpt lat="44.5503819" lon="8.0615971"><ele>725.0</ele><time>2026-04-18T16:32:26.917Z</time></trkpt><trkpt lat="44.5506676" lon="8.0616857"><ele>725.0</ele><time>2026-04-18T16:32:29.022Z</time></trkpt><trkpt lat="44.5510321" lon="8.0617922"><ele>725.0</ele><time>2026-04-18T16:32:31.924Z</time></trkpt><trkpt lat="44.5512298" lon="8.0618597"><ele>725.0</ele><time>2026-04-18T16:32:32.967Z</time></trkpt><trkpt lat="44.5513517" lon="8.0619334"><ele>725.0</ele><time>2026-04-18T16:32:33.972Z</time></trkpt><trkpt lat="44.5514938" lon="8.0620699"><ele>725.0</ele><time>2026-04-18T16:32:35.634Z</time></trkpt><trkpt lat="44.5516423" lon="8.0622217"><ele>725.0</ele><time>2026-04-18T16:32:36.908Z</time></trkpt><trkpt lat="44.5518198" lon="8.0624131"><ele>725.0</ele><time>2026-04-18T16:32:37.953Z</time></trkpt><trkpt lat="44.5519348" lon="8.0625367"><ele>725.0</ele><time>2026-04-18T16:32:38.951Z</time></trkpt><trkpt lat="44.5520697" lon="8.062701"><ele>726.6666666666666</ele><time>2026-04-18T16:32:40.693Z</time></trkpt><trkpt lat="44.5522043" lon="8.0628478"><ele>728.3333333333334</ele><time>2026-04-18T16:32:41.917Z</time></trkpt><trkpt lat="44.5523697" lon="8.0630101"><ele>730.0</ele><time>2026-04-18T16:32:42.97Z</time></trkpt><trkpt lat="44.552489" lon="8.0630761"><ele>730.0</ele><time>2026-04-18T16:32:43.972Z</time></trkpt><trkpt lat="44.5526454" lon="8.0630986"><ele>730.0</ele><time>2026-04-18T16:32:45.751Z</time></trkpt><trkpt lat="44.5527924" lon="8.0630593"><ele>730.0</ele><time>2026-04-18T16:32:46.91Z</time></trkpt><trkpt lat="44.5529989" lon="8.0629672"><ele>730.6666666666667</ele><time>2026-04-18T16:32:47.972Z</time></trkpt><trkpt lat="44.5531273" lon="8.0628985"><ele>731.3333333333334</ele><time>2026-04-18T16:32:48.96Z</time></trkpt><trkpt lat="44.5532912" lon="8.0628152"><ele>732.0</ele><time>2026-04-18T16:32:50.76Z</time></trkpt><trkpt lat="44.5534612" lon="8.0627216"><ele>732.0</ele><time>2026-04-18T16:32:52.111Z</time></trkpt><trkpt lat="44.553686" lon="8.0626126"><ele>732.0</ele><time>2026-04-18T16:32:53.915Z</time></trkpt><trkpt lat="44.5539261" lon="8.0625563"><ele>731.5</ele><time>2026-04-18T16:32:55.825Z</time></trkpt><trkpt lat="44.5541832" lon="8.0625565"><ele>731.0</ele><time>2026-04-18T16:32:57.919Z</time></trkpt><trkpt lat="44.5543891" lon="8.0625892"><ele>731.0</ele><time>2026-04-18T16:32:58.96Z</time></trkpt><trkpt lat="44.5545255" lon="8.0626043"><ele>731.0</ele><time>2026-04-18T16:32:59.972Z</time></trkpt><trkpt lat="44.5546575" lon="8.0625922"><ele>731.0</ele><time>2026-04-18T16:33:00.971Z</time></trkpt><trkpt lat="44.55479" lon="8.0625545"><ele>731.0</ele><time>2026-04-18T16:33:01.971Z</time></trkpt><trkpt lat="44.5549174" lon="8.0624923"><ele>729.5</ele><time>2026-04-18T16:33:02.961Z</time></trkpt><trkpt lat="44.5550351" lon="8.0623972"><ele>728.0</ele><time>2026-04-18T16:33:03.97Z</time></trkpt><trkpt lat="44.5551434" lon="8.0622711"><ele>726.5</ele><time>2026-04-18T16:33:04.959Z</time></trkpt><trkpt lat="44.5552381" lon="8.0621318"><ele>725.0</ele><time>2026-04-18T16:33:05.962Z</time></trkpt><trkpt lat="44.5553159" lon="8.061972"><ele>728.25</ele><time>2026-04-18T16:33:06.97Z</time></trkpt><trkpt lat="44.5553925" lon="8.0618072"><ele>731.5</ele><time>2026-04-18T16:33:07.972Z</time></trkpt><trkpt lat="44.5554709" lon="8.0616464"><ele>734.75</ele><time>2026-04-18T16:33:08.97Z</time></trkpt><trkpt lat="44.5555407" lon="8.0614859"><ele>738.0</ele><time>2026-04-18T16:33:09.967Z</time></trkpt><trkpt lat="44.5556051" lon="8.0613292"><ele>738.0</ele><time>2026-04-18T16:33:10.965Z</time></trkpt><trkpt lat="44.5556698" lon="8.0611797"><ele>738.0</ele><time>2026-04-18T16:33:11.964Z</time></trkpt><trkpt lat="44.5557313" lon="8.0610269"><ele>738.0</ele><time>2026-04-18T16:33:12.96Z</time></trkpt><trkpt lat="44.5558031" lon="8.0608897"><ele>738.0</ele><time>2026-04-18T16:33:13.968Z</time></trkpt><trkpt lat="44.5558744" lon="8.0607466"><ele>736.0</ele><time>2026-04-18T16:33:14.964Z</time></trkpt><trkpt lat="44.555958" lon="8.0606222"><ele>734.0</ele><time>2026-04-18T16:33:15.963Z</time></trkpt><trkpt lat="44.5560534" lon="8.0605118"><ele>732.0</ele><time>2026-04-18T16:33:16.965Z</time></trkpt><trkpt lat="44.5561629" lon="8.0604281"><ele>730.0</ele><time>2026-04-18T16:33:17.971Z</time></trkpt><trkpt lat="44.556282" lon="8.0603656"><ele>730.0</ele><time>2026-04-18T16:33:18.965Z</time></trkpt><trkpt lat="44.5564021" lon="8.0603215"><ele>730.0</ele><time>2026-04-18T16:33:19.971Z</time></trkpt><trkpt lat="44.5565159" lon="8.0602827"><ele>730.0</ele><time>2026-04-18T16:33:20.962Z</time></trkpt><trkpt lat="44.5566259" lon="8.0602539"><ele>730.0</ele><time>2026-04-18T16:33:21.969Z</time></trkpt><trkpt lat="44.5567283" lon="8.0602179"><ele>730.0</ele><time>2026-04-18T16:33:22.971Z</time></trkpt><trkpt lat="44.5568267" lon="8.0601772"><ele>730.0</ele><time>2026-04-18T16:33:23.963Z</time></trkpt><trkpt lat="44.5569189" lon="8.0601262"><ele>730.0</ele><time>2026-04-18T16:33:24.971Z</time></trkpt><trkpt lat="44.5570132" lon="8.0600759"><ele>730.0</ele><time>2026-04-18T16:33:25.971Z</time></trkpt><trkpt lat="44.5571069" lon="8.0600207"><ele>730.0</ele><time>2026-04-18T16:33:26.965Z</time></trkpt><trkpt lat="44.5571958" lon="8.0599564"><ele>728.6</ele><time>2026-04-18T16:33:27.962Z</time></trkpt><trkpt lat="44.5573" lon="8.0599124"><ele>727.2</ele><time>2026-04-18T16:33:28.962Z</time></trkpt><trkpt lat="44.5573969" lon="8.059858"><ele>725.8</ele><time>2026-04-18T16:33:29.968Z</time></trkpt><trkpt lat="44.5574964" lon="8.0598012"><ele>724.4</ele><time>2026-04-18T16:33:30.973Z</time></trkpt><trkpt lat="44.5575938" lon="8.059746"><ele>723.0</ele><time>2026-04-18T16:33:31.96Z</time></trkpt><trkpt lat="44.557689" lon="8.0596899"><ele>723.0</ele><time>2026-04-18T16:33:32.971Z</time></trkpt><trkpt lat="44.5577831" lon="8.0596423"><ele>723.0</ele><time>2026-04-18T16:33:33.967Z</time></trkpt><trkpt lat="44.5578791" lon="8.0596118"><ele>723.0</ele><time>2026-04-18T16:33:34.965Z</time></trkpt><trkpt lat="44.5579795" lon="8.0596063"><ele>723.0</ele><time>2026-04-18T16:33:35.972Z</time></trkpt><trkpt lat="44.5580834" lon="8.0596022"><ele>723.0</ele><time>2026-04-18T16:33:36.962Z</time></trkpt><trkpt lat="44.5581826" lon="8.0596114"><ele>725.2</ele><time>2026-04-18T16:33:37.968Z</time></trkpt><trkpt lat="44.5582875" lon="8.0596331"><ele>727.4</ele><time>2026-04-18T16:33:38.97Z</time></trkpt><trkpt lat="44.5583945" lon="8.059666"><ele>729.6</ele><time>2026-04-18T16:33:39.96Z</time></trkpt><trkpt lat="44.5585081" lon="8.0596792"><ele>731.8000000000001</ele><time>2026-04-18T16:33:40.962Z</time></trkpt><trkpt lat="44.5586275" lon="8.0596916"><ele>734.0</ele><time>2026-04-18T16:33:41.962Z</time></trkpt><trkpt lat="44.5587505" lon="8.059643"><ele>735.75</ele><time>2026-04-18T16:33:42.962Z</time></trkpt><trkpt lat="44.558872" lon="8.0596059"><ele>737.5</ele><time>2026-04-18T16:33:43.962Z</time></trkpt><trkpt lat="44.5590023" lon="8.0595601"><ele>739.25</ele><time>2026-04-18T16:33:44.962Z</time></trkpt><trkpt lat="44.5591372" lon="8.059511"><ele>741.0</ele><time>2026-04-18T16:33:45.962Z</time></trkpt><trkpt lat="44.5592773" lon="8.059462"><ele>741.0</ele><time>2026-04-18T16:33:46.961Z</time></trkpt><trkpt lat="44.55942" lon="8.0594071"><ele>741.0</ele><time>2026-04-18T16:33:47.961Z</time></trkpt><trkpt lat="44.5595618" lon="8.0593469"><ele>741.0</ele><time>2026-04-18T16:33:48.961Z</time></trkpt><trkpt lat="44.5597047" lon="8.0592893"><ele>741.0</ele><time>2026-04-18T16:33:49.962Z</time></trkpt><trkpt lat="44.5598516" lon="8.0592312"><ele>740.0</ele><time>2026-04-18T16:33:50.962Z</time></trkpt><trkpt lat="44.5599999" lon="8.0591822"><ele>739.0</ele><time>2026-04-18T16:33:51.962Z</time></trkpt><trkpt lat="44.5601509" lon="8.0591473"><ele>738.0</ele><time>2026-04-18T16:33:52.962Z</time></trkpt><trkpt lat="44.5603101" lon="8.0591258"><ele>742.5</ele><time>2026-04-18T16:33:53.962Z</time></trkpt><trkpt lat="44.5604624" lon="8.0590982"><ele>747.0</ele><time>2026-04-18T16:33:54.961Z</time></trkpt><trkpt lat="44.5606119" lon="8.0590725"><ele>751.5</ele><time>2026-04-18T16:33:55.962Z</time></trkpt><trkpt lat="44.560755" lon="8.0590504"><ele>756.0</ele><time>2026-04-18T16:33:56.962Z</time></trkpt><trkpt lat="44.5608943" lon="8.0590328"><ele>756.0</ele><time>2026-04-18T16:33:57.962Z</time></trkpt><trkpt lat="44.5610345" lon="8.059049"><ele>756.0</ele><time>2026-04-18T16:33:58.961Z</time></trkpt><trkpt lat="44.5611709" lon="8.0591002"><ele>756.0</ele><time>2026-04-18T16:33:59.961Z</time></trkpt><trkpt lat="44.5613008" lon="8.0591784"><ele>756.0</ele><time>2026-04-18T16:34:00.961Z</time></trkpt><trkpt lat="44.5614226" lon="8.059284"><ele>751.25</ele><time>2026-04-18T16:34:01.961Z</time></trkpt><trkpt lat="44.5615362" lon="8.0593933"><ele>746.5</ele><time>2026-04-18T16:34:02.961Z</time></trkpt><trkpt lat="44.5616055" lon="8.0595636"><ele>741.75</ele><time>2026-04-18T16:34:03.961Z</time></trkpt><trkpt lat="44.5616769" lon="8.0597178"><ele>737.0</ele><time>2026-04-18T16:34:04.962Z</time></trkpt><trkpt lat="44.5617449" lon="8.0598616"><ele>733.5</ele><time>2026-04-18T16:34:05.962Z</time></trkpt><trkpt lat="44.5618347" lon="8.0599807"><ele>730.0</ele><time>2026-04-18T16:34:06.961Z</time></trkpt><trkpt lat="44.5619412" lon="8.0600702"><ele>726.5</ele><time>2026-04-18T16:34:07.961Z</time></trkpt><trkpt lat="44.5620571" lon="8.0601235"><ele>723.0</ele><time>2026-04-18T16:34:08.962Z</time></trkpt><trkpt lat="44.5621816" lon="8.0601514"><ele>723.0</ele><time>2026-04-18T16:34:09.961Z</time></trkpt><trkpt lat="44.5623118" lon="8.0601919"><ele>723.0</ele><time>2026-04-18T16:34:10.962Z</time></trkpt><trkpt lat="44.5624442" lon="8.0602326"><ele>723.0</ele><time>2026-04-18T16:34:11.962Z</time></trkpt><trkpt lat="44.5625781" lon="8.0602904"><ele>723.0</ele><time>2026-04-18T16:34:12.961Z</time></trkpt><trkpt lat="44.5627111" lon="8.0603746"><ele>723.0</ele><time>2026-04-18T16:34:13.962Z</time></trkpt><trkpt lat="44.5628385" lon="8.0604795"><ele>723.0</ele><time>2026-04-18T16:34:14.961Z</time></trkpt><trkpt lat="44.5629624" lon="8.0605959"><ele>723.0</ele><time>2026-04-18T16:34:15.962Z</time></trkpt><trkpt lat="44.5630719" lon="8.0607027"><ele>723.0</ele><time>2026-04-18T16:34:16.962Z</time></trkpt><trkpt lat="44.56317" lon="8.0608041"><ele>721.25</ele><time>2026-04-18T16:34:17.962Z</time></trkpt><trkpt lat="44.5632651" lon="8.0609014"><ele>719.5</ele><time>2026-04-18T16:34:18.962Z</time></trkpt><trkpt lat="44.5633584" lon="8.0609919"><ele>717.75</ele><time>2026-04-18T16:34:19.962Z</time></trkpt><trkpt lat="44.5634493" lon="8.0610826"><ele>716.0</ele><time>2026-04-18T16:34:20.962Z</time></trkpt><trkpt lat="44.5635418" lon="8.0611778"><ele>716.0</ele><time>2026-04-18T16:34:21.961Z</time></trkpt><trkpt lat="44.5636357" lon="8.0612721"><ele>716.0</ele><time>2026-04-18T16:34:22.961Z</time></trkpt><trkpt lat="44.563732" lon="8.0613685"><ele>716.0</ele><time>2026-04-18T16:34:23.962Z</time></trkpt><trkpt lat="44.5638338" lon="8.0614673"><ele>716.0</ele><time>2026-04-18T16:34:24.962Z</time></trkpt><trkpt lat="44.5639397" lon="8.0615705"><ele>716.25</ele><time>2026-04-18T16:34:25.962Z</time></trkpt><trkpt lat="44.564048" lon="8.0616762"><ele>716.5</ele><time>2026-04-18T16:34:26.962Z</time></trkpt><trkpt lat="44.5641579" lon="8.0617885"><ele>716.75</ele><time>2026-04-18T16:34:27.962Z</time></trkpt><trkpt lat="44.5642738" lon="8.0619038"><ele>717.0</ele><time>2026-04-18T16:34:28.962Z</time></trkpt><trkpt lat="44.5643923" lon="8.062019"><ele>717.0</ele><time>2026-04-18T16:34:29.961Z</time></trkpt><trkpt lat="44.5645096" lon="8.0621366"><ele>717.0</ele><time>2026-04-18T16:34:30.962Z</time></trkpt><trkpt lat="44.5646346" lon="8.0622591"><ele>717.0</ele><time>2026-04-18T16:34:31.962Z</time></trkpt><trkpt lat="44.5647588" lon="8.0623818"><ele>717.0</ele><time>2026-04-18T16:34:32.961Z</time></trkpt><trkpt lat="44.5650497" lon="8.0626824"><ele>716.0</ele><time>2026-04-18T16:34:35.857Z</time></trkpt><trkpt lat="44.5652741" lon="8.0628965"><ele>715.0</ele><time>2026-04-18T16:34:37.597Z</time></trkpt><trkpt lat="44.5655175" lon="8.0630808"><ele>713.5</ele><time>2026-04-18T16:34:38.959Z</time></trkpt><trkpt lat="44.5656577" lon="8.0631474"><ele>712.0</ele><time>2026-04-18T16:34:39.966Z</time></trkpt><trkpt lat="44.5658014" lon="8.0631905"><ele>710.5</ele><time>2026-04-18T16:34:40.972Z</time></trkpt><trkpt lat="44.5659487" lon="8.0632149"><ele>709.0</ele><time>2026-04-18T16:34:41.963Z</time></trkpt><trkpt lat="44.5660991" lon="8.0632286"><ele>708.25</ele><time>2026-04-18T16:34:42.969Z</time></trkpt><trkpt lat="44.5662468" lon="8.0632188"><ele>707.5</ele><time>2026-04-18T16:34:43.959Z</time></trkpt><trkpt lat="44.5663942" lon="8.0631766"><ele>706.75</ele><time>2026-04-18T16:34:44.963Z</time></trkpt><trkpt lat="44.566536" lon="8.0631065"><ele>706.0</ele><time>2026-04-18T16:34:45.963Z</time></trkpt><trkpt lat="44.5666776" lon="8.0630265"><ele>716.0</ele><time>2026-04-18T16:34:46.96Z</time></trkpt><trkpt lat="44.5673686" lon="8.0625455"><ele>712.0</ele><time>2026-04-18T16:34:51.966Z</time></trkpt><trkpt lat="44.5674857" lon="8.0624368"><ele>708.0</ele><time>2026-04-18T16:34:52.964Z</time></trkpt><trkpt lat="44.5675959" lon="8.0623247"><ele>704.0</ele><time>2026-04-18T16:34:53.96Z</time></trkpt><trkpt lat="44.5677066" lon="8.0622226"><ele>700.0</ele><time>2026-04-18T16:34:54.971Z</time></trkpt><trkpt lat="44.5678257" lon="8.0621355"><ele>702.0</ele><time>2026-04-18T16:34:55.969Z</time></trkpt><trkpt lat="44.5679583" lon="8.0620722"><ele>704.0</ele><time>2026-04-18T16:34:56.96Z</time></trkpt><trkpt lat="44.5680971" lon="8.0620248"><ele>706.0</ele><time>2026-04-18T16:34:57.96Z</time></trkpt><trkpt lat="44.5682449" lon="8.0619995"><ele>708.0</ele><time>2026-04-18T16:34:58.972Z</time></trkpt><trkpt lat="44.5683904" lon="8.0619801"><ele>708.0</ele><time>2026-04-18T16:34:59.97Z</time></trkpt><trkpt lat="44.5685325" lon="8.0619638"><ele>708.0</ele><time>2026-04-18T16:35:00.972Z</time></trkpt><trkpt lat="44.5686683" lon="8.0619443"><ele>708.0</ele><time>2026-04-18T16:35:01.963Z</time></trkpt><trkpt lat="44.5688012" lon="8.0619255"><ele>708.0</ele><time>2026-04-18T16:35:02.963Z</time></trkpt><trkpt lat="44.5689267" lon="8.0619138"><ele>708.25</ele><time>2026-04-18T16:35:03.962Z</time></trkpt><trkpt lat="44.5690515" lon="8.0619188"><ele>708.5</ele><time>2026-04-18T16:35:04.963Z</time></trkpt><trkpt lat="44.56918" lon="8.0619641"><ele>708.75</ele><time>2026-04-18T16:35:05.963Z</time></trkpt><trkpt lat="44.5693026" lon="8.0620535"><ele>709.0</ele><time>2026-04-18T16:35:06.962Z</time></trkpt><trkpt lat="44.5694141" lon="8.062175"><ele>709.0</ele><time>2026-04-18T16:35:07.963Z</time></trkpt><trkpt lat="44.5695132" lon="8.0623165"><ele>709.0</ele><time>2026-04-18T16:35:08.963Z</time></trkpt><trkpt lat="44.5695982" lon="8.0624736"><ele>709.0</ele><time>2026-04-18T16:35:09.962Z</time></trkpt><trkpt lat="44.5696791" lon="8.0626187"><ele>709.0</ele><time>2026-04-18T16:35:10.963Z</time></trkpt><trkpt lat="44.5697533" lon="8.0627636"><ele>710.0</ele><time>2026-04-18T16:35:11.962Z</time></trkpt><trkpt lat="44.5698282" lon="8.0629001"><ele>711.0</ele><time>2026-04-18T16:35:12.962Z</time></trkpt><trkpt lat="44.5699009" lon="8.0630406"><ele>712.0</ele><time>2026-04-18T16:35:13.963Z</time></trkpt><trkpt lat="44.5699748" lon="8.0631795"><ele>713.0</ele><time>2026-04-18T16:35:14.963Z</time></trkpt><trkpt lat="44.5700514" lon="8.0633209"><ele>713.0</ele><time>2026-04-18T16:35:15.962Z</time></trkpt><trkpt lat="44.5701254" lon="8.0634732"><ele>713.0</ele><time>2026-04-18T16:35:16.962Z</time></trkpt><trkpt lat="44.5702006" lon="8.063623"><ele>713.0</ele><time>2026-04-18T16:35:17.963Z</time></trkpt><trkpt lat="44.5702768" lon="8.0637765"><ele>713.0</ele><time>2026-04-18T16:35:18.963Z</time></trkpt><trkpt lat="44.5703588" lon="8.0639275"><ele>713.0</ele><time>2026-04-18T16:35:19.962Z</time></trkpt><trkpt lat="44.5704428" lon="8.0640807"><ele>713.0</ele><time>2026-04-18T16:35:20.963Z</time></trkpt><trkpt lat="44.5705263" lon="8.0642352"><ele>713.0</ele><time>2026-04-18T16:35:21.962Z</time></trkpt><trkpt lat="44.5706088" lon="8.0643928"><ele>713.0</ele><time>2026-04-18T16:35:22.963Z</time></trkpt><trkpt lat="44.5706897" lon="8.0645514"><ele>714.6666666666666</ele><time>2026-04-18T16:35:23.963Z</time></trkpt><trkpt lat="44.5707711" lon="8.0647154"><ele>716.3333333333334</ele><time>2026-04-18T16:35:24.963Z</time></trkpt><trkpt lat="44.5708968" lon="8.0649506"><ele>718.0</ele><time>2026-04-18T16:35:26.876Z</time></trkpt><trkpt lat="44.5709906" lon="8.0651099"><ele>718.0</ele><time>2026-04-18T16:35:27.916Z</time></trkpt><trkpt lat="44.5711434" lon="8.0654476"><ele>718.0</ele><time>2026-04-18T16:35:29.887Z</time></trkpt><trkpt lat="44.5712355" lon="8.0657284"><ele>721.75</ele><time>2026-04-18T16:35:30.964Z</time></trkpt><trkpt lat="44.5712793" lon="8.0659087"><ele>725.5</ele><time>2026-04-18T16:35:31.962Z</time></trkpt><trkpt lat="44.5713118" lon="8.0660905"><ele>729.25</ele><time>2026-04-18T16:35:32.955Z</time></trkpt><trkpt lat="44.5713486" lon="8.06626"><ele>733.0</ele><time>2026-04-18T16:35:33.961Z</time></trkpt><trkpt lat="44.5714087" lon="8.0664162"><ele>733.0</ele><time>2026-04-18T16:35:34.952Z</time></trkpt><trkpt lat="44.5714804" lon="8.0665596"><ele>733.0</ele><time>2026-04-18T16:35:35.97Z</time></trkpt><trkpt lat="44.5715802" lon="8.0666741"><ele>733.0</ele><time>2026-04-18T16:35:36.961Z</time></trkpt><trkpt lat="44.5716982" lon="8.0667561"><ele>733.0</ele><time>2026-04-18T16:35:37.958Z</time></trkpt><trkpt lat="44.5718322" lon="8.066803"><ele>733.3333333333334</ele><time>2026-04-18T16:35:38.97Z</time></trkpt><trkpt lat="44.5719796" lon="8.0668339"><ele>733.6666666666666</ele><time>2026-04-18T16:35:39.972Z</time></trkpt><trkpt lat="44.5721307" lon="8.0668629"><ele>734.0</ele><time>2026-04-18T16:35:40.965Z</time></trkpt><trkpt lat="44.5722828" lon="8.066891"><ele>734.0</ele><time>2026-04-18T16:35:41.96Z</time></trkpt><trkpt lat="44.5724269" lon="8.0669154"><ele>734.0</ele><time>2026-04-18T16:35:42.971Z</time></trkpt><trkpt lat="44.5725591" lon="8.0669445"><ele>734.0</ele><time>2026-04-18T16:35:43.961Z</time></trkpt><trkpt lat="44.5726821" lon="8.0670037"><ele>734.0</ele><time>2026-04-18T16:35:44.971Z</time></trkpt><trkpt lat="44.5727961" lon="8.0670954"><ele>734.75</ele><time>2026-04-18T16:35:45.966Z</time></trkpt><trkpt lat="44.5728954" lon="8.0672158"><ele>735.5</ele><time>2026-04-18T16:35:46.967Z</time></trkpt><trkpt lat="44.5729799" lon="8.0673822"><ele>736.25</ele><time>2026-04-18T16:35:47.97Z</time></trkpt><trkpt lat="44.5730518" lon="8.0675372"><ele>737.0</ele><time>2026-04-18T16:35:48.966Z</time></trkpt><trkpt lat="44.5731117" lon="8.0677064"><ele>737.0</ele><time>2026-04-18T16:35:49.965Z</time></trkpt><trkpt lat="44.5731482" lon="8.0678773"><ele>737.0</ele><time>2026-04-18T16:35:51.043Z</time></trkpt><trkpt lat="44.5731868" lon="8.0680337"><ele>737.0</ele><time>2026-04-18T16:35:51.962Z</time></trkpt><trkpt lat="44.5732486" lon="8.0681792"><ele>737.0</ele><time>2026-04-18T16:35:52.971Z</time></trkpt><trkpt lat="44.5733228" lon="8.0682979"><ele>736.5</ele><time>2026-04-18T16:35:53.97Z</time></trkpt><trkpt lat="44.5734175" lon="8.0683867"><ele>736.0</ele><time>2026-04-18T16:35:54.972Z</time></trkpt><trkpt lat="44.5735309" lon="8.068432"><ele>735.5</ele><time>2026-04-18T16:35:55.968Z</time></trkpt><trkpt lat="44.573651" lon="8.0684565"><ele>735.0</ele><time>2026-04-18T16:35:56.966Z</time></trkpt><trkpt lat="44.5737781" lon="8.068467"><ele>735.0</ele><time>2026-04-18T16:35:57.957Z</time></trkpt><trkpt lat="44.5739129" lon="8.0684746"><ele>735.0</ele><time>2026-04-18T16:35:58.965Z</time></trkpt><trkpt lat="44.5740518" lon="8.0684904"><ele>735.0</ele><time>2026-04-18T16:35:59.971Z</time></trkpt><trkpt lat="44.5741873" lon="8.0685367"><ele>735.0</ele><time>2026-04-18T16:36:00.97Z</time></trkpt><trkpt lat="44.5743283" lon="8.0686006"><ele>735.0</ele><time>2026-04-18T16:36:01.965Z</time></trkpt><trkpt lat="44.574453" lon="8.0686812"><ele>735.0</ele><time>2026-04-18T16:36:02.971Z</time></trkpt><trkpt lat="44.5745699" lon="8.0687901"><ele>735.0</ele><time>2026-04-18T16:36:03.97Z</time></trkpt><trkpt lat="44.5746697" lon="8.0689218"><ele>735.0</ele><time>2026-04-18T16:36:04.969Z</time></trkpt><trkpt lat="44.5747433" lon="8.0690706"><ele>734.0</ele><time>2026-04-18T16:36:05.968Z</time></trkpt><trkpt lat="44.5747989" lon="8.0692359"><ele>733.0</ele><time>2026-04-18T16:36:06.971Z</time></trkpt><trkpt lat="44.5748433" lon="8.0694041"><ele>732.0</ele><time>2026-04-18T16:36:07.971Z</time></trkpt><trkpt lat="44.5748829" lon="8.0695706"><ele>731.0</ele><time>2026-04-18T16:36:08.96Z</time></trkpt><trkpt lat="44.5749331" lon="8.0697254"><ele>731.0</ele><time>2026-04-18T16:36:09.966Z</time></trkpt><trkpt lat="44.5750004" lon="8.0698734"><ele>731.0</ele><time>2026-04-18T16:36:10.97Z</time></trkpt><trkpt lat="44.5750845" lon="8.0700156"><ele>731.0</ele><time>2026-04-18T16:36:11.972Z</time></trkpt><trkpt lat="44.5751809" lon="8.0701507"><ele>731.0</ele><time>2026-04-18T16:36:12.966Z</time></trkpt><trkpt lat="44.575291" lon="8.0702743"><ele>729.6666666666666</ele><time>2026-04-18T16:36:13.958Z</time></trkpt><trkpt lat="44.5754155" lon="8.0703938"><ele>728.3333333333334</ele><time>2026-04-18T16:36:14.971Z</time></trkpt><trkpt lat="44.5755417" lon="8.0705127"><ele>727.0</ele><time>2026-04-18T16:36:15.968Z</time></trkpt><trkpt lat="44.575671" lon="8.0706276"><ele>727.0</ele><time>2026-04-18T16:36:16.972Z</time></trkpt><trkpt lat="44.5758031" lon="8.0707424"><ele>727.0</ele><time>2026-04-18T16:36:17.972Z</time></trkpt><trkpt lat="44.5759282" lon="8.0708562"><ele>727.0</ele><time>2026-04-18T16:36:18.961Z</time></trkpt><trkpt lat="44.5760457" lon="8.0709705"><ele>727.0</ele><time>2026-04-18T16:36:19.969Z</time></trkpt><trkpt lat="44.5761574" lon="8.0710853"><ele>725.5</ele><time>2026-04-18T16:36:20.966Z</time></trkpt><trkpt lat="44.5762643" lon="8.0711975"><ele>724.0</ele><time>2026-04-18T16:36:21.959Z</time></trkpt><trkpt lat="44.5763741" lon="8.0712994"><ele>722.5</ele><time>2026-04-18T16:36:22.972Z</time></trkpt><trkpt lat="44.5764825" lon="8.0713981"><ele>721.0</ele><time>2026-04-18T16:36:23.971Z</time></trkpt><trkpt lat="44.5765925" lon="8.0714986"><ele>721.0</ele><time>2026-04-18T16:36:24.961Z</time></trkpt><trkpt lat="44.5767048" lon="8.0715953"><ele>721.0</ele><time>2026-04-18T16:36:25.969Z</time></trkpt><trkpt lat="44.5768215" lon="8.0716903"><ele>721.0</ele><time>2026-04-18T16:36:26.97Z</time></trkpt><trkpt lat="44.5769323" lon="8.0717818"><ele>721.0</ele><time>2026-04-18T16:36:27.971Z</time></trkpt><trkpt lat="44.5770389" lon="8.0718661"><ele>720.25</ele><time>2026-04-18T16:36:28.964Z</time></trkpt><trkpt lat="44.5771453" lon="8.0719551"><ele>719.5</ele><time>2026-04-18T16:36:29.966Z</time></trkpt><trkpt lat="44.5772494" lon="8.0720592"><ele>718.75</ele><time>2026-04-18T16:36:30.96Z</time></trkpt><trkpt lat="44.5773536" lon="8.0721752"><ele>718.0</ele><time>2026-04-18T16:36:31.965Z</time></trkpt><trkpt lat="44.5774578" lon="8.0723071"><ele>718.0</ele><time>2026-04-18T16:36:32.97Z</time></trkpt><trkpt lat="44.577555" lon="8.0724384"><ele>718.0</ele><time>2026-04-18T16:36:33.966Z</time></trkpt><trkpt lat="44.577656" lon="8.0725675"><ele>718.0</ele><time>2026-04-18T16:36:34.972Z</time></trkpt><trkpt lat="44.5777532" lon="8.0726948"><ele>718.0</ele><time>2026-04-18T16:36:35.969Z</time></trkpt><trkpt lat="44.5778529" lon="8.0728227"><ele>717.75</ele><time>2026-04-18T16:36:36.96Z</time></trkpt><trkpt lat="44.5779473" lon="8.072954"><ele>717.5</ele><time>2026-04-18T16:36:37.96Z</time></trkpt><trkpt lat="44.578042" lon="8.0730842"><ele>717.25</ele><time>2026-04-18T16:36:38.973Z</time></trkpt><trkpt lat="44.5781398" lon="8.0732168"><ele>717.0</ele><time>2026-04-18T16:36:39.97Z</time></trkpt><trkpt lat="44.5782481" lon="8.0733543"><ele>717.0</ele><time>2026-04-18T16:36:40.971Z</time></trkpt><trkpt lat="44.5783673" lon="8.0734795"><ele>717.0</ele><time>2026-04-18T16:36:41.963Z</time></trkpt><trkpt lat="44.5784969" lon="8.0736006"><ele>717.0</ele><time>2026-04-18T16:36:42.972Z</time></trkpt><trkpt lat="44.578633" lon="8.0737182"><ele>711.0</ele><time>2026-04-18T16:36:43.977Z</time></trkpt><trkpt lat="44.5787722" lon="8.0738398"><ele>705.0</ele><time>2026-04-18T16:36:44.966Z</time></trkpt><trkpt lat="44.578915" lon="8.0739619"><ele>699.0</ele><time>2026-04-18T16:36:45.96Z</time></trkpt><trkpt lat="44.5790559" lon="8.0740924"><ele>703.0</ele><time>2026-04-18T16:36:46.972Z</time></trkpt><trkpt lat="44.5791998" lon="8.0742206"><ele>707.0</ele><time>2026-04-18T16:36:47.962Z</time></trkpt><trkpt lat="44.5793454" lon="8.0743484"><ele>711.0</ele><time>2026-04-18T16:36:48.968Z</time></trkpt><trkpt lat="44.5794864" lon="8.0744729"><ele>706.3333333333334</ele><time>2026-04-18T16:36:49.968Z</time></trkpt><trkpt lat="44.5796244" lon="8.0745977"><ele>701.6666666666667</ele><time>2026-04-18T16:36:50.96Z</time></trkpt><trkpt lat="44.5797655" lon="8.074718"><ele>697.0</ele><time>2026-04-18T16:36:51.969Z</time></trkpt><trkpt lat="44.5799107" lon="8.0748292"><ele>697.0</ele><time>2026-04-18T16:36:52.967Z</time></trkpt><trkpt lat="44.5800603" lon="8.0749022"><ele>697.0</ele><time>2026-04-18T16:36:53.961Z</time></trkpt><trkpt lat="44.5802222" lon="8.0749164"><ele>697.0</ele><time>2026-04-18T16:36:55.465Z</time></trkpt><trkpt lat="44.5806437" lon="8.0748329"><ele>694.0</ele><time>2026-04-18T16:36:57.886Z</time></trkpt><trkpt lat="44.5809215" lon="8.0747205"><ele>691.0</ele><time>2026-04-18T16:36:58.972Z</time></trkpt><trkpt lat="44.5810886" lon="8.0746444"><ele>690.6666666666667</ele><time>2026-04-18T16:36:59.963Z</time></trkpt><trkpt lat="44.5812517" lon="8.0745625"><ele>690.3333333333334</ele><time>2026-04-18T16:37:00.969Z</time></trkpt><trkpt lat="44.5814172" lon="8.074489"><ele>690.0</ele><time>2026-04-18T16:37:01.961Z</time></trkpt><trkpt lat="44.5815879" lon="8.07443"><ele>690.0</ele><time>2026-04-18T16:37:02.972Z</time></trkpt><trkpt lat="44.5817591" lon="8.0743793"><ele>690.0</ele><time>2026-04-18T16:37:03.96Z</time></trkpt><trkpt lat="44.5819326" lon="8.0743471"><ele>690.0</ele><time>2026-04-18T16:37:04.972Z</time></trkpt><trkpt lat="44.5821172" lon="8.0743631"><ele>688.0</ele><time>2026-04-18T16:37:05.973Z</time></trkpt><trkpt lat="44.5823016" lon="8.0744108"><ele>686.0</ele><time>2026-04-18T16:37:06.97Z</time></trkpt><trkpt lat="44.5824779" lon="8.0744814"><ele>684.0</ele><time>2026-04-18T16:37:07.965Z</time></trkpt><trkpt lat="44.582646" lon="8.0745638"><ele>684.0</ele><time>2026-04-18T16:37:08.974Z</time></trkpt><trkpt lat="44.582807" lon="8.0746555"><ele>684.0</ele><time>2026-04-18T16:37:09.96Z</time></trkpt><trkpt lat="44.5829646" lon="8.074744"><ele>684.0</ele><time>2026-04-18T16:37:10.962Z</time></trkpt><trkpt lat="44.5831195" lon="8.0748329"><ele>682.6666666666666</ele><time>2026-04-18T16:37:11.959Z</time></trkpt><trkpt lat="44.5832683" lon="8.0749149"><ele>681.3333333333333</ele><time>2026-04-18T16:37:12.972Z</time></trkpt><trkpt lat="44.5834038" lon="8.0749919"><ele>680.0</ele><time>2026-04-18T16:37:13.967Z</time></trkpt><trkpt lat="44.5835403" lon="8.0750663"><ele>680.5</ele><time>2026-04-18T16:37:14.971Z</time></trkpt><trkpt lat="44.5836764" lon="8.0751315"><ele>681.0</ele><time>2026-04-18T16:37:15.963Z</time></trkpt><trkpt lat="44.5838138" lon="8.075175"><ele>681.5</ele><time>2026-04-18T16:37:16.971Z</time></trkpt><trkpt lat="44.5839612" lon="8.0751899"><ele>682.0</ele><time>2026-04-18T16:37:17.96Z</time></trkpt><trkpt lat="44.5841096" lon="8.0751756"><ele>682.0</ele><time>2026-04-18T16:37:18.962Z</time></trkpt><trkpt lat="44.5842575" lon="8.0751292"><ele>682.0</ele><time>2026-04-18T16:37:19.971Z</time></trkpt><trkpt lat="44.5844022" lon="8.0750593"><ele>682.0</ele><time>2026-04-18T16:37:20.967Z</time></trkpt><trkpt lat="44.5845418" lon="8.0749804"><ele>679.75</ele><time>2026-04-18T16:37:21.971Z</time></trkpt><trkpt lat="44.5846806" lon="8.0749108"><ele>677.5</ele><time>2026-04-18T16:37:22.97Z</time></trkpt><trkpt lat="44.5848118" lon="8.0748407"><ele>675.25</ele><time>2026-04-18T16:37:23.974Z</time></trkpt><trkpt lat="44.5849417" lon="8.0747699"><ele>673.0</ele><time>2026-04-18T16:37:24.97Z</time></trkpt><trkpt lat="44.5850649" lon="8.0746999"><ele>673.0</ele><time>2026-04-18T16:37:25.961Z</time></trkpt><trkpt lat="44.5851898" lon="8.0746346"><ele>673.0</ele><time>2026-04-18T16:37:26.962Z</time></trkpt><trkpt lat="44.5853143" lon="8.0745834"><ele>673.0</ele><time>2026-04-18T16:37:27.97Z</time></trkpt><trkpt lat="44.5854435" lon="8.0745561"><ele>673.0</ele><time>2026-04-18T16:37:28.967Z</time></trkpt><trkpt lat="44.585579" lon="8.0745608"><ele>673.0</ele><time>2026-04-18T16:37:29.971Z</time></trkpt><trkpt lat="44.5857163" lon="8.0745817"><ele>673.0</ele><time>2026-04-18T16:37:30.975Z</time></trkpt><trkpt lat="44.5858499" lon="8.0746117"><ele>673.0</ele><time>2026-04-18T16:37:31.97Z</time></trkpt><trkpt lat="44.5859913" lon="8.0746433"><ele>673.0</ele><time>2026-04-18T16:37:32.969Z</time></trkpt><trkpt lat="44.5861299" lon="8.0746772"><ele>673.0</ele><time>2026-04-18T16:37:33.949Z</time></trkpt><trkpt lat="44.5862651" lon="8.074715"><ele>673.0</ele><time>2026-04-18T16:37:34.969Z</time></trkpt><trkpt lat="44.5863966" lon="8.0747536"><ele>673.0</ele><time>2026-04-18T16:37:35.969Z</time></trkpt><trkpt lat="44.5865294" lon="8.0747914"><ele>673.0</ele><time>2026-04-18T16:37:36.971Z</time></trkpt><trkpt lat="44.5866608" lon="8.0748285"><ele>673.0</ele><time>2026-04-18T16:37:37.968Z</time></trkpt><trkpt lat="44.5867931" lon="8.0748741"><ele>673.0</ele><time>2026-04-18T16:37:38.967Z</time></trkpt><trkpt lat="44.586922" lon="8.0749153"><ele>673.0</ele><time>2026-04-18T16:37:39.972Z</time></trkpt><trkpt lat="44.5870468" lon="8.0749439"><ele>673.0</ele><time>2026-04-18T16:37:40.969Z</time></trkpt><trkpt lat="44.5871645" lon="8.0749681"><ele>675.2</ele><time>2026-04-18T16:37:41.956Z</time></trkpt><trkpt lat="44.5872745" lon="8.0749781"><ele>677.4</ele><time>2026-04-18T16:37:42.959Z</time></trkpt><trkpt lat="44.5873778" lon="8.0749787"><ele>679.6</ele><time>2026-04-18T16:37:43.971Z</time></trkpt><trkpt lat="44.5874775" lon="8.0749883"><ele>681.8000000000001</ele><time>2026-04-18T16:37:44.959Z</time></trkpt><trkpt lat="44.5875691" lon="8.0750007"><ele>684.0</ele><time>2026-04-18T16:37:45.971Z</time></trkpt><trkpt lat="44.5876642" lon="8.075013"><ele>684.0</ele><time>2026-04-18T16:37:46.96Z</time></trkpt><trkpt lat="44.5877579" lon="8.0749935"><ele>684.0</ele><time>2026-04-18T16:37:47.954Z</time></trkpt><trkpt lat="44.5878606" lon="8.0749713"><ele>684.0</ele><time>2026-04-18T16:37:48.969Z</time></trkpt><trkpt lat="44.5879712" lon="8.0749582"><ele>684.0</ele><time>2026-04-18T16:37:49.958Z</time></trkpt><trkpt lat="44.5880886" lon="8.0749554"><ele>684.0</ele><time>2026-04-18T16:37:50.954Z</time></trkpt><trkpt lat="44.5882079" lon="8.0749663"><ele>685.25</ele><time>2026-04-18T16:37:51.961Z</time></trkpt><trkpt lat="44.5883284" lon="8.0749958"><ele>686.5</ele><time>2026-04-18T16:37:52.965Z</time></trkpt><trkpt lat="44.5884422" lon="8.0750649"><ele>687.75</ele><time>2026-04-18T16:37:53.971Z</time></trkpt><trkpt lat="44.5885377" lon="8.0751713"><ele>689.0</ele><time>2026-04-18T16:37:54.973Z</time></trkpt><trkpt lat="44.5886117" lon="8.0753082"><ele>691.5</ele><time>2026-04-18T16:37:55.974Z</time></trkpt><trkpt lat="44.5886822" lon="8.0754476"><ele>694.0</ele><time>2026-04-18T16:37:56.97Z</time></trkpt><trkpt lat="44.5887381" lon="8.075598"><ele>696.5</ele><time>2026-04-18T16:37:57.959Z</time></trkpt><trkpt lat="44.5887909" lon="8.0757444"><ele>699.0</ele><time>2026-04-18T16:37:58.968Z</time></trkpt><trkpt lat="44.5888509" lon="8.0758902"><ele>699.0</ele><time>2026-04-18T16:37:59.957Z</time></trkpt><trkpt lat="44.5889131" lon="8.076024"><ele>699.0</ele><time>2026-04-18T16:38:00.966Z</time></trkpt><trkpt lat="44.5889939" lon="8.0761456"><ele>699.0</ele><time>2026-04-18T16:38:01.967Z</time></trkpt><trkpt lat="44.5890938" lon="8.0762478"><ele>699.0</ele><time>2026-04-18T16:38:02.966Z</time></trkpt><trkpt lat="44.589208" lon="8.0763333"><ele>699.0</ele><time>2026-04-18T16:38:03.971Z</time></trkpt><trkpt lat="44.5893337" lon="8.0763932"><ele>699.0</ele><time>2026-04-18T16:38:04.969Z</time></trkpt><trkpt lat="44.5894645" lon="8.0764419"><ele>699.0</ele><time>2026-04-18T16:38:05.959Z</time></trkpt><trkpt lat="44.5895977" lon="8.0764744"><ele>699.0</ele><time>2026-04-18T16:38:06.965Z</time></trkpt><trkpt lat="44.5897356" lon="8.0764747"><ele>701.5</ele><time>2026-04-18T16:38:07.968Z</time></trkpt><trkpt lat="44.5898705" lon="8.076453"><ele>704.0</ele><time>2026-04-18T16:38:08.965Z</time></trkpt><trkpt lat="44.5900018" lon="8.0764394"><ele>706.5</ele><time>2026-04-18T16:38:09.969Z</time></trkpt><trkpt lat="44.5901326" lon="8.07645"><ele>709.0</ele><time>2026-04-18T16:38:10.968Z</time></trkpt><trkpt lat="44.5902613" lon="8.0764824"><ele>705.0</ele><time>2026-04-18T16:38:11.968Z</time></trkpt><trkpt lat="44.5903799" lon="8.076539"><ele>701.0</ele><time>2026-04-18T16:38:12.967Z</time></trkpt><trkpt lat="44.5904896" lon="8.076626"><ele>697.0</ele><time>2026-04-18T16:38:13.955Z</time></trkpt><trkpt lat="44.5905843" lon="8.0767365"><ele>693.0</ele><time>2026-04-18T16:38:14.97Z</time></trkpt><trkpt lat="44.5906602" lon="8.0768717"><ele>692.25</ele><time>2026-04-18T16:38:15.97Z</time></trkpt><trkpt lat="44.5907187" lon="8.0770215"><ele>691.5</ele><time>2026-04-18T16:38:16.967Z</time></trkpt><trkpt lat="44.5907618" lon="8.0771767"><ele>690.75</ele><time>2026-04-18T16:38:17.971Z</time></trkpt><trkpt lat="44.5907879" lon="8.0773335"><ele>690.0</ele><time>2026-04-18T16:38:18.969Z</time></trkpt><trkpt lat="44.5907988" lon="8.0774982"><ele>690.0</ele><time>2026-04-18T16:38:19.969Z</time></trkpt><trkpt lat="44.5908009" lon="8.0776645"><ele>690.0</ele><time>2026-04-18T16:38:20.968Z</time></trkpt><trkpt lat="44.5907907" lon="8.0778281"><ele>690.0</ele><time>2026-04-18T16:38:21.961Z</time></trkpt><trkpt lat="44.5907781" lon="8.0779831"><ele>690.0</ele><time>2026-04-18T16:38:22.965Z</time></trkpt><trkpt lat="44.5907763" lon="8.0781351"><ele>690.2</ele><time>2026-04-18T16:38:23.971Z</time></trkpt><trkpt lat="44.5907954" lon="8.0782759"><ele>690.4</ele><time>2026-04-18T16:38:24.967Z</time></trkpt><trkpt lat="44.5908378" lon="8.0784062"><ele>690.5999999999999</ele><time>2026-04-18T16:38:25.958Z</time></trkpt><trkpt lat="44.5909062" lon="8.0785372"><ele>690.8</ele><time>2026-04-18T16:38:26.97Z</time></trkpt><trkpt lat="44.5909947" lon="8.078656"><ele>691.0</ele><time>2026-04-18T16:38:27.97Z</time></trkpt><trkpt lat="44.5911069" lon="8.0787605"><ele>689.75</ele><time>2026-04-18T16:38:28.969Z</time></trkpt><trkpt lat="44.5912312" lon="8.0788429"><ele>688.5</ele><time>2026-04-18T16:38:29.956Z</time></trkpt><trkpt lat="44.5913642" lon="8.0789247"><ele>687.25</ele><time>2026-04-18T16:38:30.959Z</time></trkpt><trkpt lat="44.5915003" lon="8.079006"><ele>686.0</ele><time>2026-04-18T16:38:31.964Z</time></trkpt><trkpt lat="44.5916316" lon="8.0790773"><ele>686.25</ele><time>2026-04-18T16:38:32.967Z</time></trkpt><trkpt lat="44.5917617" lon="8.0791529"><ele>686.5</ele><time>2026-04-18T16:38:33.967Z</time></trkpt><trkpt lat="44.5918846" lon="8.0792408"><ele>686.75</ele><time>2026-04-18T16:38:34.97Z</time></trkpt><trkpt lat="44.5919975" lon="8.0793401"><ele>687.0</ele><time>2026-04-18T16:38:35.957Z</time></trkpt><trkpt lat="44.5921049" lon="8.0794431"><ele>686.5</ele><time>2026-04-18T16:38:36.961Z</time></trkpt><trkpt lat="44.5922129" lon="8.0795442"><ele>686.0</ele><time>2026-04-18T16:38:37.955Z</time></trkpt><trkpt lat="44.5923177" lon="8.0796462"><ele>685.5</ele><time>2026-04-18T16:38:38.968Z</time></trkpt><trkpt lat="44.5924228" lon="8.0797504"><ele>685.0</ele><time>2026-04-18T16:38:39.953Z</time></trkpt><trkpt lat="44.5925308" lon="8.0798553"><ele>687.75</ele><time>2026-04-18T16:38:40.969Z</time></trkpt><trkpt lat="44.5926404" lon="8.0799621"><ele>690.5</ele><time>2026-04-18T16:38:41.965Z</time></trkpt><trkpt lat="44.5927517" lon="8.0800677"><ele>693.25</ele><time>2026-04-18T16:38:42.971Z</time></trkpt><trkpt lat="44.5928607" lon="8.0801734"><ele>696.0</ele><time>2026-04-18T16:38:43.962Z</time></trkpt><trkpt lat="44.5929714" lon="8.0802782"><ele>696.0</ele><time>2026-04-18T16:38:44.958Z</time></trkpt><trkpt lat="44.5930756" lon="8.08038"><ele>696.0</ele><time>2026-04-18T16:38:45.96Z</time></trkpt><trkpt lat="44.5931681" lon="8.0804744"><ele>696.0</ele><time>2026-04-18T16:38:46.955Z</time></trkpt><trkpt lat="44.593258" lon="8.0805601"><ele>696.0</ele><time>2026-04-18T16:38:47.957Z</time></trkpt><trkpt lat="44.5933417" lon="8.0806394"><ele>696.0</ele><time>2026-04-18T16:38:48.961Z</time></trkpt><trkpt lat="44.5934234" lon="8.0807199"><ele>696.0</ele><time>2026-04-18T16:38:49.967Z</time></trkpt><trkpt lat="44.5934998" lon="8.0807958"><ele>696.0</ele><time>2026-04-18T16:38:50.972Z</time></trkpt><trkpt lat="44.5935803" lon="8.0808722"><ele>696.0</ele><time>2026-04-18T16:38:51.96Z</time></trkpt><trkpt lat="44.593657" lon="8.0809522"><ele>696.0</ele><time>2026-04-18T16:38:52.966Z</time></trkpt><trkpt lat="44.593737" lon="8.0810223"><ele>696.5999999999999</ele><time>2026-04-18T16:38:53.961Z</time></trkpt><trkpt lat="44.5938193" lon="8.0810946"><ele>697.2</ele><time>2026-04-18T16:38:54.957Z</time></trkpt><trkpt lat="44.5939014" lon="8.081171"><ele>697.8</ele><time>2026-04-18T16:38:55.97Z</time></trkpt><trkpt lat="44.5939834" lon="8.0812525"><ele>698.4000000000001</ele><time>2026-04-18T16:38:56.968Z</time></trkpt><trkpt lat="44.5940675" lon="8.0813359"><ele>699.0</ele><time>2026-04-18T16:38:57.959Z</time></trkpt><trkpt lat="44.594154" lon="8.0814146"><ele>699.0</ele><time>2026-04-18T16:38:58.971Z</time></trkpt><trkpt lat="44.5942413" lon="8.0815015"><ele>699.0</ele><time>2026-04-18T16:38:59.96Z</time></trkpt><trkpt lat="44.5943298" lon="8.0815863"><ele>699.0</ele><time>2026-04-18T16:39:00.96Z</time></trkpt><trkpt lat="44.5944206" lon="8.0816678"><ele>699.0</ele><time>2026-04-18T16:39:01.958Z</time></trkpt><trkpt lat="44.5945113" lon="8.0817499"><ele>699.0</ele><time>2026-04-18T16:39:02.959Z</time></trkpt><trkpt lat="44.5946027" lon="8.0818394"><ele>699.0</ele><time>2026-04-18T16:39:03.968Z</time></trkpt><trkpt lat="44.5946956" lon="8.081926"><ele>699.0</ele><time>2026-04-18T16:39:04.965Z</time></trkpt><trkpt lat="44.5947848" lon="8.082023"><ele>699.0</ele><time>2026-04-18T16:39:05.97Z</time></trkpt><trkpt lat="44.5948698" lon="8.082111"><ele>699.0</ele><time>2026-04-18T16:39:06.968Z</time></trkpt><trkpt lat="44.5949496" lon="8.0821843"><ele>699.0</ele><time>2026-04-18T16:39:07.97Z</time></trkpt><trkpt lat="44.595023" lon="8.0822601"><ele>699.0</ele><time>2026-04-18T16:39:08.966Z</time></trkpt><trkpt lat="44.5950996" lon="8.0823467"><ele>699.0</ele><time>2026-04-18T16:39:09.958Z</time></trkpt><trkpt lat="44.5951413" lon="8.0824192"><ele>699.0</ele><time>2026-04-18T16:39:10.96Z</time></trkpt><trkpt lat="44.5951996" lon="8.0824788"><ele>699.0</ele><time>2026-04-18T16:39:11.968Z</time></trkpt><trkpt lat="44.5952719" lon="8.0825036"><ele>699.0</ele><time>2026-04-18T16:39:12.97Z</time></trkpt><trkpt lat="44.5953523" lon="8.0825357"><ele>699.0</ele><time>2026-04-18T16:39:13.961Z</time></trkpt><trkpt lat="44.5954367" lon="8.0825849"><ele>700.8000000000001</ele><time>2026-04-18T16:39:14.97Z</time></trkpt><trkpt lat="44.5955276" lon="8.0826326"><ele>702.6</ele><time>2026-04-18T16:39:15.959Z</time></trkpt><trkpt lat="44.5956248" lon="8.0826812"><ele>704.4</ele><time>2026-04-18T16:39:16.97Z</time></trkpt><trkpt lat="44.5957242" lon="8.0827349"><ele>706.2</ele><time>2026-04-18T16:39:17.97Z</time></trkpt><trkpt lat="44.5958252" lon="8.0827852"><ele>708.0</ele><time>2026-04-18T16:39:18.959Z</time></trkpt><trkpt lat="44.5959254" lon="8.0828386"><ele>708.0</ele><time>2026-04-18T16:39:19.965Z</time></trkpt><trkpt lat="44.5960237" lon="8.0828862"><ele>708.0</ele><time>2026-04-18T16:39:20.969Z</time></trkpt><trkpt lat="44.5961222" lon="8.0829337"><ele>708.0</ele><time>2026-04-18T16:39:21.97Z</time></trkpt><trkpt lat="44.5962213" lon="8.0829798"><ele>708.0</ele><time>2026-04-18T16:39:22.962Z</time></trkpt><trkpt lat="44.5963139" lon="8.0830248"><ele>708.0</ele><time>2026-04-18T16:39:23.967Z</time></trkpt><trkpt lat="44.5964063" lon="8.0830727"><ele>707.8</ele><time>2026-04-18T16:39:24.968Z</time></trkpt><trkpt lat="44.5965007" lon="8.0831204"><ele>707.5999999999999</ele><time>2026-04-18T16:39:25.958Z</time></trkpt><trkpt lat="44.5965925" lon="8.0831637"><ele>707.4000000000001</ele><time>2026-04-18T16:39:26.967Z</time></trkpt><trkpt lat="44.5966852" lon="8.0832051"><ele>707.2</ele><time>2026-04-18T16:39:27.967Z</time></trkpt><trkpt lat="44.5967787" lon="8.0832477"><ele>707.0</ele><time>2026-04-18T16:39:28.962Z</time></trkpt><trkpt lat="44.5968713" lon="8.0832943"><ele>708.0</ele><time>2026-04-18T16:39:29.961Z</time></trkpt><trkpt lat="44.5969643" lon="8.0833388"><ele>709.0</ele><time>2026-04-18T16:39:30.971Z</time></trkpt><trkpt lat="44.5970537" lon="8.0833872"><ele>710.0</ele><time>2026-04-18T16:39:31.969Z</time></trkpt><trkpt lat="44.5971441" lon="8.0834277"><ele>711.0</ele><time>2026-04-18T16:39:32.97Z</time></trkpt><trkpt lat="44.5972269" lon="8.083465"><ele>712.0</ele><time>2026-04-18T16:39:33.96Z</time></trkpt><trkpt lat="44.5973092" lon="8.0835022"><ele>712.0</ele><time>2026-04-18T16:39:34.96Z</time></trkpt><trkpt lat="44.5973946" lon="8.0835285"><ele>712.0</ele><time>2026-04-18T16:39:35.958Z</time></trkpt><trkpt lat="44.5974802" lon="8.083551"><ele>712.0</ele><time>2026-04-18T16:39:36.971Z</time></trkpt><trkpt lat="44.5975616" lon="8.0835792"><ele>712.0</ele><time>2026-04-18T16:39:37.971Z</time></trkpt><trkpt lat="44.5976445" lon="8.0836012"><ele>712.0</ele><time>2026-04-18T16:39:38.962Z</time></trkpt><trkpt lat="44.5977191" lon="8.0836192"><ele>712.0</ele><time>2026-04-18T16:39:39.969Z</time></trkpt><trkpt lat="44.5977879" lon="8.0836414"><ele>712.0</ele><time>2026-04-18T16:39:40.966Z</time></trkpt><trkpt lat="44.5978497" lon="8.0836703"><ele>712.0</ele><time>2026-04-18T16:39:41.957Z</time></trkpt><trkpt lat="44.5979531" lon="8.0836734"><ele>712.0</ele><time>2026-04-18T16:39:43.969Z</time></trkpt><trkpt lat="44.5980341" lon="8.083587"><ele>712.0</ele><time>2026-04-18T16:39:45.97Z</time></trkpt><trkpt lat="44.598165" lon="8.0835526"><ele>712.0</ele><time>2026-04-18T16:39:47.971Z</time></trkpt><trkpt lat="44.5982539" lon="8.0835467"><ele>712.0</ele><time>2026-04-18T16:39:48.961Z</time></trkpt><trkpt lat="44.5983553" lon="8.0835355"><ele>712.0</ele><time>2026-04-18T16:39:49.958Z</time></trkpt><trkpt lat="44.5984495" lon="8.0835149"><ele>712.0</ele><time>2026-04-18T16:39:50.956Z</time></trkpt><trkpt lat="44.5985539" lon="8.0834949"><ele>712.0</ele><time>2026-04-18T16:39:51.97Z</time></trkpt><trkpt lat="44.5986594" lon="8.0834724"><ele>712.0</ele><time>2026-04-18T16:39:52.967Z</time></trkpt><trkpt lat="44.5987647" lon="8.0834497"><ele>712.2</ele><time>2026-04-18T16:39:53.962Z</time></trkpt><trkpt lat="44.5988689" lon="8.0834282"><ele>712.4000000000001</ele><time>2026-04-18T16:39:55.052Z</time></trkpt><trkpt lat="44.5989759" lon="8.0834018"><ele>712.5999999999999</ele><time>2026-04-18T16:39:55.959Z</time></trkpt><trkpt lat="44.5990886" lon="8.0833786"><ele>712.8</ele><time>2026-04-18T16:39:56.965Z</time></trkpt><trkpt lat="44.5992002" lon="8.0833528"><ele>713.0</ele><time>2026-04-18T16:39:57.96Z</time></trkpt><trkpt lat="44.599314" lon="8.0833275"><ele>713.0</ele><time>2026-04-18T16:39:58.958Z</time></trkpt><trkpt lat="44.5994266" lon="8.0833052"><ele>713.0</ele><time>2026-04-18T16:39:59.96Z</time></trkpt><trkpt lat="44.599546" lon="8.083282"><ele>713.0</ele><time>2026-04-18T16:40:00.965Z</time></trkpt><trkpt lat="44.5996669" lon="8.0832571"><ele>713.0</ele><time>2026-04-18T16:40:01.956Z</time></trkpt><trkpt lat="44.5997883" lon="8.0832316"><ele>709.0</ele><time>2026-04-18T16:40:02.968Z</time></trkpt><trkpt lat="44.5999152" lon="8.0832002"><ele>705.0</ele><time>2026-04-18T16:40:03.968Z</time></trkpt><trkpt lat="44.6000417" lon="8.0831648"><ele>701.0</ele><time>2026-04-18T16:40:04.966Z</time></trkpt><trkpt lat="44.6001669" lon="8.0831231"><ele>697.0</ele><time>2026-04-18T16:40:05.966Z</time></trkpt><trkpt lat="44.6002922" lon="8.0830735"><ele>699.25</ele><time>2026-04-18T16:40:06.958Z</time></trkpt><trkpt lat="44.60042" lon="8.083015"><ele>701.5</ele><time>2026-04-18T16:40:07.972Z</time></trkpt><trkpt lat="44.6005436" lon="8.082931"><ele>703.75</ele><time>2026-04-18T16:40:08.962Z</time></trkpt><trkpt lat="44.6006657" lon="8.0828302"><ele>706.0</ele><time>2026-04-18T16:40:09.96Z</time></trkpt><trkpt lat="44.6007853" lon="8.0827322"><ele>706.0</ele><time>2026-04-18T16:40:10.966Z</time></trkpt><trkpt lat="44.6009009" lon="8.0826394"><ele>706.0</ele><time>2026-04-18T16:40:11.961Z</time></trkpt><trkpt lat="44.6010113" lon="8.0825459"><ele>706.0</ele><time>2026-04-18T16:40:12.964Z</time></trkpt><trkpt lat="44.6011239" lon="8.0824494"><ele>706.0</ele><time>2026-04-18T16:40:13.962Z</time></trkpt><trkpt lat="44.6012364" lon="8.0823525"><ele>705.0</ele><time>2026-04-18T16:40:14.959Z</time></trkpt><trkpt lat="44.6013542" lon="8.082249"><ele>704.0</ele><time>2026-04-18T16:40:15.957Z</time></trkpt><trkpt lat="44.6014643" lon="8.0821462"><ele>703.0</ele><time>2026-04-18T16:40:16.967Z</time></trkpt><trkpt lat="44.6016184" lon="8.0819782"><ele>703.0</ele><time>2026-04-18T16:40:18.908Z</time></trkpt><trkpt lat="44.6017181" lon="8.0818294"><ele>703.0</ele><time>2026-04-18T16:40:19.897Z</time></trkpt><trkpt lat="44.6018048" lon="8.0816773"><ele>703.0</ele><time>2026-04-18T16:40:20.914Z</time></trkpt><trkpt lat="44.6018883" lon="8.0815332"><ele>703.0</ele><time>2026-04-18T16:40:21.922Z</time></trkpt><trkpt lat="44.6020193" lon="8.0812949"><ele>704.0</ele><time>2026-04-18T16:40:22.954Z</time></trkpt><trkpt lat="44.6021274" lon="8.0810874"><ele>705.0</ele><time>2026-04-18T16:40:24.906Z</time></trkpt><trkpt lat="44.6022422" lon="8.0808713"><ele>706.0</ele><time>2026-04-18T16:40:25.958Z</time></trkpt><trkpt lat="44.6023092" lon="8.0807319"><ele>703.25</ele><time>2026-04-18T16:40:26.97Z</time></trkpt><trkpt lat="44.6023918" lon="8.0806111"><ele>700.5</ele><time>2026-04-18T16:40:27.969Z</time></trkpt><trkpt lat="44.6024863" lon="8.0804982"><ele>697.75</ele><time>2026-04-18T16:40:28.965Z</time></trkpt><trkpt lat="44.6025967" lon="8.0804097"><ele>695.0</ele><time>2026-04-18T16:40:29.959Z</time></trkpt><trkpt lat="44.6027147" lon="8.0803442"><ele>697.0</ele><time>2026-04-18T16:40:30.971Z</time></trkpt><trkpt lat="44.6028347" lon="8.0802931"><ele>699.0</ele><time>2026-04-18T16:40:31.971Z</time></trkpt><trkpt lat="44.6029565" lon="8.0802414"><ele>701.0</ele><time>2026-04-18T16:40:32.97Z</time></trkpt><trkpt lat="44.6030775" lon="8.0801564"><ele>703.0</ele><time>2026-04-18T16:40:33.968Z</time></trkpt><trkpt lat="44.603188" lon="8.080043"><ele>701.0</ele><time>2026-04-18T16:40:34.958Z</time></trkpt><trkpt lat="44.6032862" lon="8.0799073"><ele>699.0</ele><time>2026-04-18T16:40:35.969Z</time></trkpt><trkpt lat="44.6033749" lon="8.079764"><ele>697.0</ele><time>2026-04-18T16:40:36.96Z</time></trkpt><trkpt lat="44.603462" lon="8.0796249"><ele>695.0</ele><time>2026-04-18T16:40:37.948Z</time></trkpt><trkpt lat="44.6035476" lon="8.0794812"><ele>695.0</ele><time>2026-04-18T16:40:38.959Z</time></trkpt><trkpt lat="44.6036341" lon="8.0793357"><ele>695.0</ele><time>2026-04-18T16:40:39.966Z</time></trkpt><trkpt lat="44.6037331" lon="8.0791895"><ele>695.0</ele><time>2026-04-18T16:40:40.958Z</time></trkpt><trkpt lat="44.603838" lon="8.079049"><ele>695.0</ele><time>2026-04-18T16:40:41.959Z</time></trkpt><trkpt lat="44.6039523" lon="8.0789104"><ele>692.5</ele><time>2026-04-18T16:40:42.959Z</time></trkpt><trkpt lat="44.6041007" lon="8.0787761"><ele>690.0</ele><time>2026-04-18T16:40:44.572Z</time></trkpt><trkpt lat="44.6044453" lon="8.0785824"><ele>692.3333333333334</ele><time>2026-04-18T16:40:46.916Z</time></trkpt><trkpt lat="44.6046725" lon="8.0785152"><ele>694.6666666666667</ele><time>2026-04-18T16:40:47.959Z</time></trkpt><trkpt lat="44.6048167" lon="8.0784759"><ele>697.0</ele><time>2026-04-18T16:40:48.971Z</time></trkpt><trkpt lat="44.6049568" lon="8.0784256"><ele>697.0</ele><time>2026-04-18T16:40:49.969Z</time></trkpt><trkpt lat="44.6050906" lon="8.0783713"><ele>697.0</ele><time>2026-04-18T16:40:50.97Z</time></trkpt><trkpt lat="44.6052134" lon="8.0782944"><ele>697.0</ele><time>2026-04-18T16:40:51.958Z</time></trkpt><trkpt lat="44.6053281" lon="8.0781921"><ele>697.0</ele><time>2026-04-18T16:40:52.955Z</time></trkpt><trkpt lat="44.6054289" lon="8.0780555"><ele>697.5</ele><time>2026-04-18T16:40:53.955Z</time></trkpt><trkpt lat="44.6055063" lon="8.0778881"><ele>698.0</ele><time>2026-04-18T16:40:54.956Z</time></trkpt><trkpt lat="44.6055529" lon="8.0776915"><ele>698.5</ele><time>2026-04-18T16:40:55.966Z</time></trkpt><trkpt lat="44.6055671" lon="8.0774708"><ele>699.0</ele><time>2026-04-18T16:40:56.956Z</time></trkpt><trkpt lat="44.6055498" lon="8.0772185"><ele>699.0</ele><time>2026-04-18T16:40:57.951Z</time></trkpt><trkpt lat="44.6055161" lon="8.0769393"><ele>699.0</ele><time>2026-04-18T16:40:58.968Z</time></trkpt><trkpt lat="44.6054793" lon="8.0766315"><ele>699.0</ele><time>2026-04-18T16:40:59.965Z</time></trkpt><trkpt lat="44.605447" lon="8.0763004"><ele>696.5</ele><time>2026-04-18T16:41:00.96Z</time></trkpt><trkpt lat="44.60542" lon="8.0759566"><ele>694.0</ele><time>2026-04-18T16:41:01.959Z</time></trkpt><trkpt lat="44.6053984" lon="8.0756199"><ele>691.3333333333334</ele><time>2026-04-18T16:41:02.957Z</time></trkpt><trkpt lat="44.6053746" lon="8.0753097"><ele>688.6666666666666</ele><time>2026-04-18T16:41:03.954Z</time></trkpt><trkpt lat="44.6053503" lon="8.0750279"><ele>686.0</ele><time>2026-04-18T16:41:04.962Z</time></trkpt><trkpt lat="44.605326" lon="8.074778"><ele>683.5</ele><time>2026-04-18T16:41:05.956Z</time></trkpt><trkpt lat="44.6053068" lon="8.0745658"><ele>681.0</ele><time>2026-04-18T16:41:06.969Z</time></trkpt><trkpt lat="44.6052947" lon="8.0743934"><ele>678.5</ele><time>2026-04-18T16:41:07.968Z</time></trkpt><trkpt lat="44.6053006" lon="8.0742532"><ele>676.0</ele><time>2026-04-18T16:41:08.958Z</time></trkpt><trkpt lat="44.6053282" lon="8.0741309"><ele>676.1999999999999</ele><time>2026-04-18T16:41:09.972Z</time></trkpt><trkpt lat="44.6053902" lon="8.074041"><ele>676.4</ele><time>2026-04-18T16:41:10.953Z</time></trkpt><trkpt lat="44.6054733" lon="8.0740011"><ele>676.6</ele><time>2026-04-18T16:41:11.966Z</time></trkpt><trkpt lat="44.6055642" lon="8.0740274"><ele>676.8</ele><time>2026-04-18T16:41:12.967Z</time></trkpt><trkpt lat="44.6056392" lon="8.0741278"><ele>677.0</ele><time>2026-04-18T16:41:13.963Z</time></trkpt><trkpt lat="44.6057009" lon="8.0742749"><ele>677.3333333333333</ele><time>2026-04-18T16:41:14.954Z</time></trkpt><trkpt lat="44.6057601" lon="8.0744551"><ele>677.6666666666666</ele><time>2026-04-18T16:41:15.969Z</time></trkpt><trkpt lat="44.6058287" lon="8.0746596"><ele>678.0</ele><time>2026-04-18T16:41:16.963Z</time></trkpt><trkpt lat="44.6059032" lon="8.0748822"><ele>680.6666666666666</ele><time>2026-04-18T16:41:17.97Z</time></trkpt><trkpt lat="44.6059981" lon="8.0751084"><ele>683.3333333333333</ele><time>2026-04-18T16:41:18.957Z</time></trkpt><trkpt lat="44.6061237" lon="8.0753429"><ele>686.0</ele><time>2026-04-18T16:41:19.961Z</time></trkpt><trkpt lat="44.6062781" lon="8.0755679"><ele>683.6666666666666</ele><time>2026-04-18T16:41:20.962Z</time></trkpt><trkpt lat="44.6064444" lon="8.0757675"><ele>681.3333333333334</ele><time>2026-04-18T16:41:21.962Z</time></trkpt><trkpt lat="44.6066373" lon="8.0759364"><ele>679.0</ele><time>2026-04-18T16:41:22.961Z</time></trkpt><trkpt lat="44.6068555" lon="8.0760655"><ele>674.0</ele><time>2026-04-18T16:41:23.961Z</time></trkpt><trkpt lat="44.6070915" lon="8.0761792"><ele>669.0</ele><time>2026-04-18T16:41:24.962Z</time></trkpt><trkpt lat="44.6073304" lon="8.0762885"><ele>669.0</ele><time>2026-04-18T16:41:25.962Z</time></trkpt><trkpt lat="44.6075682" lon="8.076401"><ele>669.0</ele><time>2026-04-18T16:41:26.955Z</time></trkpt><trkpt lat="44.6077983" lon="8.0765043"><ele>670.0</ele><time>2026-04-18T16:41:27.961Z</time></trkpt><trkpt lat="44.6080226" lon="8.0765856"><ele>671.0</ele><time>2026-04-18T16:41:28.953Z</time></trkpt><trkpt lat="44.6082529" lon="8.0766182"><ele>671.0</ele><time>2026-04-18T16:41:29.946Z</time></trkpt><trkpt lat="44.6084808" lon="8.0766131"><ele>671.0</ele><time>2026-04-18T16:41:30.954Z</time></trkpt><trkpt lat="44.6086989" lon="8.0765956"><ele>671.0</ele><time>2026-04-18T16:41:31.944Z</time></trkpt><trkpt lat="44.6089062" lon="8.0765572"><ele>667.3333333333333</ele><time>2026-04-18T16:41:32.957Z</time></trkpt><trkpt lat="44.6090956" lon="8.0764699"><ele>663.6666666666666</ele><time>2026-04-18T16:41:33.958Z</time></trkpt><trkpt lat="44.609267" lon="8.0763307"><ele>660.0</ele><time>2026-04-18T16:41:34.952Z</time></trkpt><trkpt lat="44.6094316" lon="8.0761471"><ele>663.0</ele><time>2026-04-18T16:41:35.956Z</time></trkpt><trkpt lat="44.6095848" lon="8.0759366"><ele>666.0</ele><time>2026-04-18T16:41:36.968Z</time></trkpt><trkpt lat="44.609729" lon="8.0757261"><ele>669.0</ele><time>2026-04-18T16:41:37.959Z</time></trkpt><trkpt lat="44.6098674" lon="8.0755161"><ele>663.0</ele><time>2026-04-18T16:41:38.968Z</time></trkpt><trkpt lat="44.6099906" lon="8.0753172"><ele>657.0</ele><time>2026-04-18T16:41:39.967Z</time></trkpt><trkpt lat="44.6101127" lon="8.0751297"><ele>651.0</ele><time>2026-04-18T16:41:40.971Z</time></trkpt><trkpt lat="44.6102317" lon="8.0749393"><ele>649.3333333333334</ele><time>2026-04-18T16:41:41.95Z</time></trkpt><trkpt lat="44.6103541" lon="8.0747577"><ele>647.6666666666667</ele><time>2026-04-18T16:41:42.965Z</time></trkpt><trkpt lat="44.6104861" lon="8.0745849"><ele>646.0</ele><time>2026-04-18T16:41:43.97Z</time></trkpt><trkpt lat="44.6106233" lon="8.0744298"><ele>646.0</ele><time>2026-04-18T16:41:44.964Z</time></trkpt><trkpt lat="44.6107642" lon="8.0742821"><ele>646.0</ele><time>2026-04-18T16:41:45.957Z</time></trkpt><trkpt lat="44.6109032" lon="8.0741357"><ele>646.0</ele><time>2026-04-18T16:41:46.969Z</time></trkpt><trkpt lat="44.6110418" lon="8.073992"><ele>644.6666666666667</ele><time>2026-04-18T16:41:47.949Z</time></trkpt><trkpt lat="44.6111783" lon="8.0738461"><ele>643.3333333333334</ele><time>2026-04-18T16:41:48.965Z</time></trkpt><trkpt lat="44.6113166" lon="8.0736914"><ele>642.0</ele><time>2026-04-18T16:41:49.956Z</time></trkpt><trkpt lat="44.6114456" lon="8.0735314"><ele>642.0</ele><time>2026-04-18T16:41:50.957Z</time></trkpt><trkpt lat="44.611559" lon="8.0733506"><ele>642.0</ele><time>2026-04-18T16:41:51.961Z</time></trkpt><trkpt lat="44.6116613" lon="8.0731681"><ele>642.0</ele><time>2026-04-18T16:41:52.961Z</time></trkpt><trkpt lat="44.6117638" lon="8.0729818"><ele>639.0</ele><time>2026-04-18T16:41:53.959Z</time></trkpt><trkpt lat="44.6118663" lon="8.0727963"><ele>636.0</ele><time>2026-04-18T16:41:54.958Z</time></trkpt><trkpt lat="44.6119731" lon="8.072602"><ele>633.0</ele><time>2026-04-18T16:41:55.968Z</time></trkpt><trkpt lat="44.6120797" lon="8.0724043"><ele>632.6666666666666</ele><time>2026-04-18T16:41:56.962Z</time></trkpt><trkpt lat="44.6121882" lon="8.0721999"><ele>632.3333333333333</ele><time>2026-04-18T16:41:57.951Z</time></trkpt><trkpt lat="44.612295" lon="8.0719877"><ele>632.0</ele><time>2026-04-18T16:41:58.969Z</time></trkpt><trkpt lat="44.6123941" lon="8.0717653"><ele>629.3333333333333</ele><time>2026-04-18T16:41:59.949Z</time></trkpt><trkpt lat="44.6124912" lon="8.0715398"><ele>626.6666666666666</ele><time>2026-04-18T16:42:00.966Z</time></trkpt><trkpt lat="44.6125868" lon="8.0713115"><ele>624.0</ele><time>2026-04-18T16:42:01.952Z</time></trkpt><trkpt lat="44.6126758" lon="8.0710796"><ele>624.0</ele><time>2026-04-18T16:42:02.963Z</time></trkpt><trkpt lat="44.6127672" lon="8.0708552"><ele>624.0</ele><time>2026-04-18T16:42:03.963Z</time></trkpt><trkpt lat="44.6128567" lon="8.0706389"><ele>624.0</ele><time>2026-04-18T16:42:04.966Z</time></trkpt><trkpt lat="44.6129417" lon="8.0704335"><ele>625.3333333333334</ele><time>2026-04-18T16:42:05.945Z</time></trkpt><trkpt lat="44.6130206" lon="8.0702311"><ele>626.6666666666667</ele><time>2026-04-18T16:42:06.967Z</time></trkpt><trkpt lat="44.6130933" lon="8.0700304"><ele>628.0</ele><time>2026-04-18T16:42:07.971Z</time></trkpt><trkpt lat="44.6131614" lon="8.0698277"><ele>628.6666666666667</ele><time>2026-04-18T16:42:08.965Z</time></trkpt><trkpt lat="44.6132209" lon="8.0696175"><ele>629.3333333333334</ele><time>2026-04-18T16:42:09.964Z</time></trkpt><trkpt lat="44.6132796" lon="8.0693997"><ele>630.0</ele><time>2026-04-18T16:42:10.968Z</time></trkpt><trkpt lat="44.6133312" lon="8.0691769"><ele>628.0</ele><time>2026-04-18T16:42:11.964Z</time></trkpt><trkpt lat="44.6133805" lon="8.0689692"><ele>626.0</ele><time>2026-04-18T16:42:12.961Z</time></trkpt><trkpt lat="44.6134281" lon="8.0687659"><ele>624.0</ele><time>2026-04-18T16:42:13.962Z</time></trkpt><trkpt lat="44.6134691" lon="8.0685676"><ele>624.0</ele><time>2026-04-18T16:42:14.963Z</time></trkpt><trkpt lat="44.6135118" lon="8.068377"><ele>624.0</ele><time>2026-04-18T16:42:15.954Z</time></trkpt><trkpt lat="44.6135514" lon="8.0681898"><ele>624.0</ele><time>2026-04-18T16:42:16.972Z</time></trkpt><trkpt lat="44.6135917" lon="8.0680106"><ele>624.0</ele><time>2026-04-18T16:42:17.957Z</time></trkpt><trkpt lat="44.6136334" lon="8.0678348"><ele>624.5</ele><time>2026-04-18T16:42:18.966Z</time></trkpt><trkpt lat="44.613673" lon="8.0676597"><ele>625.0</ele><time>2026-04-18T16:42:19.967Z</time></trkpt><trkpt lat="44.6137186" lon="8.067492"><ele>625.5</ele><time>2026-04-18T16:42:20.968Z</time></trkpt><trkpt lat="44.6137566" lon="8.067325"><ele>626.0</ele><time>2026-04-18T16:42:21.962Z</time></trkpt><trkpt lat="44.6137972" lon="8.067157"><ele>626.0</ele><time>2026-04-18T16:42:22.953Z</time></trkpt><trkpt lat="44.6138352" lon="8.0669937"><ele>626.0</ele><time>2026-04-18T16:42:23.963Z</time></trkpt><trkpt lat="44.6138744" lon="8.0668315"><ele>626.0</ele><time>2026-04-18T16:42:24.959Z</time></trkpt><trkpt lat="44.6139119" lon="8.0666677"><ele>626.0</ele><time>2026-04-18T16:42:25.954Z</time></trkpt><trkpt lat="44.61395" lon="8.0664989"><ele>625.0</ele><time>2026-04-18T16:42:26.967Z</time></trkpt><trkpt lat="44.6139904" lon="8.066326"><ele>624.0</ele><time>2026-04-18T16:42:27.961Z</time></trkpt><trkpt lat="44.6140311" lon="8.0661434"><ele>623.0</ele><time>2026-04-18T16:42:28.956Z</time></trkpt><trkpt lat="44.6140619" lon="8.0659411"><ele>622.0</ele><time>2026-04-18T16:42:29.959Z</time></trkpt><trkpt lat="44.6140719" lon="8.0657316"><ele>621.25</ele><time>2026-04-18T16:42:30.956Z</time></trkpt><trkpt lat="44.6140673" lon="8.0655232"><ele>620.5</ele><time>2026-04-18T16:42:31.957Z</time></trkpt><trkpt lat="44.614059" lon="8.0653157"><ele>619.75</ele><time>2026-04-18T16:42:32.966Z</time></trkpt><trkpt lat="44.6140651" lon="8.0651121"><ele>619.0</ele><time>2026-04-18T16:42:33.959Z</time></trkpt><trkpt lat="44.6141213" lon="8.0649284"><ele>617.75</ele><time>2026-04-18T16:42:34.966Z</time></trkpt><trkpt lat="44.614167" lon="8.0647418"><ele>616.5</ele><time>2026-04-18T16:42:35.968Z</time></trkpt><trkpt lat="44.6141984" lon="8.0645508"><ele>615.25</ele><time>2026-04-18T16:42:36.956Z</time></trkpt><trkpt lat="44.6142062" lon="8.0643523"><ele>614.0</ele><time>2026-04-18T16:42:37.957Z</time></trkpt><trkpt lat="44.6142046" lon="8.0641512"><ele>614.25</ele><time>2026-04-18T16:42:38.962Z</time></trkpt><trkpt lat="44.614212" lon="8.0639569"><ele>614.5</ele><time>2026-04-18T16:42:39.959Z</time></trkpt><trkpt lat="44.6142155" lon="8.0637667"><ele>614.75</ele><time>2026-04-18T16:42:40.959Z</time></trkpt><trkpt lat="44.6142094" lon="8.0635853"><ele>615.0</ele><time>2026-04-18T16:42:41.967Z</time></trkpt><trkpt lat="44.6141996" lon="8.0634123"><ele>615.0</ele><time>2026-04-18T16:42:42.955Z</time></trkpt><trkpt lat="44.6141443" lon="8.0632879"><ele>615.0</ele><time>2026-04-18T16:42:43.969Z</time></trkpt><trkpt lat="44.6140955" lon="8.0631618"><ele>615.0</ele><time>2026-04-18T16:42:44.961Z</time></trkpt><trkpt lat="44.6140475" lon="8.0630442"><ele>615.0</ele><time>2026-04-18T16:42:45.954Z</time></trkpt><trkpt lat="44.6140153" lon="8.0629177"><ele>615.0</ele><time>2026-04-18T16:42:46.958Z</time></trkpt><trkpt lat="44.6140294" lon="8.0627836"><ele>613.0</ele><time>2026-04-18T16:42:47.96Z</time></trkpt><trkpt lat="44.6140772" lon="8.0626554"><ele>611.0</ele><time>2026-04-18T16:42:48.963Z</time></trkpt><trkpt lat="44.6141465" lon="8.062534"><ele>609.0</ele><time>2026-04-18T16:42:49.951Z</time></trkpt><trkpt lat="44.614234" lon="8.0624291"><ele>607.0</ele><time>2026-04-18T16:42:50.958Z</time></trkpt><trkpt lat="44.6143132" lon="8.0623141"><ele>605.0</ele><time>2026-04-18T16:42:51.967Z</time></trkpt><trkpt lat="44.6143922" lon="8.0621948"><ele>604.5</ele><time>2026-04-18T16:42:52.963Z</time></trkpt><trkpt lat="44.6144676" lon="8.0620573"><ele>604.0</ele><time>2026-04-18T16:42:53.956Z</time></trkpt><trkpt lat="44.6145252" lon="8.0619011"><ele>603.5</ele><time>2026-04-18T16:42:54.967Z</time></trkpt><trkpt lat="44.6145684" lon="8.0617341"><ele>603.0</ele><time>2026-04-18T16:42:55.961Z</time></trkpt><trkpt lat="44.6146073" lon="8.0615754"><ele>603.0</ele><time>2026-04-18T16:42:56.96Z</time></trkpt><trkpt lat="44.6146716" lon="8.0614208"><ele>603.0</ele><time>2026-04-18T16:42:57.968Z</time></trkpt><trkpt lat="44.6147591" lon="8.0612834"><ele>603.0</ele><time>2026-04-18T16:42:58.962Z</time></trkpt><trkpt lat="44.6148543" lon="8.0611495"><ele>603.0</ele><time>2026-04-18T16:42:59.97Z</time></trkpt><trkpt lat="44.6149412" lon="8.0609963"><ele>603.0</ele><time>2026-04-18T16:43:00.954Z</time></trkpt><trkpt lat="44.6150173" lon="8.0608266"><ele>603.0</ele><time>2026-04-18T16:43:01.958Z</time></trkpt><trkpt lat="44.6150815" lon="8.0606455"><ele>603.0</ele><time>2026-04-18T16:43:02.958Z</time></trkpt><trkpt lat="44.6151503" lon="8.060468"><ele>603.0</ele><time>2026-04-18T16:43:03.949Z</time></trkpt><trkpt lat="44.6152265" lon="8.0602961"><ele>603.0</ele><time>2026-04-18T16:43:04.954Z</time></trkpt><trkpt lat="44.6153228" lon="8.0601382"><ele>603.0</ele><time>2026-04-18T16:43:05.96Z</time></trkpt><trkpt lat="44.6154371" lon="8.0599994"><ele>603.0</ele><time>2026-04-18T16:43:06.952Z</time></trkpt><trkpt lat="44.6155482" lon="8.0598655"><ele>603.0</ele><time>2026-04-18T16:43:07.958Z</time></trkpt><trkpt lat="44.6156499" lon="8.0597258"><ele>600.5</ele><time>2026-04-18T16:43:08.961Z</time></trkpt><trkpt lat="44.6157366" lon="8.0595733"><ele>598.0</ele><time>2026-04-18T16:43:09.96Z</time></trkpt><trkpt lat="44.6158095" lon="8.0594053"><ele>595.5</ele><time>2026-04-18T16:43:10.955Z</time></trkpt><trkpt lat="44.6158569" lon="8.0592103"><ele>593.0</ele><time>2026-04-18T16:43:11.955Z</time></trkpt><trkpt lat="44.6158863" lon="8.0590147"><ele>592.0</ele><time>2026-04-18T16:43:12.963Z</time></trkpt><trkpt lat="44.6159228" lon="8.0588216"><ele>591.0</ele><time>2026-04-18T16:43:13.961Z</time></trkpt><trkpt lat="44.6159878" lon="8.0586328"><ele>590.0</ele><time>2026-04-18T16:43:14.954Z</time></trkpt><trkpt lat="44.6160682" lon="8.0584555"><ele>589.0</ele><time>2026-04-18T16:43:15.965Z</time></trkpt><trkpt lat="44.6161529" lon="8.0582929"><ele>590.5</ele><time>2026-04-18T16:43:16.968Z</time></trkpt><trkpt lat="44.6162267" lon="8.0581229"><ele>592.0</ele><time>2026-04-18T16:43:17.964Z</time></trkpt><trkpt lat="44.6162824" lon="8.0579421"><ele>593.5</ele><time>2026-04-18T16:43:18.952Z</time></trkpt><trkpt lat="44.6163137" lon="8.0577473"><ele>595.0</ele><time>2026-04-18T16:43:19.957Z</time></trkpt><trkpt lat="44.6163145" lon="8.0575451"><ele>593.6666666666667</ele><time>2026-04-18T16:43:21.074Z</time></trkpt><trkpt lat="44.6162542" lon="8.0571681"><ele>592.3333333333334</ele><time>2026-04-18T16:43:22.96Z</time></trkpt><trkpt lat="44.6162142" lon="8.0570049"><ele>591.0</ele><time>2026-04-18T16:43:23.968Z</time></trkpt><trkpt lat="44.6161897" lon="8.0568441"><ele>591.0</ele><time>2026-04-18T16:43:24.959Z</time></trkpt><trkpt lat="44.6162043" lon="8.0566776"><ele>591.0</ele><time>2026-04-18T16:43:25.953Z</time></trkpt><trkpt lat="44.6162429" lon="8.0565252"><ele>591.0</ele><time>2026-04-18T16:43:26.957Z</time></trkpt><trkpt lat="44.6162958" lon="8.0563852"><ele>591.0</ele><time>2026-04-18T16:43:27.951Z</time></trkpt><trkpt lat="44.6163518" lon="8.0562546"><ele>589.8333333333334</ele><time>2026-04-18T16:43:28.971Z</time></trkpt><trkpt lat="44.6164048" lon="8.0561385"><ele>588.6666666666666</ele><time>2026-04-18T16:43:29.965Z</time></trkpt><trkpt lat="44.6164472" lon="8.056044"><ele>587.5</ele><time>2026-04-18T16:43:30.96Z</time></trkpt><trkpt lat="44.6164916" lon="8.0559791"><ele>586.3333333333333</ele><time>2026-04-18T16:43:31.961Z</time></trkpt><trkpt lat="44.6165472" lon="8.0559368"><ele>585.1666666666666</ele><time>2026-04-18T16:43:32.96Z</time></trkpt><trkpt lat="44.6166507" lon="8.0558493"><ele>584.0</ele><time>2026-04-18T16:43:34.963Z</time></trkpt><trkpt lat="44.6166673" lon="8.0557542"><ele>583.2</ele><time>2026-04-18T16:43:35.956Z</time></trkpt><trkpt lat="44.6166595" lon="8.0556394"><ele>582.4</ele><time>2026-04-18T16:43:36.951Z</time></trkpt><trkpt lat="44.6166579" lon="8.0555005"><ele>581.6</ele><time>2026-04-18T16:43:37.954Z</time></trkpt><trkpt lat="44.6166776" lon="8.0553487"><ele>580.8</ele><time>2026-04-18T16:43:38.973Z</time></trkpt><trkpt lat="44.6166917" lon="8.0552"><ele>580.0</ele><time>2026-04-18T16:43:39.951Z</time></trkpt><trkpt lat="44.6167031" lon="8.055042"><ele>580.0</ele><time>2026-04-18T16:43:40.965Z</time></trkpt><trkpt lat="44.6167064" lon="8.054875"><ele>580.0</ele><time>2026-04-18T16:43:41.953Z</time></trkpt><trkpt lat="44.616703" lon="8.0546933"><ele>580.0</ele><time>2026-04-18T16:43:42.955Z</time></trkpt><trkpt lat="44.616705" lon="8.0545075"><ele>580.0</ele><time>2026-04-18T16:43:43.966Z</time></trkpt><trkpt lat="44.6167231" lon="8.0543139"><ele>580.0</ele><time>2026-04-18T16:43:44.971Z</time></trkpt><trkpt lat="44.6167526" lon="8.0541257"><ele>580.0</ele><time>2026-04-18T16:43:45.957Z</time></trkpt><trkpt lat="44.6168004" lon="8.0539361"><ele>580.0</ele><time>2026-04-18T16:43:46.967Z</time></trkpt><trkpt lat="44.6168612" lon="8.0537384"><ele>580.0</ele><time>2026-04-18T16:43:47.965Z</time></trkpt><trkpt lat="44.6169295" lon="8.053539"><ele>577.6666666666667</ele><time>2026-04-18T16:43:48.96Z</time></trkpt><trkpt lat="44.6170147" lon="8.053343"><ele>575.3333333333334</ele><time>2026-04-18T16:43:49.96Z</time></trkpt><trkpt lat="44.6171132" lon="8.0531502"><ele>573.0</ele><time>2026-04-18T16:43:50.956Z</time></trkpt><trkpt lat="44.6172211" lon="8.0529513"><ele>573.0</ele><time>2026-04-18T16:43:51.971Z</time></trkpt><trkpt lat="44.6173261" lon="8.052749"><ele>573.0</ele><time>2026-04-18T16:43:52.962Z</time></trkpt><trkpt lat="44.6174341" lon="8.052552"><ele>573.0</ele><time>2026-04-18T16:43:53.959Z</time></trkpt><trkpt lat="44.6175384" lon="8.0523643"><ele>573.6666666666666</ele><time>2026-04-18T16:43:54.961Z</time></trkpt><trkpt lat="44.6176315" lon="8.0521758"><ele>574.3333333333333</ele><time>2026-04-18T16:43:55.959Z</time></trkpt><trkpt lat="44.6177086" lon="8.0519828"><ele>575.0</ele><time>2026-04-18T16:43:56.959Z</time></trkpt><trkpt lat="44.6177664" lon="8.0517917"><ele>573.5</ele><time>2026-04-18T16:43:57.966Z</time></trkpt><trkpt lat="44.617823" lon="8.0516049"><ele>572.0</ele><time>2026-04-18T16:43:58.952Z</time></trkpt><trkpt lat="44.6179025" lon="8.0514411"><ele>570.5</ele><time>2026-04-18T16:43:59.962Z</time></trkpt><trkpt lat="44.6180017" lon="8.0513134"><ele>569.0</ele><time>2026-04-18T16:44:00.956Z</time></trkpt><trkpt lat="44.6181186" lon="8.051219"><ele>569.0</ele><time>2026-04-18T16:44:01.959Z</time></trkpt><trkpt lat="44.6182305" lon="8.051138"><ele>569.0</ele><time>2026-04-18T16:44:02.957Z</time></trkpt><trkpt lat="44.6183286" lon="8.0510468"><ele>569.0</ele><time>2026-04-18T16:44:03.968Z</time></trkpt><trkpt lat="44.6184073" lon="8.050931"><ele>569.0</ele><time>2026-04-18T16:44:04.957Z</time></trkpt><trkpt lat="44.6184583" lon="8.0507785"><ele>568.5</ele><time>2026-04-18T16:44:05.96Z</time></trkpt><trkpt lat="44.6184863" lon="8.0506037"><ele>568.0</ele><time>2026-04-18T16:44:06.964Z</time></trkpt><trkpt lat="44.6185068" lon="8.0504128"><ele>567.5</ele><time>2026-04-18T16:44:07.957Z</time></trkpt><trkpt lat="44.6185217" lon="8.050222"><ele>567.0</ele><time>2026-04-18T16:44:08.96Z</time></trkpt><trkpt lat="44.618546" lon="8.050039"><ele>565.25</ele><time>2026-04-18T16:44:09.96Z</time></trkpt><trkpt lat="44.6185913" lon="8.0498628"><ele>563.5</ele><time>2026-04-18T16:44:10.96Z</time></trkpt><trkpt lat="44.6186667" lon="8.049696"><ele>561.75</ele><time>2026-04-18T16:44:11.962Z</time></trkpt><trkpt lat="44.6187647" lon="8.0495617"><ele>560.0</ele><time>2026-04-18T16:44:12.963Z</time></trkpt><trkpt lat="44.6188722" lon="8.049467"><ele>559.5</ele><time>2026-04-18T16:44:13.958Z</time></trkpt><trkpt lat="44.6189833" lon="8.0493896"><ele>559.0</ele><time>2026-04-18T16:44:14.961Z</time></trkpt><trkpt lat="44.6190968" lon="8.0493224"><ele>558.5</ele><time>2026-04-18T16:44:15.959Z</time></trkpt><trkpt lat="44.6192062" lon="8.0492527"><ele>558.0</ele><time>2026-04-18T16:44:16.961Z</time></trkpt><trkpt lat="44.6193205" lon="8.049183"><ele>555.5</ele><time>2026-04-18T16:44:17.954Z</time></trkpt><trkpt lat="44.6194442" lon="8.0491054"><ele>553.0</ele><time>2026-04-18T16:44:18.952Z</time></trkpt><trkpt lat="44.6195709" lon="8.0490194"><ele>550.5</ele><time>2026-04-18T16:44:19.955Z</time></trkpt><trkpt lat="44.6197073" lon="8.048931"><ele>548.0</ele><time>2026-04-18T16:44:20.96Z</time></trkpt><trkpt lat="44.6198519" lon="8.0488389"><ele>548.0</ele><time>2026-04-18T16:44:21.956Z</time></trkpt><trkpt lat="44.6199975" lon="8.0487457"><ele>548.0</ele><time>2026-04-18T16:44:22.949Z</time></trkpt><trkpt lat="44.6201446" lon="8.0486494"><ele>548.0</ele><time>2026-04-18T16:44:23.957Z</time></trkpt><trkpt lat="44.620298" lon="8.0485531"><ele>550.0</ele><time>2026-04-18T16:44:24.961Z</time></trkpt><trkpt lat="44.620449" lon="8.0484578"><ele>552.0</ele><time>2026-04-18T16:44:25.959Z</time></trkpt><trkpt lat="44.6205955" lon="8.0483648"><ele>554.0</ele><time>2026-04-18T16:44:26.957Z</time></trkpt><trkpt lat="44.6207362" lon="8.0482781"><ele>553.75</ele><time>2026-04-18T16:44:27.96Z</time></trkpt><trkpt lat="44.6208755" lon="8.0481945"><ele>553.5</ele><time>2026-04-18T16:44:28.955Z</time></trkpt><trkpt lat="44.621007" lon="8.0481146"><ele>553.25</ele><time>2026-04-18T16:44:29.951Z</time></trkpt><trkpt lat="44.6211356" lon="8.0480337"><ele>553.0</ele><time>2026-04-18T16:44:30.954Z</time></trkpt><trkpt lat="44.6212613" lon="8.0479544"><ele>553.0</ele><time>2026-04-18T16:44:31.963Z</time></trkpt><trkpt lat="44.6213873" lon="8.0478662"><ele>553.0</ele><time>2026-04-18T16:44:32.964Z</time></trkpt><trkpt lat="44.621507" lon="8.047761"><ele>553.0</ele><time>2026-04-18T16:44:33.96Z</time></trkpt><trkpt lat="44.6216262" lon="8.0476554"><ele>553.0</ele><time>2026-04-18T16:44:34.966Z</time></trkpt><trkpt lat="44.6217375" lon="8.0475466"><ele>555.0</ele><time>2026-04-18T16:44:35.955Z</time></trkpt><trkpt lat="44.6218494" lon="8.0474442"><ele>557.0</ele><time>2026-04-18T16:44:36.951Z</time></trkpt><trkpt lat="44.6219552" lon="8.047335"><ele>559.0</ele><time>2026-04-18T16:44:37.956Z</time></trkpt><trkpt lat="44.6220458" lon="8.0471922"><ele>561.0</ele><time>2026-04-18T16:44:38.952Z</time></trkpt><trkpt lat="44.6221203" lon="8.0470191"><ele>561.0</ele><time>2026-04-18T16:44:39.955Z</time></trkpt><trkpt lat="44.6221659" lon="8.0468289"><ele>561.0</ele><time>2026-04-18T16:44:40.952Z</time></trkpt><trkpt lat="44.622205" lon="8.0466461"><ele>561.0</ele><time>2026-04-18T16:44:41.955Z</time></trkpt><trkpt lat="44.6222109" lon="8.0464708"><ele>561.0</ele><time>2026-04-18T16:44:42.964Z</time></trkpt><trkpt lat="44.6222122" lon="8.0463026"><ele>558.8</ele><time>2026-04-18T16:44:43.958Z</time></trkpt><trkpt lat="44.6222144" lon="8.0461518"><ele>556.6</ele><time>2026-04-18T16:44:44.956Z</time></trkpt><trkpt lat="44.6222161" lon="8.0460084"><ele>554.4</ele><time>2026-04-18T16:44:45.958Z</time></trkpt><trkpt lat="44.6222425" lon="8.0458743"><ele>552.2</ele><time>2026-04-18T16:44:46.951Z</time></trkpt><trkpt lat="44.6223076" lon="8.0457594"><ele>550.0</ele><time>2026-04-18T16:44:47.95Z</time></trkpt><trkpt lat="44.6224097" lon="8.045683"><ele>547.5</ele><time>2026-04-18T16:44:48.956Z</time></trkpt><trkpt lat="44.6225311" lon="8.0456179"><ele>545.0</ele><time>2026-04-18T16:44:49.956Z</time></trkpt><trkpt lat="44.6226792" lon="8.0455442"><ele>542.5</ele><time>2026-04-18T16:44:50.95Z</time></trkpt><trkpt lat="44.6228183" lon="8.0454688"><ele>540.0</ele><time>2026-04-18T16:44:51.958Z</time></trkpt><trkpt lat="44.6229506" lon="8.0453889"><ele>540.0</ele><time>2026-04-18T16:44:52.962Z</time></trkpt><trkpt lat="44.6230588" lon="8.045297"><ele>540.0</ele><time>2026-04-18T16:44:53.953Z</time></trkpt><trkpt lat="44.6231541" lon="8.0452128"><ele>540.0</ele><time>2026-04-18T16:44:54.954Z</time></trkpt><trkpt lat="44.623236" lon="8.0451344"><ele>540.0</ele><time>2026-04-18T16:44:55.953Z</time></trkpt><trkpt lat="44.6233237" lon="8.0450599"><ele>540.0</ele><time>2026-04-18T16:44:56.955Z</time></trkpt><trkpt lat="44.6234102" lon="8.0449892"><ele>537.0</ele><time>2026-04-18T16:44:57.955Z</time></trkpt><trkpt lat="44.6235072" lon="8.0449217"><ele>534.0</ele><time>2026-04-18T16:44:58.954Z</time></trkpt><trkpt lat="44.6236011" lon="8.044841"><ele>531.0</ele><time>2026-04-18T16:44:59.954Z</time></trkpt><trkpt lat="44.6237101" lon="8.044764"><ele>528.0</ele><time>2026-04-18T16:45:00.96Z</time></trkpt><trkpt lat="44.6238337" lon="8.0446782"><ele>528.0</ele><time>2026-04-18T16:45:01.946Z</time></trkpt><trkpt lat="44.6239599" lon="8.0445857"><ele>528.0</ele><time>2026-04-18T16:45:02.953Z</time></trkpt><trkpt lat="44.6240978" lon="8.0444866"><ele>528.0</ele><time>2026-04-18T16:45:03.958Z</time></trkpt><trkpt lat="44.6242406" lon="8.0443785"><ele>528.0</ele><time>2026-04-18T16:45:04.952Z</time></trkpt><trkpt lat="44.6243776" lon="8.0442645"><ele>528.0</ele><time>2026-04-18T16:45:05.954Z</time></trkpt><trkpt lat="44.6244986" lon="8.0441459"><ele>528.0</ele><time>2026-04-18T16:45:06.958Z</time></trkpt><trkpt lat="44.6246106" lon="8.0440231"><ele>528.0</ele><time>2026-04-18T16:45:07.948Z</time></trkpt><trkpt lat="44.6247232" lon="8.0438997"><ele>525.5</ele><time>2026-04-18T16:45:08.952Z</time></trkpt><trkpt lat="44.6248218" lon="8.0437796"><ele>523.0</ele><time>2026-04-18T16:45:09.951Z</time></trkpt><trkpt lat="44.6249444" lon="8.0437138"><ele>520.5</ele><time>2026-04-18T16:45:10.954Z</time></trkpt><trkpt lat="44.6250559" lon="8.0436797"><ele>518.0</ele><time>2026-04-18T16:45:11.956Z</time></trkpt><trkpt lat="44.6251718" lon="8.0437022"><ele>518.0</ele><time>2026-04-18T16:45:12.954Z</time></trkpt><trkpt lat="44.6252881" lon="8.0438026"><ele>518.0</ele><time>2026-04-18T16:45:13.952Z</time></trkpt><trkpt lat="44.6253942" lon="8.0439431"><ele>518.0</ele><time>2026-04-18T16:45:14.972Z</time></trkpt><trkpt lat="44.6255015" lon="8.0441119"><ele>518.0</ele><time>2026-04-18T16:45:15.959Z</time></trkpt><trkpt lat="44.6256083" lon="8.0442663"><ele>517.75</ele><time>2026-04-18T16:45:16.955Z</time></trkpt><trkpt lat="44.6257003" lon="8.0444173"><ele>517.5</ele><time>2026-04-18T16:45:17.956Z</time></trkpt><trkpt lat="44.6257853" lon="8.0445511"><ele>517.25</ele><time>2026-04-18T16:45:18.95Z</time></trkpt><trkpt lat="44.6258588" lon="8.0446627"><ele>517.0</ele><time>2026-04-18T16:45:19.957Z</time></trkpt><trkpt lat="44.6259299" lon="8.0447564"><ele>517.0</ele><time>2026-04-18T16:45:20.958Z</time></trkpt><trkpt lat="44.6260031" lon="8.0448277"><ele>517.0</ele><time>2026-04-18T16:45:21.96Z</time></trkpt><trkpt lat="44.6260877" lon="8.0448377"><ele>517.0</ele><time>2026-04-18T16:45:22.957Z</time></trkpt><trkpt lat="44.6261603" lon="8.0447916"><ele>517.0</ele><time>2026-04-18T16:45:23.954Z</time></trkpt><trkpt lat="44.6262249" lon="8.044724"><ele>517.0</ele><time>2026-04-18T16:45:24.957Z</time></trkpt><trkpt lat="44.6261973" lon="8.0445662"><ele>517.0</ele><time>2026-04-18T16:45:25.952Z</time></trkpt><trkpt lat="44.6261497" lon="8.0444416"><ele>517.0</ele><time>2026-04-18T16:45:26.952Z</time></trkpt><trkpt lat="44.6260724" lon="8.0443015"><ele>517.0</ele><time>2026-04-18T16:45:27.957Z</time></trkpt><trkpt lat="44.6259948" lon="8.0441364"><ele>517.0</ele><time>2026-04-18T16:45:28.954Z</time></trkpt><trkpt lat="44.6259052" lon="8.0439502"><ele>512.6666666666667</ele><time>2026-04-18T16:45:29.951Z</time></trkpt><trkpt lat="44.6258096" lon="8.0437631"><ele>508.33333333333337</ele><time>2026-04-18T16:45:30.956Z</time></trkpt><trkpt lat="44.6257063" lon="8.0435675"><ele>504.0</ele><time>2026-04-18T16:45:31.953Z</time></trkpt><trkpt lat="44.6256005" lon="8.0433743"><ele>503.0</ele><time>2026-04-18T16:45:32.958Z</time></trkpt><trkpt lat="44.6254965" lon="8.0431849"><ele>502.0</ele><time>2026-04-18T16:45:33.955Z</time></trkpt><trkpt lat="44.6253971" lon="8.0429951"><ele>501.0</ele><time>2026-04-18T16:45:34.966Z</time></trkpt><trkpt lat="44.6253015" lon="8.042805"><ele>501.0</ele><time>2026-04-18T16:45:35.955Z</time></trkpt><trkpt lat="44.625207" lon="8.0426199"><ele>501.0</ele><time>2026-04-18T16:45:36.956Z</time></trkpt><trkpt lat="44.6251129" lon="8.0424295"><ele>501.0</ele><time>2026-04-18T16:45:37.967Z</time></trkpt><trkpt lat="44.6250371" lon="8.0422289"><ele>500.0</ele><time>2026-04-18T16:45:39.047Z</time></trkpt><trkpt lat="44.6249819" lon="8.0420091"><ele>499.0</ele><time>2026-04-18T16:45:39.958Z</time></trkpt><trkpt lat="44.6249442" lon="8.0417747"><ele>498.0</ele><time>2026-04-18T16:45:40.953Z</time></trkpt><trkpt lat="44.624935" lon="8.0415336"><ele>498.0</ele><time>2026-04-18T16:45:41.96Z</time></trkpt><trkpt lat="44.6249356" lon="8.0412925"><ele>498.0</ele><time>2026-04-18T16:45:42.956Z</time></trkpt><trkpt lat="44.6249451" lon="8.0410503"><ele>498.0</ele><time>2026-04-18T16:45:43.954Z</time></trkpt><trkpt lat="44.6249579" lon="8.0408179"><ele>498.0</ele><time>2026-04-18T16:45:44.962Z</time></trkpt><trkpt lat="44.62497" lon="8.0405945"><ele>498.0</ele><time>2026-04-18T16:45:45.955Z</time></trkpt><trkpt lat="44.6249787" lon="8.0403766"><ele>498.0</ele><time>2026-04-18T16:45:46.95Z</time></trkpt><trkpt lat="44.6249932" lon="8.0401731"><ele>498.0</ele><time>2026-04-18T16:45:47.958Z</time></trkpt><trkpt lat="44.6250028" lon="8.0399765"><ele>498.0</ele><time>2026-04-18T16:45:48.961Z</time></trkpt><trkpt lat="44.6250153" lon="8.039789"><ele>498.0</ele><time>2026-04-18T16:45:49.952Z</time></trkpt><trkpt lat="44.625027" lon="8.0396036"><ele>498.0</ele><time>2026-04-18T16:45:50.953Z</time></trkpt><trkpt lat="44.6250369" lon="8.0394195"><ele>498.0</ele><time>2026-04-18T16:45:51.956Z</time></trkpt><trkpt lat="44.6250379" lon="8.0392451"><ele>498.0</ele><time>2026-04-18T16:45:52.954Z</time></trkpt><trkpt lat="44.6250166" lon="8.0390774"><ele>498.0</ele><time>2026-04-18T16:45:53.947Z</time></trkpt><trkpt lat="44.6249713" lon="8.0389214"><ele>498.0</ele><time>2026-04-18T16:45:54.956Z</time></trkpt><trkpt lat="44.6249117" lon="8.0387826"><ele>498.0</ele><time>2026-04-18T16:45:55.954Z</time></trkpt><trkpt lat="44.6248649" lon="8.0386451"><ele>497.99999999999994</ele><time>2026-04-18T16:45:56.963Z</time></trkpt><trkpt lat="44.6248349" lon="8.0385028"><ele>497.99999999999994</ele><time>2026-04-18T16:45:57.951Z</time></trkpt><trkpt lat="44.6248326" lon="8.0383594"><ele>498.0</ele><time>2026-04-18T16:45:58.957Z</time></trkpt><trkpt lat="44.6248533" lon="8.0382112"><ele>498.0</ele><time>2026-04-18T16:45:59.95Z</time></trkpt><trkpt lat="44.6248878" lon="8.0380544"><ele>498.0</ele><time>2026-04-18T16:46:00.957Z</time></trkpt><trkpt lat="44.6249316" lon="8.0378925"><ele>498.0</ele><time>2026-04-18T16:46:01.948Z</time></trkpt><trkpt lat="44.6249813" lon="8.0377319"><ele>498.0</ele><time>2026-04-18T16:46:02.958Z</time></trkpt><trkpt lat="44.6250235" lon="8.0375638"><ele>498.0</ele><time>2026-04-18T16:46:03.957Z</time></trkpt><trkpt lat="44.6250496" lon="8.0373898"><ele>498.5</ele><time>2026-04-18T16:46:04.963Z</time></trkpt><trkpt lat="44.6250499" lon="8.0372096"><ele>499.0</ele><time>2026-04-18T16:46:05.955Z</time></trkpt><trkpt lat="44.6250249" lon="8.0370401"><ele>499.5</ele><time>2026-04-18T16:46:06.956Z</time></trkpt><trkpt lat="44.6249759" lon="8.0368835"><ele>500.0</ele><time>2026-04-18T16:46:07.954Z</time></trkpt><trkpt lat="44.6249198" lon="8.0367391"><ele>498.6</ele><time>2026-04-18T16:46:08.949Z</time></trkpt><trkpt lat="44.6248682" lon="8.0366046"><ele>497.2</ele><time>2026-04-18T16:46:09.949Z</time></trkpt><trkpt lat="44.6248315" lon="8.0364609"><ele>495.79999999999995</ele><time>2026-04-18T16:46:10.964Z</time></trkpt><trkpt lat="44.6248302" lon="8.0363159"><ele>494.4</ele><time>2026-04-18T16:46:11.96Z</time></trkpt><trkpt lat="44.6248586" lon="8.0361718"><ele>493.0</ele><time>2026-04-18T16:46:12.964Z</time></trkpt><trkpt lat="44.6249138" lon="8.0360318"><ele>493.0</ele><time>2026-04-18T16:46:13.959Z</time></trkpt><trkpt lat="44.6249869" lon="8.0358913"><ele>493.0</ele><time>2026-04-18T16:46:14.95Z</time></trkpt><trkpt lat="44.6250656" lon="8.0357374"><ele>493.0</ele><time>2026-04-18T16:46:15.954Z</time></trkpt><trkpt lat="44.6251432" lon="8.035582"><ele>493.0</ele><time>2026-04-18T16:46:16.951Z</time></trkpt><trkpt lat="44.6252174" lon="8.0354179"><ele>493.0</ele><time>2026-04-18T16:46:17.951Z</time></trkpt><trkpt lat="44.6252881" lon="8.0352462"><ele>493.0</ele><time>2026-04-18T16:46:18.953Z</time></trkpt><trkpt lat="44.6253479" lon="8.0350642"><ele>493.0</ele><time>2026-04-18T16:46:19.964Z</time></trkpt><trkpt lat="44.6253996" lon="8.0348774"><ele>493.0</ele><time>2026-04-18T16:46:20.958Z</time></trkpt><trkpt lat="44.6254479" lon="8.0346901"><ele>490.0</ele><time>2026-04-18T16:46:21.963Z</time></trkpt><trkpt lat="44.6254893" lon="8.0345075"><ele>487.0</ele><time>2026-04-18T16:46:22.955Z</time></trkpt><trkpt lat="44.6255091" lon="8.0343244"><ele>484.0</ele><time>2026-04-18T16:46:23.951Z</time></trkpt><trkpt lat="44.6255104" lon="8.0341394"><ele>481.0</ele><time>2026-04-18T16:46:24.95Z</time></trkpt><trkpt lat="44.6254855" lon="8.0339498"><ele>479.75</ele><time>2026-04-18T16:46:25.952Z</time></trkpt><trkpt lat="44.6254347" lon="8.0337662"><ele>478.5</ele><time>2026-04-18T16:46:26.964Z</time></trkpt><trkpt lat="44.6253603" lon="8.03359"><ele>477.25</ele><time>2026-04-18T16:46:27.959Z</time></trkpt><trkpt lat="44.6252724" lon="8.0334343"><ele>476.0</ele><time>2026-04-18T16:46:28.963Z</time></trkpt><trkpt lat="44.62518" lon="8.0332833"><ele>476.0</ele><time>2026-04-18T16:46:29.961Z</time></trkpt><trkpt lat="44.6250804" lon="8.0331404"><ele>476.0</ele><time>2026-04-18T16:46:30.952Z</time></trkpt><trkpt lat="44.624987" lon="8.0329989"><ele>476.0</ele><time>2026-04-18T16:46:31.958Z</time></trkpt><trkpt lat="44.6248994" lon="8.0328622"><ele>476.0</ele><time>2026-04-18T16:46:32.95Z</time></trkpt><trkpt lat="44.6248147" lon="8.0327365"><ele>476.0</ele><time>2026-04-18T16:46:33.963Z</time></trkpt><trkpt lat="44.6247423" lon="8.0326138"><ele>476.0</ele><time>2026-04-18T16:46:34.951Z</time></trkpt><trkpt lat="44.6246983" lon="8.0324754"><ele>476.0</ele><time>2026-04-18T16:46:35.955Z</time></trkpt><trkpt lat="44.6246966" lon="8.0323262"><ele>476.0</ele><time>2026-04-18T16:46:36.965Z</time></trkpt><trkpt lat="44.6247357" lon="8.0321816"><ele>476.0</ele><time>2026-04-18T16:46:37.962Z</time></trkpt><trkpt lat="44.6248143" lon="8.032064"><ele>472.75</ele><time>2026-04-18T16:46:38.949Z</time></trkpt><trkpt lat="44.6249169" lon="8.0319796"><ele>469.5</ele><time>2026-04-18T16:46:39.953Z</time></trkpt><trkpt lat="44.6250339" lon="8.0319496"><ele>466.25</ele><time>2026-04-18T16:46:40.952Z</time></trkpt><trkpt lat="44.625151" lon="8.0319776"><ele>463.0</ele><time>2026-04-18T16:46:41.952Z</time></trkpt><trkpt lat="44.6252648" lon="8.0320202"><ele>461.75</ele><time>2026-04-18T16:46:42.953Z</time></trkpt><trkpt lat="44.6253486" lon="8.0321753"><ele>460.5</ele><time>2026-04-18T16:46:43.952Z</time></trkpt><trkpt lat="44.6254383" lon="8.0323034"><ele>459.25</ele><time>2026-04-18T16:46:44.955Z</time></trkpt><trkpt lat="44.6255205" lon="8.0324353"><ele>458.0</ele><time>2026-04-18T16:46:45.953Z</time></trkpt><trkpt lat="44.6256057" lon="8.0325656"><ele>458.0</ele><time>2026-04-18T16:46:46.952Z</time></trkpt><trkpt lat="44.625688" lon="8.0327026"><ele>458.0</ele><time>2026-04-18T16:46:47.953Z</time></trkpt><trkpt lat="44.6257758" lon="8.032841"><ele>458.0</ele><time>2026-04-18T16:46:48.954Z</time></trkpt><trkpt lat="44.625864" lon="8.0329899"><ele>458.0</ele><time>2026-04-18T16:46:49.96Z</time></trkpt><trkpt lat="44.6259551" lon="8.0331387"><ele>458.0</ele><time>2026-04-18T16:46:50.958Z</time></trkpt><trkpt lat="44.6260437" lon="8.0332864"><ele>458.0</ele><time>2026-04-18T16:46:51.958Z</time></trkpt><trkpt lat="44.6261399" lon="8.0334522"><ele>458.0</ele><time>2026-04-18T16:46:52.951Z</time></trkpt><trkpt lat="44.6262407" lon="8.0336085"><ele>458.0</ele><time>2026-04-18T16:46:53.963Z</time></trkpt><trkpt lat="44.6263313" lon="8.0337678"><ele>458.75</ele><time>2026-04-18T16:46:54.953Z</time></trkpt><trkpt lat="44.6264222" lon="8.0339157"><ele>459.5</ele><time>2026-04-18T16:46:55.954Z</time></trkpt><trkpt lat="44.6265188" lon="8.0340476"><ele>460.25</ele><time>2026-04-18T16:46:56.954Z</time></trkpt><trkpt lat="44.6266251" lon="8.0341614"><ele>461.0</ele><time>2026-04-18T16:46:57.96Z</time></trkpt><trkpt lat="44.6267385" lon="8.0342538"><ele>461.0</ele><time>2026-04-18T16:46:58.953Z</time></trkpt><trkpt lat="44.6268584" lon="8.0343256"><ele>461.0</ele><time>2026-04-18T16:46:59.953Z</time></trkpt><trkpt lat="44.6269913" lon="8.0343877"><ele>461.0</ele><time>2026-04-18T16:47:00.955Z</time></trkpt><trkpt lat="44.6271333" lon="8.0344385"><ele>461.0</ele><time>2026-04-18T16:47:01.956Z</time></trkpt><trkpt lat="44.6272798" lon="8.0344885"><ele>457.0</ele><time>2026-04-18T16:47:02.957Z</time></trkpt><trkpt lat="44.6274302" lon="8.0345376"><ele>453.0</ele><time>2026-04-18T16:47:03.957Z</time></trkpt><trkpt lat="44.6275806" lon="8.0345918"><ele>449.0</ele><time>2026-04-18T16:47:04.947Z</time></trkpt><trkpt lat="44.6277333" lon="8.0346411"><ele>446.3333333333333</ele><time>2026-04-18T16:47:05.954Z</time></trkpt><trkpt lat="44.6278881" lon="8.034689"><ele>443.66666666666663</ele><time>2026-04-18T16:47:06.953Z</time></trkpt><trkpt lat="44.6280438" lon="8.0347403"><ele>441.0</ele><time>2026-04-18T16:47:07.955Z</time></trkpt><trkpt lat="44.6281901" lon="8.034787"><ele>441.0</ele><time>2026-04-18T16:47:08.956Z</time></trkpt><trkpt lat="44.6283262" lon="8.0348284"><ele>441.0</ele><time>2026-04-18T16:47:09.954Z</time></trkpt><trkpt lat="44.6284572" lon="8.0348696"><ele>441.0</ele><time>2026-04-18T16:47:10.951Z</time></trkpt><trkpt lat="44.6285798" lon="8.0349028"><ele>441.0</ele><time>2026-04-18T16:47:11.954Z</time></trkpt><trkpt lat="44.6286966" lon="8.0349413"><ele>441.3333333333333</ele><time>2026-04-18T16:47:12.954Z</time></trkpt><trkpt lat="44.6287988" lon="8.034977"><ele>441.66666666666663</ele><time>2026-04-18T16:47:13.95Z</time></trkpt><trkpt lat="44.6288872" lon="8.0350066"><ele>442.0</ele><time>2026-04-18T16:47:14.957Z</time></trkpt><trkpt lat="44.6289569" lon="8.0350326"><ele>442.3333333333333</ele><time>2026-04-18T16:47:15.957Z</time></trkpt><trkpt lat="44.6290331" lon="8.0350529"><ele>442.66666666666663</ele><time>2026-04-18T16:47:16.962Z</time></trkpt><trkpt lat="44.629125" lon="8.0350754"><ele>443.0</ele><time>2026-04-18T16:47:17.953Z</time></trkpt><trkpt lat="44.629234" lon="8.0351037"><ele>443.0</ele><time>2026-04-18T16:47:18.95Z</time></trkpt><trkpt lat="44.6293575" lon="8.0351207"><ele>443.0</ele><time>2026-04-18T16:47:19.958Z</time></trkpt><trkpt lat="44.6294909" lon="8.0351115"><ele>443.0</ele><time>2026-04-18T16:47:20.955Z</time></trkpt><trkpt lat="44.629635" lon="8.0350631"><ele>443.0</ele><time>2026-04-18T16:47:21.962Z</time></trkpt><trkpt lat="44.6297814" lon="8.0349873"><ele>439.66666666666663</ele><time>2026-04-18T16:47:22.959Z</time></trkpt><trkpt lat="44.6299328" lon="8.0348917"><ele>436.33333333333337</ele><time>2026-04-18T16:47:23.95Z</time></trkpt><trkpt lat="44.6300875" lon="8.03479"><ele>433.0</ele><time>2026-04-18T16:47:24.966Z</time></trkpt><trkpt lat="44.6302508" lon="8.034684"><ele>435.0</ele><time>2026-04-18T16:47:25.956Z</time></trkpt><trkpt lat="44.6304187" lon="8.0345735"><ele>437.0</ele><time>2026-04-18T16:47:26.962Z</time></trkpt><trkpt lat="44.6305893" lon="8.0344625"><ele>439.0</ele><time>2026-04-18T16:47:27.954Z</time></trkpt><trkpt lat="44.6307612" lon="8.0343444"><ele>439.0</ele><time>2026-04-18T16:47:28.957Z</time></trkpt><trkpt lat="44.6309329" lon="8.0342158"><ele>439.0</ele><time>2026-04-18T16:47:29.95Z</time></trkpt><trkpt lat="44.631102" lon="8.0340585"><ele>439.0</ele><time>2026-04-18T16:47:30.955Z</time></trkpt><trkpt lat="44.6312678" lon="8.0338704"><ele>437.0</ele><time>2026-04-18T16:47:31.952Z</time></trkpt><trkpt lat="44.631428" lon="8.0336527"><ele>435.0</ele><time>2026-04-18T16:47:32.951Z</time></trkpt><trkpt lat="44.6315887" lon="8.033423"><ele>439.0</ele><time>2026-04-18T16:47:33.954Z</time></trkpt><trkpt lat="44.6317557" lon="8.03319"><ele>443.0</ele><time>2026-04-18T16:47:34.952Z</time></trkpt><trkpt lat="44.6319355" lon="8.0329612"><ele>440.0</ele><time>2026-04-18T16:47:35.959Z</time></trkpt><trkpt lat="44.6321355" lon="8.0327599"><ele>437.0</ele><time>2026-04-18T16:47:36.962Z</time></trkpt><trkpt lat="44.6323377" lon="8.0325872"><ele>436.0</ele><time>2026-04-18T16:47:37.948Z</time></trkpt><trkpt lat="44.6325259" lon="8.0324335"><ele>435.0</ele><time>2026-04-18T16:47:38.961Z</time></trkpt><trkpt lat="44.6327055" lon="8.0323083"><ele>434.0</ele><time>2026-04-18T16:47:39.955Z</time></trkpt><trkpt lat="44.632886" lon="8.032237"><ele>436.3333333333333</ele><time>2026-04-18T16:47:40.959Z</time></trkpt><trkpt lat="44.6330749" lon="8.0322159"><ele>438.66666666666663</ele><time>2026-04-18T16:47:41.951Z</time></trkpt><trkpt lat="44.6332655" lon="8.0322293"><ele>441.0</ele><time>2026-04-18T16:47:42.962Z</time></trkpt><trkpt lat="44.6334507" lon="8.032274"><ele>441.0</ele><time>2026-04-18T16:47:43.956Z</time></trkpt><trkpt lat="44.6336164" lon="8.0323606"><ele>441.0</ele><time>2026-04-18T16:47:44.961Z</time></trkpt><trkpt lat="44.6337546" lon="8.0324778"><ele>441.0</ele><time>2026-04-18T16:47:45.949Z</time></trkpt><trkpt lat="44.6338684" lon="8.0325877"><ele>441.5</ele><time>2026-04-18T16:47:46.957Z</time></trkpt><trkpt lat="44.6339749" lon="8.032672"><ele>442.0</ele><time>2026-04-18T16:47:47.95Z</time></trkpt><trkpt lat="44.634092" lon="8.0327004"><ele>442.5</ele><time>2026-04-18T16:47:48.962Z</time></trkpt><trkpt lat="44.6342106" lon="8.0326733"><ele>443.0</ele><time>2026-04-18T16:47:49.949Z</time></trkpt><trkpt lat="44.6343241" lon="8.0325795"><ele>443.0</ele><time>2026-04-18T16:47:50.95Z</time></trkpt><trkpt lat="44.6344328" lon="8.0324444"><ele>443.0</ele><time>2026-04-18T16:47:51.956Z</time></trkpt><trkpt lat="44.6345527" lon="8.0322861"><ele>443.0</ele><time>2026-04-18T16:47:52.956Z</time></trkpt><trkpt lat="44.6346826" lon="8.0321223"><ele>443.0</ele><time>2026-04-18T16:47:53.949Z</time></trkpt><trkpt lat="44.6348077" lon="8.0319675"><ele>443.0</ele><time>2026-04-18T16:47:54.958Z</time></trkpt><trkpt lat="44.6349229" lon="8.0318262"><ele>443.0</ele><time>2026-04-18T16:47:55.961Z</time></trkpt><trkpt lat="44.6350497" lon="8.031719"><ele>443.0</ele><time>2026-04-18T16:47:56.959Z</time></trkpt><trkpt lat="44.6351812" lon="8.0316597"><ele>443.0</ele><time>2026-04-18T16:47:57.948Z</time></trkpt><trkpt lat="44.6353254" lon="8.0316694"><ele>443.0</ele><time>2026-04-18T16:47:58.96Z</time></trkpt><trkpt lat="44.6354646" lon="8.0317416"><ele>443.0</ele><time>2026-04-18T16:47:59.946Z</time></trkpt><trkpt lat="44.6356088" lon="8.0318543"><ele>442.3333333333333</ele><time>2026-04-18T16:48:00.947Z</time></trkpt><trkpt lat="44.6357669" lon="8.0319923"><ele>441.66666666666663</ele><time>2026-04-18T16:48:01.947Z</time></trkpt><trkpt lat="44.6359273" lon="8.0321374"><ele>441.0</ele><time>2026-04-18T16:48:02.959Z</time></trkpt><trkpt lat="44.6360982" lon="8.0322944"><ele>441.0</ele><time>2026-04-18T16:48:03.959Z</time></trkpt><trkpt lat="44.6362706" lon="8.0324513"><ele>441.0</ele><time>2026-04-18T16:48:04.956Z</time></trkpt><trkpt lat="44.6364395" lon="8.0326116"><ele>441.0</ele><time>2026-04-18T16:48:05.951Z</time></trkpt><trkpt lat="44.6366076" lon="8.0327608"><ele>440.33333333333337</ele><time>2026-04-18T16:48:06.961Z</time></trkpt><trkpt lat="44.6367644" lon="8.0329025"><ele>439.6666666666667</ele><time>2026-04-18T16:48:07.96Z</time></trkpt><trkpt lat="44.6369065" lon="8.0330211"><ele>439.0</ele><time>2026-04-18T16:48:08.957Z</time></trkpt><trkpt lat="44.6370467" lon="8.0331115"><ele>439.0</ele><time>2026-04-18T16:48:09.946Z</time></trkpt><trkpt lat="44.6371937" lon="8.0331462"><ele>439.0</ele><time>2026-04-18T16:48:10.953Z</time></trkpt><trkpt lat="44.6373453" lon="8.0331239"><ele>439.0</ele><time>2026-04-18T16:48:11.962Z</time></trkpt><trkpt lat="44.6374887" lon="8.0330406"><ele>439.0</ele><time>2026-04-18T16:48:12.959Z</time></trkpt><trkpt lat="44.6376366" lon="8.0329277"><ele>439.0</ele><time>2026-04-18T16:48:13.946Z</time></trkpt><trkpt lat="44.6377995" lon="8.032844"><ele>439.0</ele><time>2026-04-18T16:48:14.96Z</time></trkpt><trkpt lat="44.6379805" lon="8.0328043"><ele>436.33333333333337</ele><time>2026-04-18T16:48:15.952Z</time></trkpt><trkpt lat="44.6381685" lon="8.0328019"><ele>433.66666666666663</ele><time>2026-04-18T16:48:16.954Z</time></trkpt><trkpt lat="44.6383457" lon="8.032809"><ele>431.0</ele><time>2026-04-18T16:48:17.951Z</time></trkpt><trkpt lat="44.6385191" lon="8.0327857"><ele>427.3333333333333</ele><time>2026-04-18T16:48:18.956Z</time></trkpt><trkpt lat="44.6386901" lon="8.0327098"><ele>423.66666666666663</ele><time>2026-04-18T16:48:19.96Z</time></trkpt><trkpt lat="44.6388584" lon="8.0325858"><ele>420.0</ele><time>2026-04-18T16:48:20.957Z</time></trkpt><trkpt lat="44.6390284" lon="8.0324439"><ele>420.0</ele><time>2026-04-18T16:48:21.954Z</time></trkpt><trkpt lat="44.6392034" lon="8.0322957"><ele>420.0</ele><time>2026-04-18T16:48:22.964Z</time></trkpt><trkpt lat="44.6393873" lon="8.0321462"><ele>420.0</ele><time>2026-04-18T16:48:23.943Z</time></trkpt><trkpt lat="44.6395721" lon="8.0319895"><ele>418.0</ele><time>2026-04-18T16:48:24.961Z</time></trkpt><trkpt lat="44.6397696" lon="8.0318533"><ele>416.0</ele><time>2026-04-18T16:48:25.959Z</time></trkpt><trkpt lat="44.6399763" lon="8.0317392"><ele>414.0</ele><time>2026-04-18T16:48:26.962Z</time></trkpt><trkpt lat="44.6401881" lon="8.0316509"><ele>413.0</ele><time>2026-04-18T16:48:27.955Z</time></trkpt><trkpt lat="44.6403919" lon="8.0315758"><ele>412.0</ele><time>2026-04-18T16:48:28.959Z</time></trkpt><trkpt lat="44.6405864" lon="8.0315025"><ele>411.0</ele><time>2026-04-18T16:48:29.951Z</time></trkpt><trkpt lat="44.6407693" lon="8.0314481"><ele>411.0</ele><time>2026-04-18T16:48:30.959Z</time></trkpt><trkpt lat="44.6409464" lon="8.0314051"><ele>411.0</ele><time>2026-04-18T16:48:31.953Z</time></trkpt><trkpt lat="44.6411275" lon="8.0313999"><ele>411.0</ele><time>2026-04-18T16:48:32.96Z</time></trkpt><trkpt lat="44.6413124" lon="8.0314353"><ele>417.0</ele><time>2026-04-18T16:48:33.951Z</time></trkpt><trkpt lat="44.6414953" lon="8.0314883"><ele>423.0</ele><time>2026-04-18T16:48:34.946Z</time></trkpt><trkpt lat="44.6416676" lon="8.0315456"><ele>429.0</ele><time>2026-04-18T16:48:35.948Z</time></trkpt><trkpt lat="44.6418321" lon="8.0316201"><ele>433.66666666666663</ele><time>2026-04-18T16:48:36.95Z</time></trkpt><trkpt lat="44.6419855" lon="8.0317318"><ele>438.3333333333333</ele><time>2026-04-18T16:48:37.948Z</time></trkpt><trkpt lat="44.6421223" lon="8.0318764"><ele>443.0</ele><time>2026-04-18T16:48:38.948Z</time></trkpt><trkpt lat="44.6422465" lon="8.0320479"><ele>443.0</ele><time>2026-04-18T16:48:39.947Z</time></trkpt><trkpt lat="44.6423532" lon="8.0322465"><ele>443.0</ele><time>2026-04-18T16:48:40.959Z</time></trkpt><trkpt lat="44.6424421" lon="8.032476"><ele>443.0</ele><time>2026-04-18T16:48:41.948Z</time></trkpt><trkpt lat="44.6425097" lon="8.0327151"><ele>440.3333333333333</ele><time>2026-04-18T16:48:42.952Z</time></trkpt><trkpt lat="44.6425649" lon="8.0329352"><ele>437.66666666666663</ele><time>2026-04-18T16:48:43.955Z</time></trkpt><trkpt lat="44.6425946" lon="8.0331521"><ele>435.0</ele><time>2026-04-18T16:48:44.948Z</time></trkpt><trkpt lat="44.6425928" lon="8.0333716"><ele>435.0</ele><time>2026-04-18T16:48:45.942Z</time></trkpt><trkpt lat="44.6425714" lon="8.0335773"><ele>435.0</ele><time>2026-04-18T16:48:46.947Z</time></trkpt><trkpt lat="44.6425439" lon="8.0337654"><ele>435.0</ele><time>2026-04-18T16:48:47.943Z</time></trkpt><trkpt lat="44.6425152" lon="8.0339286"><ele>435.0</ele><time>2026-04-18T16:48:48.956Z</time></trkpt><trkpt lat="44.6424888" lon="8.0340731"><ele>435.0</ele><time>2026-04-18T16:48:49.995Z</time></trkpt><trkpt lat="44.6424725" lon="8.0341918"><ele>435.0</ele><time>2026-04-18T16:48:50.994Z</time></trkpt><trkpt lat="44.642479" lon="8.0342838"><ele>435.0</ele><time>2026-04-18T16:48:51.956Z</time></trkpt><trkpt lat="44.642521" lon="8.0343558"><ele>435.0</ele><time>2026-04-18T16:48:52.948Z</time></trkpt><trkpt lat="44.6426446" lon="8.0343347"><ele>435.0</ele><time>2026-04-18T16:48:54.961Z</time></trkpt><trkpt lat="44.6426903" lon="8.0342458"><ele>435.0</ele><time>2026-04-18T16:48:55.964Z</time></trkpt><trkpt lat="44.6427133" lon="8.0341187"><ele>435.0</ele><time>2026-04-18T16:48:56.957Z</time></trkpt><trkpt lat="44.6427355" lon="8.0339709"><ele>435.0</ele><time>2026-04-18T16:48:57.948Z</time></trkpt><trkpt lat="44.6427571" lon="8.0337972"><ele>435.0</ele><time>2026-04-18T16:48:58.956Z</time></trkpt><trkpt lat="44.6427829" lon="8.0336059"><ele>435.0</ele><time>2026-04-18T16:48:59.964Z</time></trkpt><trkpt lat="44.6428122" lon="8.0333978"><ele>443.66666666666663</ele><time>2026-04-18T16:49:00.955Z</time></trkpt><trkpt lat="44.6428423" lon="8.0331754"><ele>452.3333333333333</ele><time>2026-04-18T16:49:01.951Z</time></trkpt><trkpt lat="44.6428679" lon="8.0329391"><ele>461.0</ele><time>2026-04-18T16:49:02.982Z</time></trkpt><trkpt lat="44.6429" lon="8.0327062"><ele>461.0</ele><time>2026-04-18T16:49:03.958Z</time></trkpt><trkpt lat="44.642932" lon="8.0324783"><ele>461.0</ele><time>2026-04-18T16:49:04.961Z</time></trkpt><trkpt lat="44.6429605" lon="8.0322697"><ele>461.0</ele><time>2026-04-18T16:49:05.961Z</time></trkpt><trkpt lat="44.6429705" lon="8.0320688"><ele>460.5</ele><time>2026-04-18T16:49:06.957Z</time></trkpt><trkpt lat="44.6429595" lon="8.0318696"><ele>460.0</ele><time>2026-04-18T16:49:07.958Z</time></trkpt><trkpt lat="44.6429183" lon="8.0316972"><ele>459.5</ele><time>2026-04-18T16:49:08.955Z</time></trkpt><trkpt lat="44.6428749" lon="8.0315349"><ele>459.0</ele><time>2026-04-18T16:49:09.948Z</time></trkpt><trkpt lat="44.6428478" lon="8.031378"><ele>459.0</ele><time>2026-04-18T16:49:10.951Z</time></trkpt><trkpt lat="44.642841" lon="8.0312329"><ele>459.0</ele><time>2026-04-18T16:49:11.96Z</time></trkpt><trkpt lat="44.6428562" lon="8.0310895"><ele>459.0</ele><time>2026-04-18T16:49:12.95Z</time></trkpt><trkpt lat="44.642896" lon="8.0309549"><ele>459.0</ele><time>2026-04-18T16:49:13.947Z</time></trkpt><trkpt lat="44.6429704" lon="8.0308556"><ele>459.0</ele><time>2026-04-18T16:49:14.958Z</time></trkpt><trkpt lat="44.6430752" lon="8.0307798"><ele>454.25</ele><time>2026-04-18T16:49:15.957Z</time></trkpt><trkpt lat="44.6431979" lon="8.0307115"><ele>449.5</ele><time>2026-04-18T16:49:16.948Z</time></trkpt><trkpt lat="44.6433313" lon="8.0306463"><ele>444.75</ele><time>2026-04-18T16:49:17.946Z</time></trkpt><trkpt lat="44.6434726" lon="8.030568"><ele>440.0</ele><time>2026-04-18T16:49:18.96Z</time></trkpt><trkpt lat="44.6436265" lon="8.0304668"><ele>445.66666666666663</ele><time>2026-04-18T16:49:19.955Z</time></trkpt><trkpt lat="44.6437836" lon="8.0303691"><ele>451.33333333333337</ele><time>2026-04-18T16:49:20.961Z</time></trkpt><trkpt lat="44.6439595" lon="8.0302769"><ele>457.0</ele><time>2026-04-18T16:49:21.961Z</time></trkpt><trkpt lat="44.6441452" lon="8.0301945"><ele>457.0</ele><time>2026-04-18T16:49:22.956Z</time></trkpt><trkpt lat="44.6443365" lon="8.0301206"><ele>457.0</ele><time>2026-04-18T16:49:23.957Z</time></trkpt><trkpt lat="44.6445263" lon="8.0300427"><ele>457.0</ele><time>2026-04-18T16:49:24.955Z</time></trkpt><trkpt lat="44.6447181" lon="8.0299692"><ele>456.33333333333337</ele><time>2026-04-18T16:49:25.949Z</time></trkpt><trkpt lat="44.6449099" lon="8.0298896"><ele>455.66666666666663</ele><time>2026-04-18T16:49:26.961Z</time></trkpt><trkpt lat="44.6451028" lon="8.0298011"><ele>455.0</ele><time>2026-04-18T16:49:27.952Z</time></trkpt><trkpt lat="44.6452874" lon="8.0296792"><ele>462.0</ele><time>2026-04-18T16:49:28.952Z</time></trkpt><trkpt lat="44.6454622" lon="8.0295204"><ele>469.0</ele><time>2026-04-18T16:49:29.95Z</time></trkpt><trkpt lat="44.6456215" lon="8.0293378"><ele>476.0</ele><time>2026-04-18T16:49:30.957Z</time></trkpt><trkpt lat="44.6457625" lon="8.0291542"><ele>475.0</ele><time>2026-04-18T16:49:31.959Z</time></trkpt><trkpt lat="44.6459042" lon="8.0289987"><ele>474.0</ele><time>2026-04-18T16:49:32.959Z</time></trkpt><trkpt lat="44.646059" lon="8.0288836"><ele>473.0</ele><time>2026-04-18T16:49:33.954Z</time></trkpt><trkpt lat="44.6462176" lon="8.0287875"><ele>473.0</ele><time>2026-04-18T16:49:34.951Z</time></trkpt><trkpt lat="44.6463766" lon="8.0287312"><ele>473.0</ele><time>2026-04-18T16:49:35.952Z</time></trkpt><trkpt lat="44.646536" lon="8.0287058"><ele>473.0</ele><time>2026-04-18T16:49:36.962Z</time></trkpt><trkpt lat="44.6466944" lon="8.0287229"><ele>473.0</ele><time>2026-04-18T16:49:37.963Z</time></trkpt><trkpt lat="44.646836" lon="8.0287594"><ele>473.0</ele><time>2026-04-18T16:49:38.954Z</time></trkpt><trkpt lat="44.6469717" lon="8.0288008"><ele>473.0</ele><time>2026-04-18T16:49:39.954Z</time></trkpt><trkpt lat="44.6470942" lon="8.0288433"><ele>473.0</ele><time>2026-04-18T16:49:40.953Z</time></trkpt><trkpt lat="44.6472072" lon="8.0288823"><ele>472.16666666666663</ele><time>2026-04-18T16:49:41.949Z</time></trkpt><trkpt lat="44.6473136" lon="8.0289174"><ele>471.3333333333333</ele><time>2026-04-18T16:49:42.945Z</time></trkpt><trkpt lat="44.6474075" lon="8.0289525"><ele>470.5</ele><time>2026-04-18T16:49:43.955Z</time></trkpt><trkpt lat="44.6474859" lon="8.028976"><ele>469.66666666666663</ele><time>2026-04-18T16:49:44.963Z</time></trkpt><trkpt lat="44.6475592" lon="8.0290046"><ele>468.8333333333333</ele><time>2026-04-18T16:49:45.964Z</time></trkpt><trkpt lat="44.6476275" lon="8.0290291"><ele>468.0</ele><time>2026-04-18T16:49:46.953Z</time></trkpt><trkpt lat="44.6476921" lon="8.02905"><ele>468.0</ele><time>2026-04-18T16:49:47.956Z</time></trkpt><trkpt lat="44.6477591" lon="8.0290714"><ele>468.00000000000006</ele><time>2026-04-18T16:49:48.958Z</time></trkpt><trkpt lat="44.6478281" lon="8.0290925"><ele>468.0</ele><time>2026-04-18T16:49:49.961Z</time></trkpt><trkpt lat="44.6478952" lon="8.0291061"><ele>468.0</ele><time>2026-04-18T16:49:50.958Z</time></trkpt><trkpt lat="44.6479612" lon="8.0291179"><ele>468.00000000000006</ele><time>2026-04-18T16:49:51.95Z</time></trkpt><trkpt lat="44.6480285" lon="8.0291306"><ele>468.0</ele><time>2026-04-18T16:49:52.959Z</time></trkpt><trkpt lat="44.6480975" lon="8.0291454"><ele>468.0</ele><time>2026-04-18T16:49:53.962Z</time></trkpt><trkpt lat="44.6481768" lon="8.0291541"><ele>470.8333333333333</ele><time>2026-04-18T16:49:54.953Z</time></trkpt><trkpt lat="44.6482545" lon="8.0291604"><ele>473.66666666666663</ele><time>2026-04-18T16:49:55.962Z</time></trkpt><trkpt lat="44.6483432" lon="8.0291649"><ele>476.5</ele><time>2026-04-18T16:49:56.95Z</time></trkpt><trkpt lat="44.6484315" lon="8.0291634"><ele>479.3333333333333</ele><time>2026-04-18T16:49:57.955Z</time></trkpt><trkpt lat="44.6485115" lon="8.0291627"><ele>482.16666666666663</ele><time>2026-04-18T16:49:58.951Z</time></trkpt><trkpt lat="44.6485926" lon="8.0291601"><ele>485.0</ele><time>2026-04-18T16:49:59.956Z</time></trkpt><trkpt lat="44.6486747" lon="8.0291512"><ele>481.25</ele><time>2026-04-18T16:50:00.958Z</time></trkpt><trkpt lat="44.648783" lon="8.029113"><ele>477.5</ele><time>2026-04-18T16:50:01.955Z</time></trkpt><trkpt lat="44.648911" lon="8.0290855"><ele>473.75</ele><time>2026-04-18T16:50:02.96Z</time></trkpt><trkpt lat="44.6490341" lon="8.0290545"><ele>470.0</ele><time>2026-04-18T16:50:03.956Z</time></trkpt><trkpt lat="44.6491427" lon="8.0290212"><ele>470.0</ele><time>2026-04-18T16:50:04.96Z</time></trkpt><trkpt lat="44.6492525" lon="8.0289754"><ele>470.0</ele><time>2026-04-18T16:50:05.954Z</time></trkpt><trkpt lat="44.6493738" lon="8.0289266"><ele>470.0</ele><time>2026-04-18T16:50:06.948Z</time></trkpt><trkpt lat="44.6494815" lon="8.0288784"><ele>470.0</ele><time>2026-04-18T16:50:07.951Z</time></trkpt><trkpt lat="44.6495957" lon="8.0288693"><ele>472.3333333333333</ele><time>2026-04-18T16:50:08.953Z</time></trkpt><trkpt lat="44.6496886" lon="8.0288628"><ele>474.66666666666663</ele><time>2026-04-18T16:50:09.954Z</time></trkpt><trkpt lat="44.6497706" lon="8.0288749"><ele>477.0</ele><time>2026-04-18T16:50:10.951Z</time></trkpt><trkpt lat="44.6498373" lon="8.0288494"><ele>479.33333333333337</ele><time>2026-04-18T16:50:11.954Z</time></trkpt><trkpt lat="44.6499109" lon="8.028833"><ele>481.6666666666667</ele><time>2026-04-18T16:50:12.964Z</time></trkpt><trkpt lat="44.6499727" lon="8.02881"><ele>484.0</ele><time>2026-04-18T16:50:13.953Z</time></trkpt><trkpt lat="44.6500375" lon="8.0287874"><ele>484.00000000000006</ele><time>2026-04-18T16:50:14.951Z</time></trkpt><trkpt lat="44.6501057" lon="8.0287541"><ele>484.0</ele><time>2026-04-18T16:50:15.962Z</time></trkpt><trkpt lat="44.6501711" lon="8.0287213"><ele>484.0</ele><time>2026-04-18T16:50:16.962Z</time></trkpt><trkpt lat="44.6502458" lon="8.0286904"><ele>484.0</ele><time>2026-04-18T16:50:17.952Z</time></trkpt><trkpt lat="44.650323" lon="8.0286632"><ele>484.00000000000006</ele><time>2026-04-18T16:50:18.951Z</time></trkpt><trkpt lat="44.6503956" lon="8.0286226"><ele>484.0</ele><time>2026-04-18T16:50:19.959Z</time></trkpt><trkpt lat="44.6504808" lon="8.0285906"><ele>483.4</ele><time>2026-04-18T16:50:20.966Z</time></trkpt><trkpt lat="44.6505645" lon="8.0285606"><ele>482.79999999999995</ele><time>2026-04-18T16:50:21.955Z</time></trkpt><trkpt lat="44.6506557" lon="8.028526"><ele>482.20000000000005</ele><time>2026-04-18T16:50:22.951Z</time></trkpt><trkpt lat="44.6507456" lon="8.0284919"><ele>481.6</ele><time>2026-04-18T16:50:23.948Z</time></trkpt><trkpt lat="44.6508398" lon="8.0284624"><ele>481.0</ele><time>2026-04-18T16:50:24.952Z</time></trkpt><trkpt lat="44.6509292" lon="8.0284338"><ele>481.00000000000006</ele><time>2026-04-18T16:50:25.954Z</time></trkpt><trkpt lat="44.6510139" lon="8.0284083"><ele>481.0</ele><time>2026-04-18T16:50:26.954Z</time></trkpt><trkpt lat="44.6510937" lon="8.0283759"><ele>481.0</ele><time>2026-04-18T16:50:27.961Z</time></trkpt><trkpt lat="44.651177" lon="8.0283506"><ele>481.0</ele><time>2026-04-18T16:50:28.959Z</time></trkpt><trkpt lat="44.6512599" lon="8.0283191"><ele>481.00000000000006</ele><time>2026-04-18T16:50:29.959Z</time></trkpt><trkpt lat="44.651348" lon="8.0282884"><ele>481.0</ele><time>2026-04-18T16:50:30.951Z</time></trkpt><trkpt lat="44.6514357" lon="8.0282512"><ele>482.20000000000005</ele><time>2026-04-18T16:50:31.949Z</time></trkpt><trkpt lat="44.6515271" lon="8.0282194"><ele>483.40000000000003</ele><time>2026-04-18T16:50:32.95Z</time></trkpt><trkpt lat="44.6516191" lon="8.0281887"><ele>484.6</ele><time>2026-04-18T16:50:33.945Z</time></trkpt><trkpt lat="44.6516921" lon="8.028164"><ele>485.8</ele><time>2026-04-18T16:50:35.178Z</time></trkpt><trkpt lat="44.6518682" lon="8.0281108"><ele>487.0</ele><time>2026-04-18T16:50:36.882Z</time></trkpt><trkpt lat="44.6520339" lon="8.0280903"><ele>484.0</ele><time>2026-04-18T16:50:37.949Z</time></trkpt><trkpt lat="44.6521341" lon="8.0280906"><ele>481.00000000000006</ele><time>2026-04-18T16:50:38.95Z</time></trkpt><trkpt lat="44.6522317" lon="8.0281028"><ele>478.00000000000006</ele><time>2026-04-18T16:50:39.963Z</time></trkpt><trkpt lat="44.6523262" lon="8.0281098"><ele>475.0</ele><time>2026-04-18T16:50:40.956Z</time></trkpt><trkpt lat="44.6524152" lon="8.0281023"><ele>472.0</ele><time>2026-04-18T16:50:41.963Z</time></trkpt><trkpt lat="44.6525079" lon="8.0280663"><ele>472.0</ele><time>2026-04-18T16:50:42.963Z</time></trkpt><trkpt lat="44.6525922" lon="8.0279878"><ele>472.00000000000006</ele><time>2026-04-18T16:50:43.964Z</time></trkpt><trkpt lat="44.6526683" lon="8.0278945"><ele>472.00000000000006</ele><time>2026-04-18T16:50:44.963Z</time></trkpt><trkpt lat="44.6527141" lon="8.0277717"><ele>472.0</ele><time>2026-04-18T16:50:45.963Z</time></trkpt><trkpt lat="44.652761" lon="8.027682"><ele>472.0</ele><time>2026-04-18T16:50:46.964Z</time></trkpt><trkpt lat="44.6528559" lon="8.0275537"><ele>471.25</ele><time>2026-04-18T16:50:47.964Z</time></trkpt><trkpt lat="44.65296" lon="8.0275354"><ele>470.5</ele><time>2026-04-18T16:50:48.964Z</time></trkpt><trkpt lat="44.6530537" lon="8.0274946"><ele>469.75</ele><time>2026-04-18T16:50:49.964Z</time></trkpt><trkpt lat="44.6531658" lon="8.0274554"><ele>469.0</ele><time>2026-04-18T16:50:50.964Z</time></trkpt><trkpt lat="44.6533075" lon="8.0273775"><ele>467.33333333333337</ele><time>2026-04-18T16:50:51.963Z</time></trkpt><trkpt lat="44.6534405" lon="8.0272625"><ele>465.66666666666663</ele><time>2026-04-18T16:50:52.964Z</time></trkpt><trkpt lat="44.6535793" lon="8.0271292"><ele>464.0</ele><time>2026-04-18T16:50:53.963Z</time></trkpt><trkpt lat="44.6537166" lon="8.0269736"><ele>464.0</ele><time>2026-04-18T16:50:54.964Z</time></trkpt><trkpt lat="44.6538606" lon="8.0268161"><ele>464.0</ele><time>2026-04-18T16:50:55.964Z</time></trkpt><trkpt lat="44.6539929" lon="8.0266559"><ele>464.0</ele><time>2026-04-18T16:50:56.964Z</time></trkpt><trkpt lat="44.6541212" lon="8.0264944"><ele>460.5</ele><time>2026-04-18T16:50:57.963Z</time></trkpt><trkpt lat="44.6542306" lon="8.0263386"><ele>457.0</ele><time>2026-04-18T16:50:58.964Z</time></trkpt><trkpt lat="44.6543318" lon="8.0261927"><ele>453.5</ele><time>2026-04-18T16:50:59.963Z</time></trkpt><trkpt lat="44.654434" lon="8.0260579"><ele>450.0</ele><time>2026-04-18T16:51:00.964Z</time></trkpt><trkpt lat="44.6545342" lon="8.0259308"><ele>450.0</ele><time>2026-04-18T16:51:01.964Z</time></trkpt><trkpt lat="44.6546462" lon="8.025825"><ele>450.0</ele><time>2026-04-18T16:51:02.964Z</time></trkpt><trkpt lat="44.6547617" lon="8.0257404"><ele>450.0</ele><time>2026-04-18T16:51:03.964Z</time></trkpt><trkpt lat="44.6548912" lon="8.0256718"><ele>450.0</ele><time>2026-04-18T16:51:04.964Z</time></trkpt><trkpt lat="44.6550425" lon="8.0256517"><ele>443.0</ele><time>2026-04-18T16:51:05.963Z</time></trkpt><trkpt lat="44.655199" lon="8.025626"><ele>436.0</ele><time>2026-04-18T16:51:06.964Z</time></trkpt><trkpt lat="44.6553606" lon="8.0256003"><ele>429.0</ele><time>2026-04-18T16:51:07.964Z</time></trkpt><trkpt lat="44.6555291" lon="8.0255804"><ele>429.0</ele><time>2026-04-18T16:51:08.964Z</time></trkpt><trkpt lat="44.6557073" lon="8.0255656"><ele>429.0</ele><time>2026-04-18T16:51:09.963Z</time></trkpt><trkpt lat="44.6558862" lon="8.0255477"><ele>429.0</ele><time>2026-04-18T16:51:10.964Z</time></trkpt><trkpt lat="44.6560679" lon="8.0255296"><ele>429.66666666666663</ele><time>2026-04-18T16:51:11.964Z</time></trkpt><trkpt lat="44.6562417" lon="8.0255112"><ele>430.3333333333333</ele><time>2026-04-18T16:51:12.963Z</time></trkpt><trkpt lat="44.6564061" lon="8.0254913"><ele>431.0</ele><time>2026-04-18T16:51:13.964Z</time></trkpt><trkpt lat="44.6565591" lon="8.0254775"><ele>431.0</ele><time>2026-04-18T16:51:14.964Z</time></trkpt><trkpt lat="44.6567096" lon="8.0254662"><ele>431.0</ele><time>2026-04-18T16:51:15.964Z</time></trkpt><trkpt lat="44.6568387" lon="8.0254176"><ele>431.0</ele><time>2026-04-18T16:51:16.964Z</time></trkpt><trkpt lat="44.6569643" lon="8.0253285"><ele>431.0</ele><time>2026-04-18T16:51:17.964Z</time></trkpt><trkpt lat="44.6570822" lon="8.0252013"><ele>433.3333333333333</ele><time>2026-04-18T16:51:18.964Z</time></trkpt><trkpt lat="44.6571974" lon="8.0250553"><ele>435.66666666666663</ele><time>2026-04-18T16:51:19.964Z</time></trkpt><trkpt lat="44.6573113" lon="8.024907"><ele>438.0</ele><time>2026-04-18T16:51:20.963Z</time></trkpt><trkpt lat="44.6574266" lon="8.0247735"><ele>434.66666666666663</ele><time>2026-04-18T16:51:21.963Z</time></trkpt><trkpt lat="44.6575572" lon="8.0246628"><ele>431.3333333333333</ele><time>2026-04-18T16:51:22.963Z</time></trkpt><trkpt lat="44.6576995" lon="8.0245632"><ele>428.0</ele><time>2026-04-18T16:51:23.963Z</time></trkpt><trkpt lat="44.657846" lon="8.024459"><ele>428.0</ele><time>2026-04-18T16:51:24.963Z</time></trkpt><trkpt lat="44.6579954" lon="8.0243517"><ele>428.0</ele><time>2026-04-18T16:51:25.963Z</time></trkpt><trkpt lat="44.6581452" lon="8.0242485"><ele>428.0</ele><time>2026-04-18T16:51:26.964Z</time></trkpt><trkpt lat="44.6582854" lon="8.0241581"><ele>425.25</ele><time>2026-04-18T16:51:27.964Z</time></trkpt><trkpt lat="44.6584153" lon="8.0240721"><ele>422.5</ele><time>2026-04-18T16:51:28.964Z</time></trkpt><trkpt lat="44.6585386" lon="8.0240011"><ele>419.75</ele><time>2026-04-18T16:51:29.964Z</time></trkpt><trkpt lat="44.6586599" lon="8.0239465"><ele>417.0</ele><time>2026-04-18T16:51:30.964Z</time></trkpt><trkpt lat="44.6587808" lon="8.0239309"><ele>416.25</ele><time>2026-04-18T16:51:31.964Z</time></trkpt><trkpt lat="44.6588985" lon="8.0239734"><ele>415.5</ele><time>2026-04-18T16:51:32.963Z</time></trkpt><trkpt lat="44.6590028" lon="8.024073"><ele>414.75</ele><time>2026-04-18T16:51:33.964Z</time></trkpt><trkpt lat="44.6591055" lon="8.0241933"><ele>414.0</ele><time>2026-04-18T16:51:34.964Z</time></trkpt><trkpt lat="44.6592283" lon="8.024284"><ele>414.25</ele><time>2026-04-18T16:51:35.963Z</time></trkpt><trkpt lat="44.6593668" lon="8.0243347"><ele>414.5</ele><time>2026-04-18T16:51:36.964Z</time></trkpt><trkpt lat="44.6595183" lon="8.0243309"><ele>414.75</ele><time>2026-04-18T16:51:37.964Z</time></trkpt><trkpt lat="44.6596657" lon="8.0242849"><ele>415.0</ele><time>2026-04-18T16:51:38.964Z</time></trkpt><trkpt lat="44.6598126" lon="8.0242499"><ele>415.0</ele><time>2026-04-18T16:51:39.963Z</time></trkpt><trkpt lat="44.6599626" lon="8.024255"><ele>415.0</ele><time>2026-04-18T16:51:40.964Z</time></trkpt><trkpt lat="44.660117" lon="8.0243107"><ele>415.0</ele><time>2026-04-18T16:51:41.964Z</time></trkpt><trkpt lat="44.6602615" lon="8.0243891"><ele>413.75</ele><time>2026-04-18T16:51:42.963Z</time></trkpt><trkpt lat="44.6603956" lon="8.0244584"><ele>412.5</ele><time>2026-04-18T16:51:43.964Z</time></trkpt><trkpt lat="44.6605204" lon="8.0244894"><ele>411.25</ele><time>2026-04-18T16:51:44.964Z</time></trkpt><trkpt lat="44.6606552" lon="8.024451"><ele>410.0</ele><time>2026-04-18T16:51:45.964Z</time></trkpt><trkpt lat="44.6607771" lon="8.0243455"><ele>410.0</ele><time>2026-04-18T16:51:46.964Z</time></trkpt><trkpt lat="44.6609062" lon="8.0242012"><ele>410.0</ele><time>2026-04-18T16:51:47.964Z</time></trkpt><trkpt lat="44.6610436" lon="8.0240363"><ele>410.0</ele><time>2026-04-18T16:51:48.963Z</time></trkpt><trkpt lat="44.6611915" lon="8.0238674"><ele>408.66666666666663</ele><time>2026-04-18T16:51:49.963Z</time></trkpt><trkpt lat="44.661342" lon="8.0237044"><ele>407.33333333333337</ele><time>2026-04-18T16:51:50.964Z</time></trkpt><trkpt lat="44.6614907" lon="8.0235377"><ele>406.0</ele><time>2026-04-18T16:51:51.964Z</time></trkpt><trkpt lat="44.6616327" lon="8.0233692"><ele>403.6666666666667</ele><time>2026-04-18T16:51:52.963Z</time></trkpt><trkpt lat="44.6617734" lon="8.0232135"><ele>401.33333333333337</ele><time>2026-04-18T16:51:53.964Z</time></trkpt><trkpt lat="44.6619235" lon="8.0230746"><ele>399.0</ele><time>2026-04-18T16:51:54.964Z</time></trkpt><trkpt lat="44.6620889" lon="8.0229555"><ele>399.0</ele><time>2026-04-18T16:51:55.964Z</time></trkpt><trkpt lat="44.6622565" lon="8.022834"><ele>399.0</ele><time>2026-04-18T16:51:56.964Z</time></trkpt><trkpt lat="44.6624399" lon="8.0227104"><ele>399.0</ele><time>2026-04-18T16:51:57.964Z</time></trkpt><trkpt lat="44.6626224" lon="8.022588"><ele>394.0</ele><time>2026-04-18T16:51:58.964Z</time></trkpt><trkpt lat="44.6628114" lon="8.0224591"><ele>389.0</ele><time>2026-04-18T16:51:59.964Z</time></trkpt><trkpt lat="44.6630435" lon="8.0223129"><ele>389.0</ele><time>2026-04-18T16:52:01.598Z</time></trkpt><trkpt lat="44.6632913" lon="8.0221494"><ele>389.0</ele><time>2026-04-18T16:52:02.906Z</time></trkpt><trkpt lat="44.6635951" lon="8.0219445"><ele>389.0</ele><time>2026-04-18T16:52:03.949Z</time></trkpt><trkpt lat="44.6637889" lon="8.0218073"><ele>389.0</ele><time>2026-04-18T16:52:04.947Z</time></trkpt><trkpt lat="44.6639758" lon="8.0216843"><ele>389.0</ele><time>2026-04-18T16:52:05.951Z</time></trkpt><trkpt lat="44.6641657" lon="8.0215706"><ele>386.0</ele><time>2026-04-18T16:52:06.964Z</time></trkpt><trkpt lat="44.6643622" lon="8.0214804"><ele>383.0</ele><time>2026-04-18T16:52:07.953Z</time></trkpt><trkpt lat="44.6645704" lon="8.0214184"><ele>380.0</ele><time>2026-04-18T16:52:08.954Z</time></trkpt><trkpt lat="44.6647803" lon="8.0213756"><ele>380.0</ele><time>2026-04-18T16:52:09.954Z</time></trkpt><trkpt lat="44.6649901" lon="8.0213353"><ele>380.0</ele><time>2026-04-18T16:52:10.954Z</time></trkpt><trkpt lat="44.6652025" lon="8.0212978"><ele>380.0</ele><time>2026-04-18T16:52:11.953Z</time></trkpt><trkpt lat="44.6654124" lon="8.0212628"><ele>379.33333333333337</ele><time>2026-04-18T16:52:12.953Z</time></trkpt><trkpt lat="44.6656182" lon="8.0212231"><ele>378.6666666666667</ele><time>2026-04-18T16:52:13.954Z</time></trkpt><trkpt lat="44.6658186" lon="8.0211819"><ele>378.0</ele><time>2026-04-18T16:52:14.954Z</time></trkpt><trkpt lat="44.6660057" lon="8.0211421"><ele>378.0</ele><time>2026-04-18T16:52:15.953Z</time></trkpt><trkpt lat="44.6661796" lon="8.0211089"><ele>378.0</ele><time>2026-04-18T16:52:16.954Z</time></trkpt><trkpt lat="44.6663353" lon="8.0210766"><ele>378.0</ele><time>2026-04-18T16:52:17.954Z</time></trkpt><trkpt lat="44.6664745" lon="8.0210473"><ele>378.0</ele><time>2026-04-18T16:52:18.954Z</time></trkpt><trkpt lat="44.6666057" lon="8.0210293"><ele>378.0</ele><time>2026-04-18T16:52:19.953Z</time></trkpt><trkpt lat="44.6667377" lon="8.0210404"><ele>378.0</ele><time>2026-04-18T16:52:20.954Z</time></trkpt><trkpt lat="44.6668839" lon="8.0211285"><ele>378.0</ele><time>2026-04-18T16:52:22.643Z</time></trkpt><trkpt lat="44.6670322" lon="8.0212771"><ele>380.0</ele><time>2026-04-18T16:52:23.893Z</time></trkpt><trkpt lat="44.6672011" lon="8.0215241"><ele>382.0</ele><time>2026-04-18T16:52:24.952Z</time></trkpt><trkpt lat="44.6673292" lon="8.0216668"><ele>384.0</ele><time>2026-04-18T16:52:25.967Z</time></trkpt><trkpt lat="44.6674635" lon="8.0217957"><ele>384.0</ele><time>2026-04-18T16:52:26.966Z</time></trkpt><trkpt lat="44.6676103" lon="8.0219041"><ele>384.0</ele><time>2026-04-18T16:52:27.963Z</time></trkpt><trkpt lat="44.6677552" lon="8.0219844"><ele>384.0</ele><time>2026-04-18T16:52:28.96Z</time></trkpt><trkpt lat="44.6678925" lon="8.0220517"><ele>385.5</ele><time>2026-04-18T16:52:29.959Z</time></trkpt><trkpt lat="44.6680225" lon="8.0221086"><ele>387.0</ele><time>2026-04-18T16:52:30.96Z</time></trkpt><trkpt lat="44.6681561" lon="8.0221733"><ele>388.5</ele><time>2026-04-18T16:52:32.546Z</time></trkpt><trkpt lat="44.6682872" lon="8.022281"><ele>390.0</ele><time>2026-04-18T16:52:33.9Z</time></trkpt><trkpt lat="44.6683759" lon="8.0224752"><ele>387.0</ele><time>2026-04-18T16:52:34.964Z</time></trkpt><trkpt lat="44.6683898" lon="8.0226243"><ele>384.0</ele><time>2026-04-18T16:52:35.962Z</time></trkpt><trkpt lat="44.668346" lon="8.0228023"><ele>381.0</ele><time>2026-04-18T16:52:37.584Z</time></trkpt><trkpt lat="44.6682764" lon="8.0230128"><ele>378.0</ele><time>2026-04-18T16:52:38.893Z</time></trkpt><trkpt lat="44.6682221" lon="8.0232583"><ele>376.0</ele><time>2026-04-18T16:52:39.948Z</time></trkpt><trkpt lat="44.6682364" lon="8.0234159"><ele>374.0</ele><time>2026-04-18T16:52:40.945Z</time></trkpt><trkpt lat="44.6682981" lon="8.0235861"><ele>372.0</ele><time>2026-04-18T16:52:42.605Z</time></trkpt><trkpt lat="44.6684271" lon="8.0237756"><ele>370.0</ele><time>2026-04-18T16:52:43.892Z</time></trkpt><trkpt lat="44.6686082" lon="8.023996"><ele>371.66666666666663</ele><time>2026-04-18T16:52:44.954Z</time></trkpt><trkpt lat="44.6687272" lon="8.0241396"><ele>373.3333333333333</ele><time>2026-04-18T16:52:45.954Z</time></trkpt><trkpt lat="44.6688817" lon="8.0242754"><ele>375.0</ele><time>2026-04-18T16:52:47.624Z</time></trkpt><trkpt lat="44.6690414" lon="8.0243821"><ele>375.0</ele><time>2026-04-18T16:52:48.902Z</time></trkpt><trkpt lat="44.6692354" lon="8.0244249"><ele>375.0</ele><time>2026-04-18T16:52:49.964Z</time></trkpt><trkpt lat="44.6693554" lon="8.0244853"><ele>375.0</ele><time>2026-04-18T16:52:50.964Z</time></trkpt><trkpt lat="44.6694808" lon="8.0246182"><ele>374.0</ele><time>2026-04-18T16:52:52.689Z</time></trkpt><trkpt lat="44.669608" lon="8.024803"><ele>373.0</ele><time>2026-04-18T16:52:53.905Z</time></trkpt><trkpt lat="44.6697931" lon="8.0250651"><ele>372.0</ele><time>2026-04-18T16:52:54.948Z</time></trkpt><trkpt lat="44.6699162" lon="8.0252479"><ele>372.0</ele><time>2026-04-18T16:52:55.939Z</time></trkpt><trkpt lat="44.6700837" lon="8.0254736"><ele>372.0</ele><time>2026-04-18T16:52:57.727Z</time></trkpt><trkpt lat="44.6702398" lon="8.0256962"><ele>369.0</ele><time>2026-04-18T16:52:58.912Z</time></trkpt><trkpt lat="44.6704402" lon="8.0259769"><ele>366.0</ele><time>2026-04-18T16:52:59.952Z</time></trkpt><trkpt lat="44.6705714" lon="8.0261451"><ele>366.0</ele><time>2026-04-18T16:53:00.945Z</time></trkpt><trkpt lat="44.6707388" lon="8.0263577"><ele>366.0</ele><time>2026-04-18T16:53:02.758Z</time></trkpt><trkpt lat="44.6709092" lon="8.0265099"><ele>366.0</ele><time>2026-04-18T16:53:03.908Z</time></trkpt><trkpt lat="44.6711476" lon="8.0267005"><ele>361.0</ele><time>2026-04-18T16:53:04.948Z</time></trkpt><trkpt lat="44.6713954" lon="8.0269123"><ele>356.0</ele><time>2026-04-18T16:53:07.015Z</time></trkpt><trkpt lat="44.6716595" lon="8.0272366"><ele>354.0</ele><time>2026-04-18T16:53:08.897Z</time></trkpt><trkpt lat="44.6718763" lon="8.0275388"><ele>352.0</ele><time>2026-04-18T16:53:09.955Z</time></trkpt><trkpt lat="44.6720141" lon="8.0277363"><ele>352.0</ele><time>2026-04-18T16:53:10.962Z</time></trkpt><trkpt lat="44.6721408" lon="8.0279245"><ele>352.0</ele><time>2026-04-18T16:53:11.948Z</time></trkpt><trkpt lat="44.6722687" lon="8.0281056"><ele>352.0</ele><time>2026-04-18T16:53:12.948Z</time></trkpt><trkpt lat="44.6724037" lon="8.0282699"><ele>349.0</ele><time>2026-04-18T16:53:13.947Z</time></trkpt><trkpt lat="44.6725516" lon="8.0283944"><ele>346.0</ele><time>2026-04-18T16:53:14.948Z</time></trkpt><trkpt lat="44.6727038" lon="8.0284964"><ele>343.0</ele><time>2026-04-18T16:53:15.948Z</time></trkpt><trkpt lat="44.672845" lon="8.0286223"><ele>343.0</ele><time>2026-04-18T16:53:16.948Z</time></trkpt><trkpt lat="44.6729721" lon="8.0287765"><ele>343.0</ele><time>2026-04-18T16:53:17.948Z</time></trkpt><trkpt lat="44.6730826" lon="8.0289621"><ele>343.0</ele><time>2026-04-18T16:53:18.948Z</time></trkpt><trkpt lat="44.6731805" lon="8.0291698"><ele>338.0</ele><time>2026-04-18T16:53:19.948Z</time></trkpt><trkpt lat="44.6732944" lon="8.0293638"><ele>333.0</ele><time>2026-04-18T16:53:20.948Z</time></trkpt><trkpt lat="44.6734255" lon="8.0295521"><ele>328.0</ele><time>2026-04-18T16:53:21.948Z</time></trkpt><trkpt lat="44.673564" lon="8.0297464"><ele>326.3333333333333</ele><time>2026-04-18T16:53:22.947Z</time></trkpt><trkpt lat="44.6736928" lon="8.0299488"><ele>324.6666666666667</ele><time>2026-04-18T16:53:23.948Z</time></trkpt><trkpt lat="44.673807" lon="8.0301645"><ele>323.0</ele><time>2026-04-18T16:53:24.948Z</time></trkpt><trkpt lat="44.6739064" lon="8.0303945"><ele>323.0</ele><time>2026-04-18T16:53:25.948Z</time></trkpt><trkpt lat="44.674014" lon="8.0307025"><ele>323.0</ele><time>2026-04-18T16:53:27.854Z</time></trkpt><trkpt lat="44.6741507" lon="8.0311152"><ele>322.0</ele><time>2026-04-18T16:53:29.897Z</time></trkpt><trkpt lat="44.6742923" lon="8.0313842"><ele>321.0</ele><time>2026-04-18T16:53:30.962Z</time></trkpt><trkpt lat="44.6744367" lon="8.0315746"><ele>320.0</ele><time>2026-04-18T16:53:32.73Z</time></trkpt><trkpt lat="44.6746399" lon="8.0318566"><ele>317.5</ele><time>2026-04-18T16:53:34.538Z</time></trkpt><trkpt lat="44.6747243" lon="8.0321148"><ele>315.0</ele><time>2026-04-18T16:53:35.895Z</time></trkpt><trkpt lat="44.6747912" lon="8.0325002"><ele>315.0</ele><time>2026-04-18T16:53:37.968Z</time></trkpt><trkpt lat="44.6748334" lon="8.0328028"><ele>315.0</ele><time>2026-04-18T16:53:39.9Z</time></trkpt><trkpt lat="44.6749378" lon="8.0329878"><ele>315.0</ele><time>2026-04-18T16:53:40.944Z</time></trkpt><trkpt lat="44.6751154" lon="8.0330709"><ele>311.0</ele><time>2026-04-18T16:53:42.999Z</time></trkpt><trkpt lat="44.6753721" lon="8.0331104"><ele>307.0</ele><time>2026-04-18T16:53:44.895Z</time></trkpt><trkpt lat="44.6755718" lon="8.0330753"><ele>307.0</ele><time>2026-04-18T16:53:45.943Z</time></trkpt><trkpt lat="44.675687" lon="8.0329886"><ele>307.0</ele><time>2026-04-18T16:53:46.944Z</time></trkpt><trkpt lat="44.675787" lon="8.0328515"><ele>307.0</ele><time>2026-04-18T16:53:47.957Z</time></trkpt><trkpt lat="44.6758662" lon="8.0326809"><ele>307.0</ele><time>2026-04-18T16:53:48.956Z</time></trkpt><trkpt lat="44.6759356" lon="8.0325022"><ele>308.25</ele><time>2026-04-18T16:53:49.957Z</time></trkpt><trkpt lat="44.6760193" lon="8.0323414"><ele>309.5</ele><time>2026-04-18T16:53:50.957Z</time></trkpt><trkpt lat="44.6761335" lon="8.0322244"><ele>310.75</ele><time>2026-04-18T16:53:51.956Z</time></trkpt><trkpt lat="44.6762644" lon="8.0321316"><ele>312.0</ele><time>2026-04-18T16:53:52.957Z</time></trkpt><trkpt lat="44.6764049" lon="8.0320608"><ele>308.75</ele><time>2026-04-18T16:53:53.957Z</time></trkpt><trkpt lat="44.676544" lon="8.0319945"><ele>305.5</ele><time>2026-04-18T16:53:54.957Z</time></trkpt><trkpt lat="44.6766816" lon="8.0319303"><ele>302.25</ele><time>2026-04-18T16:53:55.956Z</time></trkpt><trkpt lat="44.6768116" lon="8.0318787"><ele>299.0</ele><time>2026-04-18T16:53:56.956Z</time></trkpt><trkpt lat="44.6769369" lon="8.0318337"><ele>297.8</ele><time>2026-04-18T16:53:57.957Z</time></trkpt><trkpt lat="44.677056" lon="8.0318"><ele>296.59999999999997</ele><time>2026-04-18T16:53:58.957Z</time></trkpt><trkpt lat="44.6771649" lon="8.0317768"><ele>295.4</ele><time>2026-04-18T16:53:59.957Z</time></trkpt><trkpt lat="44.6772722" lon="8.0317656"><ele>294.2</ele><time>2026-04-18T16:54:00.957Z</time></trkpt><trkpt lat="44.6773761" lon="8.031754"><ele>293.0</ele><time>2026-04-18T16:54:01.956Z</time></trkpt><trkpt lat="44.6774762" lon="8.0317426"><ele>293.0</ele><time>2026-04-18T16:54:02.957Z</time></trkpt><trkpt lat="44.6775735" lon="8.0317363"><ele>293.0</ele><time>2026-04-18T16:54:03.957Z</time></trkpt><trkpt lat="44.6776739" lon="8.0317303"><ele>293.0</ele><time>2026-04-18T16:54:04.956Z</time></trkpt><trkpt lat="44.6777769" lon="8.0317256"><ele>293.0</ele><time>2026-04-18T16:54:05.957Z</time></trkpt><trkpt lat="44.6778817" lon="8.0317234"><ele>293.0</ele><time>2026-04-18T16:54:06.956Z</time></trkpt><trkpt lat="44.6779505" lon="8.0317253"><ele>291.75</ele><time>2026-04-18T16:54:08.138Z</time></trkpt><trkpt lat="44.6781239" lon="8.0317186"><ele>290.5</ele><time>2026-04-18T16:54:09.912Z</time></trkpt><trkpt lat="44.6782801" lon="8.031721"><ele>289.25</ele><time>2026-04-18T16:54:10.947Z</time></trkpt><trkpt lat="44.6783854" lon="8.0317469"><ele>288.0</ele><time>2026-04-18T16:54:11.947Z</time></trkpt><trkpt lat="44.6784944" lon="8.0317819"><ele>288.0</ele><time>2026-04-18T16:54:12.962Z</time></trkpt><trkpt lat="44.6785998" lon="8.0318224"><ele>288.0</ele><time>2026-04-18T16:54:13.954Z</time></trkpt><trkpt lat="44.6786976" lon="8.0318643"><ele>288.0</ele><time>2026-04-18T16:54:14.955Z</time></trkpt><trkpt lat="44.6787895" lon="8.0319057"><ele>288.0</ele><time>2026-04-18T16:54:15.955Z</time></trkpt><trkpt lat="44.6788786" lon="8.0319406"><ele>288.0</ele><time>2026-04-18T16:54:16.954Z</time></trkpt><trkpt lat="44.6789658" lon="8.0319807"><ele>288.2</ele><time>2026-04-18T16:54:17.954Z</time></trkpt><trkpt lat="44.6790519" lon="8.0320256"><ele>288.4</ele><time>2026-04-18T16:54:18.954Z</time></trkpt><trkpt lat="44.6791421" lon="8.0320752"><ele>288.59999999999997</ele><time>2026-04-18T16:54:19.955Z</time></trkpt><trkpt lat="44.6792316" lon="8.0321416"><ele>288.8</ele><time>2026-04-18T16:54:20.955Z</time></trkpt><trkpt lat="44.6793103" lon="8.0322256"><ele>289.0</ele><time>2026-04-18T16:54:21.955Z</time></trkpt><trkpt lat="44.6793668" lon="8.0322814"><ele>288.25</ele><time>2026-04-18T16:54:23.115Z</time></trkpt><trkpt lat="44.6794837" lon="8.032472"><ele>287.5</ele><time>2026-04-18T16:54:24.9Z</time></trkpt><trkpt lat="44.6795637" lon="8.03266"><ele>286.75</ele><time>2026-04-18T16:54:25.944Z</time></trkpt><trkpt lat="44.6796065" lon="8.0327807"><ele>286.0</ele><time>2026-04-18T16:54:26.943Z</time></trkpt><trkpt lat="44.6796551" lon="8.0328982"><ele>285.3333333333333</ele><time>2026-04-18T16:54:27.95Z</time></trkpt><trkpt lat="44.6796982" lon="8.0330007"><ele>284.66666666666663</ele><time>2026-04-18T16:54:28.962Z</time></trkpt><trkpt lat="44.6797468" lon="8.0330957"><ele>284.0</ele><time>2026-04-18T16:54:29.962Z</time></trkpt><trkpt lat="44.6798134" lon="8.0331701"><ele>283.3333333333333</ele><time>2026-04-18T16:54:30.961Z</time></trkpt><trkpt lat="44.679893" lon="8.0332054"><ele>282.6666666666667</ele><time>2026-04-18T16:54:31.962Z</time></trkpt><trkpt lat="44.6799762" lon="8.0332107"><ele>282.0</ele><time>2026-04-18T16:54:32.961Z</time></trkpt><trkpt lat="44.6800626" lon="8.0331473"><ele>282.0</ele><time>2026-04-18T16:54:33.961Z</time></trkpt><trkpt lat="44.6801453" lon="8.0331036"><ele>282.0</ele><time>2026-04-18T16:54:34.961Z</time></trkpt><trkpt lat="44.6802219" lon="8.0330581"><ele>282.0</ele><time>2026-04-18T16:54:35.962Z</time></trkpt><trkpt lat="44.6802969" lon="8.0330193"><ele>282.0</ele><time>2026-04-18T16:54:36.961Z</time></trkpt><trkpt lat="44.6803698" lon="8.0329797"><ele>282.0</ele><time>2026-04-18T16:54:37.961Z</time></trkpt><trkpt lat="44.6804478" lon="8.032943"><ele>282.0</ele><time>2026-04-18T16:54:38.962Z</time></trkpt><trkpt lat="44.6805276" lon="8.032903"><ele>279.5</ele><time>2026-04-18T16:54:39.961Z</time></trkpt><trkpt lat="44.6806104" lon="8.0328571"><ele>277.0</ele><time>2026-04-18T16:54:40.962Z</time></trkpt><trkpt lat="44.6806911" lon="8.0327916"><ele>274.5</ele><time>2026-04-18T16:54:41.962Z</time></trkpt><trkpt lat="44.6808711" lon="8.0326077"><ele>272.0</ele><time>2026-04-18T16:54:44.909Z</time></trkpt><trkpt lat="44.6809572" lon="8.0324822"><ele>271.5</ele><time>2026-04-18T16:54:45.954Z</time></trkpt><trkpt lat="44.681019" lon="8.0323931"><ele>271.0</ele><time>2026-04-18T16:54:46.953Z</time></trkpt><trkpt lat="44.6810925" lon="8.0323257"><ele>270.5</ele><time>2026-04-18T16:54:47.965Z</time></trkpt><trkpt lat="44.6811781" lon="8.032282"><ele>270.0</ele><time>2026-04-18T16:54:48.95Z</time></trkpt><trkpt lat="44.6812645" lon="8.0322465"><ele>269.5</ele><time>2026-04-18T16:54:49.951Z</time></trkpt><trkpt lat="44.6813488" lon="8.0322269"><ele>269.0</ele><time>2026-04-18T16:54:50.95Z</time></trkpt><trkpt lat="44.6814374" lon="8.0322119"><ele>269.0</ele><time>2026-04-18T16:54:51.951Z</time></trkpt><trkpt lat="44.6815218" lon="8.0322019"><ele>269.0</ele><time>2026-04-18T16:54:52.951Z</time></trkpt><trkpt lat="44.6815991" lon="8.0321807"><ele>269.0</ele><time>2026-04-18T16:54:53.951Z</time></trkpt><trkpt lat="44.6816717" lon="8.0321349"><ele>269.0</ele><time>2026-04-18T16:54:54.95Z</time></trkpt><trkpt lat="44.6817355" lon="8.0320708"><ele>269.0</ele><time>2026-04-18T16:54:55.95Z</time></trkpt><trkpt lat="44.6817869" lon="8.0319822"><ele>269.0</ele><time>2026-04-18T16:54:56.951Z</time></trkpt><trkpt lat="44.6818281" lon="8.0318657"><ele>269.0</ele><time>2026-04-18T16:54:57.951Z</time></trkpt><trkpt lat="44.6818575" lon="8.0317357"><ele>269.0</ele><time>2026-04-18T16:54:58.951Z</time></trkpt><trkpt lat="44.6818762" lon="8.0316042"><ele>269.0</ele><time>2026-04-18T16:54:59.95Z</time></trkpt><trkpt lat="44.6818917" lon="8.0314722"><ele>269.0</ele><time>2026-04-18T16:55:00.951Z</time></trkpt><trkpt lat="44.6819048" lon="8.0313437"><ele>269.0</ele><time>2026-04-18T16:55:01.95Z</time></trkpt><trkpt lat="44.6819179" lon="8.0312133"><ele>267.8</ele><time>2026-04-18T16:55:02.951Z</time></trkpt><trkpt lat="44.6819377" lon="8.031088"><ele>266.59999999999997</ele><time>2026-04-18T16:55:03.95Z</time></trkpt><trkpt lat="44.6819685" lon="8.0309672"><ele>265.4</ele><time>2026-04-18T16:55:04.951Z</time></trkpt><trkpt lat="44.6820124" lon="8.0308428"><ele>264.2</ele><time>2026-04-18T16:55:05.951Z</time></trkpt><trkpt lat="44.6820732" lon="8.0307361"><ele>263.0</ele><time>2026-04-18T16:55:06.951Z</time></trkpt><trkpt lat="44.6821485" lon="8.0306509"><ele>263.0</ele><time>2026-04-18T16:55:07.95Z</time></trkpt><trkpt lat="44.6822324" lon="8.0305789"><ele>263.0</ele><time>2026-04-18T16:55:08.951Z</time></trkpt><trkpt lat="44.682328" lon="8.030535"><ele>263.0</ele><time>2026-04-18T16:55:09.95Z</time></trkpt><trkpt lat="44.6824273" lon="8.030511"><ele>263.0</ele><time>2026-04-18T16:55:10.95Z</time></trkpt><trkpt lat="44.6825252" lon="8.0304991"><ele>263.0</ele><time>2026-04-18T16:55:11.95Z</time></trkpt><trkpt lat="44.6826193" lon="8.0305047"><ele>263.0</ele><time>2026-04-18T16:55:12.951Z</time></trkpt><trkpt lat="44.6827124" lon="8.0305133"><ele>263.0</ele><time>2026-04-18T16:55:13.95Z</time></trkpt><trkpt lat="44.6828031" lon="8.030528"><ele>263.0</ele><time>2026-04-18T16:55:14.95Z</time></trkpt><trkpt lat="44.6828912" lon="8.0305422"><ele>263.0</ele><time>2026-04-18T16:55:15.951Z</time></trkpt><trkpt lat="44.6829806" lon="8.0305553"><ele>263.0</ele><time>2026-04-18T16:55:16.95Z</time></trkpt><trkpt lat="44.6830733" lon="8.0305796"><ele>261.2</ele><time>2026-04-18T16:55:17.951Z</time></trkpt><trkpt lat="44.6831688" lon="8.0306083"><ele>259.4</ele><time>2026-04-18T16:55:18.951Z</time></trkpt><trkpt lat="44.6832622" lon="8.0306442"><ele>257.59999999999997</ele><time>2026-04-18T16:55:19.951Z</time></trkpt><trkpt lat="44.683353" lon="8.0306875"><ele>255.79999999999998</ele><time>2026-04-18T16:55:20.951Z</time></trkpt><trkpt lat="44.6834388" lon="8.0307257"><ele>254.0</ele><time>2026-04-18T16:55:21.951Z</time></trkpt><trkpt lat="44.6835193" lon="8.0307628"><ele>251.66666666666669</ele><time>2026-04-18T16:55:22.951Z</time></trkpt><trkpt lat="44.6835972" lon="8.0307955"><ele>249.33333333333334</ele><time>2026-04-18T16:55:23.951Z</time></trkpt><trkpt lat="44.6836702" lon="8.030824"><ele>247.0</ele><time>2026-04-18T16:55:24.95Z</time></trkpt><trkpt lat="44.6837418" lon="8.0308471"><ele>244.66666666666669</ele><time>2026-04-18T16:55:25.951Z</time></trkpt><trkpt lat="44.6838142" lon="8.0308598"><ele>242.33333333333334</ele><time>2026-04-18T16:55:26.951Z</time></trkpt><trkpt lat="44.6838884" lon="8.0308327"><ele>240.0</ele><time>2026-04-18T16:55:27.951Z</time></trkpt><trkpt lat="44.6839516" lon="8.0307758"><ele>239.83333333333334</ele><time>2026-04-18T16:55:28.951Z</time></trkpt><trkpt lat="44.6839889" lon="8.0306802"><ele>239.66666666666669</ele><time>2026-04-18T16:55:29.95Z</time></trkpt><trkpt lat="44.6839986" lon="8.0305674"><ele>239.5</ele><time>2026-04-18T16:55:30.95Z</time></trkpt><trkpt lat="44.6839782" lon="8.0304493"><ele>239.33333333333334</ele><time>2026-04-18T16:55:31.95Z</time></trkpt><trkpt lat="44.6839454" lon="8.0303271"><ele>239.16666666666669</ele><time>2026-04-18T16:55:32.95Z</time></trkpt><trkpt lat="44.6839111" lon="8.0301952"><ele>239.0</ele><time>2026-04-18T16:55:33.951Z</time></trkpt><trkpt lat="44.6838721" lon="8.0300639"><ele>237.2</ele><time>2026-04-18T16:55:34.951Z</time></trkpt><trkpt lat="44.6838313" lon="8.0299339"><ele>235.39999999999998</ele><time>2026-04-18T16:55:35.951Z</time></trkpt><trkpt lat="44.6837907" lon="8.029796"><ele>233.6</ele><time>2026-04-18T16:55:36.951Z</time></trkpt><trkpt lat="44.683757" lon="8.0296647"><ele>231.8</ele><time>2026-04-18T16:55:37.951Z</time></trkpt><trkpt lat="44.6837181" lon="8.0295264"><ele>230.0</ele><time>2026-04-18T16:55:38.951Z</time></trkpt><trkpt lat="44.6836758" lon="8.0293858"><ele>230.0</ele><time>2026-04-18T16:55:39.95Z</time></trkpt><trkpt lat="44.6836296" lon="8.0292492"><ele>230.0</ele><time>2026-04-18T16:55:40.95Z</time></trkpt><trkpt lat="44.6835742" lon="8.0291196"><ele>230.0</ele><time>2026-04-18T16:55:41.95Z</time></trkpt><trkpt lat="44.6835056" lon="8.0289927"><ele>230.0</ele><time>2026-04-18T16:55:42.951Z</time></trkpt><trkpt lat="44.6834199" lon="8.0288807"><ele>230.0</ele><time>2026-04-18T16:55:43.95Z</time></trkpt><trkpt lat="44.6833038" lon="8.0287802"><ele>229.66666666666669</ele><time>2026-04-18T16:55:44.951Z</time></trkpt><trkpt lat="44.6831609" lon="8.028681"><ele>229.33333333333331</ele><time>2026-04-18T16:55:45.95Z</time></trkpt><trkpt lat="44.6830017" lon="8.0285742"><ele>229.0</ele><time>2026-04-18T16:55:46.951Z</time></trkpt><trkpt lat="44.6828306" lon="8.0284547"><ele>230.66666666666666</ele><time>2026-04-18T16:55:47.951Z</time></trkpt><trkpt lat="44.6826571" lon="8.0283337"><ele>232.33333333333331</ele><time>2026-04-18T16:55:48.95Z</time></trkpt><trkpt lat="44.6824828" lon="8.0282174"><ele>234.0</ele><time>2026-04-18T16:55:49.951Z</time></trkpt><trkpt lat="44.6823079" lon="8.0281"><ele>231.33333333333331</ele><time>2026-04-18T16:55:50.951Z</time></trkpt><trkpt lat="44.6821314" lon="8.0279868"><ele>228.66666666666666</ele><time>2026-04-18T16:55:51.95Z</time></trkpt><trkpt lat="44.6819456" lon="8.0278985"><ele>226.0</ele><time>2026-04-18T16:55:52.95Z</time></trkpt><trkpt lat="44.6817555" lon="8.0278243"><ele>226.0</ele><time>2026-04-18T16:55:53.951Z</time></trkpt><trkpt lat="44.6815674" lon="8.0277512"><ele>226.0</ele><time>2026-04-18T16:55:54.95Z</time></trkpt><trkpt lat="44.6813917" lon="8.0276875"><ele>226.0</ele><time>2026-04-18T16:55:55.95Z</time></trkpt><trkpt lat="44.6812165" lon="8.027628"><ele>226.5</ele><time>2026-04-18T16:55:56.951Z</time></trkpt><trkpt lat="44.6810667" lon="8.0275612"><ele>227.0</ele><time>2026-04-18T16:55:57.95Z</time></trkpt><trkpt lat="44.6809223" lon="8.0275039"><ele>227.5</ele><time>2026-04-18T16:55:58.951Z</time></trkpt><trkpt lat="44.6807922" lon="8.0274503"><ele>228.0</ele><time>2026-04-18T16:55:59.951Z</time></trkpt><trkpt lat="44.6806747" lon="8.0273961"><ele>226.8</ele><time>2026-04-18T16:56:00.951Z</time></trkpt><trkpt lat="44.6805723" lon="8.0273447"><ele>225.60000000000002</ele><time>2026-04-18T16:56:01.95Z</time></trkpt><trkpt lat="44.6804804" lon="8.0272686"><ele>224.39999999999998</ele><time>2026-04-18T16:56:02.95Z</time></trkpt><trkpt lat="44.6804052" lon="8.027162"><ele>223.2</ele><time>2026-04-18T16:56:03.95Z</time></trkpt><trkpt lat="44.6803467" lon="8.0270337"><ele>222.0</ele><time>2026-04-18T16:56:04.95Z</time></trkpt><trkpt lat="44.6803202" lon="8.0268959"><ele>222.0</ele><time>2026-04-18T16:56:05.95Z</time></trkpt><trkpt lat="44.6803275" lon="8.0267565"><ele>222.0</ele><time>2026-04-18T16:56:06.951Z</time></trkpt><trkpt lat="44.680343" lon="8.0266058"><ele>222.0</ele><time>2026-04-18T16:56:07.951Z</time></trkpt><trkpt lat="44.6804211" lon="8.0265195"><ele>222.0</ele><time>2026-04-18T16:56:08.95Z</time></trkpt><trkpt lat="44.6805016" lon="8.026447"><ele>222.0</ele><time>2026-04-18T16:56:09.95Z</time></trkpt><trkpt lat="44.6806044" lon="8.0264057"><ele>222.75</ele><time>2026-04-18T16:56:10.95Z</time></trkpt><trkpt lat="44.6807289" lon="8.0263988"><ele>223.5</ele><time>2026-04-18T16:56:11.95Z</time></trkpt><trkpt lat="44.6808616" lon="8.0264146"><ele>224.25</ele><time>2026-04-18T16:56:12.951Z</time></trkpt><trkpt lat="44.6810053" lon="8.0264458"><ele>225.0</ele><time>2026-04-18T16:56:13.951Z</time></trkpt><trkpt lat="44.681152" lon="8.026465"><ele>225.0</ele><time>2026-04-18T16:56:14.95Z</time></trkpt><trkpt lat="44.6813038" lon="8.0264833"><ele>225.0</ele><time>2026-04-18T16:56:15.95Z</time></trkpt><trkpt lat="44.6814573" lon="8.0265017"><ele>225.0</ele><time>2026-04-18T16:56:16.951Z</time></trkpt><trkpt lat="44.6816135" lon="8.0265273"><ele>225.0</ele><time>2026-04-18T16:56:17.95Z</time></trkpt><trkpt lat="44.681772" lon="8.0265578"><ele>225.0</ele><time>2026-04-18T16:56:18.95Z</time></trkpt><trkpt lat="44.6819316" lon="8.0265853"><ele>225.0</ele><time>2026-04-18T16:56:19.95Z</time></trkpt><trkpt lat="44.6820974" lon="8.0266051"><ele>222.0</ele><time>2026-04-18T16:56:20.951Z</time></trkpt><trkpt lat="44.6822619" lon="8.0266259"><ele>219.0</ele><time>2026-04-18T16:56:21.95Z</time></trkpt><trkpt lat="44.6824319" lon="8.0266438"><ele>216.0</ele><time>2026-04-18T16:56:22.951Z</time></trkpt><trkpt lat="44.6826025" lon="8.0266545"><ele>213.0</ele><time>2026-04-18T16:56:23.95Z</time></trkpt><trkpt lat="44.6827771" lon="8.0266629"><ele>210.0</ele><time>2026-04-18T16:56:24.951Z</time></trkpt><trkpt lat="44.6829502" lon="8.0266667"><ele>207.0</ele><time>2026-04-18T16:56:25.95Z</time></trkpt><trkpt lat="44.6831264" lon="8.0266724"><ele>207.0</ele><time>2026-04-18T16:56:26.951Z</time></trkpt><trkpt lat="44.6833051" lon="8.02667"><ele>207.0</ele><time>2026-04-18T16:56:27.95Z</time></trkpt><trkpt lat="44.6834829" lon="8.0266724"><ele>207.0</ele><time>2026-04-18T16:56:28.951Z</time></trkpt><trkpt lat="44.6836632" lon="8.0266762"><ele>205.66666666666669</ele><time>2026-04-18T16:56:29.951Z</time></trkpt><trkpt lat="44.6838419" lon="8.0266779"><ele>204.33333333333334</ele><time>2026-04-18T16:56:30.95Z</time></trkpt><trkpt lat="44.6840165" lon="8.0266757"><ele>203.0</ele><time>2026-04-18T16:56:31.951Z</time></trkpt><trkpt lat="44.684187" lon="8.0266756"><ele>203.0</ele><time>2026-04-18T16:56:32.95Z</time></trkpt><trkpt lat="44.6843503" lon="8.0266737"><ele>203.0</ele><time>2026-04-18T16:56:33.95Z</time></trkpt><trkpt lat="44.6845038" lon="8.026678"><ele>203.0</ele><time>2026-04-18T16:56:34.95Z</time></trkpt><trkpt lat="44.6846461" lon="8.0266883"><ele>202.25</ele><time>2026-04-18T16:56:35.951Z</time></trkpt><trkpt lat="44.6847804" lon="8.026706"><ele>201.5</ele><time>2026-04-18T16:56:36.95Z</time></trkpt><trkpt lat="44.6849068" lon="8.026748"><ele>200.75</ele><time>2026-04-18T16:56:37.951Z</time></trkpt><trkpt lat="44.6850228" lon="8.0268182"><ele>200.0</ele><time>2026-04-18T16:56:38.951Z</time></trkpt><trkpt lat="44.6851278" lon="8.0269063"><ele>200.0</ele><time>2026-04-18T16:56:39.951Z</time></trkpt><trkpt lat="44.6852109" lon="8.0269973"><ele>200.0</ele><time>2026-04-18T16:56:40.95Z</time></trkpt><trkpt lat="44.6852745" lon="8.0270895"><ele>200.0</ele><time>2026-04-18T16:56:41.951Z</time></trkpt><trkpt lat="44.6853239" lon="8.0271877"><ele>200.0</ele><time>2026-04-18T16:56:42.951Z</time></trkpt><trkpt lat="44.6853724" lon="8.0273004"><ele>200.0</ele><time>2026-04-18T16:56:43.95Z</time></trkpt><trkpt lat="44.6854394" lon="8.0274121"><ele>199.25</ele><time>2026-04-18T16:56:44.951Z</time></trkpt><trkpt lat="44.6855165" lon="8.0275379"><ele>198.5</ele><time>2026-04-18T16:56:45.951Z</time></trkpt><trkpt lat="44.6855988" lon="8.0276807"><ele>197.75</ele><time>2026-04-18T16:56:46.95Z</time></trkpt><trkpt lat="44.6856867" lon="8.0278431"><ele>197.0</ele><time>2026-04-18T16:56:47.951Z</time></trkpt><trkpt lat="44.6857833" lon="8.0280234"><ele>197.0</ele><time>2026-04-18T16:56:48.951Z</time></trkpt><trkpt lat="44.6858772" lon="8.0281998"><ele>197.0</ele><time>2026-04-18T16:56:49.951Z</time></trkpt><trkpt lat="44.685974" lon="8.0283794"><ele>197.0</ele><time>2026-04-18T16:56:50.951Z</time></trkpt><trkpt lat="44.6860698" lon="8.0285628"><ele>196.66666666666669</ele><time>2026-04-18T16:56:51.95Z</time></trkpt><trkpt lat="44.686162" lon="8.028752"><ele>196.33333333333331</ele><time>2026-04-18T16:56:52.95Z</time></trkpt><trkpt lat="44.6862531" lon="8.0289357"><ele>196.0</ele><time>2026-04-18T16:56:53.951Z</time></trkpt><trkpt lat="44.6863479" lon="8.0291149"><ele>195.0</ele><time>2026-04-18T16:56:54.951Z</time></trkpt><trkpt lat="44.6864435" lon="8.0292988"><ele>194.0</ele><time>2026-04-18T16:56:55.951Z</time></trkpt><trkpt lat="44.6865384" lon="8.02948"><ele>193.0</ele><time>2026-04-18T16:56:56.95Z</time></trkpt><trkpt lat="44.6866283" lon="8.0296585"><ele>193.0</ele><time>2026-04-18T16:56:57.951Z</time></trkpt><trkpt lat="44.6867193" lon="8.02983"><ele>193.0</ele><time>2026-04-18T16:56:58.95Z</time></trkpt><trkpt lat="44.6868031" lon="8.0300009"><ele>193.0</ele><time>2026-04-18T16:56:59.95Z</time></trkpt><trkpt lat="44.6868875" lon="8.0301733"><ele>193.0</ele><time>2026-04-18T16:57:00.95Z</time></trkpt><trkpt lat="44.6869649" lon="8.0303298"><ele>193.25</ele><time>2026-04-18T16:57:01.95Z</time></trkpt><trkpt lat="44.6870439" lon="8.0304772"><ele>193.5</ele><time>2026-04-18T16:57:02.951Z</time></trkpt><trkpt lat="44.6871194" lon="8.030627"><ele>193.75</ele><time>2026-04-18T16:57:03.95Z</time></trkpt><trkpt lat="44.687194" lon="8.0307799"><ele>194.0</ele><time>2026-04-18T16:57:04.951Z</time></trkpt><trkpt lat="44.6872787" lon="8.0309319"><ele>192.75</ele><time>2026-04-18T16:57:05.951Z</time></trkpt><trkpt lat="44.687367" lon="8.0310926"><ele>191.5</ele><time>2026-04-18T16:57:06.951Z</time></trkpt><trkpt lat="44.6874541" lon="8.0312619"><ele>190.25</ele><time>2026-04-18T16:57:07.951Z</time></trkpt><trkpt lat="44.6875467" lon="8.0314348"><ele>189.0</ele><time>2026-04-18T16:57:08.95Z</time></trkpt><trkpt lat="44.6876393" lon="8.0316141"><ele>189.33333333333334</ele><time>2026-04-18T16:57:09.95Z</time></trkpt><trkpt lat="44.6877361" lon="8.0317984"><ele>189.66666666666669</ele><time>2026-04-18T16:57:10.951Z</time></trkpt><trkpt lat="44.6878267" lon="8.031991"><ele>190.0</ele><time>2026-04-18T16:57:11.951Z</time></trkpt><trkpt lat="44.6879216" lon="8.0321683"><ele>190.0</ele><time>2026-04-18T16:57:12.951Z</time></trkpt><trkpt lat="44.6880152" lon="8.0323496"><ele>190.0</ele><time>2026-04-18T16:57:13.95Z</time></trkpt><trkpt lat="44.6881036" lon="8.0325204"><ele>190.0</ele><time>2026-04-18T16:57:14.95Z</time></trkpt><trkpt lat="44.6881885" lon="8.0326851"><ele>188.75</ele><time>2026-04-18T16:57:15.951Z</time></trkpt><trkpt lat="44.6882692" lon="8.0328474"><ele>187.5</ele><time>2026-04-18T16:57:16.951Z</time></trkpt><trkpt lat="44.6883492" lon="8.0330035"><ele>186.25</ele><time>2026-04-18T16:57:17.951Z</time></trkpt><trkpt lat="44.688425" lon="8.0331547"><ele>185.0</ele><time>2026-04-18T16:57:18.951Z</time></trkpt><trkpt lat="44.6885004" lon="8.0332928"><ele>185.0</ele><time>2026-04-18T16:57:19.951Z</time></trkpt><trkpt lat="44.6885743" lon="8.0334337"><ele>185.0</ele><time>2026-04-18T16:57:20.951Z</time></trkpt><trkpt lat="44.6886404" lon="8.0335598"><ele>185.0</ele><time>2026-04-18T16:57:21.951Z</time></trkpt><trkpt lat="44.6886936" lon="8.0336708"><ele>185.0</ele><time>2026-04-18T16:57:22.95Z</time></trkpt><trkpt lat="44.6887403" lon="8.0337668"><ele>185.0</ele><time>2026-04-18T16:57:23.951Z</time></trkpt><trkpt lat="44.6887774" lon="8.033853"><ele>184.6</ele><time>2026-04-18T16:57:24.95Z</time></trkpt><trkpt lat="44.6888173" lon="8.0339773"><ele>184.2</ele><time>2026-04-18T16:57:26.951Z</time></trkpt><trkpt lat="44.688823" lon="8.034119"><ele>183.8</ele><time>2026-04-18T16:57:28.95Z</time></trkpt><trkpt lat="44.6888682" lon="8.0342217"><ele>183.4</ele><time>2026-04-18T16:57:30.95Z</time></trkpt><trkpt lat="44.6889758" lon="8.0342166"><ele>183.0</ele><time>2026-04-18T16:57:32.95Z</time></trkpt><trkpt lat="44.6890444" lon="8.0342012"><ele>182.8</ele><time>2026-04-18T16:57:33.951Z</time></trkpt><trkpt lat="44.6891113" lon="8.034188"><ele>182.60000000000002</ele><time>2026-04-18T16:57:34.95Z</time></trkpt><trkpt lat="44.6892135" lon="8.0341983"><ele>182.39999999999998</ele><time>2026-04-18T16:57:35.951Z</time></trkpt><trkpt lat="44.6893087" lon="8.0341904"><ele>182.2</ele><time>2026-04-18T16:57:36.95Z</time></trkpt><trkpt lat="44.6894389" lon="8.0341941"><ele>182.0</ele><time>2026-04-18T16:57:37.951Z</time></trkpt><trkpt lat="44.6895457" lon="8.0341921"><ele>181.83333333333331</ele><time>2026-04-18T16:57:38.951Z</time></trkpt><trkpt lat="44.6896472" lon="8.0341918"><ele>181.66666666666666</ele><time>2026-04-18T16:57:39.964Z</time></trkpt><trkpt lat="44.6897392" lon="8.034191"><ele>181.5</ele><time>2026-04-18T16:57:40.955Z</time></trkpt><trkpt lat="44.6898261" lon="8.034185"><ele>181.33333333333334</ele><time>2026-04-18T16:57:41.956Z</time></trkpt><trkpt lat="44.689906" lon="8.0341787"><ele>181.16666666666669</ele><time>2026-04-18T16:57:42.957Z</time></trkpt><trkpt lat="44.6899845" lon="8.0341797"><ele>181.0</ele><time>2026-04-18T16:57:43.953Z</time></trkpt><trkpt lat="44.6900598" lon="8.0341789"><ele>181.0</ele><time>2026-04-18T16:57:44.957Z</time></trkpt><trkpt lat="44.6901287" lon="8.0341814"><ele>181.0</ele><time>2026-04-18T16:57:45.958Z</time></trkpt><trkpt lat="44.6901997" lon="8.0341773"><ele>181.0</ele><time>2026-04-18T16:57:46.958Z</time></trkpt><trkpt lat="44.6903248" lon="8.0341811"><ele>181.0</ele><time>2026-04-18T16:57:48.957Z</time></trkpt><trkpt lat="44.6904557" lon="8.0341723"><ele>181.0</ele><time>2026-04-18T16:57:50.957Z</time></trkpt><trkpt lat="44.6905256" lon="8.0341722"><ele>180.66666666666669</ele><time>2026-04-18T16:57:51.958Z</time></trkpt><trkpt lat="44.6906034" lon="8.0341694"><ele>180.33333333333334</ele><time>2026-04-18T16:57:52.958Z</time></trkpt><trkpt lat="44.6906815" lon="8.0341674"><ele>180.0</ele><time>2026-04-18T16:57:53.957Z</time></trkpt><trkpt lat="44.6907656" lon="8.0341716"><ele>179.66666666666666</ele><time>2026-04-18T16:57:54.958Z</time></trkpt><trkpt lat="44.6908505" lon="8.0341748"><ele>179.33333333333331</ele><time>2026-04-18T16:57:55.957Z</time></trkpt><trkpt lat="44.6909428" lon="8.0341723"><ele>179.0</ele><time>2026-04-18T16:57:56.958Z</time></trkpt><trkpt lat="44.6910347" lon="8.0341705"><ele>179.0</ele><time>2026-04-18T16:57:57.958Z</time></trkpt><trkpt lat="44.691122" lon="8.0341652"><ele>179.0</ele><time>2026-04-18T16:57:58.957Z</time></trkpt><trkpt lat="44.6912108" lon="8.0341652"><ele>179.0</ele><time>2026-04-18T16:57:59.957Z</time></trkpt><trkpt lat="44.6912969" lon="8.0341618"><ele>179.0</ele><time>2026-04-18T16:58:00.957Z</time></trkpt><trkpt lat="44.6913854" lon="8.0341527"><ele>179.0</ele><time>2026-04-18T16:58:01.957Z</time></trkpt><trkpt lat="44.6914715" lon="8.0341452"><ele>179.0</ele><time>2026-04-18T16:58:02.958Z</time></trkpt><trkpt lat="44.6915528" lon="8.0341525"><ele>179.0</ele><time>2026-04-18T16:58:03.958Z</time></trkpt><trkpt lat="44.691635" lon="8.0341561"><ele>179.0</ele><time>2026-04-18T16:58:04.958Z</time></trkpt><trkpt lat="44.6917216" lon="8.0341412"><ele>179.0</ele><time>2026-04-18T16:58:05.957Z</time></trkpt><trkpt lat="44.6918077" lon="8.0341344"><ele>179.0</ele><time>2026-04-18T16:58:06.958Z</time></trkpt><trkpt lat="44.6918994" lon="8.0341277"><ele>179.0</ele><time>2026-04-18T16:58:07.957Z</time></trkpt><trkpt lat="44.6920004" lon="8.0341234"><ele>179.0</ele><time>2026-04-18T16:58:08.957Z</time></trkpt><trkpt lat="44.6920874" lon="8.0341263"><ele>179.5</ele><time>2026-04-18T16:58:09.958Z</time></trkpt><trkpt lat="44.6921932" lon="8.0341315"><ele>180.0</ele><time>2026-04-18T16:58:10.958Z</time></trkpt><trkpt lat="44.6923015" lon="8.0341251"><ele>180.5</ele><time>2026-04-18T16:58:11.957Z</time></trkpt><trkpt lat="44.6924247" lon="8.0341306"><ele>181.0</ele><time>2026-04-18T16:58:12.957Z</time></trkpt><trkpt lat="44.6925536" lon="8.0341263"><ele>181.0</ele><time>2026-04-18T16:58:13.958Z</time></trkpt><trkpt lat="44.6926878" lon="8.0341275"><ele>181.0</ele><time>2026-04-18T16:58:14.958Z</time></trkpt><trkpt lat="44.6928031" lon="8.0341266"><ele>181.0</ele><time>2026-04-18T16:58:15.958Z</time></trkpt><trkpt lat="44.6929131" lon="8.0341326"><ele>181.0</ele><time>2026-04-18T16:58:16.958Z</time></trkpt><trkpt lat="44.6930201" lon="8.0341379"><ele>180.5</ele><time>2026-04-18T16:58:17.957Z</time></trkpt><trkpt lat="44.6931179" lon="8.0341348"><ele>180.0</ele><time>2026-04-18T16:58:18.957Z</time></trkpt><trkpt lat="44.6932096" lon="8.0341437"><ele>179.5</ele><time>2026-04-18T16:58:19.958Z</time></trkpt><trkpt lat="44.6932946" lon="8.0341474"><ele>179.0</ele><time>2026-04-18T16:58:20.958Z</time></trkpt><trkpt lat="44.6933995" lon="8.0341544"><ele>178.5</ele><time>2026-04-18T16:58:22.957Z</time></trkpt><trkpt lat="44.6934559" lon="8.03421"><ele>178.0</ele><time>2026-04-18T16:58:33.957Z</time></trkpt><trkpt lat="44.6935549" lon="8.0342148"><ele>177.7142857142857</ele><time>2026-04-18T16:58:36.957Z</time></trkpt><trkpt lat="44.6936179" lon="8.0342162"><ele>177.42857142857142</ele><time>2026-04-18T16:58:37.958Z</time></trkpt><trkpt lat="44.6936849" lon="8.0342144"><ele>177.14285714285714</ele><time>2026-04-18T16:58:38.957Z</time></trkpt><trkpt lat="44.6937586" lon="8.0341887"><ele>176.85714285714283</ele><time>2026-04-18T16:58:39.957Z</time></trkpt><trkpt lat="44.6938297" lon="8.0341684"><ele>176.57142857142856</ele><time>2026-04-18T16:58:40.958Z</time></trkpt><trkpt lat="44.6938954" lon="8.0341577"><ele>176.28571428571428</ele><time>2026-04-18T16:58:41.958Z</time></trkpt><trkpt lat="44.6939621" lon="8.0341508"><ele>176.0</ele><time>2026-04-18T16:58:42.957Z</time></trkpt><trkpt lat="44.6940863" lon="8.0341797"><ele>176.0</ele><time>2026-04-18T16:58:44.957Z</time></trkpt><trkpt lat="44.6941681" lon="8.0341796"><ele>176.0</ele><time>2026-04-18T16:58:45.957Z</time></trkpt><trkpt lat="44.6942536" lon="8.0341628"><ele>176.0</ele><time>2026-04-18T16:58:46.958Z</time></trkpt><trkpt lat="44.6943491" lon="8.0341546"><ele>176.0</ele><time>2026-04-18T16:58:47.958Z</time></trkpt><trkpt lat="44.694451" lon="8.0341562"><ele>176.0</ele><time>2026-04-18T16:58:48.957Z</time></trkpt><trkpt lat="44.6945553" lon="8.0341473"><ele>175.5</ele><time>2026-04-18T16:58:49.958Z</time></trkpt><trkpt lat="44.6946632" lon="8.034144"><ele>175.0</ele><time>2026-04-18T16:58:50.958Z</time></trkpt><trkpt lat="44.6947735" lon="8.0341425"><ele>174.5</ele><time>2026-04-18T16:58:51.958Z</time></trkpt><trkpt lat="44.6948931" lon="8.0341359"><ele>174.0</ele><time>2026-04-18T16:58:52.958Z</time></trkpt><trkpt lat="44.6950127" lon="8.034132"><ele>174.0</ele><time>2026-04-18T16:58:53.958Z</time></trkpt><trkpt lat="44.6951306" lon="8.0341274"><ele>174.0</ele><time>2026-04-18T16:58:54.958Z</time></trkpt><trkpt lat="44.6952462" lon="8.0341248"><ele>174.0</ele><time>2026-04-18T16:58:55.957Z</time></trkpt><trkpt lat="44.6953573" lon="8.0341203"><ele>174.0</ele><time>2026-04-18T16:58:56.957Z</time></trkpt><trkpt lat="44.6954649" lon="8.0341217"><ele>174.16666666666666</ele><time>2026-04-18T16:58:57.958Z</time></trkpt><trkpt lat="44.6955662" lon="8.0341194"><ele>174.33333333333334</ele><time>2026-04-18T16:58:58.958Z</time></trkpt><trkpt lat="44.6956649" lon="8.0341184"><ele>174.5</ele><time>2026-04-18T16:58:59.957Z</time></trkpt><trkpt lat="44.6957508" lon="8.0341123"><ele>174.66666666666669</ele><time>2026-04-18T16:59:00.957Z</time></trkpt><trkpt lat="44.6958341" lon="8.0341171"><ele>174.83333333333334</ele><time>2026-04-18T16:59:01.957Z</time></trkpt><trkpt lat="44.6959123" lon="8.0341133"><ele>175.0</ele><time>2026-04-18T16:59:02.958Z</time></trkpt><trkpt lat="44.6959863" lon="8.0341188"><ele>175.0</ele><time>2026-04-18T16:59:03.957Z</time></trkpt><trkpt lat="44.6960558" lon="8.0341108"><ele>175.0</ele><time>2026-04-18T16:59:04.958Z</time></trkpt><trkpt lat="44.6961672" lon="8.0341146"><ele>175.0</ele><time>2026-04-18T16:59:06.958Z</time></trkpt><trkpt lat="44.6962533" lon="8.0341208"><ele>175.0</ele><time>2026-04-18T16:59:08.957Z</time></trkpt><trkpt lat="44.6963215" lon="8.0341283"><ele>175.0</ele><time>2026-04-18T16:59:12.958Z</time></trkpt><trkpt lat="44.6964134" lon="8.0341687"><ele>175.0</ele><time>2026-04-18T16:59:16.957Z</time></trkpt><trkpt lat="44.6964876" lon="8.034136"><ele>175.2</ele><time>2026-04-18T16:59:18.958Z</time></trkpt><trkpt lat="44.6965341" lon="8.0340197"><ele>175.4</ele><time>2026-04-18T16:59:20.958Z</time></trkpt><trkpt lat="44.6965932" lon="8.0338873"><ele>175.60000000000002</ele><time>2026-04-18T16:59:22.958Z</time></trkpt><trkpt lat="44.6966238" lon="8.0338068"><ele>175.8</ele><time>2026-04-18T16:59:26.957Z</time></trkpt><trkpt lat="44.69664" lon="8.0337128"><ele>176.0</ele><time>2026-04-18T16:59:30.957Z</time></trkpt><trkpt lat="44.696669" lon="8.0335323"><ele>176.0</ele><time>2026-04-18T16:59:32.957Z</time></trkpt><trkpt lat="44.6966864" lon="8.0334269"><ele>176.0</ele><time>2026-04-18T16:59:33.957Z</time></trkpt><trkpt lat="44.6966963" lon="8.0333209"><ele>176.0</ele><time>2026-04-18T16:59:34.957Z</time></trkpt><trkpt lat="44.6967091" lon="8.0332271"><ele>176.0</ele><time>2026-04-18T16:59:35.958Z</time></trkpt><trkpt lat="44.696729" lon="8.0330543"><ele>176.0</ele><time>2026-04-18T16:59:37.958Z</time></trkpt><trkpt lat="44.6967425" lon="8.0329536"><ele>176.0</ele><time>2026-04-18T16:59:38.958Z</time></trkpt><trkpt lat="44.6967455" lon="8.0328519"><ele>175.4</ele><time>2026-04-18T16:59:39.958Z</time></trkpt><trkpt lat="44.6967454" lon="8.032723"><ele>174.8</ele><time>2026-04-18T16:59:40.957Z</time></trkpt><trkpt lat="44.6967508" lon="8.0326039"><ele>174.20000000000002</ele><time>2026-04-18T16:59:41.958Z</time></trkpt><trkpt lat="44.6968025" lon="8.0324939"><ele>173.60000000000002</ele><time>2026-04-18T16:59:42.957Z</time></trkpt><trkpt lat="44.6968656" lon="8.0323877"><ele>173.0</ele><time>2026-04-18T16:59:43.957Z</time></trkpt><trkpt lat="44.6969385" lon="8.0322803"><ele>173.0</ele><time>2026-04-18T16:59:44.958Z</time></trkpt><trkpt lat="44.6970283" lon="8.0321741"><ele>173.0</ele><time>2026-04-18T16:59:45.958Z</time></trkpt><trkpt lat="44.6971123" lon="8.0320766"><ele>173.0</ele><time>2026-04-18T16:59:46.958Z</time></trkpt><trkpt lat="44.6972" lon="8.0319816"><ele>173.0</ele><time>2026-04-18T16:59:47.958Z</time></trkpt><trkpt lat="44.6972792" lon="8.031903"><ele>173.0</ele><time>2026-04-18T16:59:48.958Z</time></trkpt><trkpt lat="44.6973554" lon="8.0318225"><ele>173.0</ele><time>2026-04-18T16:59:49.957Z</time></trkpt><trkpt lat="44.6974278" lon="8.0317515"><ele>173.0</ele><time>2026-04-18T16:59:50.958Z</time></trkpt><trkpt lat="44.6974953" lon="8.0316853"><ele>173.0</ele><time>2026-04-18T16:59:51.958Z</time></trkpt><trkpt lat="44.6975693" lon="8.0316284"><ele>173.0</ele><time>2026-04-18T16:59:52.958Z</time></trkpt><trkpt lat="44.6976589" lon="8.0315658"><ele>173.0</ele><time>2026-04-18T16:59:54.958Z</time></trkpt><trkpt lat="44.6977419" lon="8.0315099"><ele>173.0</ele><time>2026-04-18T17:00:04.958Z</time></trkpt><trkpt lat="44.6978363" lon="8.0314126"><ele>173.33333333333331</ele><time>2026-04-18T17:00:06.957Z</time></trkpt><trkpt lat="44.6978921" lon="8.0313459"><ele>173.66666666666666</ele><time>2026-04-18T17:00:07.957Z</time></trkpt><trkpt lat="44.6979558" lon="8.0312843"><ele>174.0</ele><time>2026-04-18T17:00:08.957Z</time></trkpt><trkpt lat="44.698026" lon="8.0312201"><ele>174.33333333333334</ele><time>2026-04-18T17:00:09.958Z</time></trkpt><trkpt lat="44.6980957" lon="8.0311494"><ele>174.66666666666669</ele><time>2026-04-18T17:00:10.958Z</time></trkpt><trkpt lat="44.6981576" lon="8.0310805"><ele>175.0</ele><time>2026-04-18T17:00:11.957Z</time></trkpt><trkpt lat="44.6982315" lon="8.0310177"><ele>175.0</ele><time>2026-04-18T17:00:12.957Z</time></trkpt><trkpt lat="44.6983027" lon="8.0309573"><ele>175.0</ele><time>2026-04-18T17:00:13.958Z</time></trkpt><trkpt lat="44.6983681" lon="8.0309097"><ele>175.0</ele><time>2026-04-18T17:00:14.958Z</time></trkpt><trkpt lat="44.6984348" lon="8.0308554"><ele>175.0</ele><time>2026-04-18T17:00:15.958Z</time></trkpt><trkpt lat="44.698496" lon="8.0308048"><ele>175.0</ele><time>2026-04-18T17:00:16.958Z</time></trkpt><trkpt lat="44.6985541" lon="8.0307482"><ele>175.0</ele><time>2026-04-18T17:00:17.957Z</time></trkpt><trkpt lat="44.6986458" lon="8.0306805"><ele>174.5</ele><time>2026-04-18T17:00:19.958Z</time></trkpt><trkpt lat="44.6986941" lon="8.030621"><ele>174.0</ele><time>2026-04-18T17:00:22.957Z</time></trkpt><trkpt lat="44.6987528" lon="8.0305599"><ele>173.5</ele><time>2026-04-18T17:00:27.958Z</time></trkpt><trkpt lat="44.6988128" lon="8.0305045"><ele>173.0</ele><time>2026-04-18T17:00:29.958Z</time></trkpt><trkpt lat="44.698876" lon="8.0304159"><ele>172.5</ele><time>2026-04-18T17:00:32.958Z</time></trkpt><trkpt lat="44.6989395" lon="8.0303708"><ele>172.0</ele><time>2026-04-18T17:00:38.957Z</time></trkpt><trkpt lat="44.6990301" lon="8.0303325"><ele>172.0</ele><time>2026-04-18T17:00:40.957Z</time></trkpt><trkpt lat="44.6990975" lon="8.0302772"><ele>172.0</ele><time>2026-04-18T17:00:42.957Z</time></trkpt><trkpt lat="44.6991499" lon="8.0302209"><ele>172.0</ele><time>2026-04-18T17:00:44.957Z</time></trkpt><trkpt lat="44.6992484" lon="8.03016"><ele>172.0</ele><time>2026-04-18T17:00:46.958Z</time></trkpt><trkpt lat="44.6993158" lon="8.0301377"><ele>172.0</ele><time>2026-04-18T17:00:47.958Z</time></trkpt><trkpt lat="44.6993923" lon="8.0301275"><ele>172.0</ele><time>2026-04-18T17:00:48.958Z</time></trkpt><trkpt lat="44.6994736" lon="8.0301342"><ele>171.8</ele><time>2026-04-18T17:00:49.958Z</time></trkpt><trkpt lat="44.6995597" lon="8.030158"><ele>171.6</ele><time>2026-04-18T17:00:50.958Z</time></trkpt><trkpt lat="44.6996539" lon="8.0302022"><ele>171.4</ele><time>2026-04-18T17:00:51.958Z</time></trkpt><trkpt lat="44.6997513" lon="8.0302488"><ele>171.20000000000002</ele><time>2026-04-18T17:00:52.957Z</time></trkpt><trkpt lat="44.6998376" lon="8.0302932"><ele>171.0</ele><time>2026-04-18T17:00:53.957Z</time></trkpt><trkpt lat="44.6999106" lon="8.030357"><ele>171.0</ele><time>2026-04-18T17:00:54.958Z</time></trkpt><trkpt lat="44.7000099" lon="8.0304159"><ele>171.0</ele><time>2026-04-18T17:00:56.958Z</time></trkpt><trkpt lat="44.7000757" lon="8.0304495"><ele>171.0</ele><time>2026-04-18T17:00:59.957Z</time></trkpt><trkpt lat="44.7001608" lon="8.0304848"><ele>171.0</ele><time>2026-04-18T17:01:04.958Z</time></trkpt><trkpt lat="44.7002254" lon="8.0305639"><ele>171.0</ele><time>2026-04-18T17:01:07.957Z</time></trkpt><trkpt lat="44.7002963" lon="8.0306098"><ele>171.0</ele><time>2026-04-18T17:01:09.958Z</time></trkpt><trkpt lat="44.7004269" lon="8.0306436"><ele>170.8</ele><time>2026-04-18T17:01:11.958Z</time></trkpt><trkpt lat="44.7005002" lon="8.0306688"><ele>170.60000000000002</ele><time>2026-04-18T17:01:12.958Z</time></trkpt><trkpt lat="44.700585" lon="8.030719"><ele>170.4</ele><time>2026-04-18T17:01:13.958Z</time></trkpt><trkpt lat="44.7006747" lon="8.030762"><ele>170.2</ele><time>2026-04-18T17:01:14.957Z</time></trkpt><trkpt lat="44.7007656" lon="8.030814"><ele>170.0</ele><time>2026-04-18T17:01:15.958Z</time></trkpt><trkpt lat="44.7008624" lon="8.0308743"><ele>170.0</ele><time>2026-04-18T17:01:16.957Z</time></trkpt><trkpt lat="44.700953" lon="8.0309318"><ele>170.0</ele><time>2026-04-18T17:01:17.957Z</time></trkpt><trkpt lat="44.7010453" lon="8.030991"><ele>170.0</ele><time>2026-04-18T17:01:18.957Z</time></trkpt><trkpt lat="44.701133" lon="8.0310622"><ele>170.0</ele><time>2026-04-18T17:01:19.958Z</time></trkpt><trkpt lat="44.7012133" lon="8.0311257"><ele>170.0</ele><time>2026-04-18T17:01:20.958Z</time></trkpt><trkpt lat="44.7012858" lon="8.0311892"><ele>169.83333333333331</ele><time>2026-04-18T17:01:21.958Z</time></trkpt><trkpt lat="44.7013521" lon="8.0312513"><ele>169.66666666666666</ele><time>2026-04-18T17:01:22.957Z</time></trkpt><trkpt lat="44.7014093" lon="8.0313105"><ele>169.5</ele><time>2026-04-18T17:01:23.957Z</time></trkpt><trkpt lat="44.7014598" lon="8.0313657"><ele>169.33333333333334</ele><time>2026-04-18T17:01:24.958Z</time></trkpt><trkpt lat="44.7015596" lon="8.0314753"><ele>169.16666666666669</ele><time>2026-04-18T17:01:26.958Z</time></trkpt><trkpt lat="44.7016158" lon="8.0315355"><ele>169.0</ele><time>2026-04-18T17:01:27.958Z</time></trkpt><trkpt lat="44.7016724" lon="8.031593"><ele>169.16666666666669</ele><time>2026-04-18T17:01:28.957Z</time></trkpt><trkpt lat="44.7017326" lon="8.0316585"><ele>169.33333333333334</ele><time>2026-04-18T17:01:29.957Z</time></trkpt><trkpt lat="44.7017876" lon="8.0317165"><ele>169.5</ele><time>2026-04-18T17:01:30.958Z</time></trkpt><trkpt lat="44.7018388" lon="8.0317756"><ele>169.66666666666666</ele><time>2026-04-18T17:01:31.958Z</time></trkpt><trkpt lat="44.7019298" lon="8.0318803"><ele>169.83333333333331</ele><time>2026-04-18T17:01:33.958Z</time></trkpt><trkpt lat="44.7019999" lon="8.0319779"><ele>170.0</ele><time>2026-04-18T17:01:35.958Z</time></trkpt><trkpt lat="44.7020673" lon="8.0320556"><ele>170.0</ele><time>2026-04-18T17:01:37.957Z</time></trkpt><trkpt lat="44.7021307" lon="8.0321122"><ele>170.0</ele><time>2026-04-18T17:01:39.957Z</time></trkpt><trkpt lat="44.7022078" lon="8.0322063"><ele>170.0</ele><time>2026-04-18T17:01:41.958Z</time></trkpt><trkpt lat="44.7022838" lon="8.0323155"><ele>170.0</ele><time>2026-04-18T17:01:43.958Z</time></trkpt><trkpt lat="44.7023784" lon="8.0323733"><ele>170.0</ele><time>2026-04-18T17:01:45.958Z</time></trkpt><trkpt lat="44.7024719" lon="8.0323523"><ele>170.0</ele><time>2026-04-18T17:01:47.958Z</time></trkpt><trkpt lat="44.7025303" lon="8.0322689"><ele>170.0</ele><time>2026-04-18T17:01:50.957Z</time></trkpt><trkpt lat="44.7025627" lon="8.0321725"><ele>170.0</ele><time>2026-04-18T17:01:53.958Z</time></trkpt><trkpt lat="44.7025451" lon="8.0320839"><ele>170.0</ele><time>2026-04-18T17:01:57.957Z</time></trkpt><trkpt lat="44.7025529" lon="8.0319464"><ele>170.0</ele><time>2026-04-18T17:02:00.957Z</time></trkpt><trkpt lat="44.7025972" lon="8.0317984"><ele>170.0</ele><time>2026-04-18T17:02:02.957Z</time></trkpt><trkpt lat="44.7026332" lon="8.0317241"><ele>170.0</ele><time>2026-04-18T17:02:03.958Z</time></trkpt><trkpt lat="44.7026703" lon="8.0316469"><ele>170.0</ele><time>2026-04-18T17:02:04.957Z</time></trkpt><trkpt lat="44.7027106" lon="8.0315711"><ele>170.0</ele><time>2026-04-18T17:02:05.957Z</time></trkpt><trkpt lat="44.7027632" lon="8.0314694"><ele>170.0</ele><time>2026-04-18T17:02:06.958Z</time></trkpt><trkpt lat="44.7028242" lon="8.0313398"><ele>170.0</ele><time>2026-04-18T17:02:07.958Z</time></trkpt><trkpt lat="44.7028894" lon="8.0312106"><ele>170.0</ele><time>2026-04-18T17:02:08.958Z</time></trkpt><trkpt lat="44.7029501" lon="8.03109"><ele>169.6</ele><time>2026-04-18T17:02:09.957Z</time></trkpt><trkpt lat="44.7030071" lon="8.0309793"><ele>169.2</ele><time>2026-04-18T17:02:10.958Z</time></trkpt><trkpt lat="44.703066" lon="8.0308815"><ele>168.8</ele><time>2026-04-18T17:02:11.957Z</time></trkpt><trkpt lat="44.7031097" lon="8.0307885"><ele>168.4</ele><time>2026-04-18T17:02:12.957Z</time></trkpt><trkpt lat="44.703166" lon="8.0306773"><ele>168.0</ele><time>2026-04-18T17:02:13.958Z</time></trkpt><trkpt lat="44.7032235" lon="8.0305645"><ele>168.0</ele><time>2026-04-18T17:02:14.957Z</time></trkpt><trkpt lat="44.7032798" lon="8.0304584"><ele>168.0</ele><time>2026-04-18T17:02:15.957Z</time></trkpt><trkpt lat="44.7033317" lon="8.0303534"><ele>168.0</ele><time>2026-04-18T17:02:16.957Z</time></trkpt><trkpt lat="44.7033846" lon="8.030245"><ele>168.0</ele><time>2026-04-18T17:02:17.958Z</time></trkpt><trkpt lat="44.7034366" lon="8.0301393"><ele>168.0</ele><time>2026-04-18T17:02:18.957Z</time></trkpt><trkpt lat="44.7034881" lon="8.0300366"><ele>168.16666666666666</ele><time>2026-04-18T17:02:19.957Z</time></trkpt><trkpt lat="44.7035398" lon="8.029942"><ele>168.33333333333334</ele><time>2026-04-18T17:02:20.957Z</time></trkpt><trkpt lat="44.703585" lon="8.029856"><ele>168.5</ele><time>2026-04-18T17:02:21.958Z</time></trkpt><trkpt lat="44.7036297" lon="8.0297757"><ele>168.66666666666669</ele><time>2026-04-18T17:02:22.958Z</time></trkpt><trkpt lat="44.703666" lon="8.0296957"><ele>168.83333333333334</ele><time>2026-04-18T17:02:23.958Z</time></trkpt><trkpt lat="44.7037124" lon="8.0296124"><ele>169.0</ele><time>2026-04-18T17:02:24.957Z</time></trkpt><trkpt lat="44.7037527" lon="8.0295248"><ele>169.0</ele><time>2026-04-18T17:02:25.958Z</time></trkpt><trkpt lat="44.7037963" lon="8.0294312"><ele>169.0</ele><time>2026-04-18T17:02:26.957Z</time></trkpt><trkpt lat="44.7038411" lon="8.0293423"><ele>169.0</ele><time>2026-04-18T17:02:27.958Z</time></trkpt><trkpt lat="44.7038849" lon="8.0292484"><ele>169.0</ele><time>2026-04-18T17:02:28.958Z</time></trkpt><trkpt lat="44.703933" lon="8.02917"><ele>169.0</ele><time>2026-04-18T17:02:29.957Z</time></trkpt><trkpt lat="44.7039769" lon="8.0290828"><ele>169.0</ele><time>2026-04-18T17:02:30.958Z</time></trkpt><trkpt lat="44.7040236" lon="8.0289964"><ele>168.79999999999998</ele><time>2026-04-18T17:02:31.957Z</time></trkpt><trkpt lat="44.7040672" lon="8.0288996"><ele>168.6</ele><time>2026-04-18T17:02:32.957Z</time></trkpt><trkpt lat="44.7041047" lon="8.0288114"><ele>168.4</ele><time>2026-04-18T17:02:33.957Z</time></trkpt><trkpt lat="44.7041413" lon="8.0287347"><ele>168.2</ele><time>2026-04-18T17:02:34.958Z</time></trkpt><trkpt lat="44.7041983" lon="8.0285875"><ele>168.0</ele><time>2026-04-18T17:02:36.957Z</time></trkpt><trkpt lat="44.7042569" lon="8.0284233"><ele>168.0</ele><time>2026-04-18T17:02:38.957Z</time></trkpt><trkpt lat="44.7042911" lon="8.0283288"><ele>168.0</ele><time>2026-04-18T17:02:39.957Z</time></trkpt><trkpt lat="44.704334" lon="8.0282378"><ele>168.0</ele><time>2026-04-18T17:02:40.958Z</time></trkpt><trkpt lat="44.7043798" lon="8.0281608"><ele>168.0</ele><time>2026-04-18T17:02:41.957Z</time></trkpt><trkpt lat="44.7044286" lon="8.0280883"><ele>168.0</ele><time>2026-04-18T17:02:42.958Z</time></trkpt><trkpt lat="44.7044873" lon="8.0280001"><ele>168.0</ele><time>2026-04-18T17:02:43.957Z</time></trkpt><trkpt lat="44.7045506" lon="8.0278928"><ele>167.0</ele><time>2026-04-18T17:02:44.957Z</time></trkpt><trkpt lat="44.7046187" lon="8.0277823"><ele>166.0</ele><time>2026-04-18T17:02:45.958Z</time></trkpt><trkpt lat="44.7046898" lon="8.0276694"><ele>165.0</ele><time>2026-04-18T17:02:46.957Z</time></trkpt><trkpt lat="44.7047699" lon="8.0275866"><ele>164.0</ele><time>2026-04-18T17:02:47.958Z</time></trkpt><trkpt lat="44.704859" lon="8.0275384"><ele>163.0</ele><time>2026-04-18T17:02:48.958Z</time></trkpt><trkpt lat="44.7049451" lon="8.0275113"><ele>163.0</ele><time>2026-04-18T17:02:49.957Z</time></trkpt><trkpt lat="44.7050355" lon="8.0274885"><ele>163.0</ele><time>2026-04-18T17:02:50.957Z</time></trkpt><trkpt lat="44.7051277" lon="8.0274626"><ele>163.0</ele><time>2026-04-18T17:02:51.958Z</time></trkpt><trkpt lat="44.7052246" lon="8.0274382"><ele>163.0</ele><time>2026-04-18T17:02:52.958Z</time></trkpt><trkpt lat="44.7053238" lon="8.0274109"><ele>163.0</ele><time>2026-04-18T17:02:53.957Z</time></trkpt><trkpt lat="44.7054219" lon="8.0273793"><ele>162.25</ele><time>2026-04-18T17:02:54.958Z</time></trkpt><trkpt lat="44.7055307" lon="8.0273427"><ele>161.5</ele><time>2026-04-18T17:02:55.958Z</time></trkpt><trkpt lat="44.7056567" lon="8.0272944"><ele>160.75</ele><time>2026-04-18T17:02:56.958Z</time></trkpt><trkpt lat="44.7057985" lon="8.0272552"><ele>160.0</ele><time>2026-04-18T17:02:57.958Z</time></trkpt><trkpt lat="44.7059519" lon="8.0272125"><ele>161.66666666666669</ele><time>2026-04-18T17:02:58.958Z</time></trkpt><trkpt lat="44.7061149" lon="8.027172"><ele>163.33333333333334</ele><time>2026-04-18T17:02:59.957Z</time></trkpt><trkpt lat="44.7062693" lon="8.0271337"><ele>165.0</ele><time>2026-04-18T17:03:00.958Z</time></trkpt><trkpt lat="44.7064127" lon="8.0270998"><ele>165.0</ele><time>2026-04-18T17:03:01.958Z</time></trkpt><trkpt lat="44.7065442" lon="8.0270667"><ele>165.0</ele><time>2026-04-18T17:03:02.958Z</time></trkpt><trkpt lat="44.7066644" lon="8.0270358"><ele>165.0</ele><time>2026-04-18T17:03:03.957Z</time></trkpt><trkpt lat="44.7067697" lon="8.0270061"><ele>165.0</ele><time>2026-04-18T17:03:04.958Z</time></trkpt><trkpt lat="44.7068673" lon="8.0269862"><ele>165.0</ele><time>2026-04-18T17:03:05.957Z</time></trkpt><trkpt lat="44.7069588" lon="8.0269679"><ele>165.0</ele><time>2026-04-18T17:03:06.957Z</time></trkpt><trkpt lat="44.7070331" lon="8.0269527"><ele>165.0</ele><time>2026-04-18T17:03:07.958Z</time></trkpt><trkpt lat="44.7071485" lon="8.0269209"><ele>165.0</ele><time>2026-04-18T17:03:09.958Z</time></trkpt><trkpt lat="44.7072295" lon="8.0268994"><ele>165.0</ele><time>2026-04-18T17:03:11.957Z</time></trkpt><trkpt lat="44.707299" lon="8.0268786"><ele>165.0</ele><time>2026-04-18T17:03:13.958Z</time></trkpt><trkpt lat="44.7073801" lon="8.0268532"><ele>165.0</ele><time>2026-04-18T17:03:15.958Z</time></trkpt><trkpt lat="44.7074473" lon="8.0268386"><ele>165.0</ele><time>2026-04-18T17:03:17.957Z</time></trkpt><trkpt lat="44.7075377" lon="8.0268113"><ele>165.0</ele><time>2026-04-18T17:03:20.957Z</time></trkpt><trkpt lat="44.7076022" lon="8.026796"><ele>165.0</ele><time>2026-04-18T17:03:22.958Z</time></trkpt><trkpt lat="44.7076997" lon="8.0267736"><ele>165.0</ele><time>2026-04-18T17:03:24.957Z</time></trkpt><trkpt lat="44.7077967" lon="8.0267554"><ele>165.0</ele><time>2026-04-18T17:03:26.958Z</time></trkpt><trkpt lat="44.7078918" lon="8.0267233"><ele>165.0</ele><time>2026-04-18T17:03:28.958Z</time></trkpt><trkpt lat="44.7079582" lon="8.0266991"><ele>165.0</ele><time>2026-04-18T17:03:29.957Z</time></trkpt><trkpt lat="44.7080459" lon="8.0266615"><ele>165.0</ele><time>2026-04-18T17:03:30.958Z</time></trkpt><trkpt lat="44.7081331" lon="8.0266385"><ele>165.0</ele><time>2026-04-18T17:03:31.957Z</time></trkpt><trkpt lat="44.7082085" lon="8.0266197"><ele>165.0</ele><time>2026-04-18T17:03:32.957Z</time></trkpt><trkpt lat="44.7082735" lon="8.0265999"><ele>165.0</ele><time>2026-04-18T17:03:33.957Z</time></trkpt><trkpt lat="44.7083748" lon="8.0265664"><ele>165.0</ele><time>2026-04-18T17:03:35.958Z</time></trkpt><trkpt lat="44.7084638" lon="8.0265469"><ele>165.0</ele><time>2026-04-18T17:03:37.957Z</time></trkpt><trkpt lat="44.7085729" lon="8.0265182"><ele>165.0</ele><time>2026-04-18T17:03:39.957Z</time></trkpt><trkpt lat="44.7086907" lon="8.0264932"><ele>165.0</ele><time>2026-04-18T17:03:41.958Z</time></trkpt><trkpt lat="44.7088073" lon="8.0264604"><ele>165.0</ele><time>2026-04-18T17:03:43.957Z</time></trkpt><trkpt lat="44.7089287" lon="8.0264306"><ele>165.2</ele><time>2026-04-18T17:03:45.957Z</time></trkpt><trkpt lat="44.7090503" lon="8.0264381"><ele>165.4</ele><time>2026-04-18T17:03:47.957Z</time></trkpt><trkpt lat="44.7091362" lon="8.0264895"><ele>165.60000000000002</ele><time>2026-04-18T17:03:49.958Z</time></trkpt><trkpt lat="44.709213" lon="8.0265555"><ele>165.8</ele><time>2026-04-18T17:03:51.957Z</time></trkpt><trkpt lat="44.7093003" lon="8.0266525"><ele>166.0</ele><time>2026-04-18T17:03:53.958Z</time></trkpt><trkpt lat="44.7093666" lon="8.0267071"><ele>166.75</ele><time>2026-04-18T17:03:54.957Z</time></trkpt><trkpt lat="44.7094431" lon="8.0267781"><ele>167.5</ele><time>2026-04-18T17:03:55.957Z</time></trkpt><trkpt lat="44.7095359" lon="8.0268663"><ele>168.25</ele><time>2026-04-18T17:03:56.958Z</time></trkpt><trkpt lat="44.709631" lon="8.0269635"><ele>169.0</ele><time>2026-04-18T17:03:57.957Z</time></trkpt><trkpt lat="44.709741" lon="8.0270656"><ele>169.0</ele><time>2026-04-18T17:03:58.958Z</time></trkpt><trkpt lat="44.709856" lon="8.0271765"><ele>169.0</ele><time>2026-04-18T17:03:59.958Z</time></trkpt><trkpt lat="44.7099974" lon="8.0272989"><ele>169.0</ele><time>2026-04-18T17:04:00.958Z</time></trkpt><trkpt lat="44.7101336" lon="8.0274256"><ele>167.0</ele><time>2026-04-18T17:04:01.957Z</time></trkpt><trkpt lat="44.7102769" lon="8.0275558"><ele>165.0</ele><time>2026-04-18T17:04:02.958Z</time></trkpt><trkpt lat="44.7104204" lon="8.0276857"><ele>163.0</ele><time>2026-04-18T17:04:03.958Z</time></trkpt><trkpt lat="44.7105589" lon="8.0278126"><ele>163.0</ele><time>2026-04-18T17:04:04.957Z</time></trkpt><trkpt lat="44.7106866" lon="8.0279241"><ele>163.0</ele><time>2026-04-18T17:04:05.958Z</time></trkpt><trkpt lat="44.7108092" lon="8.0280359"><ele>163.0</ele><time>2026-04-18T17:04:06.957Z</time></trkpt><trkpt lat="44.7109236" lon="8.0281386"><ele>163.0</ele><time>2026-04-18T17:04:07.958Z</time></trkpt><trkpt lat="44.7110259" lon="8.0282312"><ele>163.2</ele><time>2026-04-18T17:04:08.957Z</time></trkpt><trkpt lat="44.7111166" lon="8.0283154"><ele>163.4</ele><time>2026-04-18T17:04:09.957Z</time></trkpt><trkpt lat="44.711193" lon="8.0283931"><ele>163.6</ele><time>2026-04-18T17:04:10.958Z</time></trkpt><trkpt lat="44.7112523" lon="8.0284608"><ele>163.79999999999998</ele><time>2026-04-18T17:04:11.958Z</time></trkpt><trkpt lat="44.7113068" lon="8.0285497"><ele>164.0</ele><time>2026-04-18T17:04:13.958Z</time></trkpt><trkpt lat="44.7113535" lon="8.0286655"><ele>164.0</ele><time>2026-04-18T17:04:15.957Z</time></trkpt><trkpt lat="44.7113831" lon="8.028746"><ele>164.0</ele><time>2026-04-18T17:04:16.957Z</time></trkpt><trkpt lat="44.7114275" lon="8.0288209"><ele>164.0</ele><time>2026-04-18T17:04:17.957Z</time></trkpt><trkpt lat="44.711492" lon="8.0288728"><ele>164.0</ele><time>2026-04-18T17:04:18.958Z</time></trkpt><trkpt lat="44.7115758" lon="8.0288986"><ele>164.0</ele><time>2026-04-18T17:04:19.958Z</time></trkpt><trkpt lat="44.7116717" lon="8.0289183"><ele>164.0</ele><time>2026-04-18T17:04:20.958Z</time></trkpt><trkpt lat="44.7117684" lon="8.0289671"><ele>164.0</ele><time>2026-04-18T17:04:21.958Z</time></trkpt><trkpt lat="44.7118712" lon="8.0290497"><ele>164.0</ele><time>2026-04-18T17:04:22.958Z</time></trkpt><trkpt lat="44.7119806" lon="8.029144"><ele>164.0</ele><time>2026-04-18T17:04:23.958Z</time></trkpt><trkpt lat="44.7121021" lon="8.029247"><ele>164.0</ele><time>2026-04-18T17:04:24.958Z</time></trkpt><trkpt lat="44.7122368" lon="8.0293693"><ele>164.0</ele><time>2026-04-18T17:04:25.958Z</time></trkpt><trkpt lat="44.7123914" lon="8.0295145"><ele>164.0</ele><time>2026-04-18T17:04:26.958Z</time></trkpt><trkpt lat="44.7125632" lon="8.0296743"><ele>164.0</ele><time>2026-04-18T17:04:27.958Z</time></trkpt><trkpt lat="44.7127483" lon="8.0298454"><ele>163.5</ele><time>2026-04-18T17:04:28.958Z</time></trkpt><trkpt lat="44.712937" lon="8.0300211"><ele>163.0</ele><time>2026-04-18T17:04:29.957Z</time></trkpt><trkpt lat="44.713128" lon="8.0301977"><ele>163.0</ele><time>2026-04-18T17:04:30.958Z</time></trkpt><trkpt lat="44.7133168" lon="8.0303712"><ele>163.0</ele><time>2026-04-18T17:04:31.957Z</time></trkpt><trkpt lat="44.7134946" lon="8.0305364"><ele>163.0</ele><time>2026-04-18T17:04:32.958Z</time></trkpt><trkpt lat="44.7136685" lon="8.0306966"><ele>164.0</ele><time>2026-04-18T17:04:33.957Z</time></trkpt><trkpt lat="44.7138379" lon="8.030857"><ele>165.0</ele><time>2026-04-18T17:04:34.957Z</time></trkpt><trkpt lat="44.7140085" lon="8.0310151"><ele>166.0</ele><time>2026-04-18T17:04:35.958Z</time></trkpt><trkpt lat="44.7141792" lon="8.0311723"><ele>166.0</ele><time>2026-04-18T17:04:36.958Z</time></trkpt><trkpt lat="44.7143493" lon="8.0313316"><ele>166.0</ele><time>2026-04-18T17:04:37.958Z</time></trkpt><trkpt lat="44.7145231" lon="8.0314861"><ele>166.0</ele><time>2026-04-18T17:04:38.958Z</time></trkpt><trkpt lat="44.7146957" lon="8.031653"><ele>166.33333333333334</ele><time>2026-04-18T17:04:39.958Z</time></trkpt><trkpt lat="44.7148681" lon="8.0318155"><ele>166.66666666666666</ele><time>2026-04-18T17:04:40.958Z</time></trkpt><trkpt lat="44.715042" lon="8.0319753"><ele>167.0</ele><time>2026-04-18T17:04:41.958Z</time></trkpt><trkpt lat="44.7152176" lon="8.0321323"><ele>166.33333333333331</ele><time>2026-04-18T17:04:42.958Z</time></trkpt><trkpt lat="44.7153931" lon="8.0322943"><ele>165.66666666666666</ele><time>2026-04-18T17:04:43.957Z</time></trkpt><trkpt lat="44.7155686" lon="8.032457"><ele>165.0</ele><time>2026-04-18T17:04:44.958Z</time></trkpt><trkpt lat="44.7157442" lon="8.0326223"><ele>164.66666666666666</ele><time>2026-04-18T17:04:45.957Z</time></trkpt><trkpt lat="44.7159218" lon="8.0327846"><ele>164.33333333333331</ele><time>2026-04-18T17:04:46.957Z</time></trkpt><trkpt lat="44.7160977" lon="8.0329471"><ele>164.0</ele><time>2026-04-18T17:04:47.958Z</time></trkpt><trkpt lat="44.7162746" lon="8.0331097"><ele>164.33333333333331</ele><time>2026-04-18T17:04:48.958Z</time></trkpt><trkpt lat="44.716451" lon="8.0332736"><ele>164.66666666666666</ele><time>2026-04-18T17:04:49.958Z</time></trkpt><trkpt lat="44.7166232" lon="8.0334375"><ele>165.0</ele><time>2026-04-18T17:04:50.958Z</time></trkpt><trkpt lat="44.7167983" lon="8.033598"><ele>166.0</ele><time>2026-04-18T17:04:51.958Z</time></trkpt><trkpt lat="44.7169691" lon="8.0337621"><ele>167.0</ele><time>2026-04-18T17:04:52.958Z</time></trkpt><trkpt lat="44.7171368" lon="8.0339162"><ele>168.0</ele><time>2026-04-18T17:04:53.958Z</time></trkpt><trkpt lat="44.7172941" lon="8.0340643"><ele>167.0</ele><time>2026-04-18T17:04:54.957Z</time></trkpt><trkpt lat="44.7174445" lon="8.0342059"><ele>166.0</ele><time>2026-04-18T17:04:55.957Z</time></trkpt><trkpt lat="44.7175866" lon="8.034338"><ele>165.0</ele><time>2026-04-18T17:04:56.957Z</time></trkpt><trkpt lat="44.7177149" lon="8.0344563"><ele>165.0</ele><time>2026-04-18T17:04:57.958Z</time></trkpt><trkpt lat="44.7178294" lon="8.0345621"><ele>165.0</ele><time>2026-04-18T17:04:58.958Z</time></trkpt><trkpt lat="44.71793" lon="8.0346578"><ele>165.0</ele><time>2026-04-18T17:04:59.958Z</time></trkpt><trkpt lat="44.7180128" lon="8.0347426"><ele>165.0</ele><time>2026-04-18T17:05:00.958Z</time></trkpt><trkpt lat="44.7180859" lon="8.034825"><ele>165.0</ele><time>2026-04-18T17:05:01.958Z</time></trkpt><trkpt lat="44.7181386" lon="8.0349209"><ele>165.0</ele><time>2026-04-18T17:05:02.957Z</time></trkpt><trkpt lat="44.7181658" lon="8.0350276"><ele>165.0</ele><time>2026-04-18T17:05:03.958Z</time></trkpt><trkpt lat="44.7181795" lon="8.0351341"><ele>165.0</ele><time>2026-04-18T17:05:04.957Z</time></trkpt><trkpt lat="44.7181678" lon="8.0352386"><ele>165.0</ele><time>2026-04-18T17:05:05.958Z</time></trkpt><trkpt lat="44.7181275" lon="8.0353231"><ele>165.0</ele><time>2026-04-18T17:05:06.957Z</time></trkpt><trkpt lat="44.718068" lon="8.0353665"><ele>165.00000000000003</ele><time>2026-04-18T17:05:07.958Z</time></trkpt><trkpt lat="44.7180045" lon="8.0353789"><ele>165.0</ele><time>2026-04-18T17:05:08.957Z</time></trkpt><trkpt lat="44.717948" lon="8.0353016"><ele>165.0</ele><time>2026-04-18T17:05:09.958Z</time></trkpt><trkpt lat="44.717906" lon="8.0352175"><ele>165.0</ele><time>2026-04-18T17:05:10.957Z</time></trkpt><trkpt lat="44.7178743" lon="8.035112"><ele>165.0</ele><time>2026-04-18T17:05:11.958Z</time></trkpt><trkpt lat="44.7178442" lon="8.0350116"><ele>165.00000000000003</ele><time>2026-04-18T17:05:12.957Z</time></trkpt><trkpt lat="44.7178233" lon="8.0349218"><ele>165.0</ele><time>2026-04-18T17:05:13.958Z</time></trkpt><trkpt lat="44.7177874" lon="8.0348056"><ele>165.0</ele><time>2026-04-18T17:05:15.958Z</time></trkpt><trkpt lat="44.717723" lon="8.0347444"><ele>165.0</ele><time>2026-04-18T17:05:17.957Z</time></trkpt><trkpt lat="44.717648" lon="8.0347616"><ele>165.0</ele><time>2026-04-18T17:05:19.958Z</time></trkpt><trkpt lat="44.717572" lon="8.0348151"><ele>165.0</ele><time>2026-04-18T17:05:21.958Z</time></trkpt><trkpt lat="44.7174798" lon="8.0348527"><ele>165.0</ele><time>2026-04-18T17:05:23.958Z</time></trkpt><trkpt lat="44.7173903" lon="8.034899"><ele>165.0</ele><time>2026-04-18T17:05:25.958Z</time></trkpt><trkpt lat="44.7173152" lon="8.0349435"><ele>164.57142857142858</ele><time>2026-04-18T17:05:27.958Z</time></trkpt><trkpt lat="44.7172664" lon="8.0350323"><ele>164.14285714285714</ele><time>2026-04-18T17:05:30.958Z</time></trkpt><trkpt lat="44.717287" lon="8.0351239"><ele>163.71428571428572</ele><time>2026-04-18T17:09:51.937Z</time></trkpt><trkpt lat="44.7172255" lon="8.0351579"><ele>163.28571428571428</ele><time>2026-04-18T17:09:54.946Z</time></trkpt><trkpt lat="44.7171799" lon="8.0352564"><ele>162.85714285714286</ele><time>2026-04-18T17:10:00.985Z</time></trkpt><trkpt lat="44.7172215" lon="8.0353343"><ele>162.42857142857144</ele><time>2026-04-18T17:10:17.966Z</time></trkpt><trkpt lat="44.7172909" lon="8.0353431"><ele>162.0</ele><time>2026-04-18T17:10:22.939Z</time></trkpt><trkpt lat="44.7173578" lon="8.0353165"><ele>162.0</ele><time>2026-04-18T17:10:27.912Z</time></trkpt><trkpt lat="44.7174222" lon="8.0353101"><ele>162.0</ele><time>2026-04-18T17:10:33.949Z</time></trkpt><trkpt lat="44.7174619" lon="8.0353805"><ele>162.0</ele><time>2026-04-18T17:10:45.909Z</time></trkpt></trkseg><trkseg><trkpt lat="44.7458411" lon="8.0629438"><ele>153.0</ele><time>2026-04-25T13:01:23.432Z</time></trkpt><trkpt lat="44.7460005" lon="8.0625842"><ele>153.0</ele><time>2026-04-25T13:01:24.433Z</time></trkpt></trkseg></trk></gpx>